<?xml version="1.0" encoding="UTF-8" standalone="no" ?>
<gpx xmlns="http://www.topografix.com/GPX/1/1" xmlns:xsi="http://www.w3.org/2001/XMLSchema-instance" xsi:schemaLocation="http://www.topografix.com/GPX/1/1 http://www.topografix.com/GPX/1/1/gpx.xsd" version="1.1" creator="VisuGPX - https://www.visugpx.com">
  <metadata>
    <name>Les bords de l'Yerres et Sénart Boucle 23 km</name>
    <desc><![CDATA[Sortie effectuée en Avril avec le Rando Club Yerrois
Tracée et menée par Jean Louis

Parcours ravissant à cette époque de l'année - Sénart un peu boueuse en revanche

relive [url]https://youtu.be/5huBHqfS2wM[/url]]]></desc>
  </metadata>
  <trk>
    <name><![CDATA[Les bords de l'Yerres et Sénart Boucle 23 km_1]]></name>
    <trkseg>
      <trkpt lat="48.71477" lon="2.47899">
        <ele>37.8</ele>
        <time>2018-04-18T07:00:54Z</time>
      </trkpt>
      <trkpt lat="48.71477" lon="2.47899">
        <ele>109.459</ele>
        <time>2018-04-18T07:00:57Z</time>
      </trkpt>
      <trkpt lat="48.71477" lon="2.47908">
        <ele>94.7256</ele>
        <time>2018-04-18T07:01:26Z</time>
      </trkpt>
      <trkpt lat="48.7148" lon="2.47914">
        <ele>94.7919</ele>
        <time>2018-04-18T07:01:34Z</time>
      </trkpt>
      <trkpt lat="48.71485" lon="2.47912">
        <ele>94.7674</ele>
        <time>2018-04-18T07:01:41Z</time>
      </trkpt>
      <trkpt lat="48.71493" lon="2.47913">
        <ele>94.7255</ele>
        <time>2018-04-18T07:01:49Z</time>
      </trkpt>
      <trkpt lat="48.71498" lon="2.47914">
        <ele>94.581</ele>
        <time>2018-04-18T07:01:54Z</time>
      </trkpt>
      <trkpt lat="48.71503" lon="2.47914">
        <ele>94.359</ele>
        <time>2018-04-18T07:01:59Z</time>
      </trkpt>
      <trkpt lat="48.71507" lon="2.47913">
        <ele>94.1973</ele>
        <time>2018-04-18T07:02:02Z</time>
      </trkpt>
      <trkpt lat="48.7151" lon="2.47913">
        <ele>94.0998</ele>
        <time>2018-04-18T07:02:04Z</time>
      </trkpt>
      <trkpt lat="48.71514" lon="2.47911">
        <ele>93.9314</ele>
        <time>2018-04-18T07:02:08Z</time>
      </trkpt>
      <trkpt lat="48.71519" lon="2.47911">
        <ele>93.7408</ele>
        <time>2018-04-18T07:02:13Z</time>
      </trkpt>
      <trkpt lat="48.71523" lon="2.4791">
        <ele>93.6749</ele>
        <time>2018-04-18T07:02:16Z</time>
      </trkpt>
      <trkpt lat="48.71523" lon="2.4791">
        <ele>93.6749</ele>
        <time>2018-04-18T07:02:24Z</time>
      </trkpt>
      <trkpt lat="48.71523" lon="2.4791">
        <ele>93.6749</ele>
        <time>2018-04-18T07:02:25Z</time>
      </trkpt>
      <trkpt lat="48.71531" lon="2.47916">
        <ele>94.1387</ele>
        <time>2018-04-18T07:02:29Z</time>
      </trkpt>
      <trkpt lat="48.71532" lon="2.47928">
        <ele>94.831</ele>
        <time>2018-04-18T07:02:38Z</time>
      </trkpt>
      <trkpt lat="48.71534" lon="2.47935">
        <ele>95.0499</ele>
        <time>2018-04-18T07:02:41Z</time>
      </trkpt>
      <trkpt lat="48.71538" lon="2.47945">
        <ele>95.2562</ele>
        <time>2018-04-18T07:02:44Z</time>
      </trkpt>
      <trkpt lat="48.71541" lon="2.47951">
        <ele>95.5589</ele>
        <time>2018-04-18T07:02:49Z</time>
      </trkpt>
      <trkpt lat="48.71545" lon="2.47955">
        <ele>95.927</ele>
        <time>2018-04-18T07:02:55Z</time>
      </trkpt>
      <trkpt lat="48.71548" lon="2.47961">
        <ele>96.137</ele>
        <time>2018-04-18T07:02:59Z</time>
      </trkpt>
      <trkpt lat="48.7155" lon="2.47966">
        <ele>96.3129</ele>
        <time>2018-04-18T07:03:03Z</time>
      </trkpt>
      <trkpt lat="48.7155" lon="2.47973">
        <ele>96.4541</ele>
        <time>2018-04-18T07:03:07Z</time>
      </trkpt>
      <trkpt lat="48.71551" lon="2.47977">
        <ele>96.4842</ele>
        <time>2018-04-18T07:03:08Z</time>
      </trkpt>
      <trkpt lat="48.71551" lon="2.47981">
        <ele>96.5126</ele>
        <time>2018-04-18T07:03:09Z</time>
      </trkpt>
      <trkpt lat="48.71552" lon="2.47989">
        <ele>96.5947</ele>
        <time>2018-04-18T07:03:12Z</time>
      </trkpt>
      <trkpt lat="48.71554" lon="2.47996">
        <ele>96.6762</ele>
        <time>2018-04-18T07:03:15Z</time>
      </trkpt>
      <trkpt lat="48.71555" lon="2.47999">
        <ele>96.728</ele>
        <time>2018-04-18T07:03:17Z</time>
      </trkpt>
      <trkpt lat="48.71559" lon="2.48005">
        <ele>96.8266</ele>
        <time>2018-04-18T07:03:21Z</time>
      </trkpt>
      <trkpt lat="48.71561" lon="2.48009">
        <ele>96.8777</ele>
        <time>2018-04-18T07:03:23Z</time>
      </trkpt>
      <trkpt lat="48.71563" lon="2.48015">
        <ele>96.941</ele>
        <time>2018-04-18T07:03:26Z</time>
      </trkpt>
      <trkpt lat="48.71567" lon="2.48021">
        <ele>96.9884</ele>
        <time>2018-04-18T07:03:29Z</time>
      </trkpt>
      <trkpt lat="48.71569" lon="2.48028">
        <ele>97.0091</ele>
        <time>2018-04-18T07:03:33Z</time>
      </trkpt>
      <trkpt lat="48.7157" lon="2.48032">
        <ele>97.007</ele>
        <time>2018-04-18T07:03:36Z</time>
      </trkpt>
      <trkpt lat="48.71571" lon="2.48038">
        <ele>96.9938</ele>
        <time>2018-04-18T07:03:40Z</time>
      </trkpt>
      <trkpt lat="48.71574" lon="2.48043">
        <ele>96.9664</ele>
        <time>2018-04-18T07:03:44Z</time>
      </trkpt>
      <trkpt lat="48.71574" lon="2.48051">
        <ele>96.9102</ele>
        <time>2018-04-18T07:03:50Z</time>
      </trkpt>
      <trkpt lat="48.71573" lon="2.48057">
        <ele>96.8949</ele>
        <time>2018-04-18T07:03:54Z</time>
      </trkpt>
      <trkpt lat="48.71573" lon="2.48063">
        <ele>96.8868</ele>
        <time>2018-04-18T07:03:57Z</time>
      </trkpt>
      <trkpt lat="48.71572" lon="2.48071">
        <ele>96.8806</ele>
        <time>2018-04-18T07:04:00Z</time>
      </trkpt>
      <trkpt lat="48.71572" lon="2.48078">
        <ele>96.8592</ele>
        <time>2018-04-18T07:04:04Z</time>
      </trkpt>
      <trkpt lat="48.71571" lon="2.48082">
        <ele>96.8417</ele>
        <time>2018-04-18T07:04:06Z</time>
      </trkpt>
      <trkpt lat="48.71573" lon="2.48089">
        <ele>96.7806</ele>
        <time>2018-04-18T07:04:11Z</time>
      </trkpt>
      <trkpt lat="48.71573" lon="2.48097">
        <ele>96.7198</ele>
        <time>2018-04-18T07:04:15Z</time>
      </trkpt>
      <trkpt lat="48.71574" lon="2.48104">
        <ele>96.647</ele>
        <time>2018-04-18T07:04:20Z</time>
      </trkpt>
      <trkpt lat="48.71575" lon="2.48108">
        <ele>96.6203</ele>
        <time>2018-04-18T07:04:22Z</time>
      </trkpt>
      <trkpt lat="48.71576" lon="2.48115">
        <ele>96.5693</ele>
        <time>2018-04-18T07:04:26Z</time>
      </trkpt>
      <trkpt lat="48.71579" lon="2.48121">
        <ele>96.5316</ele>
        <time>2018-04-18T07:04:30Z</time>
      </trkpt>
      <trkpt lat="48.7158" lon="2.48128">
        <ele>96.5039</ele>
        <time>2018-04-18T07:04:33Z</time>
      </trkpt>
      <trkpt lat="48.71581" lon="2.48135">
        <ele>96.4543</ele>
        <time>2018-04-18T07:04:37Z</time>
      </trkpt>
      <trkpt lat="48.71583" lon="2.48142">
        <ele>96.4141</ele>
        <time>2018-04-18T07:04:40Z</time>
      </trkpt>
      <trkpt lat="48.71583" lon="2.4815">
        <ele>96.3744</ele>
        <time>2018-04-18T07:04:43Z</time>
      </trkpt>
      <trkpt lat="48.71583" lon="2.48153">
        <ele>96.345</ele>
        <time>2018-04-18T07:04:45Z</time>
      </trkpt>
      <trkpt lat="48.71581" lon="2.48161">
        <ele>96.2865</ele>
        <time>2018-04-18T07:04:49Z</time>
      </trkpt>
      <trkpt lat="48.7158" lon="2.48166">
        <ele>96.2386</ele>
        <time>2018-04-18T07:04:52Z</time>
      </trkpt>
      <trkpt lat="48.7158" lon="2.48176">
        <ele>96.1515</ele>
        <time>2018-04-18T07:04:57Z</time>
      </trkpt>
      <trkpt lat="48.71581" lon="2.48181">
        <ele>96.1188</ele>
        <time>2018-04-18T07:04:59Z</time>
      </trkpt>
      <trkpt lat="48.71582" lon="2.48185">
        <ele>96.0744</ele>
        <time>2018-04-18T07:05:02Z</time>
      </trkpt>
      <trkpt lat="48.71582" lon="2.48193">
        <ele>96.0136</ele>
        <time>2018-04-18T07:05:07Z</time>
      </trkpt>
      <trkpt lat="48.71582" lon="2.48197">
        <ele>95.9925</ele>
        <time>2018-04-18T07:05:09Z</time>
      </trkpt>
      <trkpt lat="48.7158" lon="2.48205">
        <ele>95.9659</ele>
        <time>2018-04-18T07:05:13Z</time>
      </trkpt>
      <trkpt lat="48.71579" lon="2.48212">
        <ele>95.9564</ele>
        <time>2018-04-18T07:05:17Z</time>
      </trkpt>
      <trkpt lat="48.71579" lon="2.48216">
        <ele>95.9541</ele>
        <time>2018-04-18T07:05:19Z</time>
      </trkpt>
      <trkpt lat="48.71577" lon="2.48223">
        <ele>95.9551</ele>
        <time>2018-04-18T07:05:23Z</time>
      </trkpt>
      <trkpt lat="48.71576" lon="2.48231">
        <ele>95.9705</ele>
        <time>2018-04-18T07:05:28Z</time>
      </trkpt>
      <trkpt lat="48.71576" lon="2.48238">
        <ele>95.9743</ele>
        <time>2018-04-18T07:05:32Z</time>
      </trkpt>
      <trkpt lat="48.71576" lon="2.48247">
        <ele>95.978</ele>
        <time>2018-04-18T07:05:36Z</time>
      </trkpt>
      <trkpt lat="48.71577" lon="2.48251">
        <ele>95.9789</ele>
        <time>2018-04-18T07:05:38Z</time>
      </trkpt>
      <trkpt lat="48.71577" lon="2.48255">
        <ele>95.98</ele>
        <time>2018-04-18T07:05:40Z</time>
      </trkpt>
      <trkpt lat="48.71579" lon="2.48263">
        <ele>95.9801</ele>
        <time>2018-04-18T07:05:43Z</time>
      </trkpt>
      <trkpt lat="48.7158" lon="2.4827">
        <ele>95.9708</ele>
        <time>2018-04-18T07:05:47Z</time>
      </trkpt>
      <trkpt lat="48.71578" lon="2.48277">
        <ele>95.9699</ele>
        <time>2018-04-18T07:05:53Z</time>
      </trkpt>
      <trkpt lat="48.7158" lon="2.48284">
        <ele>95.9856</ele>
        <time>2018-04-18T07:05:58Z</time>
      </trkpt>
      <trkpt lat="48.71583" lon="2.48291">
        <ele>95.9966</ele>
        <time>2018-04-18T07:06:01Z</time>
      </trkpt>
      <trkpt lat="48.71584" lon="2.48299">
        <ele>96.0078</ele>
        <time>2018-04-18T07:06:04Z</time>
      </trkpt>
      <trkpt lat="48.71584" lon="2.48306">
        <ele>96.0174</ele>
        <time>2018-04-18T07:06:08Z</time>
      </trkpt>
      <trkpt lat="48.71584" lon="2.48313">
        <ele>96.0126</ele>
        <time>2018-04-18T07:06:11Z</time>
      </trkpt>
      <trkpt lat="48.71583" lon="2.48317">
        <ele>96.0029</ele>
        <time>2018-04-18T07:06:13Z</time>
      </trkpt>
      <trkpt lat="48.7158" lon="2.48324">
        <ele>95.9638</ele>
        <time>2018-04-18T07:06:18Z</time>
      </trkpt>
      <trkpt lat="48.71575" lon="2.48328">
        <ele>95.9188</ele>
        <time>2018-04-18T07:06:22Z</time>
      </trkpt>
      <trkpt lat="48.71571" lon="2.48332">
        <ele>95.8816</ele>
        <time>2018-04-18T07:06:25Z</time>
      </trkpt>
      <trkpt lat="48.71567" lon="2.48335">
        <ele>95.8401</ele>
        <time>2018-04-18T07:06:28Z</time>
      </trkpt>
      <trkpt lat="48.71567" lon="2.48344">
        <ele>95.7942</ele>
        <time>2018-04-18T07:06:31Z</time>
      </trkpt>
      <trkpt lat="48.71567" lon="2.48352">
        <ele>95.715</ele>
        <time>2018-04-18T07:06:36Z</time>
      </trkpt>
      <trkpt lat="48.71566" lon="2.48359">
        <ele>95.6574</ele>
        <time>2018-04-18T07:06:40Z</time>
      </trkpt>
      <trkpt lat="48.71563" lon="2.48366">
        <ele>95.6187</ele>
        <time>2018-04-18T07:06:43Z</time>
      </trkpt>
      <trkpt lat="48.7156" lon="2.48373">
        <ele>95.5692</ele>
        <time>2018-04-18T07:06:47Z</time>
      </trkpt>
      <trkpt lat="48.71557" lon="2.48379">
        <ele>95.5041</ele>
        <time>2018-04-18T07:06:52Z</time>
      </trkpt>
      <trkpt lat="48.71557" lon="2.48387">
        <ele>95.4686</ele>
        <time>2018-04-18T07:06:55Z</time>
      </trkpt>
      <trkpt lat="48.71556" lon="2.48394">
        <ele>95.4413</ele>
        <time>2018-04-18T07:06:58Z</time>
      </trkpt>
      <trkpt lat="48.71554" lon="2.484">
        <ele>95.4193</ele>
        <time>2018-04-18T07:07:02Z</time>
      </trkpt>
      <trkpt lat="48.71554" lon="2.48408">
        <ele>95.414</ele>
        <time>2018-04-18T07:07:06Z</time>
      </trkpt>
      <trkpt lat="48.7155" lon="2.48412">
        <ele>95.4246</ele>
        <time>2018-04-18T07:07:12Z</time>
      </trkpt>
      <trkpt lat="48.71545" lon="2.48416">
        <ele>95.4349</ele>
        <time>2018-04-18T07:07:18Z</time>
      </trkpt>
      <trkpt lat="48.71543" lon="2.48419">
        <ele>95.4358</ele>
        <time>2018-04-18T07:07:20Z</time>
      </trkpt>
      <trkpt lat="48.71538" lon="2.48423">
        <ele>95.44</ele>
        <time>2018-04-18T07:07:25Z</time>
      </trkpt>
      <trkpt lat="48.71533" lon="2.48425">
        <ele>95.4477</ele>
        <time>2018-04-18T07:07:28Z</time>
      </trkpt>
      <trkpt lat="48.71529" lon="2.48428">
        <ele>95.4569</ele>
        <time>2018-04-18T07:07:31Z</time>
      </trkpt>
      <trkpt lat="48.71524" lon="2.48427">
        <ele>95.4737</ele>
        <time>2018-04-18T07:07:35Z</time>
      </trkpt>
      <trkpt lat="48.71519" lon="2.48428">
        <ele>95.4898</ele>
        <time>2018-04-18T07:07:39Z</time>
      </trkpt>
      <trkpt lat="48.71514" lon="2.48427">
        <ele>95.5063</ele>
        <time>2018-04-18T07:07:44Z</time>
      </trkpt>
      <trkpt lat="48.71509" lon="2.48427">
        <ele>95.5267</ele>
        <time>2018-04-18T07:07:49Z</time>
      </trkpt>
      <trkpt lat="48.71506" lon="2.48427">
        <ele>95.5322</ele>
        <time>2018-04-18T07:07:50Z</time>
      </trkpt>
      <trkpt lat="48.71502" lon="2.48432">
        <ele>95.5488</ele>
        <time>2018-04-18T07:07:53Z</time>
      </trkpt>
      <trkpt lat="48.71501" lon="2.48441">
        <ele>95.5646</ele>
        <time>2018-04-18T07:07:57Z</time>
      </trkpt>
      <trkpt lat="48.71502" lon="2.48452">
        <ele>95.5566</ele>
        <time>2018-04-18T07:08:00Z</time>
      </trkpt>
      <trkpt lat="48.71505" lon="2.48458">
        <ele>95.5272</ele>
        <time>2018-04-18T07:08:03Z</time>
      </trkpt>
      <trkpt lat="48.71506" lon="2.48465">
        <ele>95.4334</ele>
        <time>2018-04-18T07:08:09Z</time>
      </trkpt>
      <trkpt lat="48.71508" lon="2.48472">
        <ele>95.3719</ele>
        <time>2018-04-18T07:08:12Z</time>
      </trkpt>
      <trkpt lat="48.71511" lon="2.48477">
        <ele>95.3009</ele>
        <time>2018-04-18T07:08:15Z</time>
      </trkpt>
      <trkpt lat="48.71516" lon="2.48482">
        <ele>95.1978</ele>
        <time>2018-04-18T07:08:19Z</time>
      </trkpt>
      <trkpt lat="48.71518" lon="2.48485">
        <ele>95.0902</ele>
        <time>2018-04-18T07:08:23Z</time>
      </trkpt>
      <trkpt lat="48.71521" lon="2.48487">
        <ele>94.9592</ele>
        <time>2018-04-18T07:08:28Z</time>
      </trkpt>
      <trkpt lat="48.71524" lon="2.48493">
        <ele>94.8073</ele>
        <time>2018-04-18T07:08:34Z</time>
      </trkpt>
      <trkpt lat="48.71526" lon="2.485">
        <ele>94.6697</ele>
        <time>2018-04-18T07:08:40Z</time>
      </trkpt>
      <trkpt lat="48.71527" lon="2.48505">
        <ele>94.6094</ele>
        <time>2018-04-18T07:08:43Z</time>
      </trkpt>
      <trkpt lat="48.71528" lon="2.48513">
        <ele>94.5362</ele>
        <time>2018-04-18T07:08:47Z</time>
      </trkpt>
      <trkpt lat="48.71528" lon="2.48521">
        <ele>94.4611</ele>
        <time>2018-04-18T07:08:51Z</time>
      </trkpt>
      <trkpt lat="48.71529" lon="2.4853">
        <ele>94.3603</ele>
        <time>2018-04-18T07:08:56Z</time>
      </trkpt>
      <trkpt lat="48.71529" lon="2.48535">
        <ele>94.2944</ele>
        <time>2018-04-18T07:08:59Z</time>
      </trkpt>
      <trkpt lat="48.71527" lon="2.48543">
        <ele>94.1486</ele>
        <time>2018-04-18T07:09:05Z</time>
      </trkpt>
      <trkpt lat="48.71525" lon="2.4855">
        <ele>94.0435</ele>
        <time>2018-04-18T07:09:09Z</time>
      </trkpt>
      <trkpt lat="48.71523" lon="2.48554">
        <ele>93.9612</ele>
        <time>2018-04-18T07:09:12Z</time>
      </trkpt>
      <trkpt lat="48.71521" lon="2.4856">
        <ele>93.8191</ele>
        <time>2018-04-18T07:09:17Z</time>
      </trkpt>
      <trkpt lat="48.71519" lon="2.48567">
        <ele>93.7354</ele>
        <time>2018-04-18T07:09:20Z</time>
      </trkpt>
      <trkpt lat="48.71519" lon="2.48574">
        <ele>93.597</ele>
        <time>2018-04-18T07:09:25Z</time>
      </trkpt>
      <trkpt lat="48.71518" lon="2.48578">
        <ele>93.5169</ele>
        <time>2018-04-18T07:09:28Z</time>
      </trkpt>
      <trkpt lat="48.71516" lon="2.48585">
        <ele>93.3923</ele>
        <time>2018-04-18T07:09:33Z</time>
      </trkpt>
      <trkpt lat="48.71512" lon="2.48593">
        <ele>93.3239</ele>
        <time>2018-04-18T07:09:36Z</time>
      </trkpt>
      <trkpt lat="48.7151" lon="2.48596">
        <ele>93.3021</ele>
        <time>2018-04-18T07:09:37Z</time>
      </trkpt>
      <trkpt lat="48.71509" lon="2.48599">
        <ele>93.2807</ele>
        <time>2018-04-18T07:09:38Z</time>
      </trkpt>
      <trkpt lat="48.71508" lon="2.48602">
        <ele>93.2597</ele>
        <time>2018-04-18T07:09:39Z</time>
      </trkpt>
      <trkpt lat="48.71506" lon="2.48605">
        <ele>93.2191</ele>
        <time>2018-04-18T07:09:41Z</time>
      </trkpt>
      <trkpt lat="48.71503" lon="2.48611">
        <ele>93.1427</ele>
        <time>2018-04-18T07:09:45Z</time>
      </trkpt>
      <trkpt lat="48.71501" lon="2.48618">
        <ele>93.0543</ele>
        <time>2018-04-18T07:09:50Z</time>
      </trkpt>
      <trkpt lat="48.71499" lon="2.48626">
        <ele>92.9876</ele>
        <time>2018-04-18T07:09:54Z</time>
      </trkpt>
      <trkpt lat="48.71498" lon="2.4863">
        <ele>92.9565</ele>
        <time>2018-04-18T07:09:56Z</time>
      </trkpt>
      <trkpt lat="48.71498" lon="2.48638">
        <ele>92.9007</ele>
        <time>2018-04-18T07:10:00Z</time>
      </trkpt>
      <trkpt lat="48.71497" lon="2.48645">
        <ele>92.8547</ele>
        <time>2018-04-18T07:10:04Z</time>
      </trkpt>
      <trkpt lat="48.71497" lon="2.48653">
        <ele>92.8035</ele>
        <time>2018-04-18T07:10:10Z</time>
      </trkpt>
      <trkpt lat="48.71496" lon="2.48657">
        <ele>92.7865</ele>
        <time>2018-04-18T07:10:13Z</time>
      </trkpt>
      <trkpt lat="48.71496" lon="2.48661">
        <ele>92.7771</ele>
        <time>2018-04-18T07:10:15Z</time>
      </trkpt>
      <trkpt lat="48.71495" lon="2.48669">
        <ele>92.7607</ele>
        <time>2018-04-18T07:10:19Z</time>
      </trkpt>
      <trkpt lat="48.71494" lon="2.48673">
        <ele>92.75</ele>
        <time>2018-04-18T07:10:22Z</time>
      </trkpt>
      <trkpt lat="48.71493" lon="2.48681">
        <ele>92.747</ele>
        <time>2018-04-18T07:10:29Z</time>
      </trkpt>
      <trkpt lat="48.7149" lon="2.48688">
        <ele>92.7612</ele>
        <time>2018-04-18T07:10:33Z</time>
      </trkpt>
      <trkpt lat="48.71489" lon="2.48696">
        <ele>92.7748</ele>
        <time>2018-04-18T07:10:37Z</time>
      </trkpt>
      <trkpt lat="48.71489" lon="2.48701">
        <ele>92.7834</ele>
        <time>2018-04-18T07:10:39Z</time>
      </trkpt>
      <trkpt lat="48.71488" lon="2.48705">
        <ele>92.7952</ele>
        <time>2018-04-18T07:10:41Z</time>
      </trkpt>
      <trkpt lat="48.71485" lon="2.48714">
        <ele>92.8306</ele>
        <time>2018-04-18T07:10:46Z</time>
      </trkpt>
      <trkpt lat="48.71481" lon="2.48718">
        <ele>92.8549</ele>
        <time>2018-04-18T07:10:49Z</time>
      </trkpt>
      <trkpt lat="48.71477" lon="2.48723">
        <ele>92.8719</ele>
        <time>2018-04-18T07:10:51Z</time>
      </trkpt>
      <trkpt lat="48.71474" lon="2.48726">
        <ele>92.8895</ele>
        <time>2018-04-18T07:10:53Z</time>
      </trkpt>
      <trkpt lat="48.7147" lon="2.48728">
        <ele>92.9435</ele>
        <time>2018-04-18T07:10:59Z</time>
      </trkpt>
      <trkpt lat="48.71466" lon="2.4873">
        <ele>92.9881</ele>
        <time>2018-04-18T07:11:04Z</time>
      </trkpt>
      <trkpt lat="48.71462" lon="2.48733">
        <ele>93.0379</ele>
        <time>2018-04-18T07:11:10Z</time>
      </trkpt>
      <trkpt lat="48.71459" lon="2.48738">
        <ele>93.0757</ele>
        <time>2018-04-18T07:11:15Z</time>
      </trkpt>
      <trkpt lat="48.71456" lon="2.48741">
        <ele>93.0982</ele>
        <time>2018-04-18T07:11:18Z</time>
      </trkpt>
      <trkpt lat="48.71453" lon="2.48747">
        <ele>93.1398</ele>
        <time>2018-04-18T07:11:23Z</time>
      </trkpt>
      <trkpt lat="48.71449" lon="2.48749">
        <ele>93.1828</ele>
        <time>2018-04-18T07:11:28Z</time>
      </trkpt>
      <trkpt lat="48.71444" lon="2.48751">
        <ele>93.2302</ele>
        <time>2018-04-18T07:11:33Z</time>
      </trkpt>
      <trkpt lat="48.71439" lon="2.48755">
        <ele>93.258</ele>
        <time>2018-04-18T07:11:36Z</time>
      </trkpt>
      <trkpt lat="48.71436" lon="2.48764">
        <ele>93.2833</ele>
        <time>2018-04-18T07:11:39Z</time>
      </trkpt>
      <trkpt lat="48.71434" lon="2.48769">
        <ele>93.2992</ele>
        <time>2018-04-18T07:11:41Z</time>
      </trkpt>
      <trkpt lat="48.7143" lon="2.48775">
        <ele>93.3331</ele>
        <time>2018-04-18T07:11:45Z</time>
      </trkpt>
      <trkpt lat="48.7143" lon="2.48775">
        <ele>93.3331</ele>
        <time>2018-04-18T07:11:53Z</time>
      </trkpt>
      <trkpt lat="48.71429" lon="2.48783">
        <ele>93.3816</ele>
        <time>2018-04-18T07:11:54Z</time>
      </trkpt>
      <trkpt lat="48.71428" lon="2.48789">
        <ele>93.421</ele>
        <time>2018-04-18T07:11:58Z</time>
      </trkpt>
      <trkpt lat="48.71424" lon="2.48796">
        <ele>93.4685</ele>
        <time>2018-04-18T07:12:03Z</time>
      </trkpt>
      <trkpt lat="48.71423" lon="2.48801">
        <ele>93.4946</ele>
        <time>2018-04-18T07:12:06Z</time>
      </trkpt>
      <trkpt lat="48.7142" lon="2.48806">
        <ele>93.5264</ele>
        <time>2018-04-18T07:12:10Z</time>
      </trkpt>
      <trkpt lat="48.71419" lon="2.48807">
        <ele>93.5641</ele>
        <time>2018-04-18T07:12:18Z</time>
      </trkpt>
      <trkpt lat="48.71421" lon="2.48815">
        <ele>93.6063</ele>
        <time>2018-04-18T07:13:09Z</time>
      </trkpt>
      <trkpt lat="48.71418" lon="2.48822">
        <ele>93.6055</ele>
        <time>2018-04-18T07:13:18Z</time>
      </trkpt>
      <trkpt lat="48.71411" lon="2.48819">
        <ele>93.6045</ele>
        <time>2018-04-18T07:13:22Z</time>
      </trkpt>
      <trkpt lat="48.71408" lon="2.48825">
        <ele>93.6072</ele>
        <time>2018-04-18T07:13:26Z</time>
      </trkpt>
      <trkpt lat="48.71411" lon="2.48819">
        <ele>93.6045</ele>
        <time>2018-04-18T07:13:32Z</time>
      </trkpt>
      <trkpt lat="48.7141" lon="2.48832">
        <ele>93.2761</ele>
        <time>2018-04-18T07:15:05Z</time>
      </trkpt>
      <trkpt lat="48.71407" lon="2.48838">
        <ele>93.2231</ele>
        <time>2018-04-18T07:15:10Z</time>
      </trkpt>
      <trkpt lat="48.71403" lon="2.48842">
        <ele>93.184</ele>
        <time>2018-04-18T07:15:14Z</time>
      </trkpt>
      <trkpt lat="48.714" lon="2.48848">
        <ele>93.1449</ele>
        <time>2018-04-18T07:15:18Z</time>
      </trkpt>
      <trkpt lat="48.71397" lon="2.48854">
        <ele>93.0977</ele>
        <time>2018-04-18T07:15:23Z</time>
      </trkpt>
      <trkpt lat="48.71396" lon="2.48857">
        <ele>93.0792</ele>
        <time>2018-04-18T07:15:25Z</time>
      </trkpt>
      <trkpt lat="48.71395" lon="2.48865">
        <ele>93.0424</ele>
        <time>2018-04-18T07:15:29Z</time>
      </trkpt>
      <trkpt lat="48.71394" lon="2.48868">
        <ele>93.0244</ele>
        <time>2018-04-18T07:15:31Z</time>
      </trkpt>
      <trkpt lat="48.71394" lon="2.48872">
        <ele>92.9984</ele>
        <time>2018-04-18T07:15:34Z</time>
      </trkpt>
      <trkpt lat="48.71393" lon="2.4888">
        <ele>92.9574</ele>
        <time>2018-04-18T07:15:39Z</time>
      </trkpt>
      <trkpt lat="48.71391" lon="2.48887">
        <ele>92.9201</ele>
        <time>2018-04-18T07:15:44Z</time>
      </trkpt>
      <trkpt lat="48.7139" lon="2.48894">
        <ele>92.8879</ele>
        <time>2018-04-18T07:15:49Z</time>
      </trkpt>
      <trkpt lat="48.71388" lon="2.48901">
        <ele>92.8514</ele>
        <time>2018-04-18T07:15:55Z</time>
      </trkpt>
      <trkpt lat="48.71391" lon="2.48908">
        <ele>92.8179</ele>
        <time>2018-04-18T07:16:02Z</time>
      </trkpt>
      <trkpt lat="48.71396" lon="2.48911">
        <ele>92.8075</ele>
        <time>2018-04-18T07:16:06Z</time>
      </trkpt>
      <trkpt lat="48.714" lon="2.48916">
        <ele>92.8036</ele>
        <time>2018-04-18T07:16:11Z</time>
      </trkpt>
      <trkpt lat="48.71402" lon="2.48919">
        <ele>92.8055</ele>
        <time>2018-04-18T07:16:15Z</time>
      </trkpt>
      <trkpt lat="48.71404" lon="2.48922">
        <ele>92.8078</ele>
        <time>2018-04-18T07:16:17Z</time>
      </trkpt>
      <trkpt lat="48.71407" lon="2.48927">
        <ele>92.8189</ele>
        <time>2018-04-18T07:16:22Z</time>
      </trkpt>
      <trkpt lat="48.71411" lon="2.48931">
        <ele>92.8332</ele>
        <time>2018-04-18T07:16:26Z</time>
      </trkpt>
      <trkpt lat="48.71416" lon="2.48934">
        <ele>92.8455</ele>
        <time>2018-04-18T07:16:29Z</time>
      </trkpt>
      <trkpt lat="48.71418" lon="2.48935">
        <ele>92.8551</ele>
        <time>2018-04-18T07:16:31Z</time>
      </trkpt>
      <trkpt lat="48.71421" lon="2.48937">
        <ele>92.8716</ele>
        <time>2018-04-18T07:16:34Z</time>
      </trkpt>
      <trkpt lat="48.71425" lon="2.48939">
        <ele>92.8971</ele>
        <time>2018-04-18T07:16:38Z</time>
      </trkpt>
      <trkpt lat="48.71428" lon="2.4894">
        <ele>92.9121</ele>
        <time>2018-04-18T07:16:40Z</time>
      </trkpt>
      <trkpt lat="48.71431" lon="2.48942">
        <ele>92.9294</ele>
        <time>2018-04-18T07:16:42Z</time>
      </trkpt>
      <trkpt lat="48.71434" lon="2.48943">
        <ele>92.9487</ele>
        <time>2018-04-18T07:16:44Z</time>
      </trkpt>
      <trkpt lat="48.71439" lon="2.48946">
        <ele>93.0309</ele>
        <time>2018-04-18T07:16:51Z</time>
      </trkpt>
      <trkpt lat="48.71442" lon="2.48949">
        <ele>93.0689</ele>
        <time>2018-04-18T07:16:54Z</time>
      </trkpt>
      <trkpt lat="48.71448" lon="2.48952">
        <ele>93.1167</ele>
        <time>2018-04-18T07:16:58Z</time>
      </trkpt>
      <trkpt lat="48.71453" lon="2.48957">
        <ele>93.1637</ele>
        <time>2018-04-18T07:17:02Z</time>
      </trkpt>
      <trkpt lat="48.71455" lon="2.48959">
        <ele>93.1997</ele>
        <time>2018-04-18T07:17:05Z</time>
      </trkpt>
      <trkpt lat="48.71458" lon="2.48961">
        <ele>93.2252</ele>
        <time>2018-04-18T07:17:07Z</time>
      </trkpt>
      <trkpt lat="48.71463" lon="2.48964">
        <ele>93.304</ele>
        <time>2018-04-18T07:17:13Z</time>
      </trkpt>
      <trkpt lat="48.71467" lon="2.48965">
        <ele>93.3445</ele>
        <time>2018-04-18T07:17:16Z</time>
      </trkpt>
      <trkpt lat="48.71472" lon="2.48965">
        <ele>93.3852</ele>
        <time>2018-04-18T07:17:19Z</time>
      </trkpt>
      <trkpt lat="48.71474" lon="2.48958">
        <ele>93.4132</ele>
        <time>2018-04-18T07:17:21Z</time>
      </trkpt>
      <trkpt lat="48.71474" lon="2.48951">
        <ele>93.4539</ele>
        <time>2018-04-18T07:17:24Z</time>
      </trkpt>
      <trkpt lat="48.71471" lon="2.48945">
        <ele>93.5359</ele>
        <time>2018-04-18T07:17:30Z</time>
      </trkpt>
      <trkpt lat="48.71467" lon="2.4894">
        <ele>93.6027</ele>
        <time>2018-04-18T07:17:35Z</time>
      </trkpt>
      <trkpt lat="48.71466" lon="2.48933">
        <ele>93.6989</ele>
        <time>2018-04-18T07:17:42Z</time>
      </trkpt>
      <trkpt lat="48.71459" lon="2.48935">
        <ele>93.768</ele>
        <time>2018-04-18T07:17:48Z</time>
      </trkpt>
      <trkpt lat="48.71455" lon="2.48939">
        <ele>93.7966</ele>
        <time>2018-04-18T07:17:51Z</time>
      </trkpt>
      <trkpt lat="48.71452" lon="2.48945">
        <ele>93.8338</ele>
        <time>2018-04-18T07:17:55Z</time>
      </trkpt>
      <trkpt lat="48.7145" lon="2.48949">
        <ele>93.8863</ele>
        <time>2018-04-18T07:18:01Z</time>
      </trkpt>
      <trkpt lat="48.71446" lon="2.48968">
        <ele>93.9102</ele>
        <time>2018-04-18T07:18:04Z</time>
      </trkpt>
      <trkpt lat="48.71447" lon="2.48974">
        <ele>93.9256</ele>
        <time>2018-04-18T07:18:06Z</time>
      </trkpt>
      <trkpt lat="48.71447" lon="2.48983">
        <ele>93.948</ele>
        <time>2018-04-18T07:18:09Z</time>
      </trkpt>
      <trkpt lat="48.71452" lon="2.48986">
        <ele>93.9742</ele>
        <time>2018-04-18T07:18:16Z</time>
      </trkpt>
      <trkpt lat="48.71451" lon="2.48993">
        <ele>93.9738</ele>
        <time>2018-04-18T07:18:22Z</time>
      </trkpt>
      <trkpt lat="48.71452" lon="2.48999">
        <ele>93.9686</ele>
        <time>2018-04-18T07:18:26Z</time>
      </trkpt>
      <trkpt lat="48.71451" lon="2.49004">
        <ele>93.9642</ele>
        <time>2018-04-18T07:18:28Z</time>
      </trkpt>
      <trkpt lat="48.7145" lon="2.49012">
        <ele>93.948</ele>
        <time>2018-04-18T07:18:32Z</time>
      </trkpt>
      <trkpt lat="48.7145" lon="2.49019">
        <ele>93.9118</ele>
        <time>2018-04-18T07:18:37Z</time>
      </trkpt>
      <trkpt lat="48.7145" lon="2.49023">
        <ele>93.8855</ele>
        <time>2018-04-18T07:18:40Z</time>
      </trkpt>
      <trkpt lat="48.71447" lon="2.49029">
        <ele>93.8508</ele>
        <time>2018-04-18T07:18:44Z</time>
      </trkpt>
      <trkpt lat="48.71445" lon="2.49034">
        <ele>93.8275</ele>
        <time>2018-04-18T07:18:47Z</time>
      </trkpt>
      <trkpt lat="48.71442" lon="2.4904">
        <ele>93.8059</ele>
        <time>2018-04-18T07:18:50Z</time>
      </trkpt>
      <trkpt lat="48.71441" lon="2.49049">
        <ele>93.7766</ele>
        <time>2018-04-18T07:18:54Z</time>
      </trkpt>
      <trkpt lat="48.71441" lon="2.49054">
        <ele>93.7604</ele>
        <time>2018-04-18T07:18:56Z</time>
      </trkpt>
      <trkpt lat="48.7144" lon="2.49063">
        <ele>93.7298</ele>
        <time>2018-04-18T07:19:00Z</time>
      </trkpt>
      <trkpt lat="48.71439" lon="2.49068">
        <ele>93.7151</ele>
        <time>2018-04-18T07:19:02Z</time>
      </trkpt>
      <trkpt lat="48.71438" lon="2.49073">
        <ele>93.6939</ele>
        <time>2018-04-18T07:19:05Z</time>
      </trkpt>
      <trkpt lat="48.71435" lon="2.49078">
        <ele>93.6727</ele>
        <time>2018-04-18T07:19:08Z</time>
      </trkpt>
      <trkpt lat="48.71433" lon="2.49085">
        <ele>93.6395</ele>
        <time>2018-04-18T07:19:13Z</time>
      </trkpt>
      <trkpt lat="48.71431" lon="2.49092">
        <ele>93.5972</ele>
        <time>2018-04-18T07:19:21Z</time>
      </trkpt>
      <trkpt lat="48.71427" lon="2.491">
        <ele>93.5826</ele>
        <time>2018-04-18T07:19:26Z</time>
      </trkpt>
      <trkpt lat="48.71426" lon="2.49108">
        <ele>93.5776</ele>
        <time>2018-04-18T07:19:31Z</time>
      </trkpt>
      <trkpt lat="48.71426" lon="2.49112">
        <ele>93.5756</ele>
        <time>2018-04-18T07:19:36Z</time>
      </trkpt>
      <trkpt lat="48.71422" lon="2.49117">
        <ele>93.578</ele>
        <time>2018-04-18T07:19:41Z</time>
      </trkpt>
      <trkpt lat="48.7142" lon="2.4912">
        <ele>93.5804</ele>
        <time>2018-04-18T07:19:45Z</time>
      </trkpt>
      <trkpt lat="48.71418" lon="2.49126">
        <ele>93.5881</ele>
        <time>2018-04-18T07:19:51Z</time>
      </trkpt>
      <trkpt lat="48.71416" lon="2.49133">
        <ele>93.5989</ele>
        <time>2018-04-18T07:19:54Z</time>
      </trkpt>
      <trkpt lat="48.71412" lon="2.49139">
        <ele>93.612</ele>
        <time>2018-04-18T07:19:57Z</time>
      </trkpt>
      <trkpt lat="48.71411" lon="2.49142">
        <ele>93.6223</ele>
        <time>2018-04-18T07:19:59Z</time>
      </trkpt>
      <trkpt lat="48.71409" lon="2.49147">
        <ele>93.6373</ele>
        <time>2018-04-18T07:20:02Z</time>
      </trkpt>
      <trkpt lat="48.71407" lon="2.49153">
        <ele>93.655</ele>
        <time>2018-04-18T07:20:05Z</time>
      </trkpt>
      <trkpt lat="48.71403" lon="2.49158">
        <ele>93.6821</ele>
        <time>2018-04-18T07:20:09Z</time>
      </trkpt>
      <trkpt lat="48.71398" lon="2.49164">
        <ele>93.7022</ele>
        <time>2018-04-18T07:20:12Z</time>
      </trkpt>
      <trkpt lat="48.71395" lon="2.49166">
        <ele>93.7155</ele>
        <time>2018-04-18T07:20:14Z</time>
      </trkpt>
      <trkpt lat="48.71392" lon="2.49173">
        <ele>93.7337</ele>
        <time>2018-04-18T07:20:17Z</time>
      </trkpt>
      <trkpt lat="48.71388" lon="2.49178">
        <ele>93.7479</ele>
        <time>2018-04-18T07:20:20Z</time>
      </trkpt>
      <trkpt lat="48.71386" lon="2.49186">
        <ele>93.7584</ele>
        <time>2018-04-18T07:20:23Z</time>
      </trkpt>
      <trkpt lat="48.71384" lon="2.4919">
        <ele>93.7644</ele>
        <time>2018-04-18T07:20:25Z</time>
      </trkpt>
      <trkpt lat="48.71383" lon="2.49196">
        <ele>93.7775</ele>
        <time>2018-04-18T07:20:30Z</time>
      </trkpt>
      <trkpt lat="48.71381" lon="2.49202">
        <ele>93.7881</ele>
        <time>2018-04-18T07:20:33Z</time>
      </trkpt>
      <trkpt lat="48.71382" lon="2.49209">
        <ele>93.8027</ele>
        <time>2018-04-18T07:20:37Z</time>
      </trkpt>
      <trkpt lat="48.71382" lon="2.49217">
        <ele>93.8153</ele>
        <time>2018-04-18T07:20:41Z</time>
      </trkpt>
      <trkpt lat="48.71383" lon="2.49224">
        <ele>93.8247</ele>
        <time>2018-04-18T07:20:45Z</time>
      </trkpt>
      <trkpt lat="48.71382" lon="2.49231">
        <ele>93.8328</ele>
        <time>2018-04-18T07:20:49Z</time>
      </trkpt>
      <trkpt lat="48.71381" lon="2.49239">
        <ele>93.8393</ele>
        <time>2018-04-18T07:20:54Z</time>
      </trkpt>
      <trkpt lat="48.71381" lon="2.49243">
        <ele>93.8424</ele>
        <time>2018-04-18T07:20:57Z</time>
      </trkpt>
      <trkpt lat="48.71382" lon="2.4925">
        <ele>93.8483</ele>
        <time>2018-04-18T07:21:02Z</time>
      </trkpt>
      <trkpt lat="48.71382" lon="2.49258">
        <ele>93.853</ele>
        <time>2018-04-18T07:21:06Z</time>
      </trkpt>
      <trkpt lat="48.71382" lon="2.49262">
        <ele>93.8547</ele>
        <time>2018-04-18T07:21:08Z</time>
      </trkpt>
      <trkpt lat="48.71381" lon="2.4927">
        <ele>93.8576</ele>
        <time>2018-04-18T07:21:12Z</time>
      </trkpt>
      <trkpt lat="48.71381" lon="2.49273">
        <ele>93.8606</ele>
        <time>2018-04-18T07:21:14Z</time>
      </trkpt>
      <trkpt lat="48.71381" lon="2.49278">
        <ele>93.8667</ele>
        <time>2018-04-18T07:21:18Z</time>
      </trkpt>
      <trkpt lat="48.71379" lon="2.49284">
        <ele>93.8717</ele>
        <time>2018-04-18T07:21:23Z</time>
      </trkpt>
      <trkpt lat="48.71375" lon="2.49288">
        <ele>93.8749</ele>
        <time>2018-04-18T07:21:27Z</time>
      </trkpt>
      <trkpt lat="48.71371" lon="2.49294">
        <ele>93.874</ele>
        <time>2018-04-18T07:21:31Z</time>
      </trkpt>
      <trkpt lat="48.71369" lon="2.49297">
        <ele>93.8729</ele>
        <time>2018-04-18T07:21:33Z</time>
      </trkpt>
      <trkpt lat="48.71365" lon="2.49302">
        <ele>93.8711</ele>
        <time>2018-04-18T07:21:36Z</time>
      </trkpt>
      <trkpt lat="48.71363" lon="2.49304">
        <ele>93.87</ele>
        <time>2018-04-18T07:21:38Z</time>
      </trkpt>
      <trkpt lat="48.71358" lon="2.49309">
        <ele>93.8667</ele>
        <time>2018-04-18T07:21:42Z</time>
      </trkpt>
      <trkpt lat="48.71355" lon="2.49314">
        <ele>93.8628</ele>
        <time>2018-04-18T07:21:46Z</time>
      </trkpt>
      <trkpt lat="48.71351" lon="2.49319">
        <ele>93.8621</ele>
        <time>2018-04-18T07:21:50Z</time>
      </trkpt>
      <trkpt lat="48.71346" lon="2.4931">
        <ele>93.8536</ele>
        <time>2018-04-18T07:21:58Z</time>
      </trkpt>
      <trkpt lat="48.71344" lon="2.49306">
        <ele>93.8435</ele>
        <time>2018-04-18T07:22:01Z</time>
      </trkpt>
      <trkpt lat="48.7134" lon="2.49302">
        <ele>93.8309</ele>
        <time>2018-04-18T07:22:04Z</time>
      </trkpt>
      <trkpt lat="48.71338" lon="2.49299">
        <ele>93.8156</ele>
        <time>2018-04-18T07:22:07Z</time>
      </trkpt>
      <trkpt lat="48.71333" lon="2.49299">
        <ele>93.7984</ele>
        <time>2018-04-18T07:22:10Z</time>
      </trkpt>
      <trkpt lat="48.71331" lon="2.49298">
        <ele>93.7862</ele>
        <time>2018-04-18T07:22:12Z</time>
      </trkpt>
      <trkpt lat="48.71329" lon="2.49297">
        <ele>93.749</ele>
        <time>2018-04-18T07:22:21Z</time>
      </trkpt>
      <trkpt lat="48.71325" lon="2.49303">
        <ele>93.6776</ele>
        <time>2018-04-18T07:22:42Z</time>
      </trkpt>
      <trkpt lat="48.7132" lon="2.49306">
        <ele>93.6649</ele>
        <time>2018-04-18T07:22:47Z</time>
      </trkpt>
      <trkpt lat="48.71316" lon="2.49309">
        <ele>93.6564</ele>
        <time>2018-04-18T07:22:50Z</time>
      </trkpt>
      <trkpt lat="48.71312" lon="2.49311">
        <ele>93.6507</ele>
        <time>2018-04-18T07:22:52Z</time>
      </trkpt>
      <trkpt lat="48.71306" lon="2.49312">
        <ele>93.6433</ele>
        <time>2018-04-18T07:22:55Z</time>
      </trkpt>
      <trkpt lat="48.71303" lon="2.49313">
        <ele>93.6408</ele>
        <time>2018-04-18T07:22:56Z</time>
      </trkpt>
      <trkpt lat="48.71299" lon="2.49314">
        <ele>93.6338</ele>
        <time>2018-04-18T07:22:59Z</time>
      </trkpt>
      <trkpt lat="48.71296" lon="2.49315">
        <ele>93.6296</ele>
        <time>2018-04-18T07:23:01Z</time>
      </trkpt>
      <trkpt lat="48.71292" lon="2.49317">
        <ele>93.6278</ele>
        <time>2018-04-18T07:23:04Z</time>
      </trkpt>
      <trkpt lat="48.7129" lon="2.49324">
        <ele>93.6234</ele>
        <time>2018-04-18T07:23:08Z</time>
      </trkpt>
      <trkpt lat="48.71288" lon="2.49327">
        <ele>93.62</ele>
        <time>2018-04-18T07:23:10Z</time>
      </trkpt>
      <trkpt lat="48.71285" lon="2.49332">
        <ele>93.6036</ele>
        <time>2018-04-18T07:23:17Z</time>
      </trkpt>
      <trkpt lat="48.71282" lon="2.49339">
        <ele>93.5867</ele>
        <time>2018-04-18T07:23:22Z</time>
      </trkpt>
      <trkpt lat="48.7128" lon="2.49346">
        <ele>93.5776</ele>
        <time>2018-04-18T07:23:25Z</time>
      </trkpt>
      <trkpt lat="48.71279" lon="2.49349">
        <ele>93.5712</ele>
        <time>2018-04-18T07:23:27Z</time>
      </trkpt>
      <trkpt lat="48.71276" lon="2.49355">
        <ele>93.553</ele>
        <time>2018-04-18T07:23:32Z</time>
      </trkpt>
      <trkpt lat="48.71273" lon="2.49361">
        <ele>93.5351</ele>
        <time>2018-04-18T07:23:36Z</time>
      </trkpt>
      <trkpt lat="48.71268" lon="2.49365">
        <ele>93.5215</ele>
        <time>2018-04-18T07:23:39Z</time>
      </trkpt>
      <trkpt lat="48.71263" lon="2.49368">
        <ele>93.5109</ele>
        <time>2018-04-18T07:23:42Z</time>
      </trkpt>
      <trkpt lat="48.7126" lon="2.4937">
        <ele>93.5029</ele>
        <time>2018-04-18T07:23:45Z</time>
      </trkpt>
      <trkpt lat="48.71255" lon="2.49372">
        <ele>93.4943</ele>
        <time>2018-04-18T07:23:49Z</time>
      </trkpt>
      <trkpt lat="48.71252" lon="2.49373">
        <ele>93.4919</ele>
        <time>2018-04-18T07:23:51Z</time>
      </trkpt>
      <trkpt lat="48.71249" lon="2.49375">
        <ele>93.4913</ele>
        <time>2018-04-18T07:23:53Z</time>
      </trkpt>
      <trkpt lat="48.71247" lon="2.49376">
        <ele>93.4914</ele>
        <time>2018-04-18T07:23:55Z</time>
      </trkpt>
      <trkpt lat="48.71241" lon="2.49377">
        <ele>93.4921</ele>
        <time>2018-04-18T07:23:59Z</time>
      </trkpt>
      <trkpt lat="48.71238" lon="2.49377">
        <ele>93.4932</ele>
        <time>2018-04-18T07:24:01Z</time>
      </trkpt>
      <trkpt lat="48.71235" lon="2.49378">
        <ele>93.4949</ele>
        <time>2018-04-18T07:24:03Z</time>
      </trkpt>
      <trkpt lat="48.71229" lon="2.49379">
        <ele>93.498</ele>
        <time>2018-04-18T07:24:07Z</time>
      </trkpt>
      <trkpt lat="48.71225" lon="2.4938">
        <ele>93.4978</ele>
        <time>2018-04-18T07:24:12Z</time>
      </trkpt>
      <trkpt lat="48.7122" lon="2.49382">
        <ele>93.4954</ele>
        <time>2018-04-18T07:24:16Z</time>
      </trkpt>
      <trkpt lat="48.71217" lon="2.49386">
        <ele>93.4941</ele>
        <time>2018-04-18T07:24:20Z</time>
      </trkpt>
      <trkpt lat="48.71214" lon="2.49389">
        <ele>93.4919</ele>
        <time>2018-04-18T07:24:23Z</time>
      </trkpt>
      <trkpt lat="48.71211" lon="2.49394">
        <ele>93.4873</ele>
        <time>2018-04-18T07:24:26Z</time>
      </trkpt>
      <trkpt lat="48.71208" lon="2.49399">
        <ele>93.481</ele>
        <time>2018-04-18T07:24:29Z</time>
      </trkpt>
      <trkpt lat="48.71203" lon="2.49405">
        <ele>93.4628</ele>
        <time>2018-04-18T07:24:34Z</time>
      </trkpt>
      <trkpt lat="48.71201" lon="2.49408">
        <ele>93.4502</ele>
        <time>2018-04-18T07:24:37Z</time>
      </trkpt>
      <trkpt lat="48.71199" lon="2.49411">
        <ele>93.4404</ele>
        <time>2018-04-18T07:24:39Z</time>
      </trkpt>
      <trkpt lat="48.71194" lon="2.49414">
        <ele>93.4247</ele>
        <time>2018-04-18T07:24:42Z</time>
      </trkpt>
      <trkpt lat="48.71192" lon="2.49416">
        <ele>93.4141</ele>
        <time>2018-04-18T07:24:44Z</time>
      </trkpt>
      <trkpt lat="48.71188" lon="2.49421">
        <ele>93.3745</ele>
        <time>2018-04-18T07:24:51Z</time>
      </trkpt>
      <trkpt lat="48.71183" lon="2.49423">
        <ele>93.3459</ele>
        <time>2018-04-18T07:24:56Z</time>
      </trkpt>
      <trkpt lat="48.7118" lon="2.49425">
        <ele>93.3277</ele>
        <time>2018-04-18T07:25:00Z</time>
      </trkpt>
      <trkpt lat="48.71175" lon="2.4943">
        <ele>93.3184</ele>
        <time>2018-04-18T07:25:03Z</time>
      </trkpt>
      <trkpt lat="48.71171" lon="2.49434">
        <ele>93.3114</ele>
        <time>2018-04-18T07:25:06Z</time>
      </trkpt>
      <trkpt lat="48.71166" lon="2.49437">
        <ele>93.3018</ele>
        <time>2018-04-18T07:25:10Z</time>
      </trkpt>
      <trkpt lat="48.71162" lon="2.4944">
        <ele>93.2836</ele>
        <time>2018-04-18T07:25:15Z</time>
      </trkpt>
      <trkpt lat="48.7116" lon="2.49442">
        <ele>93.2743</ele>
        <time>2018-04-18T07:25:17Z</time>
      </trkpt>
      <trkpt lat="48.71154" lon="2.49449">
        <ele>93.2481</ele>
        <time>2018-04-18T07:25:22Z</time>
      </trkpt>
      <trkpt lat="48.7115" lon="2.49452">
        <ele>93.2297</ele>
        <time>2018-04-18T07:25:25Z</time>
      </trkpt>
      <trkpt lat="48.71147" lon="2.49458">
        <ele>93.2033</ele>
        <time>2018-04-18T07:25:29Z</time>
      </trkpt>
      <trkpt lat="48.71143" lon="2.49463">
        <ele>93.1785</ele>
        <time>2018-04-18T07:25:33Z</time>
      </trkpt>
      <trkpt lat="48.7114" lon="2.49468">
        <ele>93.1551</ele>
        <time>2018-04-18T07:25:37Z</time>
      </trkpt>
      <trkpt lat="48.71136" lon="2.49472">
        <ele>93.1371</ele>
        <time>2018-04-18T07:25:40Z</time>
      </trkpt>
      <trkpt lat="48.71133" lon="2.49478">
        <ele>93.0947</ele>
        <time>2018-04-18T07:25:46Z</time>
      </trkpt>
      <trkpt lat="48.71128" lon="2.49481">
        <ele>93.0613</ele>
        <time>2018-04-18T07:25:50Z</time>
      </trkpt>
      <trkpt lat="48.71125" lon="2.49483">
        <ele>93.0336</ele>
        <time>2018-04-18T07:25:53Z</time>
      </trkpt>
      <trkpt lat="48.71122" lon="2.49485">
        <ele>93.0054</ele>
        <time>2018-04-18T07:25:56Z</time>
      </trkpt>
      <trkpt lat="48.71119" lon="2.49486">
        <ele>92.9782</ele>
        <time>2018-04-18T07:25:59Z</time>
      </trkpt>
      <trkpt lat="48.71116" lon="2.49489">
        <ele>92.9608</ele>
        <time>2018-04-18T07:26:01Z</time>
      </trkpt>
      <trkpt lat="48.71111" lon="2.4949">
        <ele>92.9336</ele>
        <time>2018-04-18T07:26:04Z</time>
      </trkpt>
      <trkpt lat="48.71109" lon="2.49491">
        <ele>92.9156</ele>
        <time>2018-04-18T07:26:06Z</time>
      </trkpt>
      <trkpt lat="48.71105" lon="2.49492">
        <ele>92.8881</ele>
        <time>2018-04-18T07:26:09Z</time>
      </trkpt>
      <trkpt lat="48.711" lon="2.49497">
        <ele>92.8494</ele>
        <time>2018-04-18T07:26:13Z</time>
      </trkpt>
      <trkpt lat="48.71095" lon="2.495">
        <ele>92.8113</ele>
        <time>2018-04-18T07:26:17Z</time>
      </trkpt>
      <trkpt lat="48.7109" lon="2.49501">
        <ele>92.7753</ele>
        <time>2018-04-18T07:26:21Z</time>
      </trkpt>
      <trkpt lat="48.71087" lon="2.49502">
        <ele>92.7493</ele>
        <time>2018-04-18T07:26:24Z</time>
      </trkpt>
      <trkpt lat="48.71081" lon="2.49502">
        <ele>92.7167</ele>
        <time>2018-04-18T07:26:28Z</time>
      </trkpt>
      <trkpt lat="48.71078" lon="2.49502">
        <ele>92.7016</ele>
        <time>2018-04-18T07:26:30Z</time>
      </trkpt>
      <trkpt lat="48.71073" lon="2.49505">
        <ele>92.6553</ele>
        <time>2018-04-18T07:26:36Z</time>
      </trkpt>
      <trkpt lat="48.71071" lon="2.49506">
        <ele>92.6388</ele>
        <time>2018-04-18T07:26:38Z</time>
      </trkpt>
      <trkpt lat="48.71068" lon="2.49506">
        <ele>92.6221</ele>
        <time>2018-04-18T07:26:40Z</time>
      </trkpt>
      <trkpt lat="48.71064" lon="2.49507">
        <ele>92.5967</ele>
        <time>2018-04-18T07:26:43Z</time>
      </trkpt>
      <trkpt lat="48.7106" lon="2.49511">
        <ele>92.5707</ele>
        <time>2018-04-18T07:26:46Z</time>
      </trkpt>
      <trkpt lat="48.71056" lon="2.49515">
        <ele>92.5433</ele>
        <time>2018-04-18T07:26:49Z</time>
      </trkpt>
      <trkpt lat="48.71054" lon="2.49518">
        <ele>92.523</ele>
        <time>2018-04-18T07:26:51Z</time>
      </trkpt>
      <trkpt lat="48.71051" lon="2.49524">
        <ele>92.4893</ele>
        <time>2018-04-18T07:26:54Z</time>
      </trkpt>
      <trkpt lat="48.71049" lon="2.49529">
        <ele>92.4513</ele>
        <time>2018-04-18T07:26:57Z</time>
      </trkpt>
      <trkpt lat="48.71047" lon="2.49533">
        <ele>92.4241</ele>
        <time>2018-04-18T07:26:59Z</time>
      </trkpt>
      <trkpt lat="48.71044" lon="2.49538">
        <ele>92.3536</ele>
        <time>2018-04-18T07:27:04Z</time>
      </trkpt>
      <trkpt lat="48.7104" lon="2.49542">
        <ele>92.3122</ele>
        <time>2018-04-18T07:27:07Z</time>
      </trkpt>
      <trkpt lat="48.71037" lon="2.49544">
        <ele>92.2704</ele>
        <time>2018-04-18T07:27:10Z</time>
      </trkpt>
      <trkpt lat="48.71032" lon="2.49547">
        <ele>92.2162</ele>
        <time>2018-04-18T07:27:14Z</time>
      </trkpt>
      <trkpt lat="48.7103" lon="2.49554">
        <ele>92.1773</ele>
        <time>2018-04-18T07:27:17Z</time>
      </trkpt>
      <trkpt lat="48.71028" lon="2.49557">
        <ele>92.151</ele>
        <time>2018-04-18T07:27:19Z</time>
      </trkpt>
      <trkpt lat="48.71025" lon="2.49562">
        <ele>92.088</ele>
        <time>2018-04-18T07:27:24Z</time>
      </trkpt>
      <trkpt lat="48.71023" lon="2.49569">
        <ele>92.0302</ele>
        <time>2018-04-18T07:27:29Z</time>
      </trkpt>
      <trkpt lat="48.7102" lon="2.49574">
        <ele>91.9968</ele>
        <time>2018-04-18T07:27:32Z</time>
      </trkpt>
      <trkpt lat="48.71018" lon="2.49581">
        <ele>91.9433</ele>
        <time>2018-04-18T07:27:37Z</time>
      </trkpt>
      <trkpt lat="48.71013" lon="2.49587">
        <ele>91.8764</ele>
        <time>2018-04-18T07:27:44Z</time>
      </trkpt>
      <trkpt lat="48.71011" lon="2.49594">
        <ele>91.8453</ele>
        <time>2018-04-18T07:27:48Z</time>
      </trkpt>
      <trkpt lat="48.71008" lon="2.496">
        <ele>91.8141</ele>
        <time>2018-04-18T07:27:52Z</time>
      </trkpt>
      <trkpt lat="48.71006" lon="2.49604">
        <ele>91.7971</ele>
        <time>2018-04-18T07:27:54Z</time>
      </trkpt>
      <trkpt lat="48.71001" lon="2.4961">
        <ele>91.7392</ele>
        <time>2018-04-18T07:28:00Z</time>
      </trkpt>
      <trkpt lat="48.70997" lon="2.49613">
        <ele>91.6961</ele>
        <time>2018-04-18T07:28:04Z</time>
      </trkpt>
      <trkpt lat="48.70994" lon="2.49614">
        <ele>91.6763</ele>
        <time>2018-04-18T07:28:06Z</time>
      </trkpt>
      <trkpt lat="48.70991" lon="2.49616">
        <ele>91.6579</ele>
        <time>2018-04-18T07:28:08Z</time>
      </trkpt>
      <trkpt lat="48.70987" lon="2.49621">
        <ele>91.6237</ele>
        <time>2018-04-18T07:28:12Z</time>
      </trkpt>
      <trkpt lat="48.70985" lon="2.49624">
        <ele>91.6078</ele>
        <time>2018-04-18T07:28:14Z</time>
      </trkpt>
      <trkpt lat="48.70981" lon="2.49628">
        <ele>91.5866</ele>
        <time>2018-04-18T07:28:17Z</time>
      </trkpt>
      <trkpt lat="48.70976" lon="2.49632">
        <ele>91.5563</ele>
        <time>2018-04-18T07:28:22Z</time>
      </trkpt>
      <trkpt lat="48.7097" lon="2.49632">
        <ele>91.528</ele>
        <time>2018-04-18T07:28:26Z</time>
      </trkpt>
      <trkpt lat="48.70965" lon="2.49635">
        <ele>91.4956</ele>
        <time>2018-04-18T07:28:30Z</time>
      </trkpt>
      <trkpt lat="48.7096" lon="2.49637">
        <ele>91.469</ele>
        <time>2018-04-18T07:28:33Z</time>
      </trkpt>
      <trkpt lat="48.70958" lon="2.49638">
        <ele>91.4403</ele>
        <time>2018-04-18T07:28:36Z</time>
      </trkpt>
      <trkpt lat="48.70955" lon="2.49639">
        <ele>91.4104</ele>
        <time>2018-04-18T07:28:39Z</time>
      </trkpt>
      <trkpt lat="48.7095" lon="2.4964">
        <ele>91.3709</ele>
        <time>2018-04-18T07:28:43Z</time>
      </trkpt>
      <trkpt lat="48.70946" lon="2.49641">
        <ele>91.3405</ele>
        <time>2018-04-18T07:28:46Z</time>
      </trkpt>
      <trkpt lat="48.70942" lon="2.4964">
        <ele>91.3074</ele>
        <time>2018-04-18T07:28:49Z</time>
      </trkpt>
      <trkpt lat="48.70939" lon="2.4964">
        <ele>91.2846</ele>
        <time>2018-04-18T07:28:51Z</time>
      </trkpt>
      <trkpt lat="48.70936" lon="2.4964">
        <ele>91.2732</ele>
        <time>2018-04-18T07:28:52Z</time>
      </trkpt>
      <trkpt lat="48.70931" lon="2.49637">
        <ele>91.2501</ele>
        <time>2018-04-18T07:28:54Z</time>
      </trkpt>
      <trkpt lat="48.70926" lon="2.49637">
        <ele>91.2046</ele>
        <time>2018-04-18T07:28:58Z</time>
      </trkpt>
      <trkpt lat="48.70922" lon="2.49638">
        <ele>91.1616</ele>
        <time>2018-04-18T07:29:02Z</time>
      </trkpt>
      <trkpt lat="48.70919" lon="2.49638">
        <ele>91.1409</ele>
        <time>2018-04-18T07:29:04Z</time>
      </trkpt>
      <trkpt lat="48.70914" lon="2.49639">
        <ele>91.1031</ele>
        <time>2018-04-18T07:29:08Z</time>
      </trkpt>
      <trkpt lat="48.70909" lon="2.49637">
        <ele>91.0749</ele>
        <time>2018-04-18T07:29:11Z</time>
      </trkpt>
      <trkpt lat="48.70907" lon="2.49636">
        <ele>91.0568</ele>
        <time>2018-04-18T07:29:13Z</time>
      </trkpt>
      <trkpt lat="48.70902" lon="2.49637">
        <ele>91.0019</ele>
        <time>2018-04-18T07:29:19Z</time>
      </trkpt>
      <trkpt lat="48.70897" lon="2.49635">
        <ele>90.9677</ele>
        <time>2018-04-18T07:29:23Z</time>
      </trkpt>
      <trkpt lat="48.70892" lon="2.49635">
        <ele>90.9435</ele>
        <time>2018-04-18T07:29:26Z</time>
      </trkpt>
      <trkpt lat="48.70889" lon="2.49635">
        <ele>90.9275</ele>
        <time>2018-04-18T07:29:28Z</time>
      </trkpt>
      <trkpt lat="48.70886" lon="2.49634">
        <ele>90.9036</ele>
        <time>2018-04-18T07:29:31Z</time>
      </trkpt>
      <trkpt lat="48.70883" lon="2.49634">
        <ele>90.8875</ele>
        <time>2018-04-18T07:29:33Z</time>
      </trkpt>
      <trkpt lat="48.70878" lon="2.49633">
        <ele>90.8562</ele>
        <time>2018-04-18T07:29:37Z</time>
      </trkpt>
      <trkpt lat="48.70872" lon="2.49634">
        <ele>90.817</ele>
        <time>2018-04-18T07:29:42Z</time>
      </trkpt>
      <trkpt lat="48.70868" lon="2.49634">
        <ele>90.7876</ele>
        <time>2018-04-18T07:29:46Z</time>
      </trkpt>
      <trkpt lat="48.70865" lon="2.49634">
        <ele>90.7655</ele>
        <time>2018-04-18T07:29:49Z</time>
      </trkpt>
      <trkpt lat="48.7086" lon="2.49636">
        <ele>90.7361</ele>
        <time>2018-04-18T07:29:53Z</time>
      </trkpt>
      <trkpt lat="48.70856" lon="2.49638">
        <ele>90.7218</ele>
        <time>2018-04-18T07:29:55Z</time>
      </trkpt>
      <trkpt lat="48.70853" lon="2.49639">
        <ele>90.7073</ele>
        <time>2018-04-18T07:29:57Z</time>
      </trkpt>
      <trkpt lat="48.70849" lon="2.49641">
        <ele>90.6857</ele>
        <time>2018-04-18T07:30:00Z</time>
      </trkpt>
      <trkpt lat="48.70846" lon="2.49648">
        <ele>90.6563</ele>
        <time>2018-04-18T07:30:04Z</time>
      </trkpt>
      <trkpt lat="48.70842" lon="2.49653">
        <ele>90.6345</ele>
        <time>2018-04-18T07:30:07Z</time>
      </trkpt>
      <trkpt lat="48.7084" lon="2.49655">
        <ele>90.6212</ele>
        <time>2018-04-18T07:30:09Z</time>
      </trkpt>
      <trkpt lat="48.70835" lon="2.49658">
        <ele>90.603</ele>
        <time>2018-04-18T07:30:12Z</time>
      </trkpt>
      <trkpt lat="48.70831" lon="2.49663">
        <ele>90.5829</ele>
        <time>2018-04-18T07:30:16Z</time>
      </trkpt>
      <trkpt lat="48.70829" lon="2.49665">
        <ele>90.5741</ele>
        <time>2018-04-18T07:30:18Z</time>
      </trkpt>
      <trkpt lat="48.70826" lon="2.49667">
        <ele>90.5654</ele>
        <time>2018-04-18T07:30:20Z</time>
      </trkpt>
      <trkpt lat="48.70824" lon="2.49669">
        <ele>90.557</ele>
        <time>2018-04-18T07:30:22Z</time>
      </trkpt>
      <trkpt lat="48.70821" lon="2.49675">
        <ele>90.5377</ele>
        <time>2018-04-18T07:30:27Z</time>
      </trkpt>
      <trkpt lat="48.70821" lon="2.49676">
        <ele>90.521</ele>
        <time>2018-04-18T07:30:35Z</time>
      </trkpt>
      <trkpt lat="48.70816" lon="2.49675">
        <ele>90.4978</ele>
        <time>2018-04-18T07:30:49Z</time>
      </trkpt>
      <trkpt lat="48.70814" lon="2.49675">
        <ele>90.4802</ele>
        <time>2018-04-18T07:30:54Z</time>
      </trkpt>
      <trkpt lat="48.70809" lon="2.49672">
        <ele>90.4526</ele>
        <time>2018-04-18T07:31:02Z</time>
      </trkpt>
      <trkpt lat="48.70803" lon="2.4967">
        <ele>90.4348</ele>
        <time>2018-04-18T07:31:06Z</time>
      </trkpt>
      <trkpt lat="48.70798" lon="2.49669">
        <ele>90.4183</ele>
        <time>2018-04-18T07:31:09Z</time>
      </trkpt>
      <trkpt lat="48.70793" lon="2.49668">
        <ele>90.3993</ele>
        <time>2018-04-18T07:31:12Z</time>
      </trkpt>
      <trkpt lat="48.70793" lon="2.49668">
        <ele>90.3993</ele>
        <time>2018-04-18T07:31:18Z</time>
      </trkpt>
      <trkpt lat="48.70793" lon="2.49668">
        <ele>90.3993</ele>
        <time>2018-04-18T07:31:19Z</time>
      </trkpt>
      <trkpt lat="48.70789" lon="2.49682">
        <ele>90.318</ele>
        <time>2018-04-18T07:31:22Z</time>
      </trkpt>
      <trkpt lat="48.70789" lon="2.49691">
        <ele>90.2626</ele>
        <time>2018-04-18T07:31:26Z</time>
      </trkpt>
      <trkpt lat="48.70789" lon="2.49696">
        <ele>90.2333</ele>
        <time>2018-04-18T07:31:28Z</time>
      </trkpt>
      <trkpt lat="48.70788" lon="2.49704">
        <ele>90.1769</ele>
        <time>2018-04-18T07:31:32Z</time>
      </trkpt>
      <trkpt lat="48.70787" lon="2.49712">
        <ele>90.1253</ele>
        <time>2018-04-18T07:31:36Z</time>
      </trkpt>
      <trkpt lat="48.70786" lon="2.4972">
        <ele>90.0779</ele>
        <time>2018-04-18T07:31:40Z</time>
      </trkpt>
      <trkpt lat="48.70786" lon="2.49727">
        <ele>90.0329</ele>
        <time>2018-04-18T07:31:44Z</time>
      </trkpt>
      <trkpt lat="48.70782" lon="2.49732">
        <ele>89.9649</ele>
        <time>2018-04-18T07:31:51Z</time>
      </trkpt>
      <trkpt lat="48.70778" lon="2.49731">
        <ele>89.9345</ele>
        <time>2018-04-18T07:31:55Z</time>
      </trkpt>
      <trkpt lat="48.70773" lon="2.49727">
        <ele>89.9142</ele>
        <time>2018-04-18T07:31:59Z</time>
      </trkpt>
      <trkpt lat="48.7077" lon="2.49725">
        <ele>89.9055</ele>
        <time>2018-04-18T07:32:02Z</time>
      </trkpt>
      <trkpt lat="48.70768" lon="2.49724">
        <ele>89.8985</ele>
        <time>2018-04-18T07:32:05Z</time>
      </trkpt>
      <trkpt lat="48.70765" lon="2.49722">
        <ele>89.8897</ele>
        <time>2018-04-18T07:32:08Z</time>
      </trkpt>
      <trkpt lat="48.7076" lon="2.49721">
        <ele>89.863</ele>
        <time>2018-04-18T07:32:14Z</time>
      </trkpt>
      <trkpt lat="48.70754" lon="2.49719">
        <ele>89.8438</ele>
        <time>2018-04-18T07:32:18Z</time>
      </trkpt>
      <trkpt lat="48.70749" lon="2.49718">
        <ele>89.8237</ele>
        <time>2018-04-18T07:32:22Z</time>
      </trkpt>
      <trkpt lat="48.70744" lon="2.49717">
        <ele>89.8021</ele>
        <time>2018-04-18T07:32:26Z</time>
      </trkpt>
      <trkpt lat="48.70742" lon="2.49717">
        <ele>89.7907</ele>
        <time>2018-04-18T07:32:28Z</time>
      </trkpt>
      <trkpt lat="48.70739" lon="2.49717">
        <ele>89.7801</ele>
        <time>2018-04-18T07:32:30Z</time>
      </trkpt>
      <trkpt lat="48.70736" lon="2.49716">
        <ele>89.7671</ele>
        <time>2018-04-18T07:32:33Z</time>
      </trkpt>
      <trkpt lat="48.7073" lon="2.49717">
        <ele>89.7482</ele>
        <time>2018-04-18T07:32:38Z</time>
      </trkpt>
      <trkpt lat="48.70725" lon="2.49719">
        <ele>89.7291</ele>
        <time>2018-04-18T07:32:44Z</time>
      </trkpt>
      <trkpt lat="48.7072" lon="2.49725">
        <ele>89.7203</ele>
        <time>2018-04-18T07:32:48Z</time>
      </trkpt>
      <trkpt lat="48.70716" lon="2.49731">
        <ele>89.7134</ele>
        <time>2018-04-18T07:32:52Z</time>
      </trkpt>
      <trkpt lat="48.70716" lon="2.49731">
        <ele>89.7134</ele>
        <time>2018-04-18T07:32:59Z</time>
      </trkpt>
      <trkpt lat="48.70716" lon="2.49731">
        <ele>89.7134</ele>
        <time>2018-04-18T07:33:00Z</time>
      </trkpt>
      <trkpt lat="48.70718" lon="2.49738">
        <ele>89.6672</ele>
        <time>2018-04-18T07:33:08Z</time>
      </trkpt>
      <trkpt lat="48.70719" lon="2.49741">
        <ele>89.6622</ele>
        <time>2018-04-18T07:33:09Z</time>
      </trkpt>
      <trkpt lat="48.7072" lon="2.49749">
        <ele>89.6431</ele>
        <time>2018-04-18T07:33:13Z</time>
      </trkpt>
      <trkpt lat="48.7072" lon="2.49753">
        <ele>89.6348</ele>
        <time>2018-04-18T07:33:15Z</time>
      </trkpt>
      <trkpt lat="48.7072" lon="2.49759">
        <ele>89.6258</ele>
        <time>2018-04-18T07:33:24Z</time>
      </trkpt>
      <trkpt lat="48.70721" lon="2.49766">
        <ele>89.6033</ele>
        <time>2018-04-18T07:33:36Z</time>
      </trkpt>
      <trkpt lat="48.70723" lon="2.49773">
        <ele>89.5867</ele>
        <time>2018-04-18T07:33:40Z</time>
      </trkpt>
      <trkpt lat="48.70726" lon="2.49778">
        <ele>89.5713</ele>
        <time>2018-04-18T07:33:43Z</time>
      </trkpt>
      <trkpt lat="48.70728" lon="2.49784">
        <ele>89.5482</ele>
        <time>2018-04-18T07:33:47Z</time>
      </trkpt>
      <trkpt lat="48.70729" lon="2.49788">
        <ele>89.5375</ele>
        <time>2018-04-18T07:33:49Z</time>
      </trkpt>
      <trkpt lat="48.7073" lon="2.49791">
        <ele>89.5276</ele>
        <time>2018-04-18T07:33:51Z</time>
      </trkpt>
      <trkpt lat="48.7073" lon="2.49791">
        <ele>89.5276</ele>
        <time>2018-04-18T07:33:59Z</time>
      </trkpt>
      <trkpt lat="48.7073" lon="2.49791">
        <ele>89.5276</ele>
        <time>2018-04-18T07:34:00Z</time>
      </trkpt>
      <trkpt lat="48.70732" lon="2.49804">
        <ele>89.4977</ele>
        <time>2018-04-18T07:34:14Z</time>
      </trkpt>
      <trkpt lat="48.70727" lon="2.49805">
        <ele>89.5022</ele>
        <time>2018-04-18T07:34:18Z</time>
      </trkpt>
      <trkpt lat="48.70723" lon="2.49807">
        <ele>89.5066</ele>
        <time>2018-04-18T07:34:22Z</time>
      </trkpt>
      <trkpt lat="48.7072" lon="2.49807">
        <ele>89.5105</ele>
        <time>2018-04-18T07:34:25Z</time>
      </trkpt>
      <trkpt lat="48.70716" lon="2.4981">
        <ele>89.5165</ele>
        <time>2018-04-18T07:34:30Z</time>
      </trkpt>
      <trkpt lat="48.70716" lon="2.49819">
        <ele>89.5247</ele>
        <time>2018-04-18T07:34:36Z</time>
      </trkpt>
      <trkpt lat="48.70716" lon="2.49826">
        <ele>89.5272</ele>
        <time>2018-04-18T07:34:41Z</time>
      </trkpt>
      <trkpt lat="48.70718" lon="2.49834">
        <ele>89.5264</ele>
        <time>2018-04-18T07:34:44Z</time>
      </trkpt>
      <trkpt lat="48.70719" lon="2.49839">
        <ele>89.5245</ele>
        <time>2018-04-18T07:34:47Z</time>
      </trkpt>
      <trkpt lat="48.7072" lon="2.49844">
        <ele>89.5208</ele>
        <time>2018-04-18T07:34:50Z</time>
      </trkpt>
      <trkpt lat="48.70721" lon="2.49852">
        <ele>89.5167</ele>
        <time>2018-04-18T07:34:53Z</time>
      </trkpt>
      <trkpt lat="48.70721" lon="2.49859">
        <ele>89.5128</ele>
        <time>2018-04-18T07:34:57Z</time>
      </trkpt>
      <trkpt lat="48.70721" lon="2.49862">
        <ele>89.5115</ele>
        <time>2018-04-18T07:34:59Z</time>
      </trkpt>
      <trkpt lat="48.7072" lon="2.49867">
        <ele>89.5087</ele>
        <time>2018-04-18T07:35:07Z</time>
      </trkpt>
      <trkpt lat="48.70718" lon="2.49856">
        <ele>89.4996</ele>
        <time>2018-04-18T07:35:15Z</time>
      </trkpt>
      <trkpt lat="48.70717" lon="2.49848">
        <ele>89.4908</ele>
        <time>2018-04-18T07:35:20Z</time>
      </trkpt>
      <trkpt lat="48.70715" lon="2.49841">
        <ele>89.4831</ele>
        <time>2018-04-18T07:35:25Z</time>
      </trkpt>
      <trkpt lat="48.70714" lon="2.49834">
        <ele>89.4748</ele>
        <time>2018-04-18T07:35:29Z</time>
      </trkpt>
      <trkpt lat="48.70714" lon="2.49825">
        <ele>89.4602</ele>
        <time>2018-04-18T07:35:33Z</time>
      </trkpt>
      <trkpt lat="48.70712" lon="2.49818">
        <ele>89.4385</ele>
        <time>2018-04-18T07:35:37Z</time>
      </trkpt>
      <trkpt lat="48.70709" lon="2.49811">
        <ele>89.4097</ele>
        <time>2018-04-18T07:35:41Z</time>
      </trkpt>
      <trkpt lat="48.70708" lon="2.49808">
        <ele>89.3941</ele>
        <time>2018-04-18T07:35:43Z</time>
      </trkpt>
      <trkpt lat="48.70706" lon="2.49801">
        <ele>89.3644</ele>
        <time>2018-04-18T07:35:47Z</time>
      </trkpt>
      <trkpt lat="48.70704" lon="2.49795">
        <ele>89.3355</ele>
        <time>2018-04-18T07:35:51Z</time>
      </trkpt>
      <trkpt lat="48.70702" lon="2.49787">
        <ele>89.3083</ele>
        <time>2018-04-18T07:35:55Z</time>
      </trkpt>
      <trkpt lat="48.70702" lon="2.49783">
        <ele>89.2893</ele>
        <time>2018-04-18T07:35:58Z</time>
      </trkpt>
      <trkpt lat="48.70701" lon="2.49778">
        <ele>89.2663</ele>
        <time>2018-04-18T07:36:02Z</time>
      </trkpt>
      <trkpt lat="48.70699" lon="2.4977">
        <ele>89.2465</ele>
        <time>2018-04-18T07:36:06Z</time>
      </trkpt>
      <trkpt lat="48.70692" lon="2.49765">
        <ele>89.2315</ele>
        <time>2018-04-18T07:36:10Z</time>
      </trkpt>
      <trkpt lat="48.70686" lon="2.49765">
        <ele>89.2177</ele>
        <time>2018-04-18T07:36:14Z</time>
      </trkpt>
      <trkpt lat="48.70682" lon="2.4977">
        <ele>89.1977</ele>
        <time>2018-04-18T07:36:20Z</time>
      </trkpt>
      <trkpt lat="48.70679" lon="2.49775">
        <ele>89.186</ele>
        <time>2018-04-18T07:36:26Z</time>
      </trkpt>
      <trkpt lat="48.70676" lon="2.4978">
        <ele>89.183</ele>
        <time>2018-04-18T07:36:30Z</time>
      </trkpt>
      <trkpt lat="48.70671" lon="2.49782">
        <ele>89.179</ele>
        <time>2018-04-18T07:36:35Z</time>
      </trkpt>
      <trkpt lat="48.70667" lon="2.49778">
        <ele>89.1636</ele>
        <time>2018-04-18T07:36:42Z</time>
      </trkpt>
      <trkpt lat="48.70664" lon="2.49773">
        <ele>89.1492</ele>
        <time>2018-04-18T07:36:47Z</time>
      </trkpt>
      <trkpt lat="48.70659" lon="2.49771">
        <ele>89.1428</ele>
        <time>2018-04-18T07:36:50Z</time>
      </trkpt>
      <trkpt lat="48.70655" lon="2.49768">
        <ele>89.1366</ele>
        <time>2018-04-18T07:36:53Z</time>
      </trkpt>
      <trkpt lat="48.70653" lon="2.49766">
        <ele>89.1324</ele>
        <time>2018-04-18T07:36:55Z</time>
      </trkpt>
      <trkpt lat="48.70649" lon="2.49764">
        <ele>89.1279</ele>
        <time>2018-04-18T07:36:57Z</time>
      </trkpt>
      <trkpt lat="48.70647" lon="2.49763">
        <ele>89.1231</ele>
        <time>2018-04-18T07:36:59Z</time>
      </trkpt>
      <trkpt lat="48.70642" lon="2.49758">
        <ele>89.1121</ele>
        <time>2018-04-18T07:37:03Z</time>
      </trkpt>
      <trkpt lat="48.70637" lon="2.49756">
        <ele>89.096</ele>
        <time>2018-04-18T07:37:08Z</time>
      </trkpt>
      <trkpt lat="48.70634" lon="2.49755">
        <ele>89.0792</ele>
        <time>2018-04-18T07:37:12Z</time>
      </trkpt>
      <trkpt lat="48.70635" lon="2.49744">
        <ele>89.0473</ele>
        <time>2018-04-18T07:37:21Z</time>
      </trkpt>
      <trkpt lat="48.70634" lon="2.49737">
        <ele>89.0328</ele>
        <time>2018-04-18T07:37:25Z</time>
      </trkpt>
      <trkpt lat="48.70631" lon="2.49732">
        <ele>89.0214</ele>
        <time>2018-04-18T07:37:28Z</time>
      </trkpt>
      <trkpt lat="48.70628" lon="2.49727">
        <ele>89.0105</ele>
        <time>2018-04-18T07:37:31Z</time>
      </trkpt>
      <trkpt lat="48.70626" lon="2.49724">
        <ele>89.0034</ele>
        <time>2018-04-18T07:37:33Z</time>
      </trkpt>
      <trkpt lat="48.70624" lon="2.49721">
        <ele>88.996</ele>
        <time>2018-04-18T07:37:35Z</time>
      </trkpt>
      <trkpt lat="48.7062" lon="2.49716">
        <ele>88.9815</ele>
        <time>2018-04-18T07:37:39Z</time>
      </trkpt>
      <trkpt lat="48.70615" lon="2.49712">
        <ele>88.9685</ele>
        <time>2018-04-18T07:37:43Z</time>
      </trkpt>
      <trkpt lat="48.7061" lon="2.49713">
        <ele>88.9517</ele>
        <time>2018-04-18T07:37:49Z</time>
      </trkpt>
      <trkpt lat="48.70607" lon="2.49713">
        <ele>88.9444</ele>
        <time>2018-04-18T07:37:52Z</time>
      </trkpt>
      <trkpt lat="48.70602" lon="2.49716">
        <ele>88.9384</ele>
        <time>2018-04-18T07:37:55Z</time>
      </trkpt>
      <trkpt lat="48.70598" lon="2.49718">
        <ele>88.9363</ele>
        <time>2018-04-18T07:37:57Z</time>
      </trkpt>
      <trkpt lat="48.70593" lon="2.49716">
        <ele>88.9308</ele>
        <time>2018-04-18T07:38:02Z</time>
      </trkpt>
      <trkpt lat="48.70589" lon="2.49711">
        <ele>88.9263</ele>
        <time>2018-04-18T07:38:06Z</time>
      </trkpt>
      <trkpt lat="48.70586" lon="2.49707">
        <ele>88.9198</ele>
        <time>2018-04-18T07:38:11Z</time>
      </trkpt>
      <trkpt lat="48.70582" lon="2.49703">
        <ele>88.9121</ele>
        <time>2018-04-18T07:38:16Z</time>
      </trkpt>
      <trkpt lat="48.70577" lon="2.49699">
        <ele>88.9053</ele>
        <time>2018-04-18T07:38:20Z</time>
      </trkpt>
      <trkpt lat="48.70575" lon="2.49697">
        <ele>88.8989</ele>
        <time>2018-04-18T07:38:23Z</time>
      </trkpt>
      <trkpt lat="48.70571" lon="2.49695">
        <ele>88.8924</ele>
        <time>2018-04-18T07:38:26Z</time>
      </trkpt>
      <trkpt lat="48.70567" lon="2.49689">
        <ele>88.8844</ele>
        <time>2018-04-18T07:38:33Z</time>
      </trkpt>
      <trkpt lat="48.70563" lon="2.49684">
        <ele>88.8821</ele>
        <time>2018-04-18T07:38:37Z</time>
      </trkpt>
      <trkpt lat="48.70559" lon="2.49679">
        <ele>88.8807</ele>
        <time>2018-04-18T07:38:40Z</time>
      </trkpt>
      <trkpt lat="48.70554" lon="2.49679">
        <ele>88.8799</ele>
        <time>2018-04-18T07:38:42Z</time>
      </trkpt>
      <trkpt lat="48.7055" lon="2.4968">
        <ele>88.8794</ele>
        <time>2018-04-18T07:38:44Z</time>
      </trkpt>
      <trkpt lat="48.70544" lon="2.49678">
        <ele>88.8795</ele>
        <time>2018-04-18T07:38:49Z</time>
      </trkpt>
      <trkpt lat="48.70541" lon="2.49676">
        <ele>88.8792</ele>
        <time>2018-04-18T07:38:52Z</time>
      </trkpt>
      <trkpt lat="48.70536" lon="2.49672">
        <ele>88.8768</ele>
        <time>2018-04-18T07:38:58Z</time>
      </trkpt>
      <trkpt lat="48.70531" lon="2.4967">
        <ele>88.8744</ele>
        <time>2018-04-18T07:39:02Z</time>
      </trkpt>
      <trkpt lat="48.70526" lon="2.49669">
        <ele>88.8723</ele>
        <time>2018-04-18T07:39:06Z</time>
      </trkpt>
      <trkpt lat="48.7052" lon="2.49668">
        <ele>88.8684</ele>
        <time>2018-04-18T07:39:09Z</time>
      </trkpt>
      <trkpt lat="48.70516" lon="2.49667">
        <ele>88.8634</ele>
        <time>2018-04-18T07:39:11Z</time>
      </trkpt>
      <trkpt lat="48.70512" lon="2.49665">
        <ele>88.8538</ele>
        <time>2018-04-18T07:39:14Z</time>
      </trkpt>
      <trkpt lat="48.70508" lon="2.49668">
        <ele>88.8388</ele>
        <time>2018-04-18T07:39:18Z</time>
      </trkpt>
      <trkpt lat="48.70502" lon="2.4967">
        <ele>88.8232</ele>
        <time>2018-04-18T07:39:22Z</time>
      </trkpt>
      <trkpt lat="48.70497" lon="2.49669">
        <ele>88.813</ele>
        <time>2018-04-18T07:39:26Z</time>
      </trkpt>
      <trkpt lat="48.70492" lon="2.4967">
        <ele>88.8051</ele>
        <time>2018-04-18T07:39:30Z</time>
      </trkpt>
      <trkpt lat="48.70488" lon="2.49667">
        <ele>88.7975</ele>
        <time>2018-04-18T07:39:34Z</time>
      </trkpt>
      <trkpt lat="48.70485" lon="2.49666">
        <ele>88.7941</ele>
        <time>2018-04-18T07:39:36Z</time>
      </trkpt>
      <trkpt lat="48.70482" lon="2.49664">
        <ele>88.791</ele>
        <time>2018-04-18T07:39:38Z</time>
      </trkpt>
      <trkpt lat="48.70477" lon="2.49664">
        <ele>88.7888</ele>
        <time>2018-04-18T07:39:41Z</time>
      </trkpt>
      <trkpt lat="48.70474" lon="2.49663">
        <ele>88.7876</ele>
        <time>2018-04-18T07:39:43Z</time>
      </trkpt>
      <trkpt lat="48.70472" lon="2.49663">
        <ele>88.7874</ele>
        <time>2018-04-18T07:39:45Z</time>
      </trkpt>
      <trkpt lat="48.70466" lon="2.49663">
        <ele>88.7923</ele>
        <time>2018-04-18T07:39:50Z</time>
      </trkpt>
      <trkpt lat="48.70461" lon="2.49663">
        <ele>88.8016</ele>
        <time>2018-04-18T07:39:54Z</time>
      </trkpt>
      <trkpt lat="48.70456" lon="2.49664">
        <ele>88.8086</ele>
        <time>2018-04-18T07:39:58Z</time>
      </trkpt>
      <trkpt lat="48.70453" lon="2.49664">
        <ele>88.8107</ele>
        <time>2018-04-18T07:40:00Z</time>
      </trkpt>
      <trkpt lat="48.7045" lon="2.49664">
        <ele>88.8129</ele>
        <time>2018-04-18T07:40:03Z</time>
      </trkpt>
      <trkpt lat="48.70446" lon="2.49666">
        <ele>88.8147</ele>
        <time>2018-04-18T07:40:08Z</time>
      </trkpt>
      <trkpt lat="48.7044" lon="2.49664">
        <ele>88.8139</ele>
        <time>2018-04-18T07:40:13Z</time>
      </trkpt>
      <trkpt lat="48.70437" lon="2.49662">
        <ele>88.8126</ele>
        <time>2018-04-18T07:40:16Z</time>
      </trkpt>
      <trkpt lat="48.70435" lon="2.49661">
        <ele>88.8115</ele>
        <time>2018-04-18T07:40:18Z</time>
      </trkpt>
      <trkpt lat="48.70433" lon="2.4966">
        <ele>88.8099</ele>
        <time>2018-04-18T07:40:20Z</time>
      </trkpt>
      <trkpt lat="48.70429" lon="2.49656">
        <ele>88.8049</ele>
        <time>2018-04-18T07:40:25Z</time>
      </trkpt>
      <trkpt lat="48.70425" lon="2.49648">
        <ele>88.8033</ele>
        <time>2018-04-18T07:40:32Z</time>
      </trkpt>
      <trkpt lat="48.70423" lon="2.49644">
        <ele>88.8035</ele>
        <time>2018-04-18T07:40:34Z</time>
      </trkpt>
      <trkpt lat="48.70421" lon="2.49641">
        <ele>88.8037</ele>
        <time>2018-04-18T07:40:36Z</time>
      </trkpt>
      <trkpt lat="48.70417" lon="2.49635">
        <ele>88.8047</ele>
        <time>2018-04-18T07:40:39Z</time>
      </trkpt>
      <trkpt lat="48.70412" lon="2.4963">
        <ele>88.8087</ele>
        <time>2018-04-18T07:40:42Z</time>
      </trkpt>
      <trkpt lat="48.70407" lon="2.49627">
        <ele>88.8186</ele>
        <time>2018-04-18T07:40:46Z</time>
      </trkpt>
      <trkpt lat="48.70404" lon="2.49622">
        <ele>88.834</ele>
        <time>2018-04-18T07:40:52Z</time>
      </trkpt>
      <trkpt lat="48.70402" lon="2.49616">
        <ele>88.8427</ele>
        <time>2018-04-18T07:40:55Z</time>
      </trkpt>
      <trkpt lat="48.70402" lon="2.49608">
        <ele>88.8533</ele>
        <time>2018-04-18T07:40:58Z</time>
      </trkpt>
      <trkpt lat="48.70404" lon="2.49601">
        <ele>88.871</ele>
        <time>2018-04-18T07:41:02Z</time>
      </trkpt>
      <trkpt lat="48.70405" lon="2.49597">
        <ele>88.8824</ele>
        <time>2018-04-18T07:41:04Z</time>
      </trkpt>
      <trkpt lat="48.70406" lon="2.4959">
        <ele>88.9099</ele>
        <time>2018-04-18T07:41:08Z</time>
      </trkpt>
      <trkpt lat="48.70407" lon="2.49586">
        <ele>88.9328</ele>
        <time>2018-04-18T07:41:11Z</time>
      </trkpt>
      <trkpt lat="48.70408" lon="2.4958">
        <ele>88.9556</ele>
        <time>2018-04-18T07:41:14Z</time>
      </trkpt>
      <trkpt lat="48.70409" lon="2.49576">
        <ele>88.9708</ele>
        <time>2018-04-18T07:41:16Z</time>
      </trkpt>
      <trkpt lat="48.70409" lon="2.49568">
        <ele>88.9942</ele>
        <time>2018-04-18T07:41:19Z</time>
      </trkpt>
      <trkpt lat="48.70409" lon="2.49561">
        <ele>89.0268</ele>
        <time>2018-04-18T07:41:23Z</time>
      </trkpt>
      <trkpt lat="48.70408" lon="2.49553">
        <ele>89.0746</ele>
        <time>2018-04-18T07:41:28Z</time>
      </trkpt>
      <trkpt lat="48.7041" lon="2.49545">
        <ele>89.1251</ele>
        <time>2018-04-18T07:41:33Z</time>
      </trkpt>
      <trkpt lat="48.70411" lon="2.49535">
        <ele>89.1717</ele>
        <time>2018-04-18T07:41:38Z</time>
      </trkpt>
      <trkpt lat="48.70411" lon="2.49527">
        <ele>89.1985</ele>
        <time>2018-04-18T07:41:41Z</time>
      </trkpt>
      <trkpt lat="48.70411" lon="2.49521">
        <ele>89.2169</ele>
        <time>2018-04-18T07:41:43Z</time>
      </trkpt>
      <trkpt lat="48.70409" lon="2.49514">
        <ele>89.2504</ele>
        <time>2018-04-18T07:41:47Z</time>
      </trkpt>
      <trkpt lat="48.70405" lon="2.4951">
        <ele>89.2712</ele>
        <time>2018-04-18T07:41:50Z</time>
      </trkpt>
      <trkpt lat="48.70402" lon="2.49505">
        <ele>89.2902</ele>
        <time>2018-04-18T07:41:53Z</time>
      </trkpt>
      <trkpt lat="48.70401" lon="2.49502">
        <ele>89.3022</ele>
        <time>2018-04-18T07:41:55Z</time>
      </trkpt>
      <trkpt lat="48.70398" lon="2.49494">
        <ele>89.3366</ele>
        <time>2018-04-18T07:42:01Z</time>
      </trkpt>
      <trkpt lat="48.70395" lon="2.49489">
        <ele>89.3521</ele>
        <time>2018-04-18T07:42:04Z</time>
      </trkpt>
      <trkpt lat="48.70393" lon="2.49481">
        <ele>89.3737</ele>
        <time>2018-04-18T07:42:09Z</time>
      </trkpt>
      <trkpt lat="48.70388" lon="2.49476">
        <ele>89.3832</ele>
        <time>2018-04-18T07:42:12Z</time>
      </trkpt>
      <trkpt lat="48.70384" lon="2.49472">
        <ele>89.3874</ele>
        <time>2018-04-18T07:42:15Z</time>
      </trkpt>
      <trkpt lat="48.7038" lon="2.49469">
        <ele>89.3883</ele>
        <time>2018-04-18T07:42:19Z</time>
      </trkpt>
      <trkpt lat="48.70377" lon="2.49467">
        <ele>89.3879</ele>
        <time>2018-04-18T07:42:22Z</time>
      </trkpt>
      <trkpt lat="48.70373" lon="2.49464">
        <ele>89.385</ele>
        <time>2018-04-18T07:42:28Z</time>
      </trkpt>
      <trkpt lat="48.70373" lon="2.49463">
        <ele>89.3829</ele>
        <time>2018-04-18T07:42:37Z</time>
      </trkpt>
      <trkpt lat="48.70351" lon="2.49455">
        <ele>89.0694</ele>
        <time>2018-04-18T07:43:19Z</time>
      </trkpt>
      <trkpt lat="48.70348" lon="2.49451">
        <ele>88.9505</ele>
        <time>2018-04-18T07:43:29Z</time>
      </trkpt>
      <trkpt lat="48.70345" lon="2.49449">
        <ele>88.9159</ele>
        <time>2018-04-18T07:43:32Z</time>
      </trkpt>
      <trkpt lat="48.70339" lon="2.49447">
        <ele>88.8794</ele>
        <time>2018-04-18T07:43:35Z</time>
      </trkpt>
      <trkpt lat="48.70332" lon="2.49444">
        <ele>88.8394</ele>
        <time>2018-04-18T07:43:38Z</time>
      </trkpt>
      <trkpt lat="48.70328" lon="2.49443">
        <ele>88.8113</ele>
        <time>2018-04-18T07:43:40Z</time>
      </trkpt>
      <trkpt lat="48.70323" lon="2.49444">
        <ele>88.7531</ele>
        <time>2018-04-18T07:43:44Z</time>
      </trkpt>
      <trkpt lat="48.70318" lon="2.49447">
        <ele>88.6792</ele>
        <time>2018-04-18T07:43:49Z</time>
      </trkpt>
      <trkpt lat="48.70315" lon="2.49449">
        <ele>88.6361</ele>
        <time>2018-04-18T07:43:52Z</time>
      </trkpt>
      <trkpt lat="48.70308" lon="2.4945">
        <ele>88.5953</ele>
        <time>2018-04-18T07:43:55Z</time>
      </trkpt>
      <trkpt lat="48.70303" lon="2.49448">
        <ele>88.5202</ele>
        <time>2018-04-18T07:44:01Z</time>
      </trkpt>
      <trkpt lat="48.703" lon="2.49443">
        <ele>88.4841</ele>
        <time>2018-04-18T07:44:04Z</time>
      </trkpt>
      <trkpt lat="48.703" lon="2.49443">
        <ele>88.4841</ele>
        <time>2018-04-18T07:44:09Z</time>
      </trkpt>
      <trkpt lat="48.703" lon="2.49443">
        <ele>88.4841</ele>
        <time>2018-04-18T07:44:10Z</time>
      </trkpt>
      <trkpt lat="48.70297" lon="2.49449">
        <ele>88.3594</ele>
        <time>2018-04-18T07:44:22Z</time>
      </trkpt>
      <trkpt lat="48.70295" lon="2.49455">
        <ele>88.2646</ele>
        <time>2018-04-18T07:44:26Z</time>
      </trkpt>
      <trkpt lat="48.7029" lon="2.49458">
        <ele>88.1839</ele>
        <time>2018-04-18T07:44:30Z</time>
      </trkpt>
      <trkpt lat="48.70285" lon="2.49458">
        <ele>88.1131</ele>
        <time>2018-04-18T07:44:34Z</time>
      </trkpt>
      <trkpt lat="48.7028" lon="2.49454">
        <ele>88.047</ele>
        <time>2018-04-18T07:44:38Z</time>
      </trkpt>
      <trkpt lat="48.70277" lon="2.49453">
        <ele>88.0136</ele>
        <time>2018-04-18T07:44:40Z</time>
      </trkpt>
      <trkpt lat="48.70272" lon="2.49452">
        <ele>87.9615</ele>
        <time>2018-04-18T07:44:43Z</time>
      </trkpt>
      <trkpt lat="48.70267" lon="2.49452">
        <ele>87.9077</ele>
        <time>2018-04-18T07:44:46Z</time>
      </trkpt>
      <trkpt lat="48.70264" lon="2.49452">
        <ele>87.8721</ele>
        <time>2018-04-18T07:44:48Z</time>
      </trkpt>
      <trkpt lat="48.70262" lon="2.49451">
        <ele>87.837</ele>
        <time>2018-04-18T07:44:50Z</time>
      </trkpt>
      <trkpt lat="48.70258" lon="2.49451">
        <ele>87.7641</ele>
        <time>2018-04-18T07:44:54Z</time>
      </trkpt>
      <trkpt lat="48.70253" lon="2.49449">
        <ele>87.6632</ele>
        <time>2018-04-18T07:44:59Z</time>
      </trkpt>
      <trkpt lat="48.70248" lon="2.4945">
        <ele>87.5797</ele>
        <time>2018-04-18T07:45:03Z</time>
      </trkpt>
      <trkpt lat="48.70245" lon="2.4945">
        <ele>87.5363</ele>
        <time>2018-04-18T07:45:05Z</time>
      </trkpt>
      <trkpt lat="48.7024" lon="2.49452">
        <ele>87.4476</ele>
        <time>2018-04-18T07:45:09Z</time>
      </trkpt>
      <trkpt lat="48.70235" lon="2.49452">
        <ele>87.3582</ele>
        <time>2018-04-18T07:45:13Z</time>
      </trkpt>
      <trkpt lat="48.70229" lon="2.4945">
        <ele>87.268</ele>
        <time>2018-04-18T07:45:17Z</time>
      </trkpt>
      <trkpt lat="48.70227" lon="2.49449">
        <ele>87.2215</ele>
        <time>2018-04-18T07:45:19Z</time>
      </trkpt>
      <trkpt lat="48.70224" lon="2.49448">
        <ele>87.1737</ele>
        <time>2018-04-18T07:45:21Z</time>
      </trkpt>
      <trkpt lat="48.7022" lon="2.49446">
        <ele>87.1254</ele>
        <time>2018-04-18T07:45:23Z</time>
      </trkpt>
      <trkpt lat="48.70215" lon="2.49447">
        <ele>87.0291</ele>
        <time>2018-04-18T07:45:27Z</time>
      </trkpt>
      <trkpt lat="48.7021" lon="2.49452">
        <ele>86.9568</ele>
        <time>2018-04-18T07:45:30Z</time>
      </trkpt>
      <trkpt lat="48.70206" lon="2.49459">
        <ele>86.884</ele>
        <time>2018-04-18T07:45:33Z</time>
      </trkpt>
      <trkpt lat="48.70204" lon="2.49462">
        <ele>86.8358</ele>
        <time>2018-04-18T07:45:35Z</time>
      </trkpt>
      <trkpt lat="48.70199" lon="2.49465">
        <ele>86.7668</ele>
        <time>2018-04-18T07:45:38Z</time>
      </trkpt>
      <trkpt lat="48.70194" lon="2.49465">
        <ele>86.7251</ele>
        <time>2018-04-18T07:45:40Z</time>
      </trkpt>
      <trkpt lat="48.70189" lon="2.49465">
        <ele>86.6649</ele>
        <time>2018-04-18T07:45:43Z</time>
      </trkpt>
      <trkpt lat="48.70186" lon="2.4946">
        <ele>86.5702</ele>
        <time>2018-04-18T07:45:48Z</time>
      </trkpt>
      <trkpt lat="48.70183" lon="2.49457">
        <ele>86.5173</ele>
        <time>2018-04-18T07:45:51Z</time>
      </trkpt>
      <trkpt lat="48.7018" lon="2.49452">
        <ele>86.4683</ele>
        <time>2018-04-18T07:45:54Z</time>
      </trkpt>
      <trkpt lat="48.70176" lon="2.49449">
        <ele>86.4237</ele>
        <time>2018-04-18T07:45:57Z</time>
      </trkpt>
      <trkpt lat="48.70172" lon="2.49443">
        <ele>86.3661</ele>
        <time>2018-04-18T07:46:01Z</time>
      </trkpt>
      <trkpt lat="48.70169" lon="2.49436">
        <ele>86.3239</ele>
        <time>2018-04-18T07:46:04Z</time>
      </trkpt>
      <trkpt lat="48.70168" lon="2.49431">
        <ele>86.2973</ele>
        <time>2018-04-18T07:46:06Z</time>
      </trkpt>
      <trkpt lat="48.70165" lon="2.49424">
        <ele>86.2626</ele>
        <time>2018-04-18T07:46:09Z</time>
      </trkpt>
      <trkpt lat="48.70164" lon="2.4942">
        <ele>86.2431</ele>
        <time>2018-04-18T07:46:11Z</time>
      </trkpt>
      <trkpt lat="48.70163" lon="2.49416">
        <ele>86.226</ele>
        <time>2018-04-18T07:46:13Z</time>
      </trkpt>
      <trkpt lat="48.70162" lon="2.49413">
        <ele>86.2101</ele>
        <time>2018-04-18T07:46:15Z</time>
      </trkpt>
      <trkpt lat="48.7016" lon="2.49408">
        <ele>86.1877</ele>
        <time>2018-04-18T07:46:18Z</time>
      </trkpt>
      <trkpt lat="48.70158" lon="2.49403">
        <ele>86.1742</ele>
        <time>2018-04-18T07:46:20Z</time>
      </trkpt>
      <trkpt lat="48.70157" lon="2.494">
        <ele>86.1626</ele>
        <time>2018-04-18T07:46:22Z</time>
      </trkpt>
      <trkpt lat="48.70157" lon="2.49393">
        <ele>86.1342</ele>
        <time>2018-04-18T07:46:27Z</time>
      </trkpt>
      <trkpt lat="48.70157" lon="2.49389">
        <ele>86.1251</ele>
        <time>2018-04-18T07:46:29Z</time>
      </trkpt>
      <trkpt lat="48.70157" lon="2.49382">
        <ele>86.1056</ele>
        <time>2018-04-18T07:46:34Z</time>
      </trkpt>
      <trkpt lat="48.70153" lon="2.49378">
        <ele>86.0942</ele>
        <time>2018-04-18T07:46:38Z</time>
      </trkpt>
      <trkpt lat="48.70148" lon="2.49378">
        <ele>86.0859</ele>
        <time>2018-04-18T07:46:41Z</time>
      </trkpt>
      <trkpt lat="48.70144" lon="2.49384">
        <ele>86.0669</ele>
        <time>2018-04-18T07:46:47Z</time>
      </trkpt>
      <trkpt lat="48.70144" lon="2.49384">
        <ele>86.0669</ele>
        <time>2018-04-18T07:46:55Z</time>
      </trkpt>
      <trkpt lat="48.70143" lon="2.4939">
        <ele>86.0458</ele>
        <time>2018-04-18T07:46:56Z</time>
      </trkpt>
      <trkpt lat="48.70144" lon="2.49397">
        <ele>86.0173</ele>
        <time>2018-04-18T07:47:05Z</time>
      </trkpt>
      <trkpt lat="48.70145" lon="2.49404">
        <ele>85.9851</ele>
        <time>2018-04-18T07:47:12Z</time>
      </trkpt>
      <trkpt lat="48.70142" lon="2.49409">
        <ele>85.9666</ele>
        <time>2018-04-18T07:47:18Z</time>
      </trkpt>
      <trkpt lat="48.70139" lon="2.49416">
        <ele>85.9579</ele>
        <time>2018-04-18T07:47:23Z</time>
      </trkpt>
      <trkpt lat="48.70138" lon="2.4942">
        <ele>85.9516</ele>
        <time>2018-04-18T07:47:27Z</time>
      </trkpt>
      <trkpt lat="48.70133" lon="2.49422">
        <ele>85.9436</ele>
        <time>2018-04-18T07:47:32Z</time>
      </trkpt>
      <trkpt lat="48.70128" lon="2.49429">
        <ele>85.9344</ele>
        <time>2018-04-18T07:47:37Z</time>
      </trkpt>
      <trkpt lat="48.70125" lon="2.49435">
        <ele>85.9224</ele>
        <time>2018-04-18T07:47:42Z</time>
      </trkpt>
      <trkpt lat="48.70121" lon="2.4944">
        <ele>85.9098</ele>
        <time>2018-04-18T07:47:46Z</time>
      </trkpt>
      <trkpt lat="48.70118" lon="2.49443">
        <ele>85.903</ele>
        <time>2018-04-18T07:47:48Z</time>
      </trkpt>
      <trkpt lat="48.70114" lon="2.49447">
        <ele>85.8942</ele>
        <time>2018-04-18T07:47:51Z</time>
      </trkpt>
      <trkpt lat="48.7011" lon="2.49451">
        <ele>85.8876</ele>
        <time>2018-04-18T07:47:54Z</time>
      </trkpt>
      <trkpt lat="48.70108" lon="2.49453">
        <ele>85.8844</ele>
        <time>2018-04-18T07:47:56Z</time>
      </trkpt>
      <trkpt lat="48.70106" lon="2.49458">
        <ele>85.8788</ele>
        <time>2018-04-18T07:48:00Z</time>
      </trkpt>
      <trkpt lat="48.70102" lon="2.49464">
        <ele>85.8688</ele>
        <time>2018-04-18T07:48:04Z</time>
      </trkpt>
      <trkpt lat="48.701" lon="2.49469">
        <ele>85.8588</ele>
        <time>2018-04-18T07:48:07Z</time>
      </trkpt>
      <trkpt lat="48.70096" lon="2.49473">
        <ele>85.8448</ele>
        <time>2018-04-18T07:48:12Z</time>
      </trkpt>
      <trkpt lat="48.70093" lon="2.49475">
        <ele>85.8382</ele>
        <time>2018-04-18T07:48:16Z</time>
      </trkpt>
      <trkpt lat="48.7009" lon="2.49476">
        <ele>85.8363</ele>
        <time>2018-04-18T07:48:18Z</time>
      </trkpt>
      <trkpt lat="48.70087" lon="2.49479">
        <ele>85.8367</ele>
        <time>2018-04-18T07:48:21Z</time>
      </trkpt>
      <trkpt lat="48.70084" lon="2.49482">
        <ele>85.8362</ele>
        <time>2018-04-18T07:48:23Z</time>
      </trkpt>
      <trkpt lat="48.70077" lon="2.49484">
        <ele>85.833</ele>
        <time>2018-04-18T07:48:26Z</time>
      </trkpt>
      <trkpt lat="48.70075" lon="2.49485">
        <ele>85.8315</ele>
        <time>2018-04-18T07:48:27Z</time>
      </trkpt>
      <trkpt lat="48.70072" lon="2.49487">
        <ele>85.8281</ele>
        <time>2018-04-18T07:48:29Z</time>
      </trkpt>
      <trkpt lat="48.70068" lon="2.4949">
        <ele>85.8185</ele>
        <time>2018-04-18T07:48:33Z</time>
      </trkpt>
      <trkpt lat="48.70064" lon="2.49495">
        <ele>85.8082</ele>
        <time>2018-04-18T07:48:37Z</time>
      </trkpt>
      <trkpt lat="48.7006" lon="2.495">
        <ele>85.7928</ele>
        <time>2018-04-18T07:48:42Z</time>
      </trkpt>
      <trkpt lat="48.70058" lon="2.49507">
        <ele>85.7808</ele>
        <time>2018-04-18T07:48:45Z</time>
      </trkpt>
      <trkpt lat="48.70056" lon="2.49514">
        <ele>85.7622</ele>
        <time>2018-04-18T07:48:49Z</time>
      </trkpt>
      <trkpt lat="48.70055" lon="2.49518">
        <ele>85.7466</ele>
        <time>2018-04-18T07:48:52Z</time>
      </trkpt>
      <trkpt lat="48.70052" lon="2.49525">
        <ele>85.7231</ele>
        <time>2018-04-18T07:48:57Z</time>
      </trkpt>
      <trkpt lat="48.7005" lon="2.49531">
        <ele>85.7023</ele>
        <time>2018-04-18T07:49:01Z</time>
      </trkpt>
      <trkpt lat="48.70049" lon="2.49538">
        <ele>85.6838</ele>
        <time>2018-04-18T07:49:05Z</time>
      </trkpt>
      <trkpt lat="48.70046" lon="2.49544">
        <ele>85.6639</ele>
        <time>2018-04-18T07:49:09Z</time>
      </trkpt>
      <trkpt lat="48.70044" lon="2.49549">
        <ele>85.6433</ele>
        <time>2018-04-18T07:49:13Z</time>
      </trkpt>
      <trkpt lat="48.70043" lon="2.49558">
        <ele>85.6223</ele>
        <time>2018-04-18T07:49:16Z</time>
      </trkpt>
      <trkpt lat="48.70042" lon="2.49562">
        <ele>85.6061</ele>
        <time>2018-04-18T07:49:18Z</time>
      </trkpt>
      <trkpt lat="48.70041" lon="2.49567">
        <ele>85.5678</ele>
        <time>2018-04-18T07:49:22Z</time>
      </trkpt>
      <trkpt lat="48.70037" lon="2.49571">
        <ele>85.5087</ele>
        <time>2018-04-18T07:49:27Z</time>
      </trkpt>
      <trkpt lat="48.70032" lon="2.49574">
        <ele>85.4593</ele>
        <time>2018-04-18T07:49:31Z</time>
      </trkpt>
      <trkpt lat="48.70028" lon="2.49576">
        <ele>85.3937</ele>
        <time>2018-04-18T07:49:36Z</time>
      </trkpt>
      <trkpt lat="48.70023" lon="2.49575">
        <ele>85.3277</ele>
        <time>2018-04-18T07:49:41Z</time>
      </trkpt>
      <trkpt lat="48.70017" lon="2.49574">
        <ele>85.2892</ele>
        <time>2018-04-18T07:49:44Z</time>
      </trkpt>
      <trkpt lat="48.70011" lon="2.49573">
        <ele>85.2478</ele>
        <time>2018-04-18T07:49:47Z</time>
      </trkpt>
      <trkpt lat="48.70007" lon="2.49569">
        <ele>85.1868</ele>
        <time>2018-04-18T07:49:51Z</time>
      </trkpt>
      <trkpt lat="48.70004" lon="2.49562">
        <ele>85.1231</ele>
        <time>2018-04-18T07:49:55Z</time>
      </trkpt>
      <trkpt lat="48.70003" lon="2.49558">
        <ele>85.0917</ele>
        <time>2018-04-18T07:49:57Z</time>
      </trkpt>
      <trkpt lat="48.70002" lon="2.49551">
        <ele>85.0213</ele>
        <time>2018-04-18T07:50:02Z</time>
      </trkpt>
      <trkpt lat="48.70002" lon="2.49546">
        <ele>84.9738</ele>
        <time>2018-04-18T07:50:06Z</time>
      </trkpt>
      <trkpt lat="48.7" lon="2.4954">
        <ele>84.931</ele>
        <time>2018-04-18T07:50:10Z</time>
      </trkpt>
      <trkpt lat="48.69997" lon="2.49533">
        <ele>84.8942</ele>
        <time>2018-04-18T07:50:14Z</time>
      </trkpt>
      <trkpt lat="48.69994" lon="2.49527">
        <ele>84.846</ele>
        <time>2018-04-18T07:50:20Z</time>
      </trkpt>
      <trkpt lat="48.6999" lon="2.49522">
        <ele>84.8132</ele>
        <time>2018-04-18T07:50:24Z</time>
      </trkpt>
      <trkpt lat="48.69986" lon="2.49516">
        <ele>84.7869</ele>
        <time>2018-04-18T07:50:27Z</time>
      </trkpt>
      <trkpt lat="48.69982" lon="2.49514">
        <ele>84.7515</ele>
        <time>2018-04-18T07:50:31Z</time>
      </trkpt>
      <trkpt lat="48.69979" lon="2.49511">
        <ele>84.7249</ele>
        <time>2018-04-18T07:50:34Z</time>
      </trkpt>
      <trkpt lat="48.69974" lon="2.49509">
        <ele>84.6975</ele>
        <time>2018-04-18T07:50:37Z</time>
      </trkpt>
      <trkpt lat="48.69967" lon="2.49503">
        <ele>84.6428</ele>
        <time>2018-04-18T07:50:42Z</time>
      </trkpt>
      <trkpt lat="48.69963" lon="2.495">
        <ele>84.6189</ele>
        <time>2018-04-18T07:50:44Z</time>
      </trkpt>
      <trkpt lat="48.69957" lon="2.49497">
        <ele>84.5848</ele>
        <time>2018-04-18T07:50:47Z</time>
      </trkpt>
      <trkpt lat="48.69953" lon="2.49494">
        <ele>84.5452</ele>
        <time>2018-04-18T07:50:51Z</time>
      </trkpt>
      <trkpt lat="48.69949" lon="2.49491">
        <ele>84.5047</ele>
        <time>2018-04-18T07:50:55Z</time>
      </trkpt>
      <trkpt lat="48.69944" lon="2.49489">
        <ele>84.4706</ele>
        <time>2018-04-18T07:50:59Z</time>
      </trkpt>
      <trkpt lat="48.6994" lon="2.4949">
        <ele>84.4337</ele>
        <time>2018-04-18T07:51:04Z</time>
      </trkpt>
      <trkpt lat="48.69936" lon="2.49494">
        <ele>84.4121</ele>
        <time>2018-04-18T07:51:08Z</time>
      </trkpt>
      <trkpt lat="48.69931" lon="2.49497">
        <ele>84.4016</ele>
        <time>2018-04-18T07:51:12Z</time>
      </trkpt>
      <trkpt lat="48.69926" lon="2.49499">
        <ele>84.4038</ele>
        <time>2018-04-18T07:51:17Z</time>
      </trkpt>
      <trkpt lat="48.69921" lon="2.49502">
        <ele>84.4173</ele>
        <time>2018-04-18T07:51:21Z</time>
      </trkpt>
      <trkpt lat="48.69917" lon="2.49507">
        <ele>84.4526</ele>
        <time>2018-04-18T07:51:27Z</time>
      </trkpt>
      <trkpt lat="48.69914" lon="2.49511">
        <ele>84.4758</ele>
        <time>2018-04-18T07:51:30Z</time>
      </trkpt>
      <trkpt lat="48.69911" lon="2.49515">
        <ele>84.5127</ele>
        <time>2018-04-18T07:51:34Z</time>
      </trkpt>
      <trkpt lat="48.69906" lon="2.49518">
        <ele>84.5546</ele>
        <time>2018-04-18T07:51:38Z</time>
      </trkpt>
      <trkpt lat="48.69901" lon="2.49524">
        <ele>84.5987</ele>
        <time>2018-04-18T07:51:42Z</time>
      </trkpt>
      <trkpt lat="48.69898" lon="2.49531">
        <ele>84.6548</ele>
        <time>2018-04-18T07:51:47Z</time>
      </trkpt>
      <trkpt lat="48.69894" lon="2.49536">
        <ele>84.6957</ele>
        <time>2018-04-18T07:51:51Z</time>
      </trkpt>
      <trkpt lat="48.69889" lon="2.49535">
        <ele>84.7288</ele>
        <time>2018-04-18T07:51:54Z</time>
      </trkpt>
      <trkpt lat="48.69885" lon="2.49541">
        <ele>84.7813</ele>
        <time>2018-04-18T07:51:59Z</time>
      </trkpt>
      <trkpt lat="48.69883" lon="2.49548">
        <ele>84.8186</ele>
        <time>2018-04-18T07:52:03Z</time>
      </trkpt>
      <trkpt lat="48.69882" lon="2.49555">
        <ele>84.8443</ele>
        <time>2018-04-18T07:52:06Z</time>
      </trkpt>
      <trkpt lat="48.69882" lon="2.49561">
        <ele>84.8676</ele>
        <time>2018-04-18T07:52:09Z</time>
      </trkpt>
      <trkpt lat="48.6988" lon="2.49568">
        <ele>84.9055</ele>
        <time>2018-04-18T07:52:14Z</time>
      </trkpt>
      <trkpt lat="48.69879" lon="2.49576">
        <ele>84.933</ele>
        <time>2018-04-18T07:52:19Z</time>
      </trkpt>
      <trkpt lat="48.69878" lon="2.4958">
        <ele>84.9392</ele>
        <time>2018-04-18T07:52:21Z</time>
      </trkpt>
      <trkpt lat="48.69876" lon="2.49587">
        <ele>84.9473</ele>
        <time>2018-04-18T07:52:25Z</time>
      </trkpt>
      <trkpt lat="48.69875" lon="2.49594">
        <ele>84.9504</ele>
        <time>2018-04-18T07:52:28Z</time>
      </trkpt>
      <trkpt lat="48.69876" lon="2.49603">
        <ele>84.9503</ele>
        <time>2018-04-18T07:52:32Z</time>
      </trkpt>
      <trkpt lat="48.69878" lon="2.49609">
        <ele>84.9513</ele>
        <time>2018-04-18T07:52:36Z</time>
      </trkpt>
      <trkpt lat="48.6988" lon="2.49614">
        <ele>84.9534</ele>
        <time>2018-04-18T07:52:39Z</time>
      </trkpt>
      <trkpt lat="48.69884" lon="2.4962">
        <ele>84.9577</ele>
        <time>2018-04-18T07:52:44Z</time>
      </trkpt>
      <trkpt lat="48.69888" lon="2.49623">
        <ele>84.9602</ele>
        <time>2018-04-18T07:52:47Z</time>
      </trkpt>
      <trkpt lat="48.69891" lon="2.49629">
        <ele>84.9601</ele>
        <time>2018-04-18T07:52:50Z</time>
      </trkpt>
      <trkpt lat="48.69894" lon="2.49632">
        <ele>84.9589</ele>
        <time>2018-04-18T07:52:53Z</time>
      </trkpt>
      <trkpt lat="48.69896" lon="2.49635">
        <ele>84.9582</ele>
        <time>2018-04-18T07:52:55Z</time>
      </trkpt>
      <trkpt lat="48.69901" lon="2.49638">
        <ele>84.956</ele>
        <time>2018-04-18T07:53:00Z</time>
      </trkpt>
      <trkpt lat="48.69904" lon="2.4964">
        <ele>84.955</ele>
        <time>2018-04-18T07:53:02Z</time>
      </trkpt>
      <trkpt lat="48.69908" lon="2.49642">
        <ele>84.9536</ele>
        <time>2018-04-18T07:53:05Z</time>
      </trkpt>
      <trkpt lat="48.69912" lon="2.49645">
        <ele>84.9525</ele>
        <time>2018-04-18T07:53:08Z</time>
      </trkpt>
      <trkpt lat="48.69914" lon="2.49646">
        <ele>84.9513</ele>
        <time>2018-04-18T07:53:10Z</time>
      </trkpt>
      <trkpt lat="48.69918" lon="2.4965">
        <ele>84.9487</ele>
        <time>2018-04-18T07:53:14Z</time>
      </trkpt>
      <trkpt lat="48.69921" lon="2.49655">
        <ele>84.9462</ele>
        <time>2018-04-18T07:53:18Z</time>
      </trkpt>
      <trkpt lat="48.69924" lon="2.4966">
        <ele>84.943</ele>
        <time>2018-04-18T07:53:22Z</time>
      </trkpt>
      <trkpt lat="48.69927" lon="2.49665">
        <ele>84.937</ele>
        <time>2018-04-18T07:53:25Z</time>
      </trkpt>
      <trkpt lat="48.69929" lon="2.49668">
        <ele>84.9319</ele>
        <time>2018-04-18T07:53:27Z</time>
      </trkpt>
      <trkpt lat="48.6993" lon="2.49674">
        <ele>84.922</ele>
        <time>2018-04-18T07:53:33Z</time>
      </trkpt>
      <trkpt lat="48.69923" lon="2.49676">
        <ele>84.923</ele>
        <time>2018-04-18T07:53:42Z</time>
      </trkpt>
      <trkpt lat="48.69918" lon="2.49673">
        <ele>84.926</ele>
        <time>2018-04-18T07:53:47Z</time>
      </trkpt>
      <trkpt lat="48.69913" lon="2.49675">
        <ele>84.9237</ele>
        <time>2018-04-18T07:53:54Z</time>
      </trkpt>
      <trkpt lat="48.69908" lon="2.49677">
        <ele>84.9196</ele>
        <time>2018-04-18T07:53:58Z</time>
      </trkpt>
      <trkpt lat="48.69906" lon="2.4968">
        <ele>84.9171</ele>
        <time>2018-04-18T07:54:00Z</time>
      </trkpt>
      <trkpt lat="48.69903" lon="2.49682">
        <ele>84.9123</ele>
        <time>2018-04-18T07:54:03Z</time>
      </trkpt>
      <trkpt lat="48.69899" lon="2.49686">
        <ele>84.9063</ele>
        <time>2018-04-18T07:54:06Z</time>
      </trkpt>
      <trkpt lat="48.69895" lon="2.49691">
        <ele>84.8966</ele>
        <time>2018-04-18T07:54:10Z</time>
      </trkpt>
      <trkpt lat="48.69894" lon="2.49697">
        <ele>84.885</ele>
        <time>2018-04-18T07:54:14Z</time>
      </trkpt>
      <trkpt lat="48.6989" lon="2.49702">
        <ele>84.8705</ele>
        <time>2018-04-18T07:54:18Z</time>
      </trkpt>
      <trkpt lat="48.69885" lon="2.49704">
        <ele>84.8552</ele>
        <time>2018-04-18T07:54:22Z</time>
      </trkpt>
      <trkpt lat="48.69881" lon="2.49709">
        <ele>84.8461</ele>
        <time>2018-04-18T07:54:25Z</time>
      </trkpt>
      <trkpt lat="48.69878" lon="2.49715">
        <ele>84.8392</ele>
        <time>2018-04-18T07:54:28Z</time>
      </trkpt>
      <trkpt lat="48.69875" lon="2.49719">
        <ele>84.8357</ele>
        <time>2018-04-18T07:54:30Z</time>
      </trkpt>
      <trkpt lat="48.69873" lon="2.49723">
        <ele>84.8318</ele>
        <time>2018-04-18T07:54:32Z</time>
      </trkpt>
      <trkpt lat="48.69872" lon="2.49726">
        <ele>84.8272</ele>
        <time>2018-04-18T07:54:34Z</time>
      </trkpt>
      <trkpt lat="48.69869" lon="2.49732">
        <ele>84.8119</ele>
        <time>2018-04-18T07:54:39Z</time>
      </trkpt>
      <trkpt lat="48.69867" lon="2.49738">
        <ele>84.7991</ele>
        <time>2018-04-18T07:54:43Z</time>
      </trkpt>
      <trkpt lat="48.69864" lon="2.49743">
        <ele>84.7837</ele>
        <time>2018-04-18T07:54:47Z</time>
      </trkpt>
      <trkpt lat="48.69861" lon="2.49748">
        <ele>84.7684</ele>
        <time>2018-04-18T07:54:51Z</time>
      </trkpt>
      <trkpt lat="48.69857" lon="2.49755">
        <ele>84.754</ele>
        <time>2018-04-18T07:54:55Z</time>
      </trkpt>
      <trkpt lat="48.69854" lon="2.4976">
        <ele>84.7413</ele>
        <time>2018-04-18T07:54:59Z</time>
      </trkpt>
      <trkpt lat="48.69851" lon="2.49767">
        <ele>84.7261</ele>
        <time>2018-04-18T07:55:05Z</time>
      </trkpt>
      <trkpt lat="48.69847" lon="2.4977">
        <ele>84.718</ele>
        <time>2018-04-18T07:55:10Z</time>
      </trkpt>
      <trkpt lat="48.69845" lon="2.49771">
        <ele>84.7158</ele>
        <time>2018-04-18T07:55:12Z</time>
      </trkpt>
      <trkpt lat="48.69843" lon="2.49773">
        <ele>84.7141</ele>
        <time>2018-04-18T07:55:14Z</time>
      </trkpt>
      <trkpt lat="48.6984" lon="2.49776">
        <ele>84.7122</ele>
        <time>2018-04-18T07:55:17Z</time>
      </trkpt>
      <trkpt lat="48.69838" lon="2.49783">
        <ele>84.7097</ele>
        <time>2018-04-18T07:55:21Z</time>
      </trkpt>
      <trkpt lat="48.69836" lon="2.4979">
        <ele>84.7102</ele>
        <time>2018-04-18T07:55:24Z</time>
      </trkpt>
      <trkpt lat="48.69832" lon="2.49794">
        <ele>84.7134</ele>
        <time>2018-04-18T07:55:26Z</time>
      </trkpt>
      <trkpt lat="48.69828" lon="2.49801">
        <ele>84.7216</ele>
        <time>2018-04-18T07:55:29Z</time>
      </trkpt>
      <trkpt lat="48.69827" lon="2.49808">
        <ele>84.7307</ele>
        <time>2018-04-18T07:55:32Z</time>
      </trkpt>
      <trkpt lat="48.69824" lon="2.49814">
        <ele>84.7416</ele>
        <time>2018-04-18T07:55:36Z</time>
      </trkpt>
      <trkpt lat="48.69821" lon="2.49819">
        <ele>84.7501</ele>
        <time>2018-04-18T07:55:40Z</time>
      </trkpt>
      <trkpt lat="48.69816" lon="2.49823">
        <ele>84.7642</ele>
        <time>2018-04-18T07:55:45Z</time>
      </trkpt>
      <trkpt lat="48.69812" lon="2.49825">
        <ele>84.7901</ele>
        <time>2018-04-18T07:55:50Z</time>
      </trkpt>
      <trkpt lat="48.69808" lon="2.4983">
        <ele>84.8146</ele>
        <time>2018-04-18T07:55:54Z</time>
      </trkpt>
      <trkpt lat="48.69805" lon="2.49833">
        <ele>84.8303</ele>
        <time>2018-04-18T07:55:57Z</time>
      </trkpt>
      <trkpt lat="48.69803" lon="2.49836">
        <ele>84.843</ele>
        <time>2018-04-18T07:56:00Z</time>
      </trkpt>
      <trkpt lat="48.69799" lon="2.49841">
        <ele>84.8589</ele>
        <time>2018-04-18T07:56:04Z</time>
      </trkpt>
      <trkpt lat="48.69796" lon="2.49848">
        <ele>84.8751</ele>
        <time>2018-04-18T07:56:08Z</time>
      </trkpt>
      <trkpt lat="48.69795" lon="2.49855">
        <ele>84.8921</ele>
        <time>2018-04-18T07:56:12Z</time>
      </trkpt>
      <trkpt lat="48.69792" lon="2.49862">
        <ele>84.9109</ele>
        <time>2018-04-18T07:56:16Z</time>
      </trkpt>
      <trkpt lat="48.69788" lon="2.49867">
        <ele>84.9358</ele>
        <time>2018-04-18T07:56:21Z</time>
      </trkpt>
      <trkpt lat="48.69787" lon="2.49869">
        <ele>84.9476</ele>
        <time>2018-04-18T07:56:23Z</time>
      </trkpt>
      <trkpt lat="48.69785" lon="2.49876">
        <ele>84.9759</ele>
        <time>2018-04-18T07:56:27Z</time>
      </trkpt>
      <trkpt lat="48.69784" lon="2.49883">
        <ele>84.9998</ele>
        <time>2018-04-18T07:56:30Z</time>
      </trkpt>
      <trkpt lat="48.69781" lon="2.49891">
        <ele>85.0335</ele>
        <time>2018-04-18T07:56:34Z</time>
      </trkpt>
      <trkpt lat="48.69779" lon="2.49898">
        <ele>85.0683</ele>
        <time>2018-04-18T07:56:38Z</time>
      </trkpt>
      <trkpt lat="48.69775" lon="2.49903">
        <ele>85.0932</ele>
        <time>2018-04-18T07:56:41Z</time>
      </trkpt>
      <trkpt lat="48.69771" lon="2.49908">
        <ele>85.1263</ele>
        <time>2018-04-18T07:56:45Z</time>
      </trkpt>
      <trkpt lat="48.69767" lon="2.49913">
        <ele>85.1658</ele>
        <time>2018-04-18T07:56:50Z</time>
      </trkpt>
      <trkpt lat="48.69765" lon="2.49917">
        <ele>85.1869</ele>
        <time>2018-04-18T07:56:53Z</time>
      </trkpt>
      <trkpt lat="48.69763" lon="2.4992">
        <ele>85.207</ele>
        <time>2018-04-18T07:56:56Z</time>
      </trkpt>
      <trkpt lat="48.6976" lon="2.49924">
        <ele>85.2428</ele>
        <time>2018-04-18T07:57:01Z</time>
      </trkpt>
      <trkpt lat="48.69756" lon="2.49932">
        <ele>85.2647</ele>
        <time>2018-04-18T07:57:04Z</time>
      </trkpt>
      <trkpt lat="48.69753" lon="2.49938">
        <ele>85.2887</ele>
        <time>2018-04-18T07:57:07Z</time>
      </trkpt>
      <trkpt lat="48.69751" lon="2.49942">
        <ele>85.315</ele>
        <time>2018-04-18T07:57:10Z</time>
      </trkpt>
      <trkpt lat="48.69749" lon="2.49949">
        <ele>85.3502</ele>
        <time>2018-04-18T07:57:14Z</time>
      </trkpt>
      <trkpt lat="48.69744" lon="2.49956">
        <ele>85.3692</ele>
        <time>2018-04-18T07:57:16Z</time>
      </trkpt>
      <trkpt lat="48.69742" lon="2.49959">
        <ele>85.3891</ele>
        <time>2018-04-18T07:57:18Z</time>
      </trkpt>
      <trkpt lat="48.6974" lon="2.49962">
        <ele>85.411</ele>
        <time>2018-04-18T07:57:20Z</time>
      </trkpt>
      <trkpt lat="48.69738" lon="2.49968">
        <ele>85.4483</ele>
        <time>2018-04-18T07:57:23Z</time>
      </trkpt>
      <trkpt lat="48.69735" lon="2.49973">
        <ele>85.4907</ele>
        <time>2018-04-18T07:57:26Z</time>
      </trkpt>
      <trkpt lat="48.69733" lon="2.49977">
        <ele>85.5217</ele>
        <time>2018-04-18T07:57:28Z</time>
      </trkpt>
      <trkpt lat="48.69731" lon="2.4998">
        <ele>85.6216</ele>
        <time>2018-04-18T07:57:34Z</time>
      </trkpt>
      <trkpt lat="48.6973" lon="2.49983">
        <ele>85.6392</ele>
        <time>2018-04-18T07:57:35Z</time>
      </trkpt>
      <trkpt lat="48.69727" lon="2.49987">
        <ele>85.6764</ele>
        <time>2018-04-18T07:57:37Z</time>
      </trkpt>
      <trkpt lat="48.69726" lon="2.49993">
        <ele>85.807</ele>
        <time>2018-04-18T07:57:44Z</time>
      </trkpt>
      <trkpt lat="48.69721" lon="2.49994">
        <ele>85.9854</ele>
        <time>2018-04-18T07:57:53Z</time>
      </trkpt>
      <trkpt lat="48.69716" lon="2.49994">
        <ele>86.068</ele>
        <time>2018-04-18T07:57:57Z</time>
      </trkpt>
      <trkpt lat="48.69711" lon="2.49997">
        <ele>86.1315</ele>
        <time>2018-04-18T07:58:00Z</time>
      </trkpt>
      <trkpt lat="48.69706" lon="2.5">
        <ele>86.2168</ele>
        <time>2018-04-18T07:58:04Z</time>
      </trkpt>
      <trkpt lat="48.69702" lon="2.50006">
        <ele>86.304</ele>
        <time>2018-04-18T07:58:08Z</time>
      </trkpt>
      <trkpt lat="48.69699" lon="2.50012">
        <ele>86.3914</ele>
        <time>2018-04-18T07:58:12Z</time>
      </trkpt>
      <trkpt lat="48.69696" lon="2.50016">
        <ele>86.4354</ele>
        <time>2018-04-18T07:58:14Z</time>
      </trkpt>
      <trkpt lat="48.69695" lon="2.50025">
        <ele>86.5014</ele>
        <time>2018-04-18T07:58:17Z</time>
      </trkpt>
      <trkpt lat="48.69693" lon="2.50031">
        <ele>86.5913</ele>
        <time>2018-04-18T07:58:21Z</time>
      </trkpt>
      <trkpt lat="48.69688" lon="2.50035">
        <ele>86.6442</ele>
        <time>2018-04-18T07:58:25Z</time>
      </trkpt>
      <trkpt lat="48.69682" lon="2.50038">
        <ele>86.7216</ele>
        <time>2018-04-18T07:58:28Z</time>
      </trkpt>
      <trkpt lat="48.69678" lon="2.50043">
        <ele>86.83</ele>
        <time>2018-04-18T07:58:32Z</time>
      </trkpt>
      <trkpt lat="48.69676" lon="2.50045">
        <ele>86.9498</ele>
        <time>2018-04-18T07:58:36Z</time>
      </trkpt>
      <trkpt lat="48.69673" lon="2.50047">
        <ele>87.0839</ele>
        <time>2018-04-18T07:58:40Z</time>
      </trkpt>
      <trkpt lat="48.6967" lon="2.50052">
        <ele>87.3001</ele>
        <time>2018-04-18T07:58:46Z</time>
      </trkpt>
      <trkpt lat="48.69665" lon="2.50055">
        <ele>87.4553</ele>
        <time>2018-04-18T07:58:50Z</time>
      </trkpt>
      <trkpt lat="48.69662" lon="2.50059">
        <ele>87.578</ele>
        <time>2018-04-18T07:58:53Z</time>
      </trkpt>
      <trkpt lat="48.69659" lon="2.50065">
        <ele>87.7023</ele>
        <time>2018-04-18T07:58:56Z</time>
      </trkpt>
      <trkpt lat="48.69656" lon="2.50069">
        <ele>87.7835</ele>
        <time>2018-04-18T07:58:58Z</time>
      </trkpt>
      <trkpt lat="48.69653" lon="2.50072">
        <ele>87.864</ele>
        <time>2018-04-18T07:59:00Z</time>
      </trkpt>
      <trkpt lat="48.69649" lon="2.50076">
        <ele>88.0241</ele>
        <time>2018-04-18T07:59:04Z</time>
      </trkpt>
      <trkpt lat="48.69645" lon="2.50082">
        <ele>88.1381</ele>
        <time>2018-04-18T07:59:07Z</time>
      </trkpt>
      <trkpt lat="48.69641" lon="2.50087">
        <ele>88.2452</ele>
        <time>2018-04-18T07:59:10Z</time>
      </trkpt>
      <trkpt lat="48.69637" lon="2.50094">
        <ele>88.4133</ele>
        <time>2018-04-18T07:59:15Z</time>
      </trkpt>
      <trkpt lat="48.69636" lon="2.50098">
        <ele>88.4764</ele>
        <time>2018-04-18T07:59:17Z</time>
      </trkpt>
      <trkpt lat="48.69635" lon="2.50101">
        <ele>88.5371</ele>
        <time>2018-04-18T07:59:19Z</time>
      </trkpt>
      <trkpt lat="48.69631" lon="2.50105">
        <ele>88.6532</ele>
        <time>2018-04-18T07:59:23Z</time>
      </trkpt>
      <trkpt lat="48.69629" lon="2.50112">
        <ele>88.7669</ele>
        <time>2018-04-18T07:59:27Z</time>
      </trkpt>
      <trkpt lat="48.69628" lon="2.50116">
        <ele>88.8243</ele>
        <time>2018-04-18T07:59:29Z</time>
      </trkpt>
      <trkpt lat="48.69626" lon="2.50121">
        <ele>88.9108</ele>
        <time>2018-04-18T07:59:32Z</time>
      </trkpt>
      <trkpt lat="48.69625" lon="2.50124">
        <ele>88.9398</ele>
        <time>2018-04-18T07:59:33Z</time>
      </trkpt>
      <trkpt lat="48.69622" lon="2.50133">
        <ele>89.0279</ele>
        <time>2018-04-18T07:59:36Z</time>
      </trkpt>
      <trkpt lat="48.69621" lon="2.50136">
        <ele>89.1489</ele>
        <time>2018-04-18T07:59:40Z</time>
      </trkpt>
      <trkpt lat="48.6962" lon="2.50146">
        <ele>89.2948</ele>
        <time>2018-04-18T07:59:45Z</time>
      </trkpt>
      <trkpt lat="48.6962" lon="2.50149">
        <ele>89.3792</ele>
        <time>2018-04-18T07:59:48Z</time>
      </trkpt>
      <trkpt lat="48.6962" lon="2.50156">
        <ele>89.4864</ele>
        <time>2018-04-18T07:59:52Z</time>
      </trkpt>
      <trkpt lat="48.6962" lon="2.50163">
        <ele>89.5357</ele>
        <time>2018-04-18T07:59:54Z</time>
      </trkpt>
      <trkpt lat="48.69619" lon="2.50171">
        <ele>89.6049</ele>
        <time>2018-04-18T07:59:57Z</time>
      </trkpt>
      <trkpt lat="48.69618" lon="2.5018">
        <ele>89.6683</ele>
        <time>2018-04-18T08:00:00Z</time>
      </trkpt>
      <trkpt lat="48.69615" lon="2.50187">
        <ele>89.7446</ele>
        <time>2018-04-18T08:00:04Z</time>
      </trkpt>
      <trkpt lat="48.69614" lon="2.50191">
        <ele>89.7982</ele>
        <time>2018-04-18T08:00:07Z</time>
      </trkpt>
      <trkpt lat="48.69611" lon="2.50197">
        <ele>89.8834</ele>
        <time>2018-04-18T08:00:12Z</time>
      </trkpt>
      <trkpt lat="48.69609" lon="2.50204">
        <ele>89.9748</ele>
        <time>2018-04-18T08:00:18Z</time>
      </trkpt>
      <trkpt lat="48.69606" lon="2.50209">
        <ele>90.03</ele>
        <time>2018-04-18T08:00:22Z</time>
      </trkpt>
      <trkpt lat="48.69602" lon="2.50213">
        <ele>90.0816</ele>
        <time>2018-04-18T08:00:26Z</time>
      </trkpt>
      <trkpt lat="48.69598" lon="2.50216">
        <ele>90.1192</ele>
        <time>2018-04-18T08:00:29Z</time>
      </trkpt>
      <trkpt lat="48.69593" lon="2.5022">
        <ele>90.1777</ele>
        <time>2018-04-18T08:00:34Z</time>
      </trkpt>
      <trkpt lat="48.6959" lon="2.50223">
        <ele>90.1991</ele>
        <time>2018-04-18T08:00:36Z</time>
      </trkpt>
      <trkpt lat="48.69587" lon="2.50231">
        <ele>90.2406</ele>
        <time>2018-04-18T08:00:40Z</time>
      </trkpt>
      <trkpt lat="48.69586" lon="2.50234">
        <ele>90.2509</ele>
        <time>2018-04-18T08:00:41Z</time>
      </trkpt>
      <trkpt lat="48.69584" lon="2.50237">
        <ele>90.2612</ele>
        <time>2018-04-18T08:00:42Z</time>
      </trkpt>
      <trkpt lat="48.69581" lon="2.50243">
        <ele>90.2915</ele>
        <time>2018-04-18T08:00:45Z</time>
      </trkpt>
      <trkpt lat="48.69579" lon="2.50246">
        <ele>90.3204</ele>
        <time>2018-04-18T08:00:48Z</time>
      </trkpt>
      <trkpt lat="48.69577" lon="2.5025">
        <ele>90.3569</ele>
        <time>2018-04-18T08:00:52Z</time>
      </trkpt>
      <trkpt lat="48.69574" lon="2.50257">
        <ele>90.3987</ele>
        <time>2018-04-18T08:00:57Z</time>
      </trkpt>
      <trkpt lat="48.69574" lon="2.50265">
        <ele>90.4304</ele>
        <time>2018-04-18T08:01:01Z</time>
      </trkpt>
      <trkpt lat="48.69573" lon="2.50269">
        <ele>90.4924</ele>
        <time>2018-04-18T08:01:10Z</time>
      </trkpt>
      <trkpt lat="48.69583" lon="2.50286">
        <ele>90.6417</ele>
        <time>2018-04-18T08:02:17Z</time>
      </trkpt>
      <trkpt lat="48.69584" lon="2.50294">
        <ele>90.6689</ele>
        <time>2018-04-18T08:02:23Z</time>
      </trkpt>
      <trkpt lat="48.69586" lon="2.503">
        <ele>90.6902</ele>
        <time>2018-04-18T08:02:28Z</time>
      </trkpt>
      <trkpt lat="48.69587" lon="2.50304">
        <ele>90.6982</ele>
        <time>2018-04-18T08:02:30Z</time>
      </trkpt>
      <trkpt lat="48.69588" lon="2.50307">
        <ele>90.7127</ele>
        <time>2018-04-18T08:02:34Z</time>
      </trkpt>
      <trkpt lat="48.69592" lon="2.5031">
        <ele>90.726</ele>
        <time>2018-04-18T08:02:39Z</time>
      </trkpt>
      <trkpt lat="48.69597" lon="2.50313">
        <ele>90.7354</ele>
        <time>2018-04-18T08:02:44Z</time>
      </trkpt>
      <trkpt lat="48.69602" lon="2.50313">
        <ele>90.7415</ele>
        <time>2018-04-18T08:02:48Z</time>
      </trkpt>
      <trkpt lat="48.69605" lon="2.50313">
        <ele>90.7447</ele>
        <time>2018-04-18T08:02:50Z</time>
      </trkpt>
      <trkpt lat="48.6961" lon="2.50316">
        <ele>90.7525</ele>
        <time>2018-04-18T08:02:54Z</time>
      </trkpt>
      <trkpt lat="48.69613" lon="2.50317">
        <ele>90.7563</ele>
        <time>2018-04-18T08:02:56Z</time>
      </trkpt>
      <trkpt lat="48.69613" lon="2.50326">
        <ele>90.7598</ele>
        <time>2018-04-18T08:03:02Z</time>
      </trkpt>
      <trkpt lat="48.69611" lon="2.50333">
        <ele>90.7554</ele>
        <time>2018-04-18T08:03:06Z</time>
      </trkpt>
      <trkpt lat="48.69611" lon="2.50338">
        <ele>90.7477</ele>
        <time>2018-04-18T08:03:10Z</time>
      </trkpt>
      <trkpt lat="48.69611" lon="2.50346">
        <ele>90.7369</ele>
        <time>2018-04-18T08:03:15Z</time>
      </trkpt>
      <trkpt lat="48.69612" lon="2.50351">
        <ele>90.726</ele>
        <time>2018-04-18T08:03:19Z</time>
      </trkpt>
      <trkpt lat="48.69609" lon="2.50357">
        <ele>90.7171</ele>
        <time>2018-04-18T08:03:22Z</time>
      </trkpt>
      <trkpt lat="48.69607" lon="2.50361">
        <ele>90.7115</ele>
        <time>2018-04-18T08:03:24Z</time>
      </trkpt>
      <trkpt lat="48.69603" lon="2.50366">
        <ele>90.6927</ele>
        <time>2018-04-18T08:03:29Z</time>
      </trkpt>
      <trkpt lat="48.69602" lon="2.50374">
        <ele>90.6718</ele>
        <time>2018-04-18T08:03:33Z</time>
      </trkpt>
      <trkpt lat="48.69599" lon="2.50385">
        <ele>90.645</ele>
        <time>2018-04-18T08:03:38Z</time>
      </trkpt>
      <trkpt lat="48.69597" lon="2.50392">
        <ele>90.6243</ele>
        <time>2018-04-18T08:03:42Z</time>
      </trkpt>
      <trkpt lat="48.69596" lon="2.504">
        <ele>90.6044</ele>
        <time>2018-04-18T08:03:46Z</time>
      </trkpt>
      <trkpt lat="48.69596" lon="2.50404">
        <ele>90.5944</ele>
        <time>2018-04-18T08:03:48Z</time>
      </trkpt>
      <trkpt lat="48.69595" lon="2.5041">
        <ele>90.5795</ele>
        <time>2018-04-18T08:03:51Z</time>
      </trkpt>
      <trkpt lat="48.69593" lon="2.50417">
        <ele>90.553</ele>
        <time>2018-04-18T08:03:56Z</time>
      </trkpt>
      <trkpt lat="48.69592" lon="2.50422">
        <ele>90.5413</ele>
        <time>2018-04-18T08:03:58Z</time>
      </trkpt>
      <trkpt lat="48.69591" lon="2.50429">
        <ele>90.5262</ele>
        <time>2018-04-18T08:04:01Z</time>
      </trkpt>
      <trkpt lat="48.69591" lon="2.50433">
        <ele>90.5177</ele>
        <time>2018-04-18T08:04:03Z</time>
      </trkpt>
      <trkpt lat="48.69591" lon="2.50441">
        <ele>90.5056</ele>
        <time>2018-04-18T08:04:06Z</time>
      </trkpt>
      <trkpt lat="48.6959" lon="2.50448">
        <ele>90.4889</ele>
        <time>2018-04-18T08:04:10Z</time>
      </trkpt>
      <trkpt lat="48.69589" lon="2.50453">
        <ele>90.4823</ele>
        <time>2018-04-18T08:04:12Z</time>
      </trkpt>
      <trkpt lat="48.69589" lon="2.5046">
        <ele>90.4735</ele>
        <time>2018-04-18T08:04:16Z</time>
      </trkpt>
      <trkpt lat="48.69589" lon="2.50464">
        <ele>90.4678</ele>
        <time>2018-04-18T08:04:19Z</time>
      </trkpt>
      <trkpt lat="48.69587" lon="2.50472">
        <ele>90.459</ele>
        <time>2018-04-18T08:04:25Z</time>
      </trkpt>
      <trkpt lat="48.69587" lon="2.5048">
        <ele>90.4543</ele>
        <time>2018-04-18T08:04:31Z</time>
      </trkpt>
      <trkpt lat="48.69586" lon="2.50488">
        <ele>90.4589</ele>
        <time>2018-04-18T08:04:35Z</time>
      </trkpt>
      <trkpt lat="48.69586" lon="2.50492">
        <ele>90.4645</ele>
        <time>2018-04-18T08:04:38Z</time>
      </trkpt>
      <trkpt lat="48.69586" lon="2.50501">
        <ele>90.4718</ele>
        <time>2018-04-18T08:04:42Z</time>
      </trkpt>
      <trkpt lat="48.69588" lon="2.5051">
        <ele>90.4765</ele>
        <time>2018-04-18T08:04:46Z</time>
      </trkpt>
      <trkpt lat="48.69588" lon="2.50518">
        <ele>90.4868</ele>
        <time>2018-04-18T08:04:52Z</time>
      </trkpt>
      <trkpt lat="48.69587" lon="2.50526">
        <ele>90.4942</ele>
        <time>2018-04-18T08:04:55Z</time>
      </trkpt>
      <trkpt lat="48.69587" lon="2.50533">
        <ele>90.5026</ele>
        <time>2018-04-18T08:04:59Z</time>
      </trkpt>
      <trkpt lat="48.69587" lon="2.50541">
        <ele>90.5112</ele>
        <time>2018-04-18T08:05:03Z</time>
      </trkpt>
      <trkpt lat="48.69589" lon="2.5055">
        <ele>90.5158</ele>
        <time>2018-04-18T08:05:06Z</time>
      </trkpt>
      <trkpt lat="48.6959" lon="2.50557">
        <ele>90.5191</ele>
        <time>2018-04-18T08:05:09Z</time>
      </trkpt>
      <trkpt lat="48.69591" lon="2.50561">
        <ele>90.5211</ele>
        <time>2018-04-18T08:05:11Z</time>
      </trkpt>
      <trkpt lat="48.69592" lon="2.50568">
        <ele>90.5262</ele>
        <time>2018-04-18T08:05:15Z</time>
      </trkpt>
      <trkpt lat="48.69593" lon="2.50574">
        <ele>90.5295</ele>
        <time>2018-04-18T08:05:18Z</time>
      </trkpt>
      <trkpt lat="48.69594" lon="2.5058">
        <ele>90.533</ele>
        <time>2018-04-18T08:05:22Z</time>
      </trkpt>
      <trkpt lat="48.69594" lon="2.50584">
        <ele>90.5348</ele>
        <time>2018-04-18T08:05:24Z</time>
      </trkpt>
      <trkpt lat="48.69594" lon="2.50593">
        <ele>90.5373</ele>
        <time>2018-04-18T08:05:27Z</time>
      </trkpt>
      <trkpt lat="48.69593" lon="2.506">
        <ele>90.5396</ele>
        <time>2018-04-18T08:05:30Z</time>
      </trkpt>
      <trkpt lat="48.69592" lon="2.50606">
        <ele>90.5415</ele>
        <time>2018-04-18T08:05:32Z</time>
      </trkpt>
      <trkpt lat="48.6959" lon="2.50613">
        <ele>90.5479</ele>
        <time>2018-04-18T08:05:36Z</time>
      </trkpt>
      <trkpt lat="48.6959" lon="2.50621">
        <ele>90.5576</ele>
        <time>2018-04-18T08:05:41Z</time>
      </trkpt>
      <trkpt lat="48.69588" lon="2.50629">
        <ele>90.5576</ele>
        <time>2018-04-18T08:05:49Z</time>
      </trkpt>
      <trkpt lat="48.69587" lon="2.50636">
        <ele>90.5464</ele>
        <time>2018-04-18T08:05:53Z</time>
      </trkpt>
      <trkpt lat="48.69587" lon="2.50643">
        <ele>90.5292</ele>
        <time>2018-04-18T08:05:57Z</time>
      </trkpt>
      <trkpt lat="48.69587" lon="2.50647">
        <ele>90.5183</ele>
        <time>2018-04-18T08:05:59Z</time>
      </trkpt>
      <trkpt lat="48.69586" lon="2.50656">
        <ele>90.4923</ele>
        <time>2018-04-18T08:06:03Z</time>
      </trkpt>
      <trkpt lat="48.69586" lon="2.50659">
        <ele>90.478</ele>
        <time>2018-04-18T08:06:05Z</time>
      </trkpt>
      <trkpt lat="48.69585" lon="2.50663">
        <ele>90.4629</ele>
        <time>2018-04-18T08:06:07Z</time>
      </trkpt>
      <trkpt lat="48.69583" lon="2.5067">
        <ele>90.4258</ele>
        <time>2018-04-18T08:06:12Z</time>
      </trkpt>
      <trkpt lat="48.69582" lon="2.50678">
        <ele>90.3979</ele>
        <time>2018-04-18T08:06:16Z</time>
      </trkpt>
      <trkpt lat="48.6958" lon="2.50685">
        <ele>90.3688</ele>
        <time>2018-04-18T08:06:20Z</time>
      </trkpt>
      <trkpt lat="48.6958" lon="2.50688">
        <ele>90.3448</ele>
        <time>2018-04-18T08:06:23Z</time>
      </trkpt>
      <trkpt lat="48.69579" lon="2.50692">
        <ele>90.3297</ele>
        <time>2018-04-18T08:06:25Z</time>
      </trkpt>
      <trkpt lat="48.69577" lon="2.50697">
        <ele>90.3147</ele>
        <time>2018-04-18T08:06:27Z</time>
      </trkpt>
      <trkpt lat="48.69576" lon="2.50702">
        <ele>90.2997</ele>
        <time>2018-04-18T08:06:29Z</time>
      </trkpt>
      <trkpt lat="48.69575" lon="2.50706">
        <ele>90.2841</ele>
        <time>2018-04-18T08:06:31Z</time>
      </trkpt>
      <trkpt lat="48.69574" lon="2.50715">
        <ele>90.2512</ele>
        <time>2018-04-18T08:06:35Z</time>
      </trkpt>
      <trkpt lat="48.69577" lon="2.50723">
        <ele>90.2188</ele>
        <time>2018-04-18T08:06:39Z</time>
      </trkpt>
      <trkpt lat="48.69578" lon="2.5073">
        <ele>90.1885</ele>
        <time>2018-04-18T08:06:43Z</time>
      </trkpt>
      <trkpt lat="48.69581" lon="2.50736">
        <ele>90.1596</ele>
        <time>2018-04-18T08:06:47Z</time>
      </trkpt>
      <trkpt lat="48.69583" lon="2.50741">
        <ele>90.1459</ele>
        <time>2018-04-18T08:06:49Z</time>
      </trkpt>
      <trkpt lat="48.69585" lon="2.50745">
        <ele>90.133</ele>
        <time>2018-04-18T08:06:51Z</time>
      </trkpt>
      <trkpt lat="48.69586" lon="2.5075">
        <ele>90.1157</ele>
        <time>2018-04-18T08:06:54Z</time>
      </trkpt>
      <trkpt lat="48.69588" lon="2.50755">
        <ele>90.1047</ele>
        <time>2018-04-18T08:06:56Z</time>
      </trkpt>
      <trkpt lat="48.69589" lon="2.50759">
        <ele>90.0936</ele>
        <time>2018-04-18T08:06:58Z</time>
      </trkpt>
      <trkpt lat="48.69591" lon="2.50766">
        <ele>90.0759</ele>
        <time>2018-04-18T08:07:01Z</time>
      </trkpt>
      <trkpt lat="48.69592" lon="2.5077">
        <ele>90.0634</ele>
        <time>2018-04-18T08:07:03Z</time>
      </trkpt>
      <trkpt lat="48.69593" lon="2.50777">
        <ele>90.038</ele>
        <time>2018-04-18T08:07:07Z</time>
      </trkpt>
      <trkpt lat="48.69595" lon="2.50783">
        <ele>90.0114</ele>
        <time>2018-04-18T08:07:11Z</time>
      </trkpt>
      <trkpt lat="48.69596" lon="2.50787">
        <ele>89.9974</ele>
        <time>2018-04-18T08:07:13Z</time>
      </trkpt>
      <trkpt lat="48.69597" lon="2.50791">
        <ele>89.9829</ele>
        <time>2018-04-18T08:07:15Z</time>
      </trkpt>
      <trkpt lat="48.69598" lon="2.50795">
        <ele>89.9615</ele>
        <time>2018-04-18T08:07:18Z</time>
      </trkpt>
      <trkpt lat="48.696" lon="2.508">
        <ele>89.941</ele>
        <time>2018-04-18T08:07:21Z</time>
      </trkpt>
      <trkpt lat="48.69602" lon="2.50806">
        <ele>89.9103</ele>
        <time>2018-04-18T08:07:25Z</time>
      </trkpt>
      <trkpt lat="48.69604" lon="2.50813">
        <ele>89.8706</ele>
        <time>2018-04-18T08:07:30Z</time>
      </trkpt>
      <trkpt lat="48.69606" lon="2.50819">
        <ele>89.8449</ele>
        <time>2018-04-18T08:07:33Z</time>
      </trkpt>
      <trkpt lat="48.69607" lon="2.50823">
        <ele>89.8287</ele>
        <time>2018-04-18T08:07:35Z</time>
      </trkpt>
      <trkpt lat="48.69609" lon="2.50828">
        <ele>89.8064</ele>
        <time>2018-04-18T08:07:38Z</time>
      </trkpt>
      <trkpt lat="48.69609" lon="2.50835">
        <ele>89.7733</ele>
        <time>2018-04-18T08:07:43Z</time>
      </trkpt>
      <trkpt lat="48.69609" lon="2.50842">
        <ele>89.7486</ele>
        <time>2018-04-18T08:07:47Z</time>
      </trkpt>
      <trkpt lat="48.69607" lon="2.50851">
        <ele>89.733</ele>
        <time>2018-04-18T08:07:50Z</time>
      </trkpt>
      <trkpt lat="48.69609" lon="2.50858">
        <ele>89.7146</ele>
        <time>2018-04-18T08:07:54Z</time>
      </trkpt>
      <trkpt lat="48.6961" lon="2.50863">
        <ele>89.6978</ele>
        <time>2018-04-18T08:07:58Z</time>
      </trkpt>
      <trkpt lat="48.69611" lon="2.50868">
        <ele>89.6859</ele>
        <time>2018-04-18T08:08:03Z</time>
      </trkpt>
      <trkpt lat="48.69611" lon="2.50876">
        <ele>89.6844</ele>
        <time>2018-04-18T08:08:07Z</time>
      </trkpt>
      <trkpt lat="48.69611" lon="2.50881">
        <ele>89.6862</ele>
        <time>2018-04-18T08:08:09Z</time>
      </trkpt>
      <trkpt lat="48.69612" lon="2.50886">
        <ele>89.6887</ele>
        <time>2018-04-18T08:08:11Z</time>
      </trkpt>
      <trkpt lat="48.69612" lon="2.50893">
        <ele>89.6934</ele>
        <time>2018-04-18T08:08:14Z</time>
      </trkpt>
      <trkpt lat="48.69611" lon="2.509">
        <ele>89.7017</ele>
        <time>2018-04-18T08:08:19Z</time>
      </trkpt>
      <trkpt lat="48.69611" lon="2.50904">
        <ele>89.7056</ele>
        <time>2018-04-18T08:08:22Z</time>
      </trkpt>
      <trkpt lat="48.69611" lon="2.50911">
        <ele>89.7116</ele>
        <time>2018-04-18T08:08:26Z</time>
      </trkpt>
      <trkpt lat="48.69613" lon="2.50918">
        <ele>89.7245</ele>
        <time>2018-04-18T08:08:32Z</time>
      </trkpt>
      <trkpt lat="48.69616" lon="2.50924">
        <ele>89.7281</ele>
        <time>2018-04-18T08:08:34Z</time>
      </trkpt>
      <trkpt lat="48.69617" lon="2.50929">
        <ele>89.731</ele>
        <time>2018-04-18T08:08:36Z</time>
      </trkpt>
      <trkpt lat="48.69619" lon="2.50935">
        <ele>89.7337</ele>
        <time>2018-04-18T08:08:38Z</time>
      </trkpt>
      <trkpt lat="48.69622" lon="2.50943">
        <ele>89.7358</ele>
        <time>2018-04-18T08:08:41Z</time>
      </trkpt>
      <trkpt lat="48.69624" lon="2.50948">
        <ele>89.7369</ele>
        <time>2018-04-18T08:08:43Z</time>
      </trkpt>
      <trkpt lat="48.69626" lon="2.50957">
        <ele>89.7399</ele>
        <time>2018-04-18T08:08:47Z</time>
      </trkpt>
      <trkpt lat="48.69629" lon="2.50967">
        <ele>89.7451</ele>
        <time>2018-04-18T08:08:52Z</time>
      </trkpt>
      <trkpt lat="48.69627" lon="2.50975">
        <ele>89.749</ele>
        <time>2018-04-18T08:08:55Z</time>
      </trkpt>
      <trkpt lat="48.69628" lon="2.50981">
        <ele>89.7609</ele>
        <time>2018-04-18T08:09:03Z</time>
      </trkpt>
      <trkpt lat="48.6963" lon="2.50987">
        <ele>89.7701</ele>
        <time>2018-04-18T08:09:08Z</time>
      </trkpt>
      <trkpt lat="48.69632" lon="2.50993">
        <ele>89.7746</ele>
        <time>2018-04-18T08:09:11Z</time>
      </trkpt>
      <trkpt lat="48.69633" lon="2.51001">
        <ele>89.7806</ele>
        <time>2018-04-18T08:09:15Z</time>
      </trkpt>
      <trkpt lat="48.69635" lon="2.51007">
        <ele>89.79</ele>
        <time>2018-04-18T08:09:20Z</time>
      </trkpt>
      <trkpt lat="48.69636" lon="2.5101">
        <ele>89.7943</ele>
        <time>2018-04-18T08:09:22Z</time>
      </trkpt>
      <trkpt lat="48.69637" lon="2.51017">
        <ele>89.8052</ele>
        <time>2018-04-18T08:09:26Z</time>
      </trkpt>
      <trkpt lat="48.69638" lon="2.51023">
        <ele>89.8157</ele>
        <time>2018-04-18T08:09:29Z</time>
      </trkpt>
      <trkpt lat="48.6964" lon="2.5103">
        <ele>89.8321</ele>
        <time>2018-04-18T08:09:34Z</time>
      </trkpt>
      <trkpt lat="48.69642" lon="2.51038">
        <ele>89.8448</ele>
        <time>2018-04-18T08:09:39Z</time>
      </trkpt>
      <trkpt lat="48.69643" lon="2.51041">
        <ele>89.8483</ele>
        <time>2018-04-18T08:09:41Z</time>
      </trkpt>
      <trkpt lat="48.69646" lon="2.51047">
        <ele>89.8501</ele>
        <time>2018-04-18T08:09:46Z</time>
      </trkpt>
      <trkpt lat="48.69647" lon="2.51054">
        <ele>89.8495</ele>
        <time>2018-04-18T08:09:50Z</time>
      </trkpt>
      <trkpt lat="48.69648" lon="2.51058">
        <ele>89.8503</ele>
        <time>2018-04-18T08:09:52Z</time>
      </trkpt>
      <trkpt lat="48.6965" lon="2.51066">
        <ele>89.8517</ele>
        <time>2018-04-18T08:09:56Z</time>
      </trkpt>
      <trkpt lat="48.69652" lon="2.51071">
        <ele>89.8517</ele>
        <time>2018-04-18T08:09:58Z</time>
      </trkpt>
      <trkpt lat="48.69652" lon="2.51079">
        <ele>89.8521</ele>
        <time>2018-04-18T08:10:03Z</time>
      </trkpt>
      <trkpt lat="48.69653" lon="2.51084">
        <ele>89.8532</ele>
        <time>2018-04-18T08:10:07Z</time>
      </trkpt>
      <trkpt lat="48.69654" lon="2.51092">
        <ele>89.8563</ele>
        <time>2018-04-18T08:10:11Z</time>
      </trkpt>
      <trkpt lat="48.69654" lon="2.51099">
        <ele>89.8573</ele>
        <time>2018-04-18T08:10:14Z</time>
      </trkpt>
      <trkpt lat="48.69656" lon="2.51108">
        <ele>89.8505</ele>
        <time>2018-04-18T08:10:18Z</time>
      </trkpt>
      <trkpt lat="48.69657" lon="2.51118">
        <ele>89.8347</ele>
        <time>2018-04-18T08:10:22Z</time>
      </trkpt>
      <trkpt lat="48.69658" lon="2.51123">
        <ele>89.8242</ele>
        <time>2018-04-18T08:10:24Z</time>
      </trkpt>
      <trkpt lat="48.69661" lon="2.51129">
        <ele>89.7915</ele>
        <time>2018-04-18T08:10:30Z</time>
      </trkpt>
      <trkpt lat="48.69663" lon="2.51136">
        <ele>89.7666</ele>
        <time>2018-04-18T08:10:35Z</time>
      </trkpt>
      <trkpt lat="48.6966" lon="2.51143">
        <ele>89.7494</ele>
        <time>2018-04-18T08:10:39Z</time>
      </trkpt>
      <trkpt lat="48.69658" lon="2.51149">
        <ele>89.7331</ele>
        <time>2018-04-18T08:10:43Z</time>
      </trkpt>
      <trkpt lat="48.69656" lon="2.51155">
        <ele>89.7176</ele>
        <time>2018-04-18T08:10:47Z</time>
      </trkpt>
      <trkpt lat="48.69653" lon="2.51163">
        <ele>89.6937</ele>
        <time>2018-04-18T08:10:52Z</time>
      </trkpt>
      <trkpt lat="48.6965" lon="2.5117">
        <ele>89.669</ele>
        <time>2018-04-18T08:10:56Z</time>
      </trkpt>
      <trkpt lat="48.69652" lon="2.51178">
        <ele>89.6303</ele>
        <time>2018-04-18T08:11:01Z</time>
      </trkpt>
      <trkpt lat="48.69656" lon="2.51183">
        <ele>89.6053</ele>
        <time>2018-04-18T08:11:04Z</time>
      </trkpt>
      <trkpt lat="48.6966" lon="2.51186">
        <ele>89.5794</ele>
        <time>2018-04-18T08:11:07Z</time>
      </trkpt>
      <trkpt lat="48.69662" lon="2.51188">
        <ele>89.5544</ele>
        <time>2018-04-18T08:11:10Z</time>
      </trkpt>
      <trkpt lat="48.69666" lon="2.51193">
        <ele>89.5155</ele>
        <time>2018-04-18T08:11:14Z</time>
      </trkpt>
      <trkpt lat="48.69668" lon="2.51196">
        <ele>89.4957</ele>
        <time>2018-04-18T08:11:16Z</time>
      </trkpt>
      <trkpt lat="48.69671" lon="2.51202">
        <ele>89.4534</ele>
        <time>2018-04-18T08:11:20Z</time>
      </trkpt>
      <trkpt lat="48.69673" lon="2.51205">
        <ele>89.4314</ele>
        <time>2018-04-18T08:11:22Z</time>
      </trkpt>
      <trkpt lat="48.69677" lon="2.5121">
        <ele>89.3889</ele>
        <time>2018-04-18T08:11:26Z</time>
      </trkpt>
      <trkpt lat="48.6968" lon="2.51217">
        <ele>89.3466</ele>
        <time>2018-04-18T08:11:30Z</time>
      </trkpt>
      <trkpt lat="48.69681" lon="2.51224">
        <ele>89.2937</ele>
        <time>2018-04-18T08:11:35Z</time>
      </trkpt>
      <trkpt lat="48.69683" lon="2.51231">
        <ele>89.2643</ele>
        <time>2018-04-18T08:11:38Z</time>
      </trkpt>
      <trkpt lat="48.69685" lon="2.51235">
        <ele>89.244</ele>
        <time>2018-04-18T08:11:40Z</time>
      </trkpt>
      <trkpt lat="48.69686" lon="2.51239">
        <ele>89.2232</ele>
        <time>2018-04-18T08:11:42Z</time>
      </trkpt>
      <trkpt lat="48.69689" lon="2.51245">
        <ele>89.1695</ele>
        <time>2018-04-18T08:11:48Z</time>
      </trkpt>
      <trkpt lat="48.69691" lon="2.51252">
        <ele>89.1372</ele>
        <time>2018-04-18T08:11:52Z</time>
      </trkpt>
      <trkpt lat="48.69692" lon="2.51259">
        <ele>89.1022</ele>
        <time>2018-04-18T08:11:57Z</time>
      </trkpt>
      <trkpt lat="48.69694" lon="2.51267">
        <ele>89.0786</ele>
        <time>2018-04-18T08:12:01Z</time>
      </trkpt>
      <trkpt lat="48.69695" lon="2.5127">
        <ele>89.0664</ele>
        <time>2018-04-18T08:12:03Z</time>
      </trkpt>
      <trkpt lat="48.69696" lon="2.51274">
        <ele>89.0526</ele>
        <time>2018-04-18T08:12:05Z</time>
      </trkpt>
      <trkpt lat="48.69697" lon="2.51278">
        <ele>89.0377</ele>
        <time>2018-04-18T08:12:07Z</time>
      </trkpt>
      <trkpt lat="48.69698" lon="2.51282">
        <ele>89.0236</ele>
        <time>2018-04-18T08:12:09Z</time>
      </trkpt>
      <trkpt lat="48.69699" lon="2.51287">
        <ele>89.0107</ele>
        <time>2018-04-18T08:12:11Z</time>
      </trkpt>
      <trkpt lat="48.697" lon="2.51291">
        <ele>88.9916</ele>
        <time>2018-04-18T08:12:14Z</time>
      </trkpt>
      <trkpt lat="48.69703" lon="2.51299">
        <ele>88.953</ele>
        <time>2018-04-18T08:12:20Z</time>
      </trkpt>
      <trkpt lat="48.69705" lon="2.51306">
        <ele>88.9185</ele>
        <time>2018-04-18T08:12:25Z</time>
      </trkpt>
      <trkpt lat="48.69705" lon="2.5131">
        <ele>88.9043</ele>
        <time>2018-04-18T08:12:27Z</time>
      </trkpt>
      <trkpt lat="48.69707" lon="2.51316">
        <ele>88.8836</ele>
        <time>2018-04-18T08:12:30Z</time>
      </trkpt>
      <trkpt lat="48.69708" lon="2.51322">
        <ele>88.8646</ele>
        <time>2018-04-18T08:12:33Z</time>
      </trkpt>
      <trkpt lat="48.6971" lon="2.5133">
        <ele>88.8448</ele>
        <time>2018-04-18T08:12:36Z</time>
      </trkpt>
      <trkpt lat="48.69711" lon="2.51334">
        <ele>88.832</ele>
        <time>2018-04-18T08:12:38Z</time>
      </trkpt>
      <trkpt lat="48.6971" lon="2.51341">
        <ele>88.8065</ele>
        <time>2018-04-18T08:12:42Z</time>
      </trkpt>
      <trkpt lat="48.69712" lon="2.51348">
        <ele>88.7813</ele>
        <time>2018-04-18T08:12:46Z</time>
      </trkpt>
      <trkpt lat="48.69713" lon="2.51351">
        <ele>88.7683</ele>
        <time>2018-04-18T08:12:48Z</time>
      </trkpt>
      <trkpt lat="48.69716" lon="2.51357">
        <ele>88.7322</ele>
        <time>2018-04-18T08:12:53Z</time>
      </trkpt>
      <trkpt lat="48.69717" lon="2.5136">
        <ele>88.7153</ele>
        <time>2018-04-18T08:12:55Z</time>
      </trkpt>
      <trkpt lat="48.69718" lon="2.51367">
        <ele>88.6847</ele>
        <time>2018-04-18T08:12:58Z</time>
      </trkpt>
      <trkpt lat="48.69717" lon="2.51375">
        <ele>88.6374</ele>
        <time>2018-04-18T08:13:02Z</time>
      </trkpt>
      <trkpt lat="48.69713" lon="2.51382">
        <ele>88.5969</ele>
        <time>2018-04-18T08:13:06Z</time>
      </trkpt>
      <trkpt lat="48.69712" lon="2.51385">
        <ele>88.5789</ele>
        <time>2018-04-18T08:13:08Z</time>
      </trkpt>
      <trkpt lat="48.6971" lon="2.51387">
        <ele>88.5617</ele>
        <time>2018-04-18T08:13:10Z</time>
      </trkpt>
      <trkpt lat="48.69705" lon="2.51391">
        <ele>88.5269</ele>
        <time>2018-04-18T08:13:14Z</time>
      </trkpt>
      <trkpt lat="48.69701" lon="2.51396">
        <ele>88.4906</ele>
        <time>2018-04-18T08:13:18Z</time>
      </trkpt>
      <trkpt lat="48.69697" lon="2.51402">
        <ele>88.4536</ele>
        <time>2018-04-18T08:13:23Z</time>
      </trkpt>
      <trkpt lat="48.69693" lon="2.51405">
        <ele>88.4269</ele>
        <time>2018-04-18T08:13:29Z</time>
      </trkpt>
      <trkpt lat="48.69688" lon="2.51411">
        <ele>88.4104</ele>
        <time>2018-04-18T08:13:34Z</time>
      </trkpt>
      <trkpt lat="48.69686" lon="2.51414">
        <ele>88.4042</ele>
        <time>2018-04-18T08:13:37Z</time>
      </trkpt>
      <trkpt lat="48.69682" lon="2.51418">
        <ele>88.3997</ele>
        <time>2018-04-18T08:13:41Z</time>
      </trkpt>
      <trkpt lat="48.6968" lon="2.5142">
        <ele>88.3985</ele>
        <time>2018-04-18T08:13:43Z</time>
      </trkpt>
      <trkpt lat="48.69678" lon="2.51427">
        <ele>88.395</ele>
        <time>2018-04-18T08:13:47Z</time>
      </trkpt>
      <trkpt lat="48.69679" lon="2.51434">
        <ele>88.388</ele>
        <time>2018-04-18T08:13:50Z</time>
      </trkpt>
      <trkpt lat="48.69679" lon="2.51439">
        <ele>88.3817</ele>
        <time>2018-04-18T08:13:52Z</time>
      </trkpt>
      <trkpt lat="48.6968" lon="2.51443">
        <ele>88.3742</ele>
        <time>2018-04-18T08:13:54Z</time>
      </trkpt>
      <trkpt lat="48.69683" lon="2.51449">
        <ele>88.3569</ele>
        <time>2018-04-18T08:13:58Z</time>
      </trkpt>
      <trkpt lat="48.69683" lon="2.51457">
        <ele>88.3278</ele>
        <time>2018-04-18T08:14:03Z</time>
      </trkpt>
      <trkpt lat="48.69685" lon="2.51464">
        <ele>88.3082</ele>
        <time>2018-04-18T08:14:06Z</time>
      </trkpt>
      <trkpt lat="48.69687" lon="2.51467">
        <ele>88.2942</ele>
        <time>2018-04-18T08:14:08Z</time>
      </trkpt>
      <trkpt lat="48.69688" lon="2.51472">
        <ele>88.2779</ele>
        <time>2018-04-18T08:14:10Z</time>
      </trkpt>
      <trkpt lat="48.69689" lon="2.5148">
        <ele>88.2435</ele>
        <time>2018-04-18T08:14:14Z</time>
      </trkpt>
      <trkpt lat="48.69691" lon="2.51487">
        <ele>88.2098</ele>
        <time>2018-04-18T08:14:18Z</time>
      </trkpt>
      <trkpt lat="48.69692" lon="2.51496">
        <ele>88.1571</ele>
        <time>2018-04-18T08:14:23Z</time>
      </trkpt>
      <trkpt lat="48.69692" lon="2.51503">
        <ele>88.1112</ele>
        <time>2018-04-18T08:14:27Z</time>
      </trkpt>
      <trkpt lat="48.69693" lon="2.51511">
        <ele>88.0642</ele>
        <time>2018-04-18T08:14:31Z</time>
      </trkpt>
      <trkpt lat="48.69695" lon="2.51519">
        <ele>88.0136</ele>
        <time>2018-04-18T08:14:35Z</time>
      </trkpt>
      <trkpt lat="48.69695" lon="2.51527">
        <ele>87.9611</ele>
        <time>2018-04-18T08:14:39Z</time>
      </trkpt>
      <trkpt lat="48.69696" lon="2.51535">
        <ele>87.9145</ele>
        <time>2018-04-18T08:14:43Z</time>
      </trkpt>
      <trkpt lat="48.69697" lon="2.51539">
        <ele>87.8922</ele>
        <time>2018-04-18T08:14:45Z</time>
      </trkpt>
      <trkpt lat="48.69698" lon="2.51543">
        <ele>87.8702</ele>
        <time>2018-04-18T08:14:47Z</time>
      </trkpt>
      <trkpt lat="48.69698" lon="2.51546">
        <ele>87.8492</ele>
        <time>2018-04-18T08:14:49Z</time>
      </trkpt>
      <trkpt lat="48.69699" lon="2.51551">
        <ele>87.8297</ele>
        <time>2018-04-18T08:14:51Z</time>
      </trkpt>
      <trkpt lat="48.697" lon="2.51554">
        <ele>87.8118</ele>
        <time>2018-04-18T08:14:53Z</time>
      </trkpt>
      <trkpt lat="48.69701" lon="2.51563">
        <ele>87.7725</ele>
        <time>2018-04-18T08:14:58Z</time>
      </trkpt>
      <trkpt lat="48.69701" lon="2.51572">
        <ele>87.7445</ele>
        <time>2018-04-18T08:15:02Z</time>
      </trkpt>
      <trkpt lat="48.69702" lon="2.51578">
        <ele>87.7229</ele>
        <time>2018-04-18T08:15:05Z</time>
      </trkpt>
      <trkpt lat="48.69702" lon="2.51586">
        <ele>87.6858</ele>
        <time>2018-04-18T08:15:10Z</time>
      </trkpt>
      <trkpt lat="48.69702" lon="2.51591">
        <ele>87.6607</ele>
        <time>2018-04-18T08:15:13Z</time>
      </trkpt>
      <trkpt lat="48.69703" lon="2.51595">
        <ele>87.6421</ele>
        <time>2018-04-18T08:15:15Z</time>
      </trkpt>
      <trkpt lat="48.69704" lon="2.51602">
        <ele>87.6041</ele>
        <time>2018-04-18T08:15:19Z</time>
      </trkpt>
      <trkpt lat="48.69704" lon="2.5161">
        <ele>87.5679</ele>
        <time>2018-04-18T08:15:23Z</time>
      </trkpt>
      <trkpt lat="48.69704" lon="2.51615">
        <ele>87.5421</ele>
        <time>2018-04-18T08:15:26Z</time>
      </trkpt>
      <trkpt lat="48.69705" lon="2.51624">
        <ele>87.5045</ele>
        <time>2018-04-18T08:15:30Z</time>
      </trkpt>
      <trkpt lat="48.69705" lon="2.51632">
        <ele>87.4706</ele>
        <time>2018-04-18T08:15:34Z</time>
      </trkpt>
      <trkpt lat="48.69706" lon="2.5164">
        <ele>87.432</ele>
        <time>2018-04-18T08:15:39Z</time>
      </trkpt>
      <trkpt lat="48.69709" lon="2.51651">
        <ele>87.3841</ele>
        <time>2018-04-18T08:15:44Z</time>
      </trkpt>
      <trkpt lat="48.69711" lon="2.51658">
        <ele>87.34</ele>
        <time>2018-04-18T08:15:48Z</time>
      </trkpt>
      <trkpt lat="48.69712" lon="2.51662">
        <ele>87.3071</ele>
        <time>2018-04-18T08:15:51Z</time>
      </trkpt>
      <trkpt lat="48.69713" lon="2.51671">
        <ele>87.2653</ele>
        <time>2018-04-18T08:15:55Z</time>
      </trkpt>
      <trkpt lat="48.69714" lon="2.51678">
        <ele>87.2236</ele>
        <time>2018-04-18T08:15:59Z</time>
      </trkpt>
      <trkpt lat="48.69717" lon="2.51684">
        <ele>87.1931</ele>
        <time>2018-04-18T08:16:02Z</time>
      </trkpt>
      <trkpt lat="48.69719" lon="2.51691">
        <ele>87.1544</ele>
        <time>2018-04-18T08:16:06Z</time>
      </trkpt>
      <trkpt lat="48.69721" lon="2.51696">
        <ele>87.1242</ele>
        <time>2018-04-18T08:16:09Z</time>
      </trkpt>
      <trkpt lat="48.69721" lon="2.51703">
        <ele>87.0812</ele>
        <time>2018-04-18T08:16:14Z</time>
      </trkpt>
      <trkpt lat="48.69724" lon="2.51711">
        <ele>87.0445</ele>
        <time>2018-04-18T08:16:18Z</time>
      </trkpt>
      <trkpt lat="48.69726" lon="2.51718">
        <ele>87.0207</ele>
        <time>2018-04-18T08:16:21Z</time>
      </trkpt>
      <trkpt lat="48.69728" lon="2.51724">
        <ele>87.0058</ele>
        <time>2018-04-18T08:16:23Z</time>
      </trkpt>
      <trkpt lat="48.69731" lon="2.5173">
        <ele>86.9835</ele>
        <time>2018-04-18T08:16:26Z</time>
      </trkpt>
      <trkpt lat="48.69735" lon="2.51734">
        <ele>86.9436</ele>
        <time>2018-04-18T08:16:32Z</time>
      </trkpt>
      <trkpt lat="48.69738" lon="2.51737">
        <ele>86.9263</ele>
        <time>2018-04-18T08:16:35Z</time>
      </trkpt>
      <trkpt lat="48.69744" lon="2.51737">
        <ele>86.8999</ele>
        <time>2018-04-18T08:16:40Z</time>
      </trkpt>
      <trkpt lat="48.69748" lon="2.51742">
        <ele>86.8792</ele>
        <time>2018-04-18T08:16:44Z</time>
      </trkpt>
      <trkpt lat="48.69752" lon="2.51748">
        <ele>86.8578</ele>
        <time>2018-04-18T08:16:48Z</time>
      </trkpt>
      <trkpt lat="48.69754" lon="2.51754">
        <ele>86.8421</ele>
        <time>2018-04-18T08:16:51Z</time>
      </trkpt>
      <trkpt lat="48.69756" lon="2.51757">
        <ele>86.8323</ele>
        <time>2018-04-18T08:16:53Z</time>
      </trkpt>
      <trkpt lat="48.69758" lon="2.5176">
        <ele>86.8197</ele>
        <time>2018-04-18T08:16:56Z</time>
      </trkpt>
      <trkpt lat="48.69759" lon="2.51763">
        <ele>86.8118</ele>
        <time>2018-04-18T08:16:58Z</time>
      </trkpt>
      <trkpt lat="48.69764" lon="2.5177">
        <ele>86.7972</ele>
        <time>2018-04-18T08:17:02Z</time>
      </trkpt>
      <trkpt lat="48.69766" lon="2.51778">
        <ele>86.7776</ele>
        <time>2018-04-18T08:17:07Z</time>
      </trkpt>
      <trkpt lat="48.69769" lon="2.51785">
        <ele>86.7596</ele>
        <time>2018-04-18T08:17:11Z</time>
      </trkpt>
      <trkpt lat="48.69774" lon="2.51787">
        <ele>86.7404</ele>
        <time>2018-04-18T08:17:15Z</time>
      </trkpt>
      <trkpt lat="48.69778" lon="2.51789">
        <ele>86.7121</ele>
        <time>2018-04-18T08:17:21Z</time>
      </trkpt>
      <trkpt lat="48.69783" lon="2.51792">
        <ele>86.6983</ele>
        <time>2018-04-18T08:17:25Z</time>
      </trkpt>
      <trkpt lat="48.69785" lon="2.51793">
        <ele>86.6926</ele>
        <time>2018-04-18T08:17:27Z</time>
      </trkpt>
      <trkpt lat="48.6979" lon="2.51795">
        <ele>86.6815</ele>
        <time>2018-04-18T08:17:32Z</time>
      </trkpt>
      <trkpt lat="48.69795" lon="2.51799">
        <ele>86.6754</ele>
        <time>2018-04-18T08:17:36Z</time>
      </trkpt>
      <trkpt lat="48.69797" lon="2.518">
        <ele>86.6735</ele>
        <time>2018-04-18T08:17:38Z</time>
      </trkpt>
      <trkpt lat="48.69802" lon="2.51805">
        <ele>86.671</ele>
        <time>2018-04-18T08:17:43Z</time>
      </trkpt>
      <trkpt lat="48.69805" lon="2.51807">
        <ele>86.6708</ele>
        <time>2018-04-18T08:17:45Z</time>
      </trkpt>
      <trkpt lat="48.69807" lon="2.51809">
        <ele>86.6708</ele>
        <time>2018-04-18T08:17:48Z</time>
      </trkpt>
      <trkpt lat="48.69812" lon="2.51811">
        <ele>86.6713</ele>
        <time>2018-04-18T08:17:52Z</time>
      </trkpt>
      <trkpt lat="48.69816" lon="2.51814">
        <ele>86.6756</ele>
        <time>2018-04-18T08:17:57Z</time>
      </trkpt>
      <trkpt lat="48.69818" lon="2.51816">
        <ele>86.6803</ele>
        <time>2018-04-18T08:18:00Z</time>
      </trkpt>
      <trkpt lat="48.6982" lon="2.51818">
        <ele>86.6844</ele>
        <time>2018-04-18T08:18:02Z</time>
      </trkpt>
      <trkpt lat="48.69824" lon="2.5182">
        <ele>86.6914</ele>
        <time>2018-04-18T08:18:05Z</time>
      </trkpt>
      <trkpt lat="48.69827" lon="2.51821">
        <ele>86.6972</ele>
        <time>2018-04-18T08:18:07Z</time>
      </trkpt>
      <trkpt lat="48.69829" lon="2.51822">
        <ele>86.7036</ele>
        <time>2018-04-18T08:18:09Z</time>
      </trkpt>
      <trkpt lat="48.69833" lon="2.51827">
        <ele>86.7203</ele>
        <time>2018-04-18T08:18:14Z</time>
      </trkpt>
      <trkpt lat="48.69837" lon="2.51831">
        <ele>86.7301</ele>
        <time>2018-04-18T08:18:17Z</time>
      </trkpt>
      <trkpt lat="48.69841" lon="2.51834">
        <ele>86.7401</ele>
        <time>2018-04-18T08:18:20Z</time>
      </trkpt>
      <trkpt lat="48.69846" lon="2.51839">
        <ele>86.7524</ele>
        <time>2018-04-18T08:18:24Z</time>
      </trkpt>
      <trkpt lat="48.69849" lon="2.51845">
        <ele>86.7662</ele>
        <time>2018-04-18T08:18:28Z</time>
      </trkpt>
      <trkpt lat="48.69851" lon="2.51848">
        <ele>86.7742</ele>
        <time>2018-04-18T08:18:30Z</time>
      </trkpt>
      <trkpt lat="48.69855" lon="2.51853">
        <ele>86.7993</ele>
        <time>2018-04-18T08:18:35Z</time>
      </trkpt>
      <trkpt lat="48.69859" lon="2.51859">
        <ele>86.8258</ele>
        <time>2018-04-18T08:18:40Z</time>
      </trkpt>
      <trkpt lat="48.69863" lon="2.51863">
        <ele>86.846</ele>
        <time>2018-04-18T08:18:44Z</time>
      </trkpt>
      <trkpt lat="48.69866" lon="2.51865">
        <ele>86.8634</ele>
        <time>2018-04-18T08:18:47Z</time>
      </trkpt>
      <trkpt lat="48.69869" lon="2.51868">
        <ele>86.8891</ele>
        <time>2018-04-18T08:18:51Z</time>
      </trkpt>
      <trkpt lat="48.69872" lon="2.51874">
        <ele>86.9267</ele>
        <time>2018-04-18T08:18:56Z</time>
      </trkpt>
      <trkpt lat="48.69875" lon="2.51879">
        <ele>86.9577</ele>
        <time>2018-04-18T08:19:00Z</time>
      </trkpt>
      <trkpt lat="48.69879" lon="2.51883">
        <ele>86.9884</ele>
        <time>2018-04-18T08:19:04Z</time>
      </trkpt>
      <trkpt lat="48.69881" lon="2.51885">
        <ele>87.0037</ele>
        <time>2018-04-18T08:19:06Z</time>
      </trkpt>
      <trkpt lat="48.69885" lon="2.51891">
        <ele>87.0508</ele>
        <time>2018-04-18T08:19:12Z</time>
      </trkpt>
      <trkpt lat="48.69888" lon="2.51898">
        <ele>87.0813</ele>
        <time>2018-04-18T08:19:16Z</time>
      </trkpt>
      <trkpt lat="48.69892" lon="2.51903">
        <ele>87.1175</ele>
        <time>2018-04-18T08:19:21Z</time>
      </trkpt>
      <trkpt lat="48.69896" lon="2.51906">
        <ele>87.1529</ele>
        <time>2018-04-18T08:19:26Z</time>
      </trkpt>
      <trkpt lat="48.69899" lon="2.51911">
        <ele>87.1796</ele>
        <time>2018-04-18T08:19:30Z</time>
      </trkpt>
      <trkpt lat="48.69904" lon="2.51916">
        <ele>87.2111</ele>
        <time>2018-04-18T08:19:35Z</time>
      </trkpt>
      <trkpt lat="48.69908" lon="2.51919">
        <ele>87.234</ele>
        <time>2018-04-18T08:19:39Z</time>
      </trkpt>
      <trkpt lat="48.69911" lon="2.51925">
        <ele>87.2562</ele>
        <time>2018-04-18T08:19:44Z</time>
      </trkpt>
      <trkpt lat="48.69916" lon="2.51932">
        <ele>87.2756</ele>
        <time>2018-04-18T08:19:50Z</time>
      </trkpt>
      <trkpt lat="48.69918" lon="2.51935">
        <ele>87.2847</ele>
        <time>2018-04-18T08:19:53Z</time>
      </trkpt>
      <trkpt lat="48.69921" lon="2.51941">
        <ele>87.298</ele>
        <time>2018-04-18T08:19:57Z</time>
      </trkpt>
      <trkpt lat="48.69925" lon="2.51946">
        <ele>87.3099</ele>
        <time>2018-04-18T08:20:01Z</time>
      </trkpt>
      <trkpt lat="48.69927" lon="2.51953">
        <ele>87.3304</ele>
        <time>2018-04-18T08:20:08Z</time>
      </trkpt>
      <trkpt lat="48.69929" lon="2.51959">
        <ele>87.3413</ele>
        <time>2018-04-18T08:20:12Z</time>
      </trkpt>
      <trkpt lat="48.69931" lon="2.51965">
        <ele>87.3534</ele>
        <time>2018-04-18T08:20:16Z</time>
      </trkpt>
      <trkpt lat="48.69936" lon="2.51969">
        <ele>87.3804</ele>
        <time>2018-04-18T08:20:23Z</time>
      </trkpt>
      <trkpt lat="48.69936" lon="2.51969">
        <ele>87.3804</ele>
        <time>2018-04-18T08:26:51Z</time>
      </trkpt>
      <trkpt lat="48.69947" lon="2.51985">
        <ele>89.3852</ele>
        <time>2018-04-18T08:35:27Z</time>
      </trkpt>
      <trkpt lat="48.69949" lon="2.51992">
        <ele>89.4031</ele>
        <time>2018-04-18T08:35:40Z</time>
      </trkpt>
      <trkpt lat="48.69954" lon="2.51996">
        <ele>89.4026</ele>
        <time>2018-04-18T08:35:45Z</time>
      </trkpt>
      <trkpt lat="48.69957" lon="2.52002">
        <ele>89.4007</ele>
        <time>2018-04-18T08:35:49Z</time>
      </trkpt>
      <trkpt lat="48.69959" lon="2.52004">
        <ele>89.399</ele>
        <time>2018-04-18T08:35:54Z</time>
      </trkpt>
      <trkpt lat="48.69963" lon="2.52008">
        <ele>89.3951</ele>
        <time>2018-04-18T08:36:01Z</time>
      </trkpt>
      <trkpt lat="48.69967" lon="2.52016">
        <ele>89.3928</ele>
        <time>2018-04-18T08:36:07Z</time>
      </trkpt>
      <trkpt lat="48.6997" lon="2.52021">
        <ele>89.3931</ele>
        <time>2018-04-18T08:36:11Z</time>
      </trkpt>
      <trkpt lat="48.69975" lon="2.52025">
        <ele>89.3877</ele>
        <time>2018-04-18T08:36:16Z</time>
      </trkpt>
      <trkpt lat="48.69979" lon="2.52028">
        <ele>89.38</ele>
        <time>2018-04-18T08:36:19Z</time>
      </trkpt>
      <trkpt lat="48.69981" lon="2.5203">
        <ele>89.3728</ele>
        <time>2018-04-18T08:36:21Z</time>
      </trkpt>
      <trkpt lat="48.69984" lon="2.52032">
        <ele>89.359</ele>
        <time>2018-04-18T08:36:25Z</time>
      </trkpt>
      <trkpt lat="48.69989" lon="2.52036">
        <ele>89.3321</ele>
        <time>2018-04-18T08:36:30Z</time>
      </trkpt>
      <trkpt lat="48.69991" lon="2.52038">
        <ele>89.3194</ele>
        <time>2018-04-18T08:36:32Z</time>
      </trkpt>
      <trkpt lat="48.69995" lon="2.52043">
        <ele>89.2949</ele>
        <time>2018-04-18T08:36:36Z</time>
      </trkpt>
      <trkpt lat="48.69998" lon="2.52048">
        <ele>89.2833</ele>
        <time>2018-04-18T08:36:39Z</time>
      </trkpt>
      <trkpt lat="48.70001" lon="2.52051">
        <ele>89.2731</ele>
        <time>2018-04-18T08:36:42Z</time>
      </trkpt>
      <trkpt lat="48.70004" lon="2.52057">
        <ele>89.2627</ele>
        <time>2018-04-18T08:36:46Z</time>
      </trkpt>
      <trkpt lat="48.70006" lon="2.52063">
        <ele>89.26</ele>
        <time>2018-04-18T08:36:50Z</time>
      </trkpt>
      <trkpt lat="48.70008" lon="2.52068">
        <ele>89.2594</ele>
        <time>2018-04-18T08:36:53Z</time>
      </trkpt>
      <trkpt lat="48.70012" lon="2.52073">
        <ele>89.2573</ele>
        <time>2018-04-18T08:36:59Z</time>
      </trkpt>
      <trkpt lat="48.70014" lon="2.52076">
        <ele>89.2567</ele>
        <time>2018-04-18T08:37:01Z</time>
      </trkpt>
      <trkpt lat="48.70018" lon="2.52081">
        <ele>89.2555</ele>
        <time>2018-04-18T08:37:05Z</time>
      </trkpt>
      <trkpt lat="48.70023" lon="2.52083">
        <ele>89.2598</ele>
        <time>2018-04-18T08:37:12Z</time>
      </trkpt>
      <trkpt lat="48.70026" lon="2.52089">
        <ele>89.267</ele>
        <time>2018-04-18T08:37:17Z</time>
      </trkpt>
      <trkpt lat="48.70029" lon="2.52092">
        <ele>89.2731</ele>
        <time>2018-04-18T08:37:20Z</time>
      </trkpt>
      <trkpt lat="48.70032" lon="2.52098">
        <ele>89.2785</ele>
        <time>2018-04-18T08:37:24Z</time>
      </trkpt>
      <trkpt lat="48.70036" lon="2.52104">
        <ele>89.2847</ele>
        <time>2018-04-18T08:37:28Z</time>
      </trkpt>
      <trkpt lat="48.70038" lon="2.52106">
        <ele>89.2876</ele>
        <time>2018-04-18T08:37:30Z</time>
      </trkpt>
      <trkpt lat="48.7004" lon="2.52109">
        <ele>89.2897</ele>
        <time>2018-04-18T08:37:32Z</time>
      </trkpt>
      <trkpt lat="48.70045" lon="2.52113">
        <ele>89.2896</ele>
        <time>2018-04-18T08:37:36Z</time>
      </trkpt>
      <trkpt lat="48.70049" lon="2.52117">
        <ele>89.2795</ele>
        <time>2018-04-18T08:37:40Z</time>
      </trkpt>
      <trkpt lat="48.70053" lon="2.52122">
        <ele>89.2571</ele>
        <time>2018-04-18T08:37:47Z</time>
      </trkpt>
      <trkpt lat="48.70058" lon="2.52125">
        <ele>89.2369</ele>
        <time>2018-04-18T08:37:52Z</time>
      </trkpt>
      <trkpt lat="48.70062" lon="2.52125">
        <ele>89.2261</ele>
        <time>2018-04-18T08:37:55Z</time>
      </trkpt>
      <trkpt lat="48.70063" lon="2.52135">
        <ele>89.1919</ele>
        <time>2018-04-18T08:38:05Z</time>
      </trkpt>
      <trkpt lat="48.70066" lon="2.52142">
        <ele>89.1729</ele>
        <time>2018-04-18T08:38:10Z</time>
      </trkpt>
      <trkpt lat="48.70068" lon="2.52147">
        <ele>89.1639</ele>
        <time>2018-04-18T08:38:12Z</time>
      </trkpt>
      <trkpt lat="48.70073" lon="2.5215">
        <ele>89.1439</ele>
        <time>2018-04-18T08:38:16Z</time>
      </trkpt>
      <trkpt lat="48.70073" lon="2.5215">
        <ele>89.1439</ele>
        <time>2018-04-18T08:38:24Z</time>
      </trkpt>
      <trkpt lat="48.70073" lon="2.5215">
        <ele>89.1439</ele>
        <time>2018-04-18T08:38:25Z</time>
      </trkpt>
      <trkpt lat="48.7008" lon="2.52155">
        <ele>89.0935</ele>
        <time>2018-04-18T08:38:28Z</time>
      </trkpt>
      <trkpt lat="48.70082" lon="2.52161">
        <ele>89.0693</ele>
        <time>2018-04-18T08:38:32Z</time>
      </trkpt>
      <trkpt lat="48.70085" lon="2.52166">
        <ele>89.0522</ele>
        <time>2018-04-18T08:38:35Z</time>
      </trkpt>
      <trkpt lat="48.7009" lon="2.5217">
        <ele>89.0367</ele>
        <time>2018-04-18T08:38:38Z</time>
      </trkpt>
      <trkpt lat="48.70094" lon="2.52173">
        <ele>89.0232</ele>
        <time>2018-04-18T08:38:41Z</time>
      </trkpt>
      <trkpt lat="48.70097" lon="2.52179">
        <ele>89.0061</ele>
        <time>2018-04-18T08:38:45Z</time>
      </trkpt>
      <trkpt lat="48.70101" lon="2.52183">
        <ele>88.983</ele>
        <time>2018-04-18T08:38:51Z</time>
      </trkpt>
      <trkpt lat="48.70107" lon="2.52183">
        <ele>88.9676</ele>
        <time>2018-04-18T08:38:55Z</time>
      </trkpt>
      <trkpt lat="48.7011" lon="2.52183">
        <ele>88.9602</ele>
        <time>2018-04-18T08:38:57Z</time>
      </trkpt>
      <trkpt lat="48.70115" lon="2.52184">
        <ele>88.9418</ele>
        <time>2018-04-18T08:39:02Z</time>
      </trkpt>
      <trkpt lat="48.7012" lon="2.52187">
        <ele>88.9226</ele>
        <time>2018-04-18T08:39:07Z</time>
      </trkpt>
      <trkpt lat="48.70125" lon="2.52186">
        <ele>88.9067</ele>
        <time>2018-04-18T08:39:11Z</time>
      </trkpt>
      <trkpt lat="48.70129" lon="2.52185">
        <ele>88.8991</ele>
        <time>2018-04-18T08:39:13Z</time>
      </trkpt>
      <trkpt lat="48.70133" lon="2.52182">
        <ele>88.8769</ele>
        <time>2018-04-18T08:39:19Z</time>
      </trkpt>
      <trkpt lat="48.70137" lon="2.52182">
        <ele>88.8519</ele>
        <time>2018-04-18T08:39:27Z</time>
      </trkpt>
      <trkpt lat="48.70144" lon="2.52181">
        <ele>88.8319</ele>
        <time>2018-04-18T08:39:32Z</time>
      </trkpt>
      <trkpt lat="48.70148" lon="2.5218">
        <ele>88.8109</ele>
        <time>2018-04-18T08:39:36Z</time>
      </trkpt>
      <trkpt lat="48.70153" lon="2.52178">
        <ele>88.7854</ele>
        <time>2018-04-18T08:39:41Z</time>
      </trkpt>
      <trkpt lat="48.70157" lon="2.52177">
        <ele>88.7674</ele>
        <time>2018-04-18T08:39:45Z</time>
      </trkpt>
      <trkpt lat="48.70161" lon="2.52176">
        <ele>88.7511</ele>
        <time>2018-04-18T08:39:49Z</time>
      </trkpt>
      <trkpt lat="48.70166" lon="2.5218">
        <ele>88.7343</ele>
        <time>2018-04-18T08:39:54Z</time>
      </trkpt>
      <trkpt lat="48.70172" lon="2.52178">
        <ele>88.7206</ele>
        <time>2018-04-18T08:40:01Z</time>
      </trkpt>
      <trkpt lat="48.70175" lon="2.52178">
        <ele>88.715</ele>
        <time>2018-04-18T08:40:04Z</time>
      </trkpt>
      <trkpt lat="48.70181" lon="2.52176">
        <ele>88.7037</ele>
        <time>2018-04-18T08:40:09Z</time>
      </trkpt>
      <trkpt lat="48.70192" lon="2.52172">
        <ele>88.6924</ele>
        <time>2018-04-18T08:40:16Z</time>
      </trkpt>
      <trkpt lat="48.70199" lon="2.52174">
        <ele>88.6892</ele>
        <time>2018-04-18T08:40:19Z</time>
      </trkpt>
      <trkpt lat="48.70204" lon="2.52172">
        <ele>88.689</ele>
        <time>2018-04-18T08:40:22Z</time>
      </trkpt>
      <trkpt lat="48.7021" lon="2.52173">
        <ele>88.6972</ele>
        <time>2018-04-18T08:40:28Z</time>
      </trkpt>
      <trkpt lat="48.70213" lon="2.52173">
        <ele>88.7016</ele>
        <time>2018-04-18T08:40:31Z</time>
      </trkpt>
      <trkpt lat="48.70215" lon="2.52173">
        <ele>88.7057</ele>
        <time>2018-04-18T08:40:33Z</time>
      </trkpt>
      <trkpt lat="48.70217" lon="2.52173">
        <ele>88.7102</ele>
        <time>2018-04-18T08:40:35Z</time>
      </trkpt>
      <trkpt lat="48.70223" lon="2.52175">
        <ele>88.7222</ele>
        <time>2018-04-18T08:40:41Z</time>
      </trkpt>
      <trkpt lat="48.70227" lon="2.52177">
        <ele>88.7252</ele>
        <time>2018-04-18T08:40:43Z</time>
      </trkpt>
      <trkpt lat="48.70229" lon="2.52178">
        <ele>88.7284</ele>
        <time>2018-04-18T08:40:45Z</time>
      </trkpt>
      <trkpt lat="48.70234" lon="2.52179">
        <ele>88.7398</ele>
        <time>2018-04-18T08:40:50Z</time>
      </trkpt>
      <trkpt lat="48.70239" lon="2.52183">
        <ele>88.7592</ele>
        <time>2018-04-18T08:40:55Z</time>
      </trkpt>
      <trkpt lat="48.70242" lon="2.52185">
        <ele>88.7753</ele>
        <time>2018-04-18T08:40:58Z</time>
      </trkpt>
      <trkpt lat="48.70245" lon="2.52187">
        <ele>88.7867</ele>
        <time>2018-04-18T08:41:00Z</time>
      </trkpt>
      <trkpt lat="48.70248" lon="2.52189">
        <ele>88.8035</ele>
        <time>2018-04-18T08:41:03Z</time>
      </trkpt>
      <trkpt lat="48.70253" lon="2.5219">
        <ele>88.8327</ele>
        <time>2018-04-18T08:41:08Z</time>
      </trkpt>
      <trkpt lat="48.70256" lon="2.52191">
        <ele>88.852</ele>
        <time>2018-04-18T08:41:11Z</time>
      </trkpt>
      <trkpt lat="48.70261" lon="2.52191">
        <ele>88.8733</ele>
        <time>2018-04-18T08:41:14Z</time>
      </trkpt>
      <trkpt lat="48.70265" lon="2.52193">
        <ele>88.9004</ele>
        <time>2018-04-18T08:41:18Z</time>
      </trkpt>
      <trkpt lat="48.70268" lon="2.52194">
        <ele>88.9201</ele>
        <time>2018-04-18T08:41:21Z</time>
      </trkpt>
      <trkpt lat="48.70273" lon="2.52195">
        <ele>88.9429</ele>
        <time>2018-04-18T08:41:25Z</time>
      </trkpt>
      <trkpt lat="48.70277" lon="2.52193">
        <ele>88.9617</ele>
        <time>2018-04-18T08:41:29Z</time>
      </trkpt>
      <trkpt lat="48.70282" lon="2.52193">
        <ele>88.9737</ele>
        <time>2018-04-18T08:41:33Z</time>
      </trkpt>
      <trkpt lat="48.70285" lon="2.52192">
        <ele>88.9768</ele>
        <time>2018-04-18T08:41:35Z</time>
      </trkpt>
      <trkpt lat="48.7029" lon="2.52191">
        <ele>88.9813</ele>
        <time>2018-04-18T08:41:38Z</time>
      </trkpt>
      <trkpt lat="48.70294" lon="2.52192">
        <ele>88.9881</ele>
        <time>2018-04-18T08:41:41Z</time>
      </trkpt>
      <trkpt lat="48.70298" lon="2.52192">
        <ele>88.9932</ele>
        <time>2018-04-18T08:41:44Z</time>
      </trkpt>
      <trkpt lat="48.70304" lon="2.5219">
        <ele>88.9917</ele>
        <time>2018-04-18T08:41:49Z</time>
      </trkpt>
      <trkpt lat="48.70306" lon="2.52189">
        <ele>88.9882</ele>
        <time>2018-04-18T08:41:51Z</time>
      </trkpt>
      <trkpt lat="48.70311" lon="2.52191">
        <ele>88.9769</ele>
        <time>2018-04-18T08:41:57Z</time>
      </trkpt>
      <trkpt lat="48.70316" lon="2.52191">
        <ele>88.9662</ele>
        <time>2018-04-18T08:42:03Z</time>
      </trkpt>
      <trkpt lat="48.70321" lon="2.52194">
        <ele>88.9565</ele>
        <time>2018-04-18T08:42:12Z</time>
      </trkpt>
      <trkpt lat="48.70326" lon="2.52196">
        <ele>88.9528</ele>
        <time>2018-04-18T08:42:17Z</time>
      </trkpt>
      <trkpt lat="48.7033" lon="2.52198">
        <ele>88.9483</ele>
        <time>2018-04-18T08:42:22Z</time>
      </trkpt>
      <trkpt lat="48.70334" lon="2.52201">
        <ele>88.9449</ele>
        <time>2018-04-18T08:42:26Z</time>
      </trkpt>
      <trkpt lat="48.70338" lon="2.52207">
        <ele>88.9415</ele>
        <time>2018-04-18T08:42:30Z</time>
      </trkpt>
      <trkpt lat="48.70341" lon="2.52211">
        <ele>88.9386</ele>
        <time>2018-04-18T08:42:33Z</time>
      </trkpt>
      <trkpt lat="48.70346" lon="2.52214">
        <ele>88.9348</ele>
        <time>2018-04-18T08:42:37Z</time>
      </trkpt>
      <trkpt lat="48.70354" lon="2.52208">
        <ele>88.9293</ele>
        <time>2018-04-18T08:42:42Z</time>
      </trkpt>
      <trkpt lat="48.70359" lon="2.52215">
        <ele>88.926</ele>
        <time>2018-04-18T08:42:46Z</time>
      </trkpt>
      <trkpt lat="48.70363" lon="2.52219">
        <ele>88.9226</ele>
        <time>2018-04-18T08:42:50Z</time>
      </trkpt>
      <trkpt lat="48.70366" lon="2.52222">
        <ele>88.9187</ele>
        <time>2018-04-18T08:42:54Z</time>
      </trkpt>
      <trkpt lat="48.70371" lon="2.52223">
        <ele>88.9027</ele>
        <time>2018-04-18T08:43:02Z</time>
      </trkpt>
      <trkpt lat="48.70377" lon="2.52224">
        <ele>88.8954</ele>
        <time>2018-04-18T08:43:05Z</time>
      </trkpt>
      <trkpt lat="48.70382" lon="2.52227">
        <ele>88.8887</ele>
        <time>2018-04-18T08:43:08Z</time>
      </trkpt>
      <trkpt lat="48.70388" lon="2.52227">
        <ele>88.8827</ele>
        <time>2018-04-18T08:43:12Z</time>
      </trkpt>
      <trkpt lat="48.70391" lon="2.52226">
        <ele>88.8798</ele>
        <time>2018-04-18T08:43:16Z</time>
      </trkpt>
      <trkpt lat="48.70394" lon="2.52226">
        <ele>88.8778</ele>
        <time>2018-04-18T08:43:19Z</time>
      </trkpt>
      <trkpt lat="48.70399" lon="2.52231">
        <ele>88.8711</ele>
        <time>2018-04-18T08:43:25Z</time>
      </trkpt>
      <trkpt lat="48.70401" lon="2.52233">
        <ele>88.8683</ele>
        <time>2018-04-18T08:43:27Z</time>
      </trkpt>
      <trkpt lat="48.70407" lon="2.52235">
        <ele>88.861</ele>
        <time>2018-04-18T08:43:31Z</time>
      </trkpt>
      <trkpt lat="48.7041" lon="2.52235">
        <ele>88.8562</ele>
        <time>2018-04-18T08:43:33Z</time>
      </trkpt>
      <trkpt lat="48.70413" lon="2.52236">
        <ele>88.8503</ele>
        <time>2018-04-18T08:43:35Z</time>
      </trkpt>
      <trkpt lat="48.70418" lon="2.52237">
        <ele>88.838</ele>
        <time>2018-04-18T08:43:39Z</time>
      </trkpt>
      <trkpt lat="48.70424" lon="2.5224">
        <ele>88.822</ele>
        <time>2018-04-18T08:43:44Z</time>
      </trkpt>
      <trkpt lat="48.70428" lon="2.52242">
        <ele>88.8127</ele>
        <time>2018-04-18T08:43:47Z</time>
      </trkpt>
      <trkpt lat="48.70431" lon="2.52244">
        <ele>88.8041</ele>
        <time>2018-04-18T08:43:50Z</time>
      </trkpt>
      <trkpt lat="48.70436" lon="2.52249">
        <ele>88.7676</ele>
        <time>2018-04-18T08:43:57Z</time>
      </trkpt>
      <trkpt lat="48.70438" lon="2.52253">
        <ele>88.7377</ele>
        <time>2018-04-18T08:44:00Z</time>
      </trkpt>
      <trkpt lat="48.7044" lon="2.52256">
        <ele>88.7136</ele>
        <time>2018-04-18T08:44:02Z</time>
      </trkpt>
      <trkpt lat="48.70445" lon="2.52259">
        <ele>88.6244</ele>
        <time>2018-04-18T08:44:08Z</time>
      </trkpt>
      <trkpt lat="48.70448" lon="2.52262">
        <ele>88.5904</ele>
        <time>2018-04-18T08:44:10Z</time>
      </trkpt>
      <trkpt lat="48.70451" lon="2.52267">
        <ele>88.5122</ele>
        <time>2018-04-18T08:44:14Z</time>
      </trkpt>
      <trkpt lat="48.70454" lon="2.52271">
        <ele>88.4471</ele>
        <time>2018-04-18T08:44:17Z</time>
      </trkpt>
      <trkpt lat="48.70457" lon="2.52278">
        <ele>88.3305</ele>
        <time>2018-04-18T08:44:22Z</time>
      </trkpt>
      <trkpt lat="48.70462" lon="2.52283">
        <ele>88.2335</ele>
        <time>2018-04-18T08:44:26Z</time>
      </trkpt>
      <trkpt lat="48.70465" lon="2.52287">
        <ele>88.1637</ele>
        <time>2018-04-18T08:44:29Z</time>
      </trkpt>
      <trkpt lat="48.70467" lon="2.52294">
        <ele>88.0484</ele>
        <time>2018-04-18T08:44:34Z</time>
      </trkpt>
      <trkpt lat="48.70469" lon="2.52298">
        <ele>87.9779</ele>
        <time>2018-04-18T08:44:37Z</time>
      </trkpt>
      <trkpt lat="48.70471" lon="2.52303">
        <ele>87.9092</ele>
        <time>2018-04-18T08:44:40Z</time>
      </trkpt>
      <trkpt lat="48.70471" lon="2.52311">
        <ele>87.8013</ele>
        <time>2018-04-18T08:44:45Z</time>
      </trkpt>
      <trkpt lat="48.70471" lon="2.52319">
        <ele>87.7044</ele>
        <time>2018-04-18T08:44:50Z</time>
      </trkpt>
      <trkpt lat="48.70471" lon="2.52323">
        <ele>87.6545</ele>
        <time>2018-04-18T08:44:53Z</time>
      </trkpt>
      <trkpt lat="48.70473" lon="2.5233">
        <ele>87.607</ele>
        <time>2018-04-18T08:44:56Z</time>
      </trkpt>
      <trkpt lat="48.70476" lon="2.52336">
        <ele>87.5592</ele>
        <time>2018-04-18T08:44:59Z</time>
      </trkpt>
      <trkpt lat="48.70478" lon="2.5234">
        <ele>87.5265</ele>
        <time>2018-04-18T08:45:01Z</time>
      </trkpt>
      <trkpt lat="48.7048" lon="2.52344">
        <ele>87.493</ele>
        <time>2018-04-18T08:45:03Z</time>
      </trkpt>
      <trkpt lat="48.70484" lon="2.5235">
        <ele>87.4051</ele>
        <time>2018-04-18T08:45:08Z</time>
      </trkpt>
      <trkpt lat="48.70485" lon="2.52353">
        <ele>87.3678</ele>
        <time>2018-04-18T08:45:10Z</time>
      </trkpt>
      <trkpt lat="48.70487" lon="2.52361">
        <ele>87.29</ele>
        <time>2018-04-18T08:45:14Z</time>
      </trkpt>
      <trkpt lat="48.70489" lon="2.52367">
        <ele>87.2085</ele>
        <time>2018-04-18T08:45:18Z</time>
      </trkpt>
      <trkpt lat="48.7049" lon="2.52371">
        <ele>87.1671</ele>
        <time>2018-04-18T08:45:20Z</time>
      </trkpt>
      <trkpt lat="48.70491" lon="2.52379">
        <ele>87.088</ele>
        <time>2018-04-18T08:45:24Z</time>
      </trkpt>
      <trkpt lat="48.70492" lon="2.52387">
        <ele>86.9936</ele>
        <time>2018-04-18T08:45:29Z</time>
      </trkpt>
      <trkpt lat="48.70494" lon="2.52394">
        <ele>86.9205</ele>
        <time>2018-04-18T08:45:33Z</time>
      </trkpt>
      <trkpt lat="48.70495" lon="2.52401">
        <ele>86.8515</ele>
        <time>2018-04-18T08:45:37Z</time>
      </trkpt>
      <trkpt lat="48.70496" lon="2.52408">
        <ele>86.7736</ele>
        <time>2018-04-18T08:45:42Z</time>
      </trkpt>
      <trkpt lat="48.70498" lon="2.52416">
        <ele>86.7194</ele>
        <time>2018-04-18T08:45:46Z</time>
      </trkpt>
      <trkpt lat="48.70499" lon="2.52425">
        <ele>86.6618</ele>
        <time>2018-04-18T08:45:51Z</time>
      </trkpt>
      <trkpt lat="48.705" lon="2.52433">
        <ele>86.6111</ele>
        <time>2018-04-18T08:45:56Z</time>
      </trkpt>
      <trkpt lat="48.70502" lon="2.5244">
        <ele>86.5636</ele>
        <time>2018-04-18T08:46:01Z</time>
      </trkpt>
      <trkpt lat="48.70504" lon="2.52448">
        <ele>86.5266</ele>
        <time>2018-04-18T08:46:05Z</time>
      </trkpt>
      <trkpt lat="48.70504" lon="2.52456">
        <ele>86.4914</ele>
        <time>2018-04-18T08:46:09Z</time>
      </trkpt>
      <trkpt lat="48.70504" lon="2.5246">
        <ele>86.4661</ele>
        <time>2018-04-18T08:46:12Z</time>
      </trkpt>
      <trkpt lat="48.70506" lon="2.52467">
        <ele>86.4287</ele>
        <time>2018-04-18T08:46:17Z</time>
      </trkpt>
      <trkpt lat="48.70506" lon="2.52471">
        <ele>86.4077</ele>
        <time>2018-04-18T08:46:21Z</time>
      </trkpt>
      <trkpt lat="48.70506" lon="2.52478">
        <ele>86.3886</ele>
        <time>2018-04-18T08:46:29Z</time>
      </trkpt>
      <trkpt lat="48.70505" lon="2.52485">
        <ele>86.3823</ele>
        <time>2018-04-18T08:46:36Z</time>
      </trkpt>
      <trkpt lat="48.70504" lon="2.52492">
        <ele>86.3809</ele>
        <time>2018-04-18T08:46:41Z</time>
      </trkpt>
      <trkpt lat="48.70502" lon="2.52501">
        <ele>86.3847</ele>
        <time>2018-04-18T08:46:47Z</time>
      </trkpt>
      <trkpt lat="48.70501" lon="2.52508">
        <ele>86.3853</ele>
        <time>2018-04-18T08:46:50Z</time>
      </trkpt>
      <trkpt lat="48.70501" lon="2.52508">
        <ele>86.3853</ele>
        <time>2018-04-18T08:46:55Z</time>
      </trkpt>
      <trkpt lat="48.70501" lon="2.52508">
        <ele>86.3853</ele>
        <time>2018-04-18T08:46:56Z</time>
      </trkpt>
      <trkpt lat="48.70499" lon="2.52516">
        <ele>86.3824</ele>
        <time>2018-04-18T08:46:57Z</time>
      </trkpt>
      <trkpt lat="48.70498" lon="2.52519">
        <ele>86.3819</ele>
        <time>2018-04-18T08:46:59Z</time>
      </trkpt>
      <trkpt lat="48.70496" lon="2.52528">
        <ele>86.3791</ele>
        <time>2018-04-18T08:47:04Z</time>
      </trkpt>
      <trkpt lat="48.70495" lon="2.52532">
        <ele>86.3774</ele>
        <time>2018-04-18T08:47:07Z</time>
      </trkpt>
      <trkpt lat="48.70493" lon="2.52539">
        <ele>86.3749</ele>
        <time>2018-04-18T08:47:11Z</time>
      </trkpt>
      <trkpt lat="48.70492" lon="2.52546">
        <ele>86.3714</ele>
        <time>2018-04-18T08:47:14Z</time>
      </trkpt>
      <trkpt lat="48.70488" lon="2.52553">
        <ele>86.3635</ele>
        <time>2018-04-18T08:47:19Z</time>
      </trkpt>
      <trkpt lat="48.70486" lon="2.52556">
        <ele>86.3589</ele>
        <time>2018-04-18T08:47:22Z</time>
      </trkpt>
      <trkpt lat="48.70484" lon="2.5256">
        <ele>86.3493</ele>
        <time>2018-04-18T08:47:29Z</time>
      </trkpt>
      <trkpt lat="48.70482" lon="2.52562">
        <ele>86.3467</ele>
        <time>2018-04-18T08:47:31Z</time>
      </trkpt>
      <trkpt lat="48.7048" lon="2.52565">
        <ele>86.3449</ele>
        <time>2018-04-18T08:47:33Z</time>
      </trkpt>
      <trkpt lat="48.70478" lon="2.52569">
        <ele>86.3407</ele>
        <time>2018-04-18T08:47:41Z</time>
      </trkpt>
      <trkpt lat="48.70477" lon="2.52582">
        <ele>86.6234</ele>
        <time>2018-04-18T08:49:45Z</time>
      </trkpt>
      <trkpt lat="48.70472" lon="2.52584">
        <ele>86.6776</ele>
        <time>2018-04-18T08:49:49Z</time>
      </trkpt>
      <trkpt lat="48.70469" lon="2.5259">
        <ele>86.7932</ele>
        <time>2018-04-18T08:49:58Z</time>
      </trkpt>
      <trkpt lat="48.70467" lon="2.52594">
        <ele>86.8424</ele>
        <time>2018-04-18T08:50:02Z</time>
      </trkpt>
      <trkpt lat="48.70466" lon="2.52601">
        <ele>86.9149</ele>
        <time>2018-04-18T08:50:08Z</time>
      </trkpt>
      <trkpt lat="48.70463" lon="2.52607">
        <ele>86.9686</ele>
        <time>2018-04-18T08:50:12Z</time>
      </trkpt>
      <trkpt lat="48.70461" lon="2.52614">
        <ele>87.0195</ele>
        <time>2018-04-18T08:50:16Z</time>
      </trkpt>
      <trkpt lat="48.70459" lon="2.52619">
        <ele>87.0898</ele>
        <time>2018-04-18T08:50:21Z</time>
      </trkpt>
      <trkpt lat="48.70458" lon="2.52626">
        <ele>87.1427</ele>
        <time>2018-04-18T08:50:25Z</time>
      </trkpt>
      <trkpt lat="48.70456" lon="2.52631">
        <ele>87.1863</ele>
        <time>2018-04-18T08:50:29Z</time>
      </trkpt>
      <trkpt lat="48.70457" lon="2.52638">
        <ele>87.2829</ele>
        <time>2018-04-18T08:50:36Z</time>
      </trkpt>
      <trkpt lat="48.70455" lon="2.52646">
        <ele>87.3806</ele>
        <time>2018-04-18T08:50:42Z</time>
      </trkpt>
      <trkpt lat="48.70455" lon="2.52654">
        <ele>87.4402</ele>
        <time>2018-04-18T08:50:46Z</time>
      </trkpt>
      <trkpt lat="48.70454" lon="2.52659">
        <ele>87.4679</ele>
        <time>2018-04-18T08:50:48Z</time>
      </trkpt>
      <trkpt lat="48.70454" lon="2.52662">
        <ele>87.4906</ele>
        <time>2018-04-18T08:50:50Z</time>
      </trkpt>
      <trkpt lat="48.70454" lon="2.52667">
        <ele>87.5129</ele>
        <time>2018-04-18T08:50:53Z</time>
      </trkpt>
      <trkpt lat="48.70453" lon="2.52675">
        <ele>87.5292</ele>
        <time>2018-04-18T08:50:57Z</time>
      </trkpt>
      <trkpt lat="48.70452" lon="2.52679">
        <ele>87.5341</ele>
        <time>2018-04-18T08:50:59Z</time>
      </trkpt>
      <trkpt lat="48.70451" lon="2.52684">
        <ele>87.5325</ele>
        <time>2018-04-18T08:51:02Z</time>
      </trkpt>
      <trkpt lat="48.70449" lon="2.5269">
        <ele>87.5258</ele>
        <time>2018-04-18T08:51:06Z</time>
      </trkpt>
      <trkpt lat="48.70447" lon="2.52697">
        <ele>87.5229</ele>
        <time>2018-04-18T08:51:11Z</time>
      </trkpt>
      <trkpt lat="48.70446" lon="2.52701">
        <ele>87.5222</ele>
        <time>2018-04-18T08:51:13Z</time>
      </trkpt>
      <trkpt lat="48.70444" lon="2.52709">
        <ele>87.522</ele>
        <time>2018-04-18T08:51:17Z</time>
      </trkpt>
      <trkpt lat="48.70442" lon="2.52713">
        <ele>87.5216</ele>
        <time>2018-04-18T08:51:19Z</time>
      </trkpt>
      <trkpt lat="48.7044" lon="2.52717">
        <ele>87.5211</ele>
        <time>2018-04-18T08:51:22Z</time>
      </trkpt>
      <trkpt lat="48.70439" lon="2.52721">
        <ele>87.5209</ele>
        <time>2018-04-18T08:51:24Z</time>
      </trkpt>
      <trkpt lat="48.70437" lon="2.52725">
        <ele>87.522</ele>
        <time>2018-04-18T08:51:26Z</time>
      </trkpt>
      <trkpt lat="48.70436" lon="2.52729">
        <ele>87.5252</ele>
        <time>2018-04-18T08:51:30Z</time>
      </trkpt>
      <trkpt lat="48.70434" lon="2.52733">
        <ele>87.5265</ele>
        <time>2018-04-18T08:51:33Z</time>
      </trkpt>
      <trkpt lat="48.70433" lon="2.52737">
        <ele>87.5245</ele>
        <time>2018-04-18T08:51:36Z</time>
      </trkpt>
      <trkpt lat="48.70431" lon="2.5274">
        <ele>87.5197</ele>
        <time>2018-04-18T08:51:38Z</time>
      </trkpt>
      <trkpt lat="48.70428" lon="2.52746">
        <ele>87.5031</ele>
        <time>2018-04-18T08:51:42Z</time>
      </trkpt>
      <trkpt lat="48.70426" lon="2.52755">
        <ele>87.4873</ele>
        <time>2018-04-18T08:51:47Z</time>
      </trkpt>
      <trkpt lat="48.70423" lon="2.52761">
        <ele>87.4821</ele>
        <time>2018-04-18T08:51:50Z</time>
      </trkpt>
      <trkpt lat="48.70421" lon="2.52764">
        <ele>87.478</ele>
        <time>2018-04-18T08:51:52Z</time>
      </trkpt>
      <trkpt lat="48.70418" lon="2.5277">
        <ele>87.4706</ele>
        <time>2018-04-18T08:51:55Z</time>
      </trkpt>
      <trkpt lat="48.70414" lon="2.52776">
        <ele>87.4593</ele>
        <time>2018-04-18T08:52:00Z</time>
      </trkpt>
      <trkpt lat="48.7041" lon="2.5278">
        <ele>87.4596</ele>
        <time>2018-04-18T08:52:04Z</time>
      </trkpt>
      <trkpt lat="48.70408" lon="2.52781">
        <ele>87.4637</ele>
        <time>2018-04-18T08:52:06Z</time>
      </trkpt>
      <trkpt lat="48.70404" lon="2.52785">
        <ele>87.5118</ele>
        <time>2018-04-18T08:52:13Z</time>
      </trkpt>
      <trkpt lat="48.70401" lon="2.52792">
        <ele>87.5619</ele>
        <time>2018-04-18T08:52:18Z</time>
      </trkpt>
      <trkpt lat="48.704" lon="2.52795">
        <ele>87.5829</ele>
        <time>2018-04-18T08:52:20Z</time>
      </trkpt>
      <trkpt lat="48.70398" lon="2.52799">
        <ele>87.6153</ele>
        <time>2018-04-18T08:52:23Z</time>
      </trkpt>
      <trkpt lat="48.70396" lon="2.52805">
        <ele>87.6516</ele>
        <time>2018-04-18T08:52:26Z</time>
      </trkpt>
      <trkpt lat="48.70392" lon="2.52811">
        <ele>87.7071</ele>
        <time>2018-04-18T08:52:30Z</time>
      </trkpt>
      <trkpt lat="48.70389" lon="2.52814">
        <ele>87.7515</ele>
        <time>2018-04-18T08:52:33Z</time>
      </trkpt>
      <trkpt lat="48.70385" lon="2.52818">
        <ele>87.8159</ele>
        <time>2018-04-18T08:52:37Z</time>
      </trkpt>
      <trkpt lat="48.70382" lon="2.52821">
        <ele>87.8826</ele>
        <time>2018-04-18T08:52:41Z</time>
      </trkpt>
      <trkpt lat="48.70379" lon="2.52823">
        <ele>87.9184</ele>
        <time>2018-04-18T08:52:43Z</time>
      </trkpt>
      <trkpt lat="48.70376" lon="2.52828">
        <ele>87.9725</ele>
        <time>2018-04-18T08:52:46Z</time>
      </trkpt>
      <trkpt lat="48.70371" lon="2.52832">
        <ele>88.0469</ele>
        <time>2018-04-18T08:52:50Z</time>
      </trkpt>
      <trkpt lat="48.70368" lon="2.52835">
        <ele>88.0871</ele>
        <time>2018-04-18T08:52:52Z</time>
      </trkpt>
      <trkpt lat="48.70363" lon="2.52836">
        <ele>88.1658</ele>
        <time>2018-04-18T08:52:56Z</time>
      </trkpt>
      <trkpt lat="48.70359" lon="2.5284">
        <ele>88.2205</ele>
        <time>2018-04-18T08:52:59Z</time>
      </trkpt>
      <trkpt lat="48.70356" lon="2.52844">
        <ele>88.312</ele>
        <time>2018-04-18T08:53:04Z</time>
      </trkpt>
      <trkpt lat="48.7035" lon="2.52847">
        <ele>88.3765</ele>
        <time>2018-04-18T08:53:08Z</time>
      </trkpt>
      <trkpt lat="48.70347" lon="2.52848">
        <ele>88.4057</ele>
        <time>2018-04-18T08:53:10Z</time>
      </trkpt>
      <trkpt lat="48.70345" lon="2.52849">
        <ele>88.4347</ele>
        <time>2018-04-18T08:53:12Z</time>
      </trkpt>
      <trkpt lat="48.70339" lon="2.52848">
        <ele>88.4995</ele>
        <time>2018-04-18T08:53:17Z</time>
      </trkpt>
      <trkpt lat="48.70337" lon="2.52853">
        <ele>88.5684</ele>
        <time>2018-04-18T08:53:24Z</time>
      </trkpt>
      <trkpt lat="48.70333" lon="2.52855">
        <ele>88.5969</ele>
        <time>2018-04-18T08:53:32Z</time>
      </trkpt>
      <trkpt lat="48.7033" lon="2.52856">
        <ele>88.599</ele>
        <time>2018-04-18T08:53:34Z</time>
      </trkpt>
      <trkpt lat="48.70326" lon="2.52861">
        <ele>88.6022</ele>
        <time>2018-04-18T08:53:38Z</time>
      </trkpt>
      <trkpt lat="48.70324" lon="2.52863">
        <ele>88.6062</ele>
        <time>2018-04-18T08:53:42Z</time>
      </trkpt>
      <trkpt lat="48.70319" lon="2.52865">
        <ele>88.6088</ele>
        <time>2018-04-18T08:53:45Z</time>
      </trkpt>
      <trkpt lat="48.70315" lon="2.52866">
        <ele>88.6154</ele>
        <time>2018-04-18T08:53:48Z</time>
      </trkpt>
      <trkpt lat="48.70308" lon="2.52869">
        <ele>88.6305</ele>
        <time>2018-04-18T08:53:52Z</time>
      </trkpt>
      <trkpt lat="48.70302" lon="2.52872">
        <ele>88.6542</ele>
        <time>2018-04-18T08:53:56Z</time>
      </trkpt>
      <trkpt lat="48.70299" lon="2.52875">
        <ele>88.6813</ele>
        <time>2018-04-18T08:53:59Z</time>
      </trkpt>
      <trkpt lat="48.70293" lon="2.52876">
        <ele>88.7161</ele>
        <time>2018-04-18T08:54:02Z</time>
      </trkpt>
      <trkpt lat="48.70287" lon="2.52879">
        <ele>88.7983</ele>
        <time>2018-04-18T08:54:08Z</time>
      </trkpt>
      <trkpt lat="48.70282" lon="2.52883">
        <ele>88.8583</ele>
        <time>2018-04-18T08:54:12Z</time>
      </trkpt>
      <trkpt lat="48.70277" lon="2.52885">
        <ele>88.9174</ele>
        <time>2018-04-18T08:54:16Z</time>
      </trkpt>
      <trkpt lat="48.70274" lon="2.52887">
        <ele>88.9555</ele>
        <time>2018-04-18T08:54:19Z</time>
      </trkpt>
      <trkpt lat="48.7027" lon="2.52888">
        <ele>88.9776</ele>
        <time>2018-04-18T08:54:21Z</time>
      </trkpt>
      <trkpt lat="48.70266" lon="2.52891">
        <ele>89.007</ele>
        <time>2018-04-18T08:54:24Z</time>
      </trkpt>
      <trkpt lat="48.70264" lon="2.52892">
        <ele>89.0235</ele>
        <time>2018-04-18T08:54:26Z</time>
      </trkpt>
      <trkpt lat="48.7026" lon="2.52896">
        <ele>89.049</ele>
        <time>2018-04-18T08:54:30Z</time>
      </trkpt>
      <trkpt lat="48.70258" lon="2.52898">
        <ele>89.0601</ele>
        <time>2018-04-18T08:54:32Z</time>
      </trkpt>
      <trkpt lat="48.70253" lon="2.52901">
        <ele>89.0868</ele>
        <time>2018-04-18T08:54:37Z</time>
      </trkpt>
      <trkpt lat="48.70247" lon="2.52902">
        <ele>89.1021</ele>
        <time>2018-04-18T08:54:41Z</time>
      </trkpt>
      <trkpt lat="48.70245" lon="2.52902">
        <ele>89.1077</ele>
        <time>2018-04-18T08:54:43Z</time>
      </trkpt>
      <trkpt lat="48.70239" lon="2.52904">
        <ele>89.1223</ele>
        <time>2018-04-18T08:54:49Z</time>
      </trkpt>
      <trkpt lat="48.70235" lon="2.52908">
        <ele>89.1386</ele>
        <time>2018-04-18T08:54:54Z</time>
      </trkpt>
      <trkpt lat="48.7023" lon="2.5291">
        <ele>89.1515</ele>
        <time>2018-04-18T08:54:58Z</time>
      </trkpt>
      <trkpt lat="48.70228" lon="2.52911">
        <ele>89.1583</ele>
        <time>2018-04-18T08:55:00Z</time>
      </trkpt>
      <trkpt lat="48.70224" lon="2.52912">
        <ele>89.1702</ele>
        <time>2018-04-18T08:55:03Z</time>
      </trkpt>
      <trkpt lat="48.70221" lon="2.52912">
        <ele>89.1796</ele>
        <time>2018-04-18T08:55:05Z</time>
      </trkpt>
      <trkpt lat="48.70219" lon="2.52913">
        <ele>89.1901</ele>
        <time>2018-04-18T08:55:07Z</time>
      </trkpt>
      <trkpt lat="48.70213" lon="2.52916">
        <ele>89.2121</ele>
        <time>2018-04-18T08:55:11Z</time>
      </trkpt>
      <trkpt lat="48.7021" lon="2.52917">
        <ele>89.2236</ele>
        <time>2018-04-18T08:55:13Z</time>
      </trkpt>
      <trkpt lat="48.70205" lon="2.52917">
        <ele>89.2438</ele>
        <time>2018-04-18T08:55:17Z</time>
      </trkpt>
      <trkpt lat="48.70201" lon="2.5292">
        <ele>89.257</ele>
        <time>2018-04-18T08:55:21Z</time>
      </trkpt>
      <trkpt lat="48.70196" lon="2.52923">
        <ele>89.2732</ele>
        <time>2018-04-18T08:55:25Z</time>
      </trkpt>
      <trkpt lat="48.70194" lon="2.52924">
        <ele>89.2827</ele>
        <time>2018-04-18T08:55:27Z</time>
      </trkpt>
      <trkpt lat="48.70191" lon="2.52925">
        <ele>89.2928</ele>
        <time>2018-04-18T08:55:29Z</time>
      </trkpt>
      <trkpt lat="48.70189" lon="2.52927">
        <ele>89.2978</ele>
        <time>2018-04-18T08:55:30Z</time>
      </trkpt>
      <trkpt lat="48.70185" lon="2.52929">
        <ele>89.3076</ele>
        <time>2018-04-18T08:55:32Z</time>
      </trkpt>
      <trkpt lat="48.70182" lon="2.52931">
        <ele>89.3172</ele>
        <time>2018-04-18T08:55:34Z</time>
      </trkpt>
      <trkpt lat="48.70179" lon="2.52934">
        <ele>89.3327</ele>
        <time>2018-04-18T08:55:38Z</time>
      </trkpt>
      <trkpt lat="48.70175" lon="2.52939">
        <ele>89.3514</ele>
        <time>2018-04-18T08:55:43Z</time>
      </trkpt>
      <trkpt lat="48.70169" lon="2.52943">
        <ele>89.3784</ele>
        <time>2018-04-18T08:55:48Z</time>
      </trkpt>
      <trkpt lat="48.70165" lon="2.52948">
        <ele>89.4002</ele>
        <time>2018-04-18T08:55:51Z</time>
      </trkpt>
      <trkpt lat="48.70161" lon="2.52951">
        <ele>89.4307</ele>
        <time>2018-04-18T08:55:56Z</time>
      </trkpt>
      <trkpt lat="48.70156" lon="2.52952">
        <ele>89.4656</ele>
        <time>2018-04-18T08:56:00Z</time>
      </trkpt>
      <trkpt lat="48.70152" lon="2.52956">
        <ele>89.5066</ele>
        <time>2018-04-18T08:56:04Z</time>
      </trkpt>
      <trkpt lat="48.70147" lon="2.52959">
        <ele>89.5603</ele>
        <time>2018-04-18T08:56:08Z</time>
      </trkpt>
      <trkpt lat="48.70144" lon="2.5296">
        <ele>89.592</ele>
        <time>2018-04-18T08:56:10Z</time>
      </trkpt>
      <trkpt lat="48.70139" lon="2.52965">
        <ele>89.6597</ele>
        <time>2018-04-18T08:56:14Z</time>
      </trkpt>
      <trkpt lat="48.70137" lon="2.52967">
        <ele>89.6974</ele>
        <time>2018-04-18T08:56:16Z</time>
      </trkpt>
      <trkpt lat="48.70135" lon="2.5297">
        <ele>89.7589</ele>
        <time>2018-04-18T08:56:19Z</time>
      </trkpt>
      <trkpt lat="48.70133" lon="2.52972">
        <ele>89.8026</ele>
        <time>2018-04-18T08:56:21Z</time>
      </trkpt>
      <trkpt lat="48.7013" lon="2.52978">
        <ele>89.9155</ele>
        <time>2018-04-18T08:56:26Z</time>
      </trkpt>
      <trkpt lat="48.70125" lon="2.52981">
        <ele>90.0818</ele>
        <time>2018-04-18T08:56:33Z</time>
      </trkpt>
      <trkpt lat="48.70121" lon="2.52986">
        <ele>90.2265</ele>
        <time>2018-04-18T08:56:39Z</time>
      </trkpt>
      <trkpt lat="48.70117" lon="2.52992">
        <ele>90.3441</ele>
        <time>2018-04-18T08:56:44Z</time>
      </trkpt>
      <trkpt lat="48.70112" lon="2.52996">
        <ele>90.4148</ele>
        <time>2018-04-18T08:56:47Z</time>
      </trkpt>
      <trkpt lat="48.70109" lon="2.52997">
        <ele>90.4609</ele>
        <time>2018-04-18T08:56:49Z</time>
      </trkpt>
      <trkpt lat="48.70105" lon="2.53003">
        <ele>90.5718</ele>
        <time>2018-04-18T08:56:54Z</time>
      </trkpt>
      <trkpt lat="48.70099" lon="2.5301">
        <ele>90.6983</ele>
        <time>2018-04-18T08:57:00Z</time>
      </trkpt>
      <trkpt lat="48.70095" lon="2.53016">
        <ele>90.806</ele>
        <time>2018-04-18T08:57:05Z</time>
      </trkpt>
      <trkpt lat="48.7009" lon="2.53017">
        <ele>90.9162</ele>
        <time>2018-04-18T08:57:10Z</time>
      </trkpt>
      <trkpt lat="48.70084" lon="2.53018">
        <ele>91.0123</ele>
        <time>2018-04-18T08:57:14Z</time>
      </trkpt>
      <trkpt lat="48.70079" lon="2.53021">
        <ele>91.1083</ele>
        <time>2018-04-18T08:57:18Z</time>
      </trkpt>
      <trkpt lat="48.70077" lon="2.53022">
        <ele>91.1548</ele>
        <time>2018-04-18T08:57:20Z</time>
      </trkpt>
      <trkpt lat="48.70072" lon="2.53023">
        <ele>91.2933</ele>
        <time>2018-04-18T08:57:26Z</time>
      </trkpt>
      <trkpt lat="48.70069" lon="2.53023">
        <ele>91.3633</ele>
        <time>2018-04-18T08:57:29Z</time>
      </trkpt>
      <trkpt lat="48.70064" lon="2.53024">
        <ele>91.4348</ele>
        <time>2018-04-18T08:57:32Z</time>
      </trkpt>
      <trkpt lat="48.70059" lon="2.53025">
        <ele>91.5312</ele>
        <time>2018-04-18T08:57:36Z</time>
      </trkpt>
      <trkpt lat="48.70053" lon="2.53025">
        <ele>91.6531</ele>
        <time>2018-04-18T08:57:41Z</time>
      </trkpt>
      <trkpt lat="48.70049" lon="2.53028">
        <ele>91.7452</ele>
        <time>2018-04-18T08:57:45Z</time>
      </trkpt>
      <trkpt lat="48.70045" lon="2.53032">
        <ele>91.8269</ele>
        <time>2018-04-18T08:57:49Z</time>
      </trkpt>
      <trkpt lat="48.70042" lon="2.53035">
        <ele>91.8651</ele>
        <time>2018-04-18T08:57:51Z</time>
      </trkpt>
      <trkpt lat="48.70039" lon="2.53039">
        <ele>91.9181</ele>
        <time>2018-04-18T08:57:54Z</time>
      </trkpt>
      <trkpt lat="48.70035" lon="2.53045">
        <ele>91.9921</ele>
        <time>2018-04-18T08:57:59Z</time>
      </trkpt>
      <trkpt lat="48.7003" lon="2.53048">
        <ele>92.0394</ele>
        <time>2018-04-18T08:58:03Z</time>
      </trkpt>
      <trkpt lat="48.70028" lon="2.5305">
        <ele>92.062</ele>
        <time>2018-04-18T08:58:05Z</time>
      </trkpt>
      <trkpt lat="48.70025" lon="2.53051">
        <ele>92.0838</ele>
        <time>2018-04-18T08:58:07Z</time>
      </trkpt>
      <trkpt lat="48.70021" lon="2.53053">
        <ele>92.1158</ele>
        <time>2018-04-18T08:58:10Z</time>
      </trkpt>
      <trkpt lat="48.70016" lon="2.53057">
        <ele>92.1655</ele>
        <time>2018-04-18T08:58:15Z</time>
      </trkpt>
      <trkpt lat="48.70011" lon="2.53059">
        <ele>92.2097</ele>
        <time>2018-04-18T08:58:20Z</time>
      </trkpt>
      <trkpt lat="48.70007" lon="2.53063">
        <ele>92.2484</ele>
        <time>2018-04-18T08:58:25Z</time>
      </trkpt>
      <trkpt lat="48.70004" lon="2.53065">
        <ele>92.2625</ele>
        <time>2018-04-18T08:58:27Z</time>
      </trkpt>
      <trkpt lat="48.70002" lon="2.53067">
        <ele>92.2822</ele>
        <time>2018-04-18T08:58:30Z</time>
      </trkpt>
      <trkpt lat="48.69997" lon="2.53071">
        <ele>92.3127</ele>
        <time>2018-04-18T08:58:36Z</time>
      </trkpt>
      <trkpt lat="48.69993" lon="2.53076">
        <ele>92.3244</ele>
        <time>2018-04-18T08:58:39Z</time>
      </trkpt>
      <trkpt lat="48.6999" lon="2.53079">
        <ele>92.3316</ele>
        <time>2018-04-18T08:58:41Z</time>
      </trkpt>
      <trkpt lat="48.69989" lon="2.53082">
        <ele>92.3392</ele>
        <time>2018-04-18T08:58:43Z</time>
      </trkpt>
      <trkpt lat="48.69984" lon="2.53085">
        <ele>92.3591</ele>
        <time>2018-04-18T08:58:47Z</time>
      </trkpt>
      <trkpt lat="48.69979" lon="2.53087">
        <ele>92.3832</ele>
        <time>2018-04-18T08:58:51Z</time>
      </trkpt>
      <trkpt lat="48.69974" lon="2.53092">
        <ele>92.3936</ele>
        <time>2018-04-18T08:58:55Z</time>
      </trkpt>
      <trkpt lat="48.69969" lon="2.53096">
        <ele>92.3867</ele>
        <time>2018-04-18T08:59:01Z</time>
      </trkpt>
      <trkpt lat="48.69967" lon="2.53098">
        <ele>92.38</ele>
        <time>2018-04-18T08:59:03Z</time>
      </trkpt>
      <trkpt lat="48.69961" lon="2.53101">
        <ele>92.3636</ele>
        <time>2018-04-18T08:59:07Z</time>
      </trkpt>
      <trkpt lat="48.69958" lon="2.53102">
        <ele>92.3494</ele>
        <time>2018-04-18T08:59:10Z</time>
      </trkpt>
      <trkpt lat="48.69953" lon="2.53106">
        <ele>92.3283</ele>
        <time>2018-04-18T08:59:14Z</time>
      </trkpt>
      <trkpt lat="48.69949" lon="2.53107">
        <ele>92.305</ele>
        <time>2018-04-18T08:59:18Z</time>
      </trkpt>
      <trkpt lat="48.69943" lon="2.53104">
        <ele>92.2685</ele>
        <time>2018-04-18T08:59:23Z</time>
      </trkpt>
      <trkpt lat="48.69938" lon="2.53106">
        <ele>92.2305</ele>
        <time>2018-04-18T08:59:27Z</time>
      </trkpt>
      <trkpt lat="48.69936" lon="2.53112">
        <ele>92.1925</ele>
        <time>2018-04-18T08:59:31Z</time>
      </trkpt>
      <trkpt lat="48.69934" lon="2.53118">
        <ele>92.1582</ele>
        <time>2018-04-18T08:59:35Z</time>
      </trkpt>
      <trkpt lat="48.69932" lon="2.53123">
        <ele>92.1326</ele>
        <time>2018-04-18T08:59:39Z</time>
      </trkpt>
      <trkpt lat="48.69928" lon="2.53129">
        <ele>92.0913</ele>
        <time>2018-04-18T08:59:44Z</time>
      </trkpt>
      <trkpt lat="48.69923" lon="2.5313">
        <ele>92.0665</ele>
        <time>2018-04-18T08:59:47Z</time>
      </trkpt>
      <trkpt lat="48.69916" lon="2.53132">
        <ele>92.0426</ele>
        <time>2018-04-18T08:59:50Z</time>
      </trkpt>
      <trkpt lat="48.69909" lon="2.53133">
        <ele>92.016</ele>
        <time>2018-04-18T08:59:53Z</time>
      </trkpt>
      <trkpt lat="48.69905" lon="2.53137">
        <ele>91.9893</ele>
        <time>2018-04-18T08:59:56Z</time>
      </trkpt>
      <trkpt lat="48.69901" lon="2.53142">
        <ele>91.9475</ele>
        <time>2018-04-18T09:00:01Z</time>
      </trkpt>
      <trkpt lat="48.69896" lon="2.53143">
        <ele>91.9247</ele>
        <time>2018-04-18T09:00:05Z</time>
      </trkpt>
      <trkpt lat="48.69892" lon="2.53144">
        <ele>91.9144</ele>
        <time>2018-04-18T09:00:12Z</time>
      </trkpt>
      <trkpt lat="48.69889" lon="2.53149">
        <ele>91.9376</ele>
        <time>2018-04-18T09:00:19Z</time>
      </trkpt>
      <trkpt lat="48.69887" lon="2.53152">
        <ele>91.9514</ele>
        <time>2018-04-18T09:00:21Z</time>
      </trkpt>
      <trkpt lat="48.69884" lon="2.53157">
        <ele>91.9844</ele>
        <time>2018-04-18T09:00:25Z</time>
      </trkpt>
      <trkpt lat="48.69878" lon="2.53161">
        <ele>92.039</ele>
        <time>2018-04-18T09:00:30Z</time>
      </trkpt>
      <trkpt lat="48.69873" lon="2.53164">
        <ele>92.0807</ele>
        <time>2018-04-18T09:00:33Z</time>
      </trkpt>
      <trkpt lat="48.69869" lon="2.53165">
        <ele>92.1105</ele>
        <time>2018-04-18T09:00:36Z</time>
      </trkpt>
      <trkpt lat="48.69865" lon="2.53167">
        <ele>92.1498</ele>
        <time>2018-04-18T09:00:39Z</time>
      </trkpt>
      <trkpt lat="48.69862" lon="2.53169">
        <ele>92.1752</ele>
        <time>2018-04-18T09:00:41Z</time>
      </trkpt>
      <trkpt lat="48.69856" lon="2.53171">
        <ele>92.2124</ele>
        <time>2018-04-18T09:00:44Z</time>
      </trkpt>
      <trkpt lat="48.69852" lon="2.53177">
        <ele>92.3081</ele>
        <time>2018-04-18T09:00:51Z</time>
      </trkpt>
      <trkpt lat="48.69847" lon="2.53178">
        <ele>92.3635</ele>
        <time>2018-04-18T09:00:55Z</time>
      </trkpt>
      <trkpt lat="48.69845" lon="2.53179">
        <ele>92.3929</ele>
        <time>2018-04-18T09:00:57Z</time>
      </trkpt>
      <trkpt lat="48.6984" lon="2.5318">
        <ele>92.5261</ele>
        <time>2018-04-18T09:01:05Z</time>
      </trkpt>
      <trkpt lat="48.69836" lon="2.53181">
        <ele>92.5766</ele>
        <time>2018-04-18T09:01:08Z</time>
      </trkpt>
      <trkpt lat="48.6983" lon="2.53183">
        <ele>92.6262</ele>
        <time>2018-04-18T09:01:11Z</time>
      </trkpt>
      <trkpt lat="48.69825" lon="2.53182">
        <ele>92.6739</ele>
        <time>2018-04-18T09:01:14Z</time>
      </trkpt>
      <trkpt lat="48.6982" lon="2.53181">
        <ele>92.7608</ele>
        <time>2018-04-18T09:01:20Z</time>
      </trkpt>
      <trkpt lat="48.69816" lon="2.53181">
        <ele>92.7876</ele>
        <time>2018-04-18T09:01:22Z</time>
      </trkpt>
      <trkpt lat="48.69811" lon="2.53178">
        <ele>92.8471</ele>
        <time>2018-04-18T09:01:28Z</time>
      </trkpt>
      <trkpt lat="48.69809" lon="2.53177">
        <ele>92.8613</ele>
        <time>2018-04-18T09:01:31Z</time>
      </trkpt>
      <trkpt lat="48.69806" lon="2.53175">
        <ele>92.8671</ele>
        <time>2018-04-18T09:01:35Z</time>
      </trkpt>
      <trkpt lat="48.69803" lon="2.5317">
        <ele>92.8661</ele>
        <time>2018-04-18T09:01:39Z</time>
      </trkpt>
      <trkpt lat="48.69799" lon="2.53165">
        <ele>92.8603</ele>
        <time>2018-04-18T09:01:42Z</time>
      </trkpt>
      <trkpt lat="48.69796" lon="2.5316">
        <ele>92.8455</ele>
        <time>2018-04-18T09:01:45Z</time>
      </trkpt>
      <trkpt lat="48.69792" lon="2.53155">
        <ele>92.7852</ele>
        <time>2018-04-18T09:01:51Z</time>
      </trkpt>
      <trkpt lat="48.69789" lon="2.53152">
        <ele>92.7381</ele>
        <time>2018-04-18T09:01:54Z</time>
      </trkpt>
      <trkpt lat="48.69787" lon="2.5315">
        <ele>92.7003</ele>
        <time>2018-04-18T09:01:56Z</time>
      </trkpt>
      <trkpt lat="48.69782" lon="2.53146">
        <ele>92.6349</ele>
        <time>2018-04-18T09:01:59Z</time>
      </trkpt>
      <trkpt lat="48.69779" lon="2.53144">
        <ele>92.5857</ele>
        <time>2018-04-18T09:02:01Z</time>
      </trkpt>
      <trkpt lat="48.69776" lon="2.53141">
        <ele>92.5332</ele>
        <time>2018-04-18T09:02:03Z</time>
      </trkpt>
      <trkpt lat="48.69773" lon="2.5314">
        <ele>92.4774</ele>
        <time>2018-04-18T09:02:05Z</time>
      </trkpt>
      <trkpt lat="48.69769" lon="2.53136">
        <ele>92.3537</ele>
        <time>2018-04-18T09:02:09Z</time>
      </trkpt>
      <trkpt lat="48.69765" lon="2.53134">
        <ele>92.1832</ele>
        <time>2018-04-18T09:02:14Z</time>
      </trkpt>
      <trkpt lat="48.69761" lon="2.5313">
        <ele>92.0353</ele>
        <time>2018-04-18T09:02:18Z</time>
      </trkpt>
      <trkpt lat="48.69759" lon="2.53128">
        <ele>91.9572</ele>
        <time>2018-04-18T09:02:20Z</time>
      </trkpt>
      <trkpt lat="48.69754" lon="2.53126">
        <ele>91.8348</ele>
        <time>2018-04-18T09:02:23Z</time>
      </trkpt>
      <trkpt lat="48.69751" lon="2.53126">
        <ele>91.7508</ele>
        <time>2018-04-18T09:02:25Z</time>
      </trkpt>
      <trkpt lat="48.69747" lon="2.53124">
        <ele>91.6289</ele>
        <time>2018-04-18T09:02:28Z</time>
      </trkpt>
      <trkpt lat="48.69742" lon="2.53124">
        <ele>91.5136</ele>
        <time>2018-04-18T09:02:31Z</time>
      </trkpt>
      <trkpt lat="48.69738" lon="2.53125">
        <ele>91.2682</ele>
        <time>2018-04-18T09:02:38Z</time>
      </trkpt>
      <trkpt lat="48.69732" lon="2.53122">
        <ele>91.0805</ele>
        <time>2018-04-18T09:02:44Z</time>
      </trkpt>
      <trkpt lat="48.69728" lon="2.53119">
        <ele>90.9662</ele>
        <time>2018-04-18T09:02:48Z</time>
      </trkpt>
      <trkpt lat="48.69723" lon="2.53118">
        <ele>90.8287</ele>
        <time>2018-04-18T09:02:53Z</time>
      </trkpt>
      <trkpt lat="48.69721" lon="2.53118">
        <ele>90.7758</ele>
        <time>2018-04-18T09:02:55Z</time>
      </trkpt>
      <trkpt lat="48.69716" lon="2.53115">
        <ele>90.6473</ele>
        <time>2018-04-18T09:03:00Z</time>
      </trkpt>
      <trkpt lat="48.69711" lon="2.53114">
        <ele>90.5477</ele>
        <time>2018-04-18T09:03:04Z</time>
      </trkpt>
      <trkpt lat="48.69709" lon="2.53112">
        <ele>90.4986</ele>
        <time>2018-04-18T09:03:06Z</time>
      </trkpt>
      <trkpt lat="48.69705" lon="2.5311">
        <ele>90.4272</ele>
        <time>2018-04-18T09:03:09Z</time>
      </trkpt>
      <trkpt lat="48.69702" lon="2.53108">
        <ele>90.3826</ele>
        <time>2018-04-18T09:03:11Z</time>
      </trkpt>
      <trkpt lat="48.69698" lon="2.53105">
        <ele>90.3012</ele>
        <time>2018-04-18T09:03:15Z</time>
      </trkpt>
      <trkpt lat="48.69693" lon="2.53102">
        <ele>90.207</ele>
        <time>2018-04-18T09:03:20Z</time>
      </trkpt>
      <trkpt lat="48.69688" lon="2.53099">
        <ele>90.1479</ele>
        <time>2018-04-18T09:03:23Z</time>
      </trkpt>
      <trkpt lat="48.69684" lon="2.53098">
        <ele>90.0524</ele>
        <time>2018-04-18T09:03:28Z</time>
      </trkpt>
      <trkpt lat="48.69681" lon="2.53098">
        <ele>90.0157</ele>
        <time>2018-04-18T09:03:30Z</time>
      </trkpt>
      <trkpt lat="48.69677" lon="2.53094">
        <ele>89.9338</ele>
        <time>2018-04-18T09:03:35Z</time>
      </trkpt>
      <trkpt lat="48.69674" lon="2.53092">
        <ele>89.865</ele>
        <time>2018-04-18T09:03:40Z</time>
      </trkpt>
      <trkpt lat="48.69671" lon="2.53089">
        <ele>89.8024</ele>
        <time>2018-04-18T09:03:45Z</time>
      </trkpt>
      <trkpt lat="48.69667" lon="2.53084">
        <ele>89.7538</ele>
        <time>2018-04-18T09:03:50Z</time>
      </trkpt>
      <trkpt lat="48.69663" lon="2.53082">
        <ele>89.7055</ele>
        <time>2018-04-18T09:03:57Z</time>
      </trkpt>
      <trkpt lat="48.69658" lon="2.53083">
        <ele>89.6949</ele>
        <time>2018-04-18T09:04:00Z</time>
      </trkpt>
      <trkpt lat="48.69655" lon="2.53084">
        <ele>89.691</ele>
        <time>2018-04-18T09:04:02Z</time>
      </trkpt>
      <trkpt lat="48.6965" lon="2.53085">
        <ele>89.6887</ele>
        <time>2018-04-18T09:04:07Z</time>
      </trkpt>
      <trkpt lat="48.69645" lon="2.53086">
        <ele>89.697</ele>
        <time>2018-04-18T09:04:13Z</time>
      </trkpt>
      <trkpt lat="48.6964" lon="2.53087">
        <ele>89.7162</ele>
        <time>2018-04-18T09:04:20Z</time>
      </trkpt>
      <trkpt lat="48.69636" lon="2.53086">
        <ele>89.739</ele>
        <time>2018-04-18T09:04:25Z</time>
      </trkpt>
      <trkpt lat="48.69633" lon="2.53085">
        <ele>89.7472</ele>
        <time>2018-04-18T09:04:27Z</time>
      </trkpt>
      <trkpt lat="48.6963" lon="2.53084">
        <ele>89.7552</ele>
        <time>2018-04-18T09:04:29Z</time>
      </trkpt>
      <trkpt lat="48.6963" lon="2.53084">
        <ele>89.7552</ele>
        <time>2018-04-18T09:04:34Z</time>
      </trkpt>
      <trkpt lat="48.69626" lon="2.53083">
        <ele>89.772</ele>
        <time>2018-04-18T09:04:35Z</time>
      </trkpt>
      <trkpt lat="48.69621" lon="2.53082">
        <ele>89.7776</ele>
        <time>2018-04-18T09:04:40Z</time>
      </trkpt>
      <trkpt lat="48.69617" lon="2.53081">
        <ele>89.7772</ele>
        <time>2018-04-18T09:04:43Z</time>
      </trkpt>
      <trkpt lat="48.69612" lon="2.53078">
        <ele>89.7683</ele>
        <time>2018-04-18T09:04:47Z</time>
      </trkpt>
      <trkpt lat="48.69608" lon="2.53073">
        <ele>89.7553</ele>
        <time>2018-04-18T09:04:52Z</time>
      </trkpt>
      <trkpt lat="48.69604" lon="2.53069">
        <ele>89.7414</ele>
        <time>2018-04-18T09:04:57Z</time>
      </trkpt>
      <trkpt lat="48.696" lon="2.53066">
        <ele>89.7327</ele>
        <time>2018-04-18T09:05:00Z</time>
      </trkpt>
      <trkpt lat="48.69598" lon="2.53064">
        <ele>89.7253</ele>
        <time>2018-04-18T09:05:03Z</time>
      </trkpt>
      <trkpt lat="48.69594" lon="2.5306">
        <ele>89.7189</ele>
        <time>2018-04-18T09:05:06Z</time>
      </trkpt>
      <trkpt lat="48.69592" lon="2.53058">
        <ele>89.715</ele>
        <time>2018-04-18T09:05:08Z</time>
      </trkpt>
      <trkpt lat="48.6959" lon="2.53056">
        <ele>89.712</ele>
        <time>2018-04-18T09:05:10Z</time>
      </trkpt>
      <trkpt lat="48.69588" lon="2.53053">
        <ele>89.7102</ele>
        <time>2018-04-18T09:05:12Z</time>
      </trkpt>
      <trkpt lat="48.69583" lon="2.53049">
        <ele>89.7106</ele>
        <time>2018-04-18T09:05:15Z</time>
      </trkpt>
      <trkpt lat="48.69578" lon="2.53046">
        <ele>89.7176</ele>
        <time>2018-04-18T09:05:19Z</time>
      </trkpt>
      <trkpt lat="48.69576" lon="2.53044">
        <ele>89.7233</ele>
        <time>2018-04-18T09:05:21Z</time>
      </trkpt>
      <trkpt lat="48.69574" lon="2.53043">
        <ele>89.73</ele>
        <time>2018-04-18T09:05:23Z</time>
      </trkpt>
      <trkpt lat="48.6957" lon="2.5304">
        <ele>89.7473</ele>
        <time>2018-04-18T09:05:28Z</time>
      </trkpt>
      <trkpt lat="48.69565" lon="2.53037">
        <ele>89.7596</ele>
        <time>2018-04-18T09:05:31Z</time>
      </trkpt>
      <trkpt lat="48.6956" lon="2.53036">
        <ele>89.7792</ele>
        <time>2018-04-18T09:05:35Z</time>
      </trkpt>
      <trkpt lat="48.69555" lon="2.53032">
        <ele>89.8071</ele>
        <time>2018-04-18T09:05:40Z</time>
      </trkpt>
      <trkpt lat="48.69552" lon="2.5303">
        <ele>89.8227</ele>
        <time>2018-04-18T09:05:43Z</time>
      </trkpt>
      <trkpt lat="48.69547" lon="2.53026">
        <ele>89.8337</ele>
        <time>2018-04-18T09:05:48Z</time>
      </trkpt>
      <trkpt lat="48.69544" lon="2.53023">
        <ele>89.8265</ele>
        <time>2018-04-18T09:05:52Z</time>
      </trkpt>
      <trkpt lat="48.6954" lon="2.53018">
        <ele>89.809</ele>
        <time>2018-04-18T09:05:58Z</time>
      </trkpt>
      <trkpt lat="48.69535" lon="2.53014">
        <ele>89.791</ele>
        <time>2018-04-18T09:06:03Z</time>
      </trkpt>
      <trkpt lat="48.6953" lon="2.53012">
        <ele>89.777</ele>
        <time>2018-04-18T09:06:06Z</time>
      </trkpt>
      <trkpt lat="48.69525" lon="2.53012">
        <ele>89.7595</ele>
        <time>2018-04-18T09:06:09Z</time>
      </trkpt>
      <trkpt lat="48.69523" lon="2.53012">
        <ele>89.7463</ele>
        <time>2018-04-18T09:06:11Z</time>
      </trkpt>
      <trkpt lat="48.6952" lon="2.53012">
        <ele>89.7317</ele>
        <time>2018-04-18T09:06:13Z</time>
      </trkpt>
      <trkpt lat="48.69515" lon="2.53011">
        <ele>89.6978</ele>
        <time>2018-04-18T09:06:17Z</time>
      </trkpt>
      <trkpt lat="48.69513" lon="2.5301">
        <ele>89.679</ele>
        <time>2018-04-18T09:06:19Z</time>
      </trkpt>
      <trkpt lat="48.6951" lon="2.53009">
        <ele>89.6509</ele>
        <time>2018-04-18T09:06:22Z</time>
      </trkpt>
      <trkpt lat="48.69506" lon="2.53007">
        <ele>89.6236</ele>
        <time>2018-04-18T09:06:25Z</time>
      </trkpt>
      <trkpt lat="48.69503" lon="2.53005">
        <ele>89.5986</ele>
        <time>2018-04-18T09:06:28Z</time>
      </trkpt>
      <trkpt lat="48.69498" lon="2.53003">
        <ele>89.5665</ele>
        <time>2018-04-18T09:06:33Z</time>
      </trkpt>
      <trkpt lat="48.69494" lon="2.53">
        <ele>89.5523</ele>
        <time>2018-04-18T09:06:36Z</time>
      </trkpt>
      <trkpt lat="48.69491" lon="2.52997">
        <ele>89.5462</ele>
        <time>2018-04-18T09:06:38Z</time>
      </trkpt>
      <trkpt lat="48.69486" lon="2.52994">
        <ele>89.5414</ele>
        <time>2018-04-18T09:06:41Z</time>
      </trkpt>
      <trkpt lat="48.69482" lon="2.52991">
        <ele>89.5418</ele>
        <time>2018-04-18T09:06:44Z</time>
      </trkpt>
      <trkpt lat="48.69477" lon="2.52986">
        <ele>89.5467</ele>
        <time>2018-04-18T09:06:47Z</time>
      </trkpt>
      <trkpt lat="48.69473" lon="2.52983">
        <ele>89.5628</ele>
        <time>2018-04-18T09:06:51Z</time>
      </trkpt>
      <trkpt lat="48.69469" lon="2.52977">
        <ele>89.6049</ele>
        <time>2018-04-18T09:06:57Z</time>
      </trkpt>
      <trkpt lat="48.69467" lon="2.52974">
        <ele>89.6341</ele>
        <time>2018-04-18T09:07:00Z</time>
      </trkpt>
      <trkpt lat="48.69464" lon="2.52968">
        <ele>89.6959</ele>
        <time>2018-04-18T09:07:05Z</time>
      </trkpt>
      <trkpt lat="48.69461" lon="2.5296">
        <ele>89.7555</ele>
        <time>2018-04-18T09:07:09Z</time>
      </trkpt>
      <trkpt lat="48.69458" lon="2.52955">
        <ele>89.801</ele>
        <time>2018-04-18T09:07:12Z</time>
      </trkpt>
      <trkpt lat="48.69456" lon="2.52951">
        <ele>89.8309</ele>
        <time>2018-04-18T09:07:14Z</time>
      </trkpt>
      <trkpt lat="48.69453" lon="2.52943">
        <ele>89.8852</ele>
        <time>2018-04-18T09:07:18Z</time>
      </trkpt>
      <trkpt lat="48.69452" lon="2.52936">
        <ele>89.9088</ele>
        <time>2018-04-18T09:07:20Z</time>
      </trkpt>
      <trkpt lat="48.6945" lon="2.52931">
        <ele>89.9314</ele>
        <time>2018-04-18T09:07:22Z</time>
      </trkpt>
      <trkpt lat="48.69449" lon="2.52926">
        <ele>89.9639</ele>
        <time>2018-04-18T09:07:25Z</time>
      </trkpt>
      <trkpt lat="48.69446" lon="2.52921">
        <ele>90.0143</ele>
        <time>2018-04-18T09:07:30Z</time>
      </trkpt>
      <trkpt lat="48.69441" lon="2.52918">
        <ele>90.0527</ele>
        <time>2018-04-18T09:07:34Z</time>
      </trkpt>
      <trkpt lat="48.69439" lon="2.52911">
        <ele>90.093</ele>
        <time>2018-04-18T09:07:38Z</time>
      </trkpt>
      <trkpt lat="48.69436" lon="2.52903">
        <ele>90.1338</ele>
        <time>2018-04-18T09:07:42Z</time>
      </trkpt>
      <trkpt lat="48.69434" lon="2.52897">
        <ele>90.1622</ele>
        <time>2018-04-18T09:07:45Z</time>
      </trkpt>
      <trkpt lat="48.69433" lon="2.52893">
        <ele>90.1789</ele>
        <time>2018-04-18T09:07:47Z</time>
      </trkpt>
      <trkpt lat="48.69431" lon="2.52886">
        <ele>90.21</ele>
        <time>2018-04-18T09:07:51Z</time>
      </trkpt>
      <trkpt lat="48.6943" lon="2.52882">
        <ele>90.2371</ele>
        <time>2018-04-18T09:07:55Z</time>
      </trkpt>
      <trkpt lat="48.69429" lon="2.52877">
        <ele>90.2673</ele>
        <time>2018-04-18T09:08:00Z</time>
      </trkpt>
      <trkpt lat="48.69427" lon="2.52871">
        <ele>90.2864</ele>
        <time>2018-04-18T09:08:03Z</time>
      </trkpt>
      <trkpt lat="48.69423" lon="2.52867">
        <ele>90.3141</ele>
        <time>2018-04-18T09:08:07Z</time>
      </trkpt>
      <trkpt lat="48.69419" lon="2.52863">
        <ele>90.3369</ele>
        <time>2018-04-18T09:08:10Z</time>
      </trkpt>
      <trkpt lat="48.69415" lon="2.52859">
        <ele>90.3605</ele>
        <time>2018-04-18T09:08:13Z</time>
      </trkpt>
      <trkpt lat="48.6941" lon="2.52856">
        <ele>90.395</ele>
        <time>2018-04-18T09:08:17Z</time>
      </trkpt>
      <trkpt lat="48.69406" lon="2.52851">
        <ele>90.4373</ele>
        <time>2018-04-18T09:08:22Z</time>
      </trkpt>
      <trkpt lat="48.69403" lon="2.52843">
        <ele>90.4692</ele>
        <time>2018-04-18T09:08:26Z</time>
      </trkpt>
      <trkpt lat="48.694" lon="2.52838">
        <ele>90.4933</ele>
        <time>2018-04-18T09:08:30Z</time>
      </trkpt>
      <trkpt lat="48.69397" lon="2.52833">
        <ele>90.515</ele>
        <time>2018-04-18T09:08:34Z</time>
      </trkpt>
      <trkpt lat="48.69394" lon="2.52829">
        <ele>90.5245</ele>
        <time>2018-04-18T09:08:36Z</time>
      </trkpt>
      <trkpt lat="48.69392" lon="2.52826">
        <ele>90.5326</ele>
        <time>2018-04-18T09:08:38Z</time>
      </trkpt>
      <trkpt lat="48.69389" lon="2.5282">
        <ele>90.5458</ele>
        <time>2018-04-18T09:08:42Z</time>
      </trkpt>
      <trkpt lat="48.69387" lon="2.52817">
        <ele>90.5495</ele>
        <time>2018-04-18T09:08:44Z</time>
      </trkpt>
      <trkpt lat="48.69383" lon="2.52811">
        <ele>90.5538</ele>
        <time>2018-04-18T09:08:49Z</time>
      </trkpt>
      <trkpt lat="48.6938" lon="2.52806">
        <ele>90.5594</ele>
        <time>2018-04-18T09:08:53Z</time>
      </trkpt>
      <trkpt lat="48.69376" lon="2.52801">
        <ele>90.5694</ele>
        <time>2018-04-18T09:08:58Z</time>
      </trkpt>
      <trkpt lat="48.69373" lon="2.52798">
        <ele>90.5754</ele>
        <time>2018-04-18T09:09:01Z</time>
      </trkpt>
      <trkpt lat="48.69371" lon="2.5279">
        <ele>90.5836</ele>
        <time>2018-04-18T09:09:06Z</time>
      </trkpt>
      <trkpt lat="48.6937" lon="2.52787">
        <ele>90.5859</ele>
        <time>2018-04-18T09:09:08Z</time>
      </trkpt>
      <trkpt lat="48.69369" lon="2.52782">
        <ele>90.587</ele>
        <time>2018-04-18T09:09:10Z</time>
      </trkpt>
      <trkpt lat="48.69365" lon="2.52774">
        <ele>90.5894</ele>
        <time>2018-04-18T09:09:15Z</time>
      </trkpt>
      <trkpt lat="48.69364" lon="2.52771">
        <ele>90.5905</ele>
        <time>2018-04-18T09:09:17Z</time>
      </trkpt>
      <trkpt lat="48.69362" lon="2.52762">
        <ele>90.5952</ele>
        <time>2018-04-18T09:09:23Z</time>
      </trkpt>
      <trkpt lat="48.69362" lon="2.52758">
        <ele>90.5955</ele>
        <time>2018-04-18T09:09:25Z</time>
      </trkpt>
      <trkpt lat="48.69363" lon="2.52751">
        <ele>90.5939</ele>
        <time>2018-04-18T09:09:30Z</time>
      </trkpt>
      <trkpt lat="48.69363" lon="2.52744">
        <ele>90.5889</ele>
        <time>2018-04-18T09:09:35Z</time>
      </trkpt>
      <trkpt lat="48.69362" lon="2.52738">
        <ele>90.5845</ele>
        <time>2018-04-18T09:09:37Z</time>
      </trkpt>
      <trkpt lat="48.69362" lon="2.52731">
        <ele>90.5779</ele>
        <time>2018-04-18T09:09:39Z</time>
      </trkpt>
      <trkpt lat="48.69362" lon="2.52727">
        <ele>90.5738</ele>
        <time>2018-04-18T09:09:40Z</time>
      </trkpt>
      <trkpt lat="48.6936" lon="2.52718">
        <ele>90.5601</ele>
        <time>2018-04-18T09:09:43Z</time>
      </trkpt>
      <trkpt lat="48.6936" lon="2.5271">
        <ele>90.5425</ele>
        <time>2018-04-18T09:09:47Z</time>
      </trkpt>
      <trkpt lat="48.6936" lon="2.52706">
        <ele>90.5323</ele>
        <time>2018-04-18T09:09:50Z</time>
      </trkpt>
      <trkpt lat="48.6936" lon="2.52702">
        <ele>90.5274</ele>
        <time>2018-04-18T09:09:52Z</time>
      </trkpt>
      <trkpt lat="48.6936" lon="2.52698">
        <ele>90.5228</ele>
        <time>2018-04-18T09:09:55Z</time>
      </trkpt>
      <trkpt lat="48.6936" lon="2.52693">
        <ele>90.5217</ele>
        <time>2018-04-18T09:09:58Z</time>
      </trkpt>
      <trkpt lat="48.6936" lon="2.52688">
        <ele>90.5261</ele>
        <time>2018-04-18T09:10:03Z</time>
      </trkpt>
      <trkpt lat="48.69361" lon="2.52684">
        <ele>90.5337</ele>
        <time>2018-04-18T09:10:06Z</time>
      </trkpt>
      <trkpt lat="48.6936" lon="2.52675">
        <ele>90.5476</ele>
        <time>2018-04-18T09:10:10Z</time>
      </trkpt>
      <trkpt lat="48.69361" lon="2.52667">
        <ele>90.5623</ele>
        <time>2018-04-18T09:10:14Z</time>
      </trkpt>
      <trkpt lat="48.69361" lon="2.5266">
        <ele>90.5714</ele>
        <time>2018-04-18T09:10:17Z</time>
      </trkpt>
      <trkpt lat="48.69362" lon="2.52654">
        <ele>90.5743</ele>
        <time>2018-04-18T09:10:19Z</time>
      </trkpt>
      <trkpt lat="48.69362" lon="2.52648">
        <ele>90.5741</ele>
        <time>2018-04-18T09:10:21Z</time>
      </trkpt>
      <trkpt lat="48.69363" lon="2.52642">
        <ele>90.5691</ele>
        <time>2018-04-18T09:10:24Z</time>
      </trkpt>
      <trkpt lat="48.69361" lon="2.52636">
        <ele>90.5538</ele>
        <time>2018-04-18T09:10:28Z</time>
      </trkpt>
      <trkpt lat="48.69361" lon="2.52629">
        <ele>90.5242</ele>
        <time>2018-04-18T09:10:32Z</time>
      </trkpt>
      <trkpt lat="48.69359" lon="2.52622">
        <ele>90.4755</ele>
        <time>2018-04-18T09:10:37Z</time>
      </trkpt>
      <trkpt lat="48.69357" lon="2.52616">
        <ele>90.4531</ele>
        <time>2018-04-18T09:10:39Z</time>
      </trkpt>
      <trkpt lat="48.69357" lon="2.52612">
        <ele>90.4304</ele>
        <time>2018-04-18T09:10:41Z</time>
      </trkpt>
      <trkpt lat="48.69354" lon="2.52604">
        <ele>90.3844</ele>
        <time>2018-04-18T09:10:45Z</time>
      </trkpt>
      <trkpt lat="48.69349" lon="2.52594">
        <ele>90.351</ele>
        <time>2018-04-18T09:10:48Z</time>
      </trkpt>
      <trkpt lat="48.69347" lon="2.52588">
        <ele>90.322</ele>
        <time>2018-04-18T09:10:51Z</time>
      </trkpt>
      <trkpt lat="48.69348" lon="2.5258">
        <ele>90.2816</ele>
        <time>2018-04-18T09:10:56Z</time>
      </trkpt>
      <trkpt lat="48.69346" lon="2.52573">
        <ele>90.2425</ele>
        <time>2018-04-18T09:11:02Z</time>
      </trkpt>
      <trkpt lat="48.69343" lon="2.52565">
        <ele>90.2152</ele>
        <time>2018-04-18T09:11:07Z</time>
      </trkpt>
      <trkpt lat="48.69343" lon="2.52544">
        <ele>90.1944</ele>
        <time>2018-04-18T09:11:11Z</time>
      </trkpt>
      <trkpt lat="48.69343" lon="2.52536">
        <ele>90.1799</ele>
        <time>2018-04-18T09:11:14Z</time>
      </trkpt>
      <trkpt lat="48.69343" lon="2.5253">
        <ele>90.1766</ele>
        <time>2018-04-18T09:11:22Z</time>
      </trkpt>
      <trkpt lat="48.69343" lon="2.52526">
        <ele>90.1814</ele>
        <time>2018-04-18T09:11:23Z</time>
      </trkpt>
      <trkpt lat="48.69344" lon="2.52519">
        <ele>90.191</ele>
        <time>2018-04-18T09:11:26Z</time>
      </trkpt>
      <trkpt lat="48.69341" lon="2.52512">
        <ele>90.2108</ele>
        <time>2018-04-18T09:11:30Z</time>
      </trkpt>
      <trkpt lat="48.6934" lon="2.52504">
        <ele>90.2521</ele>
        <time>2018-04-18T09:11:36Z</time>
      </trkpt>
      <trkpt lat="48.69337" lon="2.52497">
        <ele>90.2828</ele>
        <time>2018-04-18T09:11:41Z</time>
      </trkpt>
      <trkpt lat="48.69335" lon="2.52492">
        <ele>90.296</ele>
        <time>2018-04-18T09:11:44Z</time>
      </trkpt>
      <trkpt lat="48.69332" lon="2.52487">
        <ele>90.2939</ele>
        <time>2018-04-18T09:11:48Z</time>
      </trkpt>
      <trkpt lat="48.6933" lon="2.52484">
        <ele>90.2869</ele>
        <time>2018-04-18T09:11:51Z</time>
      </trkpt>
      <trkpt lat="48.69326" lon="2.52479">
        <ele>90.2824</ele>
        <time>2018-04-18T09:11:55Z</time>
      </trkpt>
      <trkpt lat="48.69325" lon="2.52476">
        <ele>90.2756</ele>
        <time>2018-04-18T09:11:58Z</time>
      </trkpt>
      <trkpt lat="48.69321" lon="2.52472">
        <ele>90.2574</ele>
        <time>2018-04-18T09:12:02Z</time>
      </trkpt>
      <trkpt lat="48.69316" lon="2.52468">
        <ele>90.2332</ele>
        <time>2018-04-18T09:12:05Z</time>
      </trkpt>
      <trkpt lat="48.69311" lon="2.52463">
        <ele>90.1802</ele>
        <time>2018-04-18T09:12:10Z</time>
      </trkpt>
      <trkpt lat="48.69307" lon="2.5246">
        <ele>90.1449</ele>
        <time>2018-04-18T09:12:13Z</time>
      </trkpt>
      <trkpt lat="48.69304" lon="2.52458">
        <ele>90.12</ele>
        <time>2018-04-18T09:12:15Z</time>
      </trkpt>
      <trkpt lat="48.693" lon="2.52452">
        <ele>90.0647</ele>
        <time>2018-04-18T09:12:19Z</time>
      </trkpt>
      <trkpt lat="48.69296" lon="2.52447">
        <ele>90.0024</ele>
        <time>2018-04-18T09:12:24Z</time>
      </trkpt>
      <trkpt lat="48.69294" lon="2.52445">
        <ele>89.9825</ele>
        <time>2018-04-18T09:12:26Z</time>
      </trkpt>
      <trkpt lat="48.69291" lon="2.52442">
        <ele>89.9547</ele>
        <time>2018-04-18T09:12:29Z</time>
      </trkpt>
      <trkpt lat="48.69286" lon="2.52439">
        <ele>89.9182</ele>
        <time>2018-04-18T09:12:33Z</time>
      </trkpt>
      <trkpt lat="48.69282" lon="2.52433">
        <ele>89.8549</ele>
        <time>2018-04-18T09:12:37Z</time>
      </trkpt>
      <trkpt lat="48.69278" lon="2.5243">
        <ele>89.7437</ele>
        <time>2018-04-18T09:12:42Z</time>
      </trkpt>
      <trkpt lat="48.69274" lon="2.52425">
        <ele>89.6554</ele>
        <time>2018-04-18T09:12:46Z</time>
      </trkpt>
      <trkpt lat="48.6927" lon="2.52422">
        <ele>89.5831</ele>
        <time>2018-04-18T09:12:50Z</time>
      </trkpt>
      <trkpt lat="48.69266" lon="2.52418">
        <ele>89.5259</ele>
        <time>2018-04-18T09:12:54Z</time>
      </trkpt>
      <trkpt lat="48.69261" lon="2.52414">
        <ele>89.4576</ele>
        <time>2018-04-18T09:12:59Z</time>
      </trkpt>
      <trkpt lat="48.69256" lon="2.52413">
        <ele>89.3781</ele>
        <time>2018-04-18T09:13:04Z</time>
      </trkpt>
      <trkpt lat="48.69253" lon="2.52412">
        <ele>89.3126</ele>
        <time>2018-04-18T09:13:07Z</time>
      </trkpt>
      <trkpt lat="48.69247" lon="2.52411">
        <ele>89.2337</ele>
        <time>2018-04-18T09:13:10Z</time>
      </trkpt>
      <trkpt lat="48.69241" lon="2.52409">
        <ele>89.1289</ele>
        <time>2018-04-18T09:13:14Z</time>
      </trkpt>
      <trkpt lat="48.69236" lon="2.52407">
        <ele>89.0745</ele>
        <time>2018-04-18T09:13:16Z</time>
      </trkpt>
      <trkpt lat="48.69232" lon="2.52406">
        <ele>89.0229</ele>
        <time>2018-04-18T09:13:18Z</time>
      </trkpt>
      <trkpt lat="48.69228" lon="2.52406">
        <ele>88.9811</ele>
        <time>2018-04-18T09:13:20Z</time>
      </trkpt>
      <trkpt lat="48.69223" lon="2.52404">
        <ele>88.9109</ele>
        <time>2018-04-18T09:13:25Z</time>
      </trkpt>
      <trkpt lat="48.69218" lon="2.52398">
        <ele>88.8997</ele>
        <time>2018-04-18T09:13:30Z</time>
      </trkpt>
      <trkpt lat="48.69217" lon="2.52396">
        <ele>88.909</ele>
        <time>2018-04-18T09:13:32Z</time>
      </trkpt>
      <trkpt lat="48.69212" lon="2.52393">
        <ele>88.9449</ele>
        <time>2018-04-18T09:13:37Z</time>
      </trkpt>
      <trkpt lat="48.69207" lon="2.52392">
        <ele>88.9754</ele>
        <time>2018-04-18T09:13:41Z</time>
      </trkpt>
      <trkpt lat="48.69202" lon="2.52389">
        <ele>89.0171</ele>
        <time>2018-04-18T09:13:46Z</time>
      </trkpt>
      <trkpt lat="48.69196" lon="2.52388">
        <ele>89.0589</ele>
        <time>2018-04-18T09:13:51Z</time>
      </trkpt>
      <trkpt lat="48.69192" lon="2.52383">
        <ele>89.0843</ele>
        <time>2018-04-18T09:13:55Z</time>
      </trkpt>
      <trkpt lat="48.69189" lon="2.52376">
        <ele>89.0941</ele>
        <time>2018-04-18T09:13:59Z</time>
      </trkpt>
      <trkpt lat="48.69187" lon="2.5237">
        <ele>89.0914</ele>
        <time>2018-04-18T09:14:04Z</time>
      </trkpt>
      <trkpt lat="48.69185" lon="2.52363">
        <ele>89.0897</ele>
        <time>2018-04-18T09:14:07Z</time>
      </trkpt>
      <trkpt lat="48.69184" lon="2.52359">
        <ele>89.0931</ele>
        <time>2018-04-18T09:14:09Z</time>
      </trkpt>
      <trkpt lat="48.69182" lon="2.52351">
        <ele>89.1034</ele>
        <time>2018-04-18T09:14:12Z</time>
      </trkpt>
      <trkpt lat="48.69181" lon="2.52348">
        <ele>89.1075</ele>
        <time>2018-04-18T09:14:13Z</time>
      </trkpt>
      <trkpt lat="48.69177" lon="2.5234">
        <ele>89.1214</ele>
        <time>2018-04-18T09:14:16Z</time>
      </trkpt>
      <trkpt lat="48.69176" lon="2.52336">
        <ele>89.1222</ele>
        <time>2018-04-18T09:14:19Z</time>
      </trkpt>
      <trkpt lat="48.69172" lon="2.5233">
        <ele>89.0735</ele>
        <time>2018-04-18T09:14:24Z</time>
      </trkpt>
      <trkpt lat="48.6917" lon="2.52322">
        <ele>89.0154</ele>
        <time>2018-04-18T09:14:27Z</time>
      </trkpt>
      <trkpt lat="48.6917" lon="2.52314">
        <ele>88.93</ele>
        <time>2018-04-18T09:14:30Z</time>
      </trkpt>
      <trkpt lat="48.69168" lon="2.52307">
        <ele>88.7974</ele>
        <time>2018-04-18T09:14:34Z</time>
      </trkpt>
      <trkpt lat="48.69166" lon="2.523">
        <ele>88.6908</ele>
        <time>2018-04-18T09:14:37Z</time>
      </trkpt>
      <trkpt lat="48.69165" lon="2.52293">
        <ele>88.5379</ele>
        <time>2018-04-18T09:14:41Z</time>
      </trkpt>
      <trkpt lat="48.69164" lon="2.52286">
        <ele>88.3305</ele>
        <time>2018-04-18T09:14:46Z</time>
      </trkpt>
      <trkpt lat="48.69161" lon="2.52279">
        <ele>88.1334</ele>
        <time>2018-04-18T09:14:51Z</time>
      </trkpt>
      <trkpt lat="48.6916" lon="2.52272">
        <ele>87.9206</ele>
        <time>2018-04-18T09:14:57Z</time>
      </trkpt>
      <trkpt lat="48.69157" lon="2.52265">
        <ele>87.7856</ele>
        <time>2018-04-18T09:15:01Z</time>
      </trkpt>
      <trkpt lat="48.69156" lon="2.52258">
        <ele>87.6272</ele>
        <time>2018-04-18T09:15:06Z</time>
      </trkpt>
      <trkpt lat="48.69154" lon="2.5225">
        <ele>87.4876</ele>
        <time>2018-04-18T09:15:11Z</time>
      </trkpt>
      <trkpt lat="48.69152" lon="2.52243">
        <ele>87.401</ele>
        <time>2018-04-18T09:15:14Z</time>
      </trkpt>
      <trkpt lat="48.6915" lon="2.52236">
        <ele>87.2582</ele>
        <time>2018-04-18T09:15:19Z</time>
      </trkpt>
      <trkpt lat="48.69147" lon="2.52228">
        <ele>87.1474</ele>
        <time>2018-04-18T09:15:23Z</time>
      </trkpt>
      <trkpt lat="48.69144" lon="2.52223">
        <ele>87.0455</ele>
        <time>2018-04-18T09:15:27Z</time>
      </trkpt>
      <trkpt lat="48.69141" lon="2.52215">
        <ele>86.9694</ele>
        <time>2018-04-18T09:15:30Z</time>
      </trkpt>
      <trkpt lat="48.69139" lon="2.52206">
        <ele>86.8406</ele>
        <time>2018-04-18T09:15:35Z</time>
      </trkpt>
      <trkpt lat="48.69138" lon="2.52201">
        <ele>86.7663</ele>
        <time>2018-04-18T09:15:38Z</time>
      </trkpt>
      <trkpt lat="48.69137" lon="2.52197">
        <ele>86.718</ele>
        <time>2018-04-18T09:15:40Z</time>
      </trkpt>
      <trkpt lat="48.69136" lon="2.52193">
        <ele>86.6696</ele>
        <time>2018-04-18T09:15:42Z</time>
      </trkpt>
      <trkpt lat="48.69136" lon="2.5219">
        <ele>86.6208</ele>
        <time>2018-04-18T09:15:44Z</time>
      </trkpt>
      <trkpt lat="48.69134" lon="2.52183">
        <ele>86.5227</ele>
        <time>2018-04-18T09:15:48Z</time>
      </trkpt>
      <trkpt lat="48.69133" lon="2.52177">
        <ele>86.4487</ele>
        <time>2018-04-18T09:15:51Z</time>
      </trkpt>
      <trkpt lat="48.69132" lon="2.52172">
        <ele>86.3753</ele>
        <time>2018-04-18T09:15:54Z</time>
      </trkpt>
      <trkpt lat="48.6913" lon="2.52163">
        <ele>86.2291</ele>
        <time>2018-04-18T09:16:00Z</time>
      </trkpt>
      <trkpt lat="48.69129" lon="2.52156">
        <ele>86.1512</ele>
        <time>2018-04-18T09:16:03Z</time>
      </trkpt>
      <trkpt lat="48.69128" lon="2.52152">
        <ele>86.0673</ele>
        <time>2018-04-18T09:16:06Z</time>
      </trkpt>
      <trkpt lat="48.69127" lon="2.52149">
        <ele>86.0123</ele>
        <time>2018-04-18T09:16:08Z</time>
      </trkpt>
      <trkpt lat="48.69125" lon="2.52143">
        <ele>85.8726</ele>
        <time>2018-04-18T09:16:13Z</time>
      </trkpt>
      <trkpt lat="48.69123" lon="2.52138">
        <ele>85.7907</ele>
        <time>2018-04-18T09:16:16Z</time>
      </trkpt>
      <trkpt lat="48.69121" lon="2.52133">
        <ele>85.6845</ele>
        <time>2018-04-18T09:16:20Z</time>
      </trkpt>
      <trkpt lat="48.6912" lon="2.5213">
        <ele>85.5453</ele>
        <time>2018-04-18T09:16:25Z</time>
      </trkpt>
      <trkpt lat="48.69115" lon="2.52133">
        <ele>85.2914</ele>
        <time>2018-04-18T09:16:34Z</time>
      </trkpt>
      <trkpt lat="48.6911" lon="2.52136">
        <ele>85.0825</ele>
        <time>2018-04-18T09:16:43Z</time>
      </trkpt>
      <trkpt lat="48.69105" lon="2.52138">
        <ele>84.976</ele>
        <time>2018-04-18T09:16:48Z</time>
      </trkpt>
      <trkpt lat="48.69099" lon="2.52138">
        <ele>84.9204</ele>
        <time>2018-04-18T09:16:51Z</time>
      </trkpt>
      <trkpt lat="48.69099" lon="2.52138">
        <ele>84.9204</ele>
        <time>2018-04-18T09:16:57Z</time>
      </trkpt>
      <trkpt lat="48.69099" lon="2.52138">
        <ele>84.9204</ele>
        <time>2018-04-18T09:16:58Z</time>
      </trkpt>
      <trkpt lat="48.6909" lon="2.52134">
        <ele>84.7594</ele>
        <time>2018-04-18T09:17:01Z</time>
      </trkpt>
      <trkpt lat="48.69086" lon="2.52133">
        <ele>84.7039</ele>
        <time>2018-04-18T09:17:05Z</time>
      </trkpt>
      <trkpt lat="48.6908" lon="2.52129">
        <ele>84.6773</ele>
        <time>2018-04-18T09:17:07Z</time>
      </trkpt>
      <trkpt lat="48.69076" lon="2.52123">
        <ele>84.6381</ele>
        <time>2018-04-18T09:17:10Z</time>
      </trkpt>
      <trkpt lat="48.69073" lon="2.52119">
        <ele>84.5898</ele>
        <time>2018-04-18T09:17:14Z</time>
      </trkpt>
      <trkpt lat="48.69067" lon="2.52118">
        <ele>84.5428</ele>
        <time>2018-04-18T09:17:20Z</time>
      </trkpt>
      <trkpt lat="48.69063" lon="2.52119">
        <ele>84.5152</ele>
        <time>2018-04-18T09:17:24Z</time>
      </trkpt>
      <trkpt lat="48.69059" lon="2.52114">
        <ele>84.4942</ele>
        <time>2018-04-18T09:17:30Z</time>
      </trkpt>
      <trkpt lat="48.69054" lon="2.52111">
        <ele>84.4819</ele>
        <time>2018-04-18T09:17:34Z</time>
      </trkpt>
      <trkpt lat="48.6905" lon="2.52107">
        <ele>84.4744</ele>
        <time>2018-04-18T09:17:37Z</time>
      </trkpt>
      <trkpt lat="48.69045" lon="2.52104">
        <ele>84.4667</ele>
        <time>2018-04-18T09:17:41Z</time>
      </trkpt>
      <trkpt lat="48.69041" lon="2.52101">
        <ele>84.4625</ele>
        <time>2018-04-18T09:17:45Z</time>
      </trkpt>
      <trkpt lat="48.69038" lon="2.521">
        <ele>84.4606</ele>
        <time>2018-04-18T09:17:47Z</time>
      </trkpt>
      <trkpt lat="48.69034" lon="2.52097">
        <ele>84.458</ele>
        <time>2018-04-18T09:17:51Z</time>
      </trkpt>
      <trkpt lat="48.69029" lon="2.52095">
        <ele>84.4593</ele>
        <time>2018-04-18T09:17:57Z</time>
      </trkpt>
      <trkpt lat="48.69026" lon="2.52094">
        <ele>84.4606</ele>
        <time>2018-04-18T09:17:59Z</time>
      </trkpt>
      <trkpt lat="48.69022" lon="2.52091">
        <ele>84.4651</ele>
        <time>2018-04-18T09:18:03Z</time>
      </trkpt>
      <trkpt lat="48.69018" lon="2.52086">
        <ele>84.4704</ele>
        <time>2018-04-18T09:18:06Z</time>
      </trkpt>
      <trkpt lat="48.69013" lon="2.52083">
        <ele>84.48</ele>
        <time>2018-04-18T09:18:12Z</time>
      </trkpt>
      <trkpt lat="48.6901" lon="2.52082">
        <ele>84.4857</ele>
        <time>2018-04-18T09:18:15Z</time>
      </trkpt>
      <trkpt lat="48.69006" lon="2.52079">
        <ele>84.4969</ele>
        <time>2018-04-18T09:18:20Z</time>
      </trkpt>
      <trkpt lat="48.69004" lon="2.52078">
        <ele>84.5019</ele>
        <time>2018-04-18T09:18:22Z</time>
      </trkpt>
      <trkpt lat="48.69002" lon="2.52076">
        <ele>84.5076</ele>
        <time>2018-04-18T09:18:24Z</time>
      </trkpt>
      <trkpt lat="48.68999" lon="2.52075">
        <ele>84.5198</ele>
        <time>2018-04-18T09:18:27Z</time>
      </trkpt>
      <trkpt lat="48.68994" lon="2.52072">
        <ele>84.5369</ele>
        <time>2018-04-18T09:18:32Z</time>
      </trkpt>
      <trkpt lat="48.6899" lon="2.5207">
        <ele>84.5442</ele>
        <time>2018-04-18T09:18:34Z</time>
      </trkpt>
      <trkpt lat="48.68985" lon="2.52068">
        <ele>84.5565</ele>
        <time>2018-04-18T09:18:37Z</time>
      </trkpt>
      <trkpt lat="48.68982" lon="2.52066">
        <ele>84.5648</ele>
        <time>2018-04-18T09:18:39Z</time>
      </trkpt>
      <trkpt lat="48.68977" lon="2.52068">
        <ele>84.586</ele>
        <time>2018-04-18T09:18:43Z</time>
      </trkpt>
      <trkpt lat="48.68971" lon="2.52073">
        <ele>84.619</ele>
        <time>2018-04-18T09:18:47Z</time>
      </trkpt>
      <trkpt lat="48.68967" lon="2.52079">
        <ele>84.6567</ele>
        <time>2018-04-18T09:18:51Z</time>
      </trkpt>
      <trkpt lat="48.68964" lon="2.52083">
        <ele>84.6933</ele>
        <time>2018-04-18T09:18:55Z</time>
      </trkpt>
      <trkpt lat="48.68961" lon="2.52088">
        <ele>84.7348</ele>
        <time>2018-04-18T09:19:00Z</time>
      </trkpt>
      <trkpt lat="48.68956" lon="2.5209">
        <ele>84.7734</ele>
        <time>2018-04-18T09:19:05Z</time>
      </trkpt>
      <trkpt lat="48.68951" lon="2.52093">
        <ele>84.8334</ele>
        <time>2018-04-18T09:19:10Z</time>
      </trkpt>
      <trkpt lat="48.68946" lon="2.52096">
        <ele>84.9281</ele>
        <time>2018-04-18T09:19:16Z</time>
      </trkpt>
      <trkpt lat="48.68942" lon="2.52098">
        <ele>85.0027</ele>
        <time>2018-04-18T09:19:20Z</time>
      </trkpt>
      <trkpt lat="48.68939" lon="2.521">
        <ele>85.0574</ele>
        <time>2018-04-18T09:19:23Z</time>
      </trkpt>
      <trkpt lat="48.68936" lon="2.52102">
        <ele>85.0913</ele>
        <time>2018-04-18T09:19:25Z</time>
      </trkpt>
      <trkpt lat="48.68931" lon="2.52105">
        <ele>85.1538</ele>
        <time>2018-04-18T09:19:29Z</time>
      </trkpt>
      <trkpt lat="48.68928" lon="2.52111">
        <ele>85.2137</ele>
        <time>2018-04-18T09:19:33Z</time>
      </trkpt>
      <trkpt lat="48.68925" lon="2.52116">
        <ele>85.2656</ele>
        <time>2018-04-18T09:19:37Z</time>
      </trkpt>
      <trkpt lat="48.68922" lon="2.52122">
        <ele>85.3142</ele>
        <time>2018-04-18T09:19:41Z</time>
      </trkpt>
      <trkpt lat="48.68921" lon="2.52125">
        <ele>85.355</ele>
        <time>2018-04-18T09:19:44Z</time>
      </trkpt>
      <trkpt lat="48.68916" lon="2.52131">
        <ele>85.4148</ele>
        <time>2018-04-18T09:19:49Z</time>
      </trkpt>
      <trkpt lat="48.68915" lon="2.52134">
        <ele>85.4349</ele>
        <time>2018-04-18T09:19:51Z</time>
      </trkpt>
      <trkpt lat="48.68913" lon="2.52136">
        <ele>85.4517</ele>
        <time>2018-04-18T09:19:53Z</time>
      </trkpt>
      <trkpt lat="48.6891" lon="2.52143">
        <ele>85.4827</ele>
        <time>2018-04-18T09:19:57Z</time>
      </trkpt>
      <trkpt lat="48.68908" lon="2.52147">
        <ele>85.4986</ele>
        <time>2018-04-18T09:19:59Z</time>
      </trkpt>
      <trkpt lat="48.68906" lon="2.52151">
        <ele>85.5162</ele>
        <time>2018-04-18T09:20:01Z</time>
      </trkpt>
      <trkpt lat="48.68904" lon="2.52158">
        <ele>85.5459</ele>
        <time>2018-04-18T09:20:04Z</time>
      </trkpt>
      <trkpt lat="48.68901" lon="2.52164">
        <ele>85.5815</ele>
        <time>2018-04-18T09:20:08Z</time>
      </trkpt>
      <trkpt lat="48.68899" lon="2.5217">
        <ele>85.6173</ele>
        <time>2018-04-18T09:20:12Z</time>
      </trkpt>
      <trkpt lat="48.68896" lon="2.52175">
        <ele>85.669</ele>
        <time>2018-04-18T09:20:17Z</time>
      </trkpt>
      <trkpt lat="48.68894" lon="2.52183">
        <ele>85.7111</ele>
        <time>2018-04-18T09:20:21Z</time>
      </trkpt>
      <trkpt lat="48.68891" lon="2.52188">
        <ele>85.7517</ele>
        <time>2018-04-18T09:20:25Z</time>
      </trkpt>
      <trkpt lat="48.68889" lon="2.52195">
        <ele>85.7921</ele>
        <time>2018-04-18T09:20:30Z</time>
      </trkpt>
      <trkpt lat="48.68886" lon="2.52202">
        <ele>85.8222</ele>
        <time>2018-04-18T09:20:35Z</time>
      </trkpt>
      <trkpt lat="48.68884" lon="2.52205">
        <ele>85.8333</ele>
        <time>2018-04-18T09:20:37Z</time>
      </trkpt>
      <trkpt lat="48.68879" lon="2.5221">
        <ele>85.8582</ele>
        <time>2018-04-18T09:20:41Z</time>
      </trkpt>
      <trkpt lat="48.68875" lon="2.52215">
        <ele>85.8829</ele>
        <time>2018-04-18T09:20:45Z</time>
      </trkpt>
      <trkpt lat="48.68872" lon="2.5222">
        <ele>85.8974</ele>
        <time>2018-04-18T09:20:49Z</time>
      </trkpt>
      <trkpt lat="48.6887" lon="2.52224">
        <ele>85.8974</ele>
        <time>2018-04-18T09:20:52Z</time>
      </trkpt>
      <trkpt lat="48.68868" lon="2.52227">
        <ele>85.8921</ele>
        <time>2018-04-18T09:20:54Z</time>
      </trkpt>
      <trkpt lat="48.68866" lon="2.5223">
        <ele>85.884</ele>
        <time>2018-04-18T09:20:57Z</time>
      </trkpt>
      <trkpt lat="48.68862" lon="2.52235">
        <ele>85.8804</ele>
        <time>2018-04-18T09:21:03Z</time>
      </trkpt>
      <trkpt lat="48.68859" lon="2.5224">
        <ele>85.892</ele>
        <time>2018-04-18T09:21:08Z</time>
      </trkpt>
      <trkpt lat="48.68856" lon="2.52243">
        <ele>85.9021</ele>
        <time>2018-04-18T09:21:11Z</time>
      </trkpt>
      <trkpt lat="48.68855" lon="2.52246">
        <ele>85.9094</ele>
        <time>2018-04-18T09:21:13Z</time>
      </trkpt>
      <trkpt lat="48.6885" lon="2.52249">
        <ele>85.9332</ele>
        <time>2018-04-18T09:21:18Z</time>
      </trkpt>
      <trkpt lat="48.68847" lon="2.52251">
        <ele>85.9442</ele>
        <time>2018-04-18T09:21:20Z</time>
      </trkpt>
      <trkpt lat="48.68844" lon="2.52254">
        <ele>85.9547</ele>
        <time>2018-04-18T09:21:22Z</time>
      </trkpt>
      <trkpt lat="48.68842" lon="2.52255">
        <ele>85.9652</ele>
        <time>2018-04-18T09:21:24Z</time>
      </trkpt>
      <trkpt lat="48.68838" lon="2.5226">
        <ele>85.987</ele>
        <time>2018-04-18T09:21:28Z</time>
      </trkpt>
      <trkpt lat="48.68834" lon="2.52263">
        <ele>86.0067</ele>
        <time>2018-04-18T09:21:32Z</time>
      </trkpt>
      <trkpt lat="48.68831" lon="2.52269">
        <ele>86.0286</ele>
        <time>2018-04-18T09:21:37Z</time>
      </trkpt>
      <trkpt lat="48.68829" lon="2.52275">
        <ele>86.0523</ele>
        <time>2018-04-18T09:21:41Z</time>
      </trkpt>
      <trkpt lat="48.68828" lon="2.52278">
        <ele>86.0653</ele>
        <time>2018-04-18T09:21:43Z</time>
      </trkpt>
      <trkpt lat="48.68824" lon="2.52284">
        <ele>86.0873</ele>
        <time>2018-04-18T09:21:47Z</time>
      </trkpt>
      <trkpt lat="48.68821" lon="2.52291">
        <ele>86.1052</ele>
        <time>2018-04-18T09:21:51Z</time>
      </trkpt>
      <trkpt lat="48.68818" lon="2.52296">
        <ele>86.115</ele>
        <time>2018-04-18T09:21:54Z</time>
      </trkpt>
      <trkpt lat="48.68815" lon="2.52302">
        <ele>86.1242</ele>
        <time>2018-04-18T09:21:58Z</time>
      </trkpt>
      <trkpt lat="48.68811" lon="2.52307">
        <ele>86.1318</ele>
        <time>2018-04-18T09:22:03Z</time>
      </trkpt>
      <trkpt lat="48.68806" lon="2.52311">
        <ele>86.1416</ele>
        <time>2018-04-18T09:22:08Z</time>
      </trkpt>
      <trkpt lat="48.68801" lon="2.52311">
        <ele>86.1524</ele>
        <time>2018-04-18T09:22:12Z</time>
      </trkpt>
      <trkpt lat="48.68795" lon="2.5231">
        <ele>86.1646</ele>
        <time>2018-04-18T09:22:16Z</time>
      </trkpt>
      <trkpt lat="48.6879" lon="2.52307">
        <ele>86.179</ele>
        <time>2018-04-18T09:22:20Z</time>
      </trkpt>
      <trkpt lat="48.68785" lon="2.52303">
        <ele>86.1914</ele>
        <time>2018-04-18T09:22:24Z</time>
      </trkpt>
      <trkpt lat="48.68783" lon="2.52301">
        <ele>86.1992</ele>
        <time>2018-04-18T09:22:27Z</time>
      </trkpt>
      <trkpt lat="48.68778" lon="2.52298">
        <ele>86.2051</ele>
        <time>2018-04-18T09:22:30Z</time>
      </trkpt>
      <trkpt lat="48.68774" lon="2.52293">
        <ele>86.2239</ele>
        <time>2018-04-18T09:22:35Z</time>
      </trkpt>
      <trkpt lat="48.68772" lon="2.52291">
        <ele>86.2405</ele>
        <time>2018-04-18T09:22:38Z</time>
      </trkpt>
      <trkpt lat="48.68769" lon="2.52289">
        <ele>86.255</ele>
        <time>2018-04-18T09:22:40Z</time>
      </trkpt>
      <trkpt lat="48.68767" lon="2.52288">
        <ele>86.27</ele>
        <time>2018-04-18T09:22:42Z</time>
      </trkpt>
      <trkpt lat="48.68763" lon="2.52284">
        <ele>86.3178</ele>
        <time>2018-04-18T09:22:48Z</time>
      </trkpt>
      <trkpt lat="48.68759" lon="2.5228">
        <ele>86.3502</ele>
        <time>2018-04-18T09:22:53Z</time>
      </trkpt>
      <trkpt lat="48.68756" lon="2.52278">
        <ele>86.3661</ele>
        <time>2018-04-18T09:22:56Z</time>
      </trkpt>
      <trkpt lat="48.68752" lon="2.52276">
        <ele>86.3805</ele>
        <time>2018-04-18T09:22:59Z</time>
      </trkpt>
      <trkpt lat="48.6875" lon="2.52275">
        <ele>86.3901</ele>
        <time>2018-04-18T09:23:01Z</time>
      </trkpt>
      <trkpt lat="48.68747" lon="2.52273">
        <ele>86.4061</ele>
        <time>2018-04-18T09:23:04Z</time>
      </trkpt>
      <trkpt lat="48.68743" lon="2.5227">
        <ele>86.4418</ele>
        <time>2018-04-18T09:23:11Z</time>
      </trkpt>
      <trkpt lat="48.68743" lon="2.5227">
        <ele>86.4418</ele>
        <time>2018-04-18T09:25:44Z</time>
      </trkpt>
      <trkpt lat="48.68732" lon="2.5227">
        <ele>87.4578</ele>
        <time>2018-04-18T09:27:15Z</time>
      </trkpt>
      <trkpt lat="48.68728" lon="2.52266">
        <ele>87.6583</ele>
        <time>2018-04-18T09:27:30Z</time>
      </trkpt>
      <trkpt lat="48.68724" lon="2.52264">
        <ele>87.7604</ele>
        <time>2018-04-18T09:27:36Z</time>
      </trkpt>
      <trkpt lat="48.68719" lon="2.52261">
        <ele>87.8557</ele>
        <time>2018-04-18T09:27:42Z</time>
      </trkpt>
      <trkpt lat="48.68715" lon="2.52255">
        <ele>87.9146</ele>
        <time>2018-04-18T09:27:46Z</time>
      </trkpt>
      <trkpt lat="48.68715" lon="2.52255">
        <ele>87.9146</ele>
        <time>2018-04-18T09:27:53Z</time>
      </trkpt>
      <trkpt lat="48.68715" lon="2.52255">
        <ele>87.9146</ele>
        <time>2018-04-18T09:27:54Z</time>
      </trkpt>
      <trkpt lat="48.68709" lon="2.52253">
        <ele>88.0605</ele>
        <time>2018-04-18T09:27:57Z</time>
      </trkpt>
      <trkpt lat="48.68707" lon="2.52252">
        <ele>88.0955</ele>
        <time>2018-04-18T09:28:00Z</time>
      </trkpt>
      <trkpt lat="48.68704" lon="2.5225">
        <ele>88.1387</ele>
        <time>2018-04-18T09:28:04Z</time>
      </trkpt>
      <trkpt lat="48.68699" lon="2.52249">
        <ele>88.1883</ele>
        <time>2018-04-18T09:28:09Z</time>
      </trkpt>
      <trkpt lat="48.68694" lon="2.52246">
        <ele>88.2438</ele>
        <time>2018-04-18T09:28:15Z</time>
      </trkpt>
      <trkpt lat="48.6869" lon="2.52242">
        <ele>88.2887</ele>
        <time>2018-04-18T09:28:20Z</time>
      </trkpt>
      <trkpt lat="48.68687" lon="2.52239">
        <ele>88.3058</ele>
        <time>2018-04-18T09:28:22Z</time>
      </trkpt>
      <trkpt lat="48.68685" lon="2.52237">
        <ele>88.3221</ele>
        <time>2018-04-18T09:28:24Z</time>
      </trkpt>
      <trkpt lat="48.6868" lon="2.52235">
        <ele>88.3605</ele>
        <time>2018-04-18T09:28:29Z</time>
      </trkpt>
      <trkpt lat="48.68676" lon="2.52232">
        <ele>88.3891</ele>
        <time>2018-04-18T09:28:33Z</time>
      </trkpt>
      <trkpt lat="48.68671" lon="2.52231">
        <ele>88.4164</ele>
        <time>2018-04-18T09:28:37Z</time>
      </trkpt>
      <trkpt lat="48.68666" lon="2.52227">
        <ele>88.4431</ele>
        <time>2018-04-18T09:28:41Z</time>
      </trkpt>
      <trkpt lat="48.68664" lon="2.52226">
        <ele>88.4564</ele>
        <time>2018-04-18T09:28:43Z</time>
      </trkpt>
      <trkpt lat="48.6866" lon="2.52222">
        <ele>88.4827</ele>
        <time>2018-04-18T09:28:47Z</time>
      </trkpt>
      <trkpt lat="48.68658" lon="2.5222">
        <ele>88.5018</ele>
        <time>2018-04-18T09:28:50Z</time>
      </trkpt>
      <trkpt lat="48.68654" lon="2.52216">
        <ele>88.5355</ele>
        <time>2018-04-18T09:28:55Z</time>
      </trkpt>
      <trkpt lat="48.68652" lon="2.52214">
        <ele>88.5513</ele>
        <time>2018-04-18T09:28:57Z</time>
      </trkpt>
      <trkpt lat="48.6865" lon="2.52212">
        <ele>88.5683</ele>
        <time>2018-04-18T09:28:59Z</time>
      </trkpt>
      <trkpt lat="48.68646" lon="2.52208">
        <ele>88.6043</ele>
        <time>2018-04-18T09:29:03Z</time>
      </trkpt>
      <trkpt lat="48.68641" lon="2.52206">
        <ele>88.6388</ele>
        <time>2018-04-18T09:29:06Z</time>
      </trkpt>
      <trkpt lat="48.68635" lon="2.52206">
        <ele>88.6954</ele>
        <time>2018-04-18T09:29:10Z</time>
      </trkpt>
      <trkpt lat="48.6863" lon="2.52205">
        <ele>88.7848</ele>
        <time>2018-04-18T09:29:15Z</time>
      </trkpt>
      <trkpt lat="48.68628" lon="2.52205">
        <ele>88.851</ele>
        <time>2018-04-18T09:29:18Z</time>
      </trkpt>
      <trkpt lat="48.68624" lon="2.52201">
        <ele>88.981</ele>
        <time>2018-04-18T09:29:23Z</time>
      </trkpt>
      <trkpt lat="48.68619" lon="2.52197">
        <ele>89.0898</ele>
        <time>2018-04-18T09:29:27Z</time>
      </trkpt>
      <trkpt lat="48.68617" lon="2.52196">
        <ele>89.1664</ele>
        <time>2018-04-18T09:29:30Z</time>
      </trkpt>
      <trkpt lat="48.68612" lon="2.52195">
        <ele>89.2848</ele>
        <time>2018-04-18T09:29:35Z</time>
      </trkpt>
      <trkpt lat="48.68607" lon="2.52192">
        <ele>89.3908</ele>
        <time>2018-04-18T09:29:40Z</time>
      </trkpt>
      <trkpt lat="48.68605" lon="2.52191">
        <ele>89.45</ele>
        <time>2018-04-18T09:29:43Z</time>
      </trkpt>
      <trkpt lat="48.68601" lon="2.52188">
        <ele>89.5475</ele>
        <time>2018-04-18T09:29:48Z</time>
      </trkpt>
      <trkpt lat="48.68596" lon="2.52186">
        <ele>89.6453</ele>
        <time>2018-04-18T09:29:53Z</time>
      </trkpt>
      <trkpt lat="48.68592" lon="2.52182">
        <ele>89.7668</ele>
        <time>2018-04-18T09:29:59Z</time>
      </trkpt>
      <trkpt lat="48.68587" lon="2.52179">
        <ele>89.8445</ele>
        <time>2018-04-18T09:30:03Z</time>
      </trkpt>
      <trkpt lat="48.68583" lon="2.5218">
        <ele>89.9693</ele>
        <time>2018-04-18T09:30:09Z</time>
      </trkpt>
      <trkpt lat="48.68579" lon="2.5218">
        <ele>90.035</ele>
        <time>2018-04-18T09:30:12Z</time>
      </trkpt>
      <trkpt lat="48.68575" lon="2.52178">
        <ele>90.1457</ele>
        <time>2018-04-18T09:30:17Z</time>
      </trkpt>
      <trkpt lat="48.6857" lon="2.52175">
        <ele>90.2496</ele>
        <time>2018-04-18T09:30:22Z</time>
      </trkpt>
      <trkpt lat="48.68568" lon="2.52173">
        <ele>90.3081</ele>
        <time>2018-04-18T09:30:25Z</time>
      </trkpt>
      <trkpt lat="48.68561" lon="2.52174">
        <ele>90.413</ele>
        <time>2018-04-18T09:30:31Z</time>
      </trkpt>
      <trkpt lat="48.68558" lon="2.52166">
        <ele>90.4703</ele>
        <time>2018-04-18T09:30:35Z</time>
      </trkpt>
      <trkpt lat="48.68557" lon="2.52159">
        <ele>90.9697</ele>
        <time>2018-04-18T09:30:42Z</time>
      </trkpt>
      <trkpt lat="48.68552" lon="2.52157">
        <ele>91.6889</ele>
        <time>2018-04-18T09:30:52Z</time>
      </trkpt>
      <trkpt lat="48.68547" lon="2.52154">
        <ele>92.4184</ele>
        <time>2018-04-18T09:30:55Z</time>
      </trkpt>
      <trkpt lat="48.68542" lon="2.52144">
        <ele>93.1948</ele>
        <time>2018-04-18T09:30:58Z</time>
      </trkpt>
      <trkpt lat="48.6854" lon="2.52138">
        <ele>93.5452</ele>
        <time>2018-04-18T09:31:00Z</time>
      </trkpt>
      <trkpt lat="48.68538" lon="2.52137">
        <ele>94.0514</ele>
        <time>2018-04-18T09:31:06Z</time>
      </trkpt>
      <trkpt lat="48.68533" lon="2.52135">
        <ele>94.1474</ele>
        <time>2018-04-18T09:31:12Z</time>
      </trkpt>
      <trkpt lat="48.68529" lon="2.52135">
        <ele>94.1893</ele>
        <time>2018-04-18T09:31:14Z</time>
      </trkpt>
      <trkpt lat="48.68526" lon="2.52133">
        <ele>94.2448</ele>
        <time>2018-04-18T09:31:16Z</time>
      </trkpt>
      <trkpt lat="48.68521" lon="2.52134">
        <ele>94.3956</ele>
        <time>2018-04-18T09:31:20Z</time>
      </trkpt>
      <trkpt lat="48.68516" lon="2.52133">
        <ele>94.5278</ele>
        <time>2018-04-18T09:31:23Z</time>
      </trkpt>
      <trkpt lat="48.68513" lon="2.52133">
        <ele>94.6276</ele>
        <time>2018-04-18T09:31:25Z</time>
      </trkpt>
      <trkpt lat="48.6851" lon="2.52132">
        <ele>94.7369</ele>
        <time>2018-04-18T09:31:27Z</time>
      </trkpt>
      <trkpt lat="48.68506" lon="2.52131">
        <ele>95.0268</ele>
        <time>2018-04-18T09:31:32Z</time>
      </trkpt>
      <trkpt lat="48.68503" lon="2.5213">
        <ele>95.1486</ele>
        <time>2018-04-18T09:31:34Z</time>
      </trkpt>
      <trkpt lat="48.685" lon="2.52129">
        <ele>95.2794</ele>
        <time>2018-04-18T09:31:36Z</time>
      </trkpt>
      <trkpt lat="48.68496" lon="2.52128">
        <ele>95.4882</ele>
        <time>2018-04-18T09:31:39Z</time>
      </trkpt>
      <trkpt lat="48.68492" lon="2.52124">
        <ele>95.9447</ele>
        <time>2018-04-18T09:31:45Z</time>
      </trkpt>
      <trkpt lat="48.68489" lon="2.52119">
        <ele>96.2789</ele>
        <time>2018-04-18T09:31:49Z</time>
      </trkpt>
      <trkpt lat="48.68484" lon="2.52119">
        <ele>96.5347</ele>
        <time>2018-04-18T09:31:52Z</time>
      </trkpt>
      <trkpt lat="48.68481" lon="2.52118">
        <ele>96.71</ele>
        <time>2018-04-18T09:31:54Z</time>
      </trkpt>
      <trkpt lat="48.68476" lon="2.52117">
        <ele>97.0647</ele>
        <time>2018-04-18T09:31:58Z</time>
      </trkpt>
      <trkpt lat="48.68472" lon="2.52114">
        <ele>97.5248</ele>
        <time>2018-04-18T09:32:03Z</time>
      </trkpt>
      <trkpt lat="48.68468" lon="2.52111">
        <ele>98.2232</ele>
        <time>2018-04-18T09:32:11Z</time>
      </trkpt>
      <trkpt lat="48.68464" lon="2.52108">
        <ele>98.8886</ele>
        <time>2018-04-18T09:32:17Z</time>
      </trkpt>
      <trkpt lat="48.68459" lon="2.52106">
        <ele>99.4683</ele>
        <time>2018-04-18T09:32:22Z</time>
      </trkpt>
      <trkpt lat="48.68456" lon="2.52103">
        <ele>99.9247</ele>
        <time>2018-04-18T09:32:26Z</time>
      </trkpt>
      <trkpt lat="48.68452" lon="2.521">
        <ele>100.256</ele>
        <time>2018-04-18T09:32:29Z</time>
      </trkpt>
      <trkpt lat="48.68447" lon="2.52097">
        <ele>100.7</ele>
        <time>2018-04-18T09:32:33Z</time>
      </trkpt>
      <trkpt lat="48.68443" lon="2.52092">
        <ele>101.268</ele>
        <time>2018-04-18T09:32:38Z</time>
      </trkpt>
      <trkpt lat="48.68437" lon="2.52092">
        <ele>101.717</ele>
        <time>2018-04-18T09:32:42Z</time>
      </trkpt>
      <trkpt lat="48.68433" lon="2.52094">
        <ele>102.053</ele>
        <time>2018-04-18T09:32:45Z</time>
      </trkpt>
      <trkpt lat="48.68428" lon="2.52093">
        <ele>102.503</ele>
        <time>2018-04-18T09:32:49Z</time>
      </trkpt>
      <trkpt lat="48.68424" lon="2.52088">
        <ele>103.294</ele>
        <time>2018-04-18T09:32:56Z</time>
      </trkpt>
      <trkpt lat="48.68421" lon="2.52085">
        <ele>103.629</ele>
        <time>2018-04-18T09:32:59Z</time>
      </trkpt>
      <trkpt lat="48.68421" lon="2.52085">
        <ele>103.629</ele>
        <time>2018-04-18T09:33:06Z</time>
      </trkpt>
      <trkpt lat="48.68417" lon="2.52081">
        <ele>104.504</ele>
        <time>2018-04-18T09:33:07Z</time>
      </trkpt>
      <trkpt lat="48.68412" lon="2.52077">
        <ele>104.927</ele>
        <time>2018-04-18T09:33:11Z</time>
      </trkpt>
      <trkpt lat="48.68408" lon="2.52073">
        <ele>105.241</ele>
        <time>2018-04-18T09:33:14Z</time>
      </trkpt>
      <trkpt lat="48.68403" lon="2.5207">
        <ele>105.555</ele>
        <time>2018-04-18T09:33:17Z</time>
      </trkpt>
      <trkpt lat="48.68401" lon="2.52069">
        <ele>105.765</ele>
        <time>2018-04-18T09:33:19Z</time>
      </trkpt>
      <trkpt lat="48.68398" lon="2.52067">
        <ele>106.082</ele>
        <time>2018-04-18T09:33:22Z</time>
      </trkpt>
      <trkpt lat="48.68396" lon="2.52065">
        <ele>106.295</ele>
        <time>2018-04-18T09:33:24Z</time>
      </trkpt>
      <trkpt lat="48.68391" lon="2.52065">
        <ele>107.14</ele>
        <time>2018-04-18T09:33:32Z</time>
      </trkpt>
      <trkpt lat="48.68386" lon="2.52063">
        <ele>107.553</ele>
        <time>2018-04-18T09:33:36Z</time>
      </trkpt>
      <trkpt lat="48.68382" lon="2.52062">
        <ele>107.855</ele>
        <time>2018-04-18T09:33:39Z</time>
      </trkpt>
      <trkpt lat="48.68378" lon="2.52059">
        <ele>108.541</ele>
        <time>2018-04-18T09:33:46Z</time>
      </trkpt>
      <trkpt lat="48.68375" lon="2.52058">
        <ele>108.732</ele>
        <time>2018-04-18T09:33:48Z</time>
      </trkpt>
      <trkpt lat="48.68371" lon="2.52053">
        <ele>109.017</ele>
        <time>2018-04-18T09:33:51Z</time>
      </trkpt>
      <trkpt lat="48.68366" lon="2.5205">
        <ele>109.299</ele>
        <time>2018-04-18T09:33:54Z</time>
      </trkpt>
      <trkpt lat="48.68362" lon="2.52045">
        <ele>109.677</ele>
        <time>2018-04-18T09:33:58Z</time>
      </trkpt>
      <trkpt lat="48.68356" lon="2.52041">
        <ele>110.061</ele>
        <time>2018-04-18T09:34:02Z</time>
      </trkpt>
      <trkpt lat="48.68351" lon="2.5204">
        <ele>110.361</ele>
        <time>2018-04-18T09:34:05Z</time>
      </trkpt>
      <trkpt lat="48.68348" lon="2.52039">
        <ele>110.67</ele>
        <time>2018-04-18T09:34:08Z</time>
      </trkpt>
      <trkpt lat="48.68345" lon="2.52038">
        <ele>110.986</ele>
        <time>2018-04-18T09:34:11Z</time>
      </trkpt>
      <trkpt lat="48.68342" lon="2.52035">
        <ele>111.636</ele>
        <time>2018-04-18T09:34:17Z</time>
      </trkpt>
      <trkpt lat="48.68338" lon="2.52035">
        <ele>120.201</ele>
        <time>2018-04-18T09:40:03Z</time>
      </trkpt>
      <trkpt lat="48.68335" lon="2.52035">
        <ele>120.376</ele>
        <time>2018-04-18T09:40:06Z</time>
      </trkpt>
      <trkpt lat="48.68332" lon="2.52035">
        <ele>120.489</ele>
        <time>2018-04-18T09:40:08Z</time>
      </trkpt>
      <trkpt lat="48.68328" lon="2.52033">
        <ele>120.709</ele>
        <time>2018-04-18T09:40:12Z</time>
      </trkpt>
      <trkpt lat="48.68324" lon="2.52028">
        <ele>121.023</ele>
        <time>2018-04-18T09:40:18Z</time>
      </trkpt>
      <trkpt lat="48.68321" lon="2.52024">
        <ele>121.271</ele>
        <time>2018-04-18T09:40:23Z</time>
      </trkpt>
      <trkpt lat="48.68315" lon="2.52018">
        <ele>121.46</ele>
        <time>2018-04-18T09:40:27Z</time>
      </trkpt>
      <trkpt lat="48.6831" lon="2.52015">
        <ele>121.596</ele>
        <time>2018-04-18T09:40:30Z</time>
      </trkpt>
      <trkpt lat="48.68306" lon="2.52014">
        <ele>121.765</ele>
        <time>2018-04-18T09:40:34Z</time>
      </trkpt>
      <trkpt lat="48.683" lon="2.52009">
        <ele>121.96</ele>
        <time>2018-04-18T09:40:39Z</time>
      </trkpt>
      <trkpt lat="48.68294" lon="2.52006">
        <ele>122.072</ele>
        <time>2018-04-18T09:40:42Z</time>
      </trkpt>
      <trkpt lat="48.6829" lon="2.52004">
        <ele>122.179</ele>
        <time>2018-04-18T09:40:45Z</time>
      </trkpt>
      <trkpt lat="48.68286" lon="2.52001">
        <ele>122.316</ele>
        <time>2018-04-18T09:40:49Z</time>
      </trkpt>
      <trkpt lat="48.68281" lon="2.51997">
        <ele>122.571</ele>
        <time>2018-04-18T09:40:56Z</time>
      </trkpt>
      <trkpt lat="48.68276" lon="2.51995">
        <ele>122.728</ele>
        <time>2018-04-18T09:41:00Z</time>
      </trkpt>
      <trkpt lat="48.68273" lon="2.51994">
        <ele>122.844</ele>
        <time>2018-04-18T09:41:03Z</time>
      </trkpt>
      <trkpt lat="48.68268" lon="2.5199">
        <ele>123.082</ele>
        <time>2018-04-18T09:41:09Z</time>
      </trkpt>
      <trkpt lat="48.68265" lon="2.51989">
        <ele>123.165</ele>
        <time>2018-04-18T09:41:11Z</time>
      </trkpt>
      <trkpt lat="48.68262" lon="2.51988">
        <ele>123.249</ele>
        <time>2018-04-18T09:41:13Z</time>
      </trkpt>
      <trkpt lat="48.6826" lon="2.51987">
        <ele>123.335</ele>
        <time>2018-04-18T09:41:15Z</time>
      </trkpt>
      <trkpt lat="48.68257" lon="2.51985">
        <ele>123.422</ele>
        <time>2018-04-18T09:41:17Z</time>
      </trkpt>
      <trkpt lat="48.68252" lon="2.51982">
        <ele>123.556</ele>
        <time>2018-04-18T09:41:20Z</time>
      </trkpt>
      <trkpt lat="48.6825" lon="2.5198">
        <ele>123.695</ele>
        <time>2018-04-18T09:41:23Z</time>
      </trkpt>
      <trkpt lat="48.68247" lon="2.51978">
        <ele>123.932</ele>
        <time>2018-04-18T09:41:28Z</time>
      </trkpt>
      <trkpt lat="48.68241" lon="2.51975">
        <ele>124.169</ele>
        <time>2018-04-18T09:41:33Z</time>
      </trkpt>
      <trkpt lat="48.68237" lon="2.51971">
        <ele>124.449</ele>
        <time>2018-04-18T09:41:39Z</time>
      </trkpt>
      <trkpt lat="48.68233" lon="2.51968">
        <ele>124.586</ele>
        <time>2018-04-18T09:41:42Z</time>
      </trkpt>
      <trkpt lat="48.68228" lon="2.51966">
        <ele>124.719</ele>
        <time>2018-04-18T09:41:45Z</time>
      </trkpt>
      <trkpt lat="48.68224" lon="2.51964">
        <ele>124.805</ele>
        <time>2018-04-18T09:41:47Z</time>
      </trkpt>
      <trkpt lat="48.68221" lon="2.51963">
        <ele>124.89</ele>
        <time>2018-04-18T09:41:49Z</time>
      </trkpt>
      <trkpt lat="48.68218" lon="2.51962">
        <ele>124.972</ele>
        <time>2018-04-18T09:41:51Z</time>
      </trkpt>
      <trkpt lat="48.68213" lon="2.51957">
        <ele>125.131</ele>
        <time>2018-04-18T09:41:55Z</time>
      </trkpt>
      <trkpt lat="48.68209" lon="2.51955">
        <ele>125.315</ele>
        <time>2018-04-18T09:42:00Z</time>
      </trkpt>
      <trkpt lat="48.68204" lon="2.51955">
        <ele>125.453</ele>
        <time>2018-04-18T09:42:04Z</time>
      </trkpt>
      <trkpt lat="48.682" lon="2.51948">
        <ele>125.654</ele>
        <time>2018-04-18T09:42:10Z</time>
      </trkpt>
      <trkpt lat="48.68197" lon="2.51943">
        <ele>125.786</ele>
        <time>2018-04-18T09:42:14Z</time>
      </trkpt>
      <trkpt lat="48.68193" lon="2.5194">
        <ele>125.886</ele>
        <time>2018-04-18T09:42:17Z</time>
      </trkpt>
      <trkpt lat="48.68189" lon="2.51935">
        <ele>125.982</ele>
        <time>2018-04-18T09:42:20Z</time>
      </trkpt>
      <trkpt lat="48.68189" lon="2.51935">
        <ele>125.982</ele>
        <time>2018-04-18T09:42:25Z</time>
      </trkpt>
      <trkpt lat="48.68189" lon="2.51935">
        <ele>125.982</ele>
        <time>2018-04-18T09:42:26Z</time>
      </trkpt>
      <trkpt lat="48.68175" lon="2.51933">
        <ele>126.659</ele>
        <time>2018-04-18T09:42:50Z</time>
      </trkpt>
      <trkpt lat="48.68172" lon="2.51933">
        <ele>126.938</ele>
        <time>2018-04-18T09:43:04Z</time>
      </trkpt>
      <trkpt lat="48.68169" lon="2.51928">
        <ele>127.226</ele>
        <time>2018-04-18T09:43:13Z</time>
      </trkpt>
      <trkpt lat="48.68164" lon="2.51924">
        <ele>127.323</ele>
        <time>2018-04-18T09:43:16Z</time>
      </trkpt>
      <trkpt lat="48.68159" lon="2.5192">
        <ele>127.524</ele>
        <time>2018-04-18T09:43:22Z</time>
      </trkpt>
      <trkpt lat="48.68153" lon="2.51919">
        <ele>127.711</ele>
        <time>2018-04-18T09:43:28Z</time>
      </trkpt>
      <trkpt lat="48.6815" lon="2.51918">
        <ele>127.827</ele>
        <time>2018-04-18T09:43:31Z</time>
      </trkpt>
      <trkpt lat="48.68146" lon="2.51915">
        <ele>128.056</ele>
        <time>2018-04-18T09:43:37Z</time>
      </trkpt>
      <trkpt lat="48.68141" lon="2.5191">
        <ele>128.21</ele>
        <time>2018-04-18T09:43:41Z</time>
      </trkpt>
      <trkpt lat="48.68137" lon="2.51906">
        <ele>128.331</ele>
        <time>2018-04-18T09:43:44Z</time>
      </trkpt>
      <trkpt lat="48.68132" lon="2.51903">
        <ele>128.41</ele>
        <time>2018-04-18T09:43:46Z</time>
      </trkpt>
      <trkpt lat="48.68127" lon="2.519">
        <ele>128.529</ele>
        <time>2018-04-18T09:43:49Z</time>
      </trkpt>
      <trkpt lat="48.68122" lon="2.51899">
        <ele>128.678</ele>
        <time>2018-04-18T09:43:53Z</time>
      </trkpt>
      <trkpt lat="48.68118" lon="2.51898">
        <ele>128.786</ele>
        <time>2018-04-18T09:43:56Z</time>
      </trkpt>
      <trkpt lat="48.68115" lon="2.51897">
        <ele>128.855</ele>
        <time>2018-04-18T09:43:58Z</time>
      </trkpt>
      <trkpt lat="48.68111" lon="2.51894">
        <ele>128.993</ele>
        <time>2018-04-18T09:44:02Z</time>
      </trkpt>
      <trkpt lat="48.68108" lon="2.51892">
        <ele>129.126</ele>
        <time>2018-04-18T09:44:06Z</time>
      </trkpt>
      <trkpt lat="48.68105" lon="2.5189">
        <ele>129.19</ele>
        <time>2018-04-18T09:44:08Z</time>
      </trkpt>
      <trkpt lat="48.681" lon="2.5189">
        <ele>129.316</ele>
        <time>2018-04-18T09:44:12Z</time>
      </trkpt>
      <trkpt lat="48.68095" lon="2.51888">
        <ele>129.412</ele>
        <time>2018-04-18T09:44:15Z</time>
      </trkpt>
      <trkpt lat="48.6809" lon="2.51885">
        <ele>129.573</ele>
        <time>2018-04-18T09:44:20Z</time>
      </trkpt>
      <trkpt lat="48.68086" lon="2.51881">
        <ele>129.701</ele>
        <time>2018-04-18T09:44:24Z</time>
      </trkpt>
      <trkpt lat="48.68083" lon="2.51879">
        <ele>129.763</ele>
        <time>2018-04-18T09:44:26Z</time>
      </trkpt>
      <trkpt lat="48.68079" lon="2.51873">
        <ele>129.885</ele>
        <time>2018-04-18T09:44:30Z</time>
      </trkpt>
      <trkpt lat="48.68076" lon="2.51871">
        <ele>129.943</ele>
        <time>2018-04-18T09:44:32Z</time>
      </trkpt>
      <trkpt lat="48.68073" lon="2.51864">
        <ele>130.057</ele>
        <time>2018-04-18T09:44:36Z</time>
      </trkpt>
      <trkpt lat="48.68071" lon="2.51861">
        <ele>130.112</ele>
        <time>2018-04-18T09:44:38Z</time>
      </trkpt>
      <trkpt lat="48.6807" lon="2.51858">
        <ele>130.166</ele>
        <time>2018-04-18T09:44:40Z</time>
      </trkpt>
      <trkpt lat="48.68067" lon="2.51852">
        <ele>130.297</ele>
        <time>2018-04-18T09:44:45Z</time>
      </trkpt>
      <trkpt lat="48.68066" lon="2.51848">
        <ele>130.372</ele>
        <time>2018-04-18T09:44:48Z</time>
      </trkpt>
      <trkpt lat="48.68065" lon="2.51841">
        <ele>130.494</ele>
        <time>2018-04-18T09:44:53Z</time>
      </trkpt>
      <trkpt lat="48.68064" lon="2.51836">
        <ele>130.566</ele>
        <time>2018-04-18T09:44:56Z</time>
      </trkpt>
      <trkpt lat="48.68063" lon="2.51832">
        <ele>130.613</ele>
        <time>2018-04-18T09:44:58Z</time>
      </trkpt>
      <trkpt lat="48.68063" lon="2.51829">
        <ele>130.659</ele>
        <time>2018-04-18T09:45:00Z</time>
      </trkpt>
      <trkpt lat="48.6806" lon="2.51822">
        <ele>130.729</ele>
        <time>2018-04-18T09:45:03Z</time>
      </trkpt>
      <trkpt lat="48.68058" lon="2.51817">
        <ele>130.776</ele>
        <time>2018-04-18T09:45:05Z</time>
      </trkpt>
      <trkpt lat="48.68055" lon="2.51812">
        <ele>130.844</ele>
        <time>2018-04-18T09:45:08Z</time>
      </trkpt>
      <trkpt lat="48.68053" lon="2.51805">
        <ele>130.933</ele>
        <time>2018-04-18T09:45:12Z</time>
      </trkpt>
      <trkpt lat="48.6805" lon="2.51795">
        <ele>131.037</ele>
        <time>2018-04-18T09:45:17Z</time>
      </trkpt>
      <trkpt lat="48.6805" lon="2.51792">
        <ele>131.077</ele>
        <time>2018-04-18T09:45:19Z</time>
      </trkpt>
      <trkpt lat="48.68049" lon="2.51788">
        <ele>131.135</ele>
        <time>2018-04-18T09:45:22Z</time>
      </trkpt>
      <trkpt lat="48.68047" lon="2.51781">
        <ele>131.208</ele>
        <time>2018-04-18T09:45:26Z</time>
      </trkpt>
      <trkpt lat="48.68047" lon="2.51778">
        <ele>131.244</ele>
        <time>2018-04-18T09:45:28Z</time>
      </trkpt>
      <trkpt lat="48.68045" lon="2.51772">
        <ele>131.328</ele>
        <time>2018-04-18T09:45:33Z</time>
      </trkpt>
      <trkpt lat="48.68043" lon="2.51764">
        <ele>131.411</ele>
        <time>2018-04-18T09:45:38Z</time>
      </trkpt>
      <trkpt lat="48.68043" lon="2.5176">
        <ele>131.461</ele>
        <time>2018-04-18T09:45:41Z</time>
      </trkpt>
      <trkpt lat="48.68042" lon="2.51757">
        <ele>131.496</ele>
        <time>2018-04-18T09:45:43Z</time>
      </trkpt>
      <trkpt lat="48.6804" lon="2.5175">
        <ele>131.567</ele>
        <time>2018-04-18T09:45:47Z</time>
      </trkpt>
      <trkpt lat="48.68036" lon="2.51745">
        <ele>131.663</ele>
        <time>2018-04-18T09:45:52Z</time>
      </trkpt>
      <trkpt lat="48.68034" lon="2.5174">
        <ele>131.723</ele>
        <time>2018-04-18T09:45:55Z</time>
      </trkpt>
      <trkpt lat="48.68031" lon="2.51732">
        <ele>131.786</ele>
        <time>2018-04-18T09:45:58Z</time>
      </trkpt>
      <trkpt lat="48.6803" lon="2.51728">
        <ele>131.807</ele>
        <time>2018-04-18T09:45:59Z</time>
      </trkpt>
      <trkpt lat="48.68029" lon="2.51724">
        <ele>131.85</ele>
        <time>2018-04-18T09:46:01Z</time>
      </trkpt>
      <trkpt lat="48.68028" lon="2.51721">
        <ele>131.893</ele>
        <time>2018-04-18T09:46:03Z</time>
      </trkpt>
      <trkpt lat="48.68027" lon="2.51717">
        <ele>131.937</ele>
        <time>2018-04-18T09:46:05Z</time>
      </trkpt>
      <trkpt lat="48.68025" lon="2.51711">
        <ele>132.026</ele>
        <time>2018-04-18T09:46:09Z</time>
      </trkpt>
      <trkpt lat="48.68023" lon="2.51704">
        <ele>132.094</ele>
        <time>2018-04-18T09:46:12Z</time>
      </trkpt>
      <trkpt lat="48.6802" lon="2.51697">
        <ele>132.201</ele>
        <time>2018-04-18T09:46:18Z</time>
      </trkpt>
      <trkpt lat="48.68019" lon="2.5169">
        <ele>132.278</ele>
        <time>2018-04-18T09:46:21Z</time>
      </trkpt>
      <trkpt lat="48.68018" lon="2.51684">
        <ele>132.351</ele>
        <time>2018-04-18T09:46:25Z</time>
      </trkpt>
      <trkpt lat="48.68017" lon="2.51677">
        <ele>132.421</ele>
        <time>2018-04-18T09:46:29Z</time>
      </trkpt>
      <trkpt lat="48.68014" lon="2.51669">
        <ele>132.49</ele>
        <time>2018-04-18T09:46:33Z</time>
      </trkpt>
      <trkpt lat="48.68011" lon="2.51663">
        <ele>132.54</ele>
        <time>2018-04-18T09:46:36Z</time>
      </trkpt>
      <trkpt lat="48.68009" lon="2.51657">
        <ele>132.603</ele>
        <time>2018-04-18T09:46:40Z</time>
      </trkpt>
      <trkpt lat="48.68007" lon="2.51649">
        <ele>132.704</ele>
        <time>2018-04-18T09:46:47Z</time>
      </trkpt>
      <trkpt lat="48.68005" lon="2.51642">
        <ele>132.733</ele>
        <time>2018-04-18T09:46:49Z</time>
      </trkpt>
      <trkpt lat="48.68003" lon="2.51634">
        <ele>132.779</ele>
        <time>2018-04-18T09:46:52Z</time>
      </trkpt>
      <trkpt lat="48.68" lon="2.51628">
        <ele>132.844</ele>
        <time>2018-04-18T09:46:56Z</time>
      </trkpt>
      <trkpt lat="48.67998" lon="2.51623">
        <ele>132.896</ele>
        <time>2018-04-18T09:46:59Z</time>
      </trkpt>
      <trkpt lat="48.67993" lon="2.51616">
        <ele>132.966</ele>
        <time>2018-04-18T09:47:03Z</time>
      </trkpt>
      <trkpt lat="48.67991" lon="2.5161">
        <ele>133.02</ele>
        <time>2018-04-18T09:47:06Z</time>
      </trkpt>
      <trkpt lat="48.67989" lon="2.51606">
        <ele>133.07</ele>
        <time>2018-04-18T09:47:09Z</time>
      </trkpt>
      <trkpt lat="48.67988" lon="2.51603">
        <ele>133.101</ele>
        <time>2018-04-18T09:47:11Z</time>
      </trkpt>
      <trkpt lat="48.67987" lon="2.516">
        <ele>133.131</ele>
        <time>2018-04-18T09:47:13Z</time>
      </trkpt>
      <trkpt lat="48.67986" lon="2.51596">
        <ele>133.172</ele>
        <time>2018-04-18T09:47:16Z</time>
      </trkpt>
      <trkpt lat="48.67983" lon="2.5159">
        <ele>133.242</ele>
        <time>2018-04-18T09:47:21Z</time>
      </trkpt>
      <trkpt lat="48.67981" lon="2.51586">
        <ele>133.271</ele>
        <time>2018-04-18T09:47:23Z</time>
      </trkpt>
      <trkpt lat="48.67979" lon="2.51583">
        <ele>133.301</ele>
        <time>2018-04-18T09:47:25Z</time>
      </trkpt>
      <trkpt lat="48.67977" lon="2.51577">
        <ele>133.355</ele>
        <time>2018-04-18T09:47:29Z</time>
      </trkpt>
      <trkpt lat="48.67974" lon="2.5157">
        <ele>133.416</ele>
        <time>2018-04-18T09:47:34Z</time>
      </trkpt>
      <trkpt lat="48.67972" lon="2.51565">
        <ele>133.45</ele>
        <time>2018-04-18T09:47:37Z</time>
      </trkpt>
      <trkpt lat="48.67971" lon="2.51559">
        <ele>133.494</ele>
        <time>2018-04-18T09:47:41Z</time>
      </trkpt>
      <trkpt lat="48.67968" lon="2.51552">
        <ele>133.55</ele>
        <time>2018-04-18T09:47:46Z</time>
      </trkpt>
      <trkpt lat="48.67966" lon="2.51545">
        <ele>133.581</ele>
        <time>2018-04-18T09:47:49Z</time>
      </trkpt>
      <trkpt lat="48.67964" lon="2.51538">
        <ele>133.631</ele>
        <time>2018-04-18T09:47:54Z</time>
      </trkpt>
      <trkpt lat="48.67962" lon="2.51533">
        <ele>133.658</ele>
        <time>2018-04-18T09:47:57Z</time>
      </trkpt>
      <trkpt lat="48.67959" lon="2.51527">
        <ele>133.684</ele>
        <time>2018-04-18T09:48:00Z</time>
      </trkpt>
      <trkpt lat="48.67958" lon="2.51522">
        <ele>133.702</ele>
        <time>2018-04-18T09:48:02Z</time>
      </trkpt>
      <trkpt lat="48.67957" lon="2.51515">
        <ele>133.729</ele>
        <time>2018-04-18T09:48:05Z</time>
      </trkpt>
      <trkpt lat="48.67957" lon="2.51511">
        <ele>133.757</ele>
        <time>2018-04-18T09:48:08Z</time>
      </trkpt>
      <trkpt lat="48.67956" lon="2.51503">
        <ele>133.808</ele>
        <time>2018-04-18T09:48:13Z</time>
      </trkpt>
      <trkpt lat="48.67955" lon="2.51496">
        <ele>133.861</ele>
        <time>2018-04-18T09:48:18Z</time>
      </trkpt>
      <trkpt lat="48.67955" lon="2.51492">
        <ele>133.891</ele>
        <time>2018-04-18T09:48:21Z</time>
      </trkpt>
      <trkpt lat="48.67956" lon="2.51484">
        <ele>133.927</ele>
        <time>2018-04-18T09:48:25Z</time>
      </trkpt>
      <trkpt lat="48.67954" lon="2.51478">
        <ele>133.972</ele>
        <time>2018-04-18T09:48:31Z</time>
      </trkpt>
      <trkpt lat="48.67951" lon="2.5147">
        <ele>133.997</ele>
        <time>2018-04-18T09:48:35Z</time>
      </trkpt>
      <trkpt lat="48.67949" lon="2.51466">
        <ele>134.015</ele>
        <time>2018-04-18T09:48:38Z</time>
      </trkpt>
      <trkpt lat="48.67944" lon="2.51457">
        <ele>134.039</ele>
        <time>2018-04-18T09:48:42Z</time>
      </trkpt>
      <trkpt lat="48.6794" lon="2.51452">
        <ele>134.05</ele>
        <time>2018-04-18T09:48:44Z</time>
      </trkpt>
      <trkpt lat="48.67936" lon="2.51448">
        <ele>134.061</ele>
        <time>2018-04-18T09:48:46Z</time>
      </trkpt>
      <trkpt lat="48.67932" lon="2.51445">
        <ele>134.079</ele>
        <time>2018-04-18T09:48:49Z</time>
      </trkpt>
      <trkpt lat="48.67929" lon="2.51439">
        <ele>134.099</ele>
        <time>2018-04-18T09:48:52Z</time>
      </trkpt>
      <trkpt lat="48.67927" lon="2.51432">
        <ele>134.119</ele>
        <time>2018-04-18T09:48:55Z</time>
      </trkpt>
      <trkpt lat="48.67926" lon="2.51426">
        <ele>134.141</ele>
        <time>2018-04-18T09:48:58Z</time>
      </trkpt>
      <trkpt lat="48.67924" lon="2.51418">
        <ele>134.166</ele>
        <time>2018-04-18T09:49:01Z</time>
      </trkpt>
      <trkpt lat="48.67922" lon="2.51411">
        <ele>134.216</ele>
        <time>2018-04-18T09:49:06Z</time>
      </trkpt>
      <trkpt lat="48.67921" lon="2.51407">
        <ele>134.238</ele>
        <time>2018-04-18T09:49:08Z</time>
      </trkpt>
      <trkpt lat="48.67919" lon="2.51402">
        <ele>134.272</ele>
        <time>2018-04-18T09:49:11Z</time>
      </trkpt>
      <trkpt lat="48.67917" lon="2.51397">
        <ele>134.295</ele>
        <time>2018-04-18T09:49:13Z</time>
      </trkpt>
      <trkpt lat="48.67915" lon="2.51391">
        <ele>134.351</ele>
        <time>2018-04-18T09:49:18Z</time>
      </trkpt>
      <trkpt lat="48.67913" lon="2.51382">
        <ele>134.407</ele>
        <time>2018-04-18T09:49:23Z</time>
      </trkpt>
      <trkpt lat="48.67909" lon="2.51376">
        <ele>134.443</ele>
        <time>2018-04-18T09:49:26Z</time>
      </trkpt>
      <trkpt lat="48.67907" lon="2.51369">
        <ele>134.482</ele>
        <time>2018-04-18T09:49:29Z</time>
      </trkpt>
      <trkpt lat="48.67906" lon="2.51365">
        <ele>134.508</ele>
        <time>2018-04-18T09:49:31Z</time>
      </trkpt>
      <trkpt lat="48.67904" lon="2.51358">
        <ele>134.546</ele>
        <time>2018-04-18T09:49:34Z</time>
      </trkpt>
      <trkpt lat="48.67902" lon="2.51351">
        <ele>134.596</ele>
        <time>2018-04-18T09:49:38Z</time>
      </trkpt>
      <trkpt lat="48.67901" lon="2.51347">
        <ele>134.621</ele>
        <time>2018-04-18T09:49:40Z</time>
      </trkpt>
      <trkpt lat="48.67899" lon="2.51341">
        <ele>134.681</ele>
        <time>2018-04-18T09:49:45Z</time>
      </trkpt>
      <trkpt lat="48.67899" lon="2.51334">
        <ele>134.739</ele>
        <time>2018-04-18T09:49:50Z</time>
      </trkpt>
      <trkpt lat="48.67899" lon="2.51328">
        <ele>134.772</ele>
        <time>2018-04-18T09:49:53Z</time>
      </trkpt>
      <trkpt lat="48.67899" lon="2.51322">
        <ele>134.815</ele>
        <time>2018-04-18T09:49:57Z</time>
      </trkpt>
      <trkpt lat="48.67897" lon="2.51316">
        <ele>134.844</ele>
        <time>2018-04-18T09:50:00Z</time>
      </trkpt>
      <trkpt lat="48.67895" lon="2.51312">
        <ele>134.863</ele>
        <time>2018-04-18T09:50:02Z</time>
      </trkpt>
      <trkpt lat="48.67894" lon="2.51307">
        <ele>134.882</ele>
        <time>2018-04-18T09:50:04Z</time>
      </trkpt>
      <trkpt lat="48.67891" lon="2.51301">
        <ele>134.908</ele>
        <time>2018-04-18T09:50:07Z</time>
      </trkpt>
      <trkpt lat="48.67888" lon="2.51295">
        <ele>134.933</ele>
        <time>2018-04-18T09:50:10Z</time>
      </trkpt>
      <trkpt lat="48.67887" lon="2.5129">
        <ele>134.949</ele>
        <time>2018-04-18T09:50:12Z</time>
      </trkpt>
      <trkpt lat="48.67885" lon="2.51283">
        <ele>134.975</ele>
        <time>2018-04-18T09:50:15Z</time>
      </trkpt>
      <trkpt lat="48.67883" lon="2.51279">
        <ele>134.993</ele>
        <time>2018-04-18T09:50:17Z</time>
      </trkpt>
      <trkpt lat="48.67881" lon="2.51274">
        <ele>135.028</ele>
        <time>2018-04-18T09:50:21Z</time>
      </trkpt>
      <trkpt lat="48.6788" lon="2.51267">
        <ele>135.08</ele>
        <time>2018-04-18T09:50:28Z</time>
      </trkpt>
      <trkpt lat="48.6788" lon="2.51263">
        <ele>135.098</ele>
        <time>2018-04-18T09:50:31Z</time>
      </trkpt>
      <trkpt lat="48.67877" lon="2.51256">
        <ele>135.125</ele>
        <time>2018-04-18T09:50:36Z</time>
      </trkpt>
      <trkpt lat="48.67875" lon="2.51249">
        <ele>135.145</ele>
        <time>2018-04-18T09:50:40Z</time>
      </trkpt>
      <trkpt lat="48.67873" lon="2.51241">
        <ele>135.17</ele>
        <time>2018-04-18T09:50:44Z</time>
      </trkpt>
      <trkpt lat="48.67872" lon="2.51233">
        <ele>135.195</ele>
        <time>2018-04-18T09:50:48Z</time>
      </trkpt>
      <trkpt lat="48.67872" lon="2.51229">
        <ele>135.206</ele>
        <time>2018-04-18T09:50:50Z</time>
      </trkpt>
      <trkpt lat="48.67871" lon="2.51222">
        <ele>135.227</ele>
        <time>2018-04-18T09:50:55Z</time>
      </trkpt>
      <trkpt lat="48.67875" lon="2.51216">
        <ele>135.244</ele>
        <time>2018-04-18T09:51:01Z</time>
      </trkpt>
      <trkpt lat="48.67878" lon="2.51212">
        <ele>135.251</ele>
        <time>2018-04-18T09:51:05Z</time>
      </trkpt>
      <trkpt lat="48.67881" lon="2.51209">
        <ele>135.253</ele>
        <time>2018-04-18T09:51:07Z</time>
      </trkpt>
      <trkpt lat="48.67883" lon="2.51206">
        <ele>135.255</ele>
        <time>2018-04-18T09:51:09Z</time>
      </trkpt>
      <trkpt lat="48.67885" lon="2.51203">
        <ele>135.256</ele>
        <time>2018-04-18T09:51:12Z</time>
      </trkpt>
      <trkpt lat="48.67887" lon="2.51201">
        <ele>135.257</ele>
        <time>2018-04-18T09:51:14Z</time>
      </trkpt>
      <trkpt lat="48.6789" lon="2.51196">
        <ele>135.258</ele>
        <time>2018-04-18T09:51:17Z</time>
      </trkpt>
      <trkpt lat="48.67891" lon="2.51193">
        <ele>135.259</ele>
        <time>2018-04-18T09:51:19Z</time>
      </trkpt>
      <trkpt lat="48.67893" lon="2.5119">
        <ele>135.26</ele>
        <time>2018-04-18T09:51:22Z</time>
      </trkpt>
      <trkpt lat="48.67896" lon="2.51183">
        <ele>135.262</ele>
        <time>2018-04-18T09:51:27Z</time>
      </trkpt>
      <trkpt lat="48.67899" lon="2.51178">
        <ele>135.265</ele>
        <time>2018-04-18T09:51:31Z</time>
      </trkpt>
      <trkpt lat="48.67901" lon="2.51171">
        <ele>135.269</ele>
        <time>2018-04-18T09:51:37Z</time>
      </trkpt>
      <trkpt lat="48.67902" lon="2.51164">
        <ele>135.274</ele>
        <time>2018-04-18T09:51:40Z</time>
      </trkpt>
      <trkpt lat="48.67902" lon="2.51158">
        <ele>135.28</ele>
        <time>2018-04-18T09:51:43Z</time>
      </trkpt>
      <trkpt lat="48.67904" lon="2.5115">
        <ele>135.288</ele>
        <time>2018-04-18T09:51:46Z</time>
      </trkpt>
      <trkpt lat="48.67905" lon="2.51145">
        <ele>135.295</ele>
        <time>2018-04-18T09:51:49Z</time>
      </trkpt>
      <trkpt lat="48.67909" lon="2.5114">
        <ele>135.301</ele>
        <time>2018-04-18T09:51:52Z</time>
      </trkpt>
      <trkpt lat="48.67913" lon="2.51135">
        <ele>135.305</ele>
        <time>2018-04-18T09:51:56Z</time>
      </trkpt>
      <trkpt lat="48.67916" lon="2.51132">
        <ele>135.306</ele>
        <time>2018-04-18T09:51:58Z</time>
      </trkpt>
      <trkpt lat="48.6792" lon="2.5113">
        <ele>135.308</ele>
        <time>2018-04-18T09:52:02Z</time>
      </trkpt>
      <trkpt lat="48.67925" lon="2.51129">
        <ele>135.31</ele>
        <time>2018-04-18T09:52:06Z</time>
      </trkpt>
      <trkpt lat="48.67929" lon="2.51129">
        <ele>135.314</ele>
        <time>2018-04-18T09:52:10Z</time>
      </trkpt>
      <trkpt lat="48.67934" lon="2.51128">
        <ele>135.323</ele>
        <time>2018-04-18T09:52:15Z</time>
      </trkpt>
      <trkpt lat="48.67938" lon="2.51126">
        <ele>135.331</ele>
        <time>2018-04-18T09:52:19Z</time>
      </trkpt>
      <trkpt lat="48.67941" lon="2.51124">
        <ele>135.336</ele>
        <time>2018-04-18T09:52:21Z</time>
      </trkpt>
      <trkpt lat="48.67944" lon="2.51118">
        <ele>135.348</ele>
        <time>2018-04-18T09:52:25Z</time>
      </trkpt>
      <trkpt lat="48.67947" lon="2.51114">
        <ele>135.36</ele>
        <time>2018-04-18T09:52:28Z</time>
      </trkpt>
      <trkpt lat="48.67951" lon="2.51109">
        <ele>135.382</ele>
        <time>2018-04-18T09:52:33Z</time>
      </trkpt>
      <trkpt lat="48.67954" lon="2.51106">
        <ele>135.392</ele>
        <time>2018-04-18T09:52:35Z</time>
      </trkpt>
      <trkpt lat="48.67958" lon="2.511">
        <ele>135.412</ele>
        <time>2018-04-18T09:52:39Z</time>
      </trkpt>
      <trkpt lat="48.6796" lon="2.51098">
        <ele>135.423</ele>
        <time>2018-04-18T09:52:41Z</time>
      </trkpt>
      <trkpt lat="48.67963" lon="2.51091">
        <ele>135.446</ele>
        <time>2018-04-18T09:52:45Z</time>
      </trkpt>
      <trkpt lat="48.67966" lon="2.51085">
        <ele>135.464</ele>
        <time>2018-04-18T09:52:48Z</time>
      </trkpt>
      <trkpt lat="48.6797" lon="2.51079">
        <ele>135.491</ele>
        <time>2018-04-18T09:52:53Z</time>
      </trkpt>
      <trkpt lat="48.67972" lon="2.51077">
        <ele>135.502</ele>
        <time>2018-04-18T09:52:55Z</time>
      </trkpt>
      <trkpt lat="48.67974" lon="2.51074">
        <ele>135.513</ele>
        <time>2018-04-18T09:52:57Z</time>
      </trkpt>
      <trkpt lat="48.67978" lon="2.5107">
        <ele>135.535</ele>
        <time>2018-04-18T09:53:01Z</time>
      </trkpt>
      <trkpt lat="48.67982" lon="2.51064">
        <ele>135.562</ele>
        <time>2018-04-18T09:53:05Z</time>
      </trkpt>
      <trkpt lat="48.67986" lon="2.5106">
        <ele>135.59</ele>
        <time>2018-04-18T09:53:09Z</time>
      </trkpt>
      <trkpt lat="48.6799" lon="2.51056">
        <ele>135.612</ele>
        <time>2018-04-18T09:53:12Z</time>
      </trkpt>
      <trkpt lat="48.67994" lon="2.51053">
        <ele>135.641</ele>
        <time>2018-04-18T09:53:16Z</time>
      </trkpt>
      <trkpt lat="48.67997" lon="2.51051">
        <ele>135.656</ele>
        <time>2018-04-18T09:53:18Z</time>
      </trkpt>
      <trkpt lat="48.68001" lon="2.51046">
        <ele>135.684</ele>
        <time>2018-04-18T09:53:22Z</time>
      </trkpt>
      <trkpt lat="48.68004" lon="2.51039">
        <ele>135.71</ele>
        <time>2018-04-18T09:53:26Z</time>
      </trkpt>
      <trkpt lat="48.68008" lon="2.51034">
        <ele>135.736</ele>
        <time>2018-04-18T09:53:30Z</time>
      </trkpt>
      <trkpt lat="48.68011" lon="2.51031">
        <ele>135.754</ele>
        <time>2018-04-18T09:53:33Z</time>
      </trkpt>
      <trkpt lat="48.68013" lon="2.51029">
        <ele>135.765</ele>
        <time>2018-04-18T09:53:35Z</time>
      </trkpt>
      <trkpt lat="48.68016" lon="2.51024">
        <ele>135.785</ele>
        <time>2018-04-18T09:53:39Z</time>
      </trkpt>
      <trkpt lat="48.68019" lon="2.51019">
        <ele>135.799</ele>
        <time>2018-04-18T09:53:42Z</time>
      </trkpt>
      <trkpt lat="48.68021" lon="2.51016">
        <ele>135.808</ele>
        <time>2018-04-18T09:53:44Z</time>
      </trkpt>
      <trkpt lat="48.68023" lon="2.51013">
        <ele>135.816</ele>
        <time>2018-04-18T09:53:46Z</time>
      </trkpt>
      <trkpt lat="48.68026" lon="2.51008">
        <ele>135.839</ele>
        <time>2018-04-18T09:53:51Z</time>
      </trkpt>
      <trkpt lat="48.68029" lon="2.51004">
        <ele>135.854</ele>
        <time>2018-04-18T09:53:54Z</time>
      </trkpt>
      <trkpt lat="48.68033" lon="2.50999">
        <ele>135.877</ele>
        <time>2018-04-18T09:53:58Z</time>
      </trkpt>
      <trkpt lat="48.68036" lon="2.50992">
        <ele>135.902</ele>
        <time>2018-04-18T09:54:02Z</time>
      </trkpt>
      <trkpt lat="48.6804" lon="2.50989">
        <ele>135.922</ele>
        <time>2018-04-18T09:54:05Z</time>
      </trkpt>
      <trkpt lat="48.68045" lon="2.50985">
        <ele>135.941</ele>
        <time>2018-04-18T09:54:08Z</time>
      </trkpt>
      <trkpt lat="48.68047" lon="2.50982">
        <ele>135.954</ele>
        <time>2018-04-18T09:54:10Z</time>
      </trkpt>
      <trkpt lat="48.6805" lon="2.5098">
        <ele>135.965</ele>
        <time>2018-04-18T09:54:12Z</time>
      </trkpt>
      <trkpt lat="48.68055" lon="2.50975">
        <ele>135.979</ele>
        <time>2018-04-18T09:54:15Z</time>
      </trkpt>
      <trkpt lat="48.6806" lon="2.50974">
        <ele>136.006</ele>
        <time>2018-04-18T09:54:19Z</time>
      </trkpt>
      <trkpt lat="48.68064" lon="2.50969">
        <ele>136.025</ele>
        <time>2018-04-18T09:54:22Z</time>
      </trkpt>
      <trkpt lat="48.68067" lon="2.50962">
        <ele>136.053</ele>
        <time>2018-04-18T09:54:26Z</time>
      </trkpt>
      <trkpt lat="48.68071" lon="2.50957">
        <ele>136.084</ele>
        <time>2018-04-18T09:54:30Z</time>
      </trkpt>
      <trkpt lat="48.68075" lon="2.50953">
        <ele>136.116</ele>
        <time>2018-04-18T09:54:34Z</time>
      </trkpt>
      <trkpt lat="48.68079" lon="2.50947">
        <ele>136.151</ele>
        <time>2018-04-18T09:54:38Z</time>
      </trkpt>
      <trkpt lat="48.68082" lon="2.50942">
        <ele>136.198</ele>
        <time>2018-04-18T09:54:43Z</time>
      </trkpt>
      <trkpt lat="48.68084" lon="2.50934">
        <ele>136.247</ele>
        <time>2018-04-18T09:54:48Z</time>
      </trkpt>
      <trkpt lat="48.68087" lon="2.50928">
        <ele>136.287</ele>
        <time>2018-04-18T09:54:52Z</time>
      </trkpt>
      <trkpt lat="48.68091" lon="2.50922">
        <ele>136.338</ele>
        <time>2018-04-18T09:54:57Z</time>
      </trkpt>
      <trkpt lat="48.68093" lon="2.50918">
        <ele>136.358</ele>
        <time>2018-04-18T09:54:59Z</time>
      </trkpt>
      <trkpt lat="48.68095" lon="2.50915">
        <ele>136.379</ele>
        <time>2018-04-18T09:55:01Z</time>
      </trkpt>
      <trkpt lat="48.68097" lon="2.50912">
        <ele>136.4</ele>
        <time>2018-04-18T09:55:03Z</time>
      </trkpt>
      <trkpt lat="48.68099" lon="2.50909">
        <ele>136.42</ele>
        <time>2018-04-18T09:55:05Z</time>
      </trkpt>
      <trkpt lat="48.68101" lon="2.50906">
        <ele>136.439</ele>
        <time>2018-04-18T09:55:07Z</time>
      </trkpt>
      <trkpt lat="48.68104" lon="2.50903">
        <ele>136.499</ele>
        <time>2018-04-18T09:55:14Z</time>
      </trkpt>
      <trkpt lat="48.68109" lon="2.50899">
        <ele>136.522</ele>
        <time>2018-04-18T09:55:17Z</time>
      </trkpt>
      <trkpt lat="48.68113" lon="2.50895">
        <ele>136.544</ele>
        <time>2018-04-18T09:55:20Z</time>
      </trkpt>
      <trkpt lat="48.68116" lon="2.50888">
        <ele>136.574</ele>
        <time>2018-04-18T09:55:24Z</time>
      </trkpt>
      <trkpt lat="48.68117" lon="2.50884">
        <ele>136.588</ele>
        <time>2018-04-18T09:55:26Z</time>
      </trkpt>
      <trkpt lat="48.68121" lon="2.50878">
        <ele>136.616</ele>
        <time>2018-04-18T09:55:30Z</time>
      </trkpt>
      <trkpt lat="48.68123" lon="2.50875">
        <ele>136.629</ele>
        <time>2018-04-18T09:55:32Z</time>
      </trkpt>
      <trkpt lat="48.68126" lon="2.50871">
        <ele>136.641</ele>
        <time>2018-04-18T09:55:34Z</time>
      </trkpt>
      <trkpt lat="48.68129" lon="2.50864">
        <ele>136.664</ele>
        <time>2018-04-18T09:55:38Z</time>
      </trkpt>
      <trkpt lat="48.68134" lon="2.50861">
        <ele>136.693</ele>
        <time>2018-04-18T09:55:43Z</time>
      </trkpt>
      <trkpt lat="48.68138" lon="2.50856">
        <ele>136.717</ele>
        <time>2018-04-18T09:55:47Z</time>
      </trkpt>
      <trkpt lat="48.68141" lon="2.5085">
        <ele>136.745</ele>
        <time>2018-04-18T09:55:52Z</time>
      </trkpt>
      <trkpt lat="48.68146" lon="2.50845">
        <ele>136.769</ele>
        <time>2018-04-18T09:55:57Z</time>
      </trkpt>
      <trkpt lat="48.68147" lon="2.50843">
        <ele>136.777</ele>
        <time>2018-04-18T09:55:59Z</time>
      </trkpt>
      <trkpt lat="48.68152" lon="2.50839">
        <ele>136.793</ele>
        <time>2018-04-18T09:56:04Z</time>
      </trkpt>
      <trkpt lat="48.68156" lon="2.50833">
        <ele>136.802</ele>
        <time>2018-04-18T09:56:08Z</time>
      </trkpt>
      <trkpt lat="48.68158" lon="2.5083">
        <ele>136.804</ele>
        <time>2018-04-18T09:56:10Z</time>
      </trkpt>
      <trkpt lat="48.68161" lon="2.50826">
        <ele>136.807</ele>
        <time>2018-04-18T09:56:13Z</time>
      </trkpt>
      <trkpt lat="48.68163" lon="2.50823">
        <ele>136.807</ele>
        <time>2018-04-18T09:56:15Z</time>
      </trkpt>
      <trkpt lat="48.68167" lon="2.50819">
        <ele>136.809</ele>
        <time>2018-04-18T09:56:18Z</time>
      </trkpt>
      <trkpt lat="48.6817" lon="2.50813">
        <ele>136.808</ele>
        <time>2018-04-18T09:56:22Z</time>
      </trkpt>
      <trkpt lat="48.68174" lon="2.50808">
        <ele>136.801</ele>
        <time>2018-04-18T09:56:27Z</time>
      </trkpt>
      <trkpt lat="48.68177" lon="2.50805">
        <ele>136.795</ele>
        <time>2018-04-18T09:56:29Z</time>
      </trkpt>
      <trkpt lat="48.6818" lon="2.50799">
        <ele>136.784</ele>
        <time>2018-04-18T09:56:32Z</time>
      </trkpt>
      <trkpt lat="48.68182" lon="2.50794">
        <ele>136.778</ele>
        <time>2018-04-18T09:56:34Z</time>
      </trkpt>
      <trkpt lat="48.68187" lon="2.5079">
        <ele>136.76</ele>
        <time>2018-04-18T09:56:39Z</time>
      </trkpt>
      <trkpt lat="48.68189" lon="2.50784">
        <ele>136.74</ele>
        <time>2018-04-18T09:56:44Z</time>
      </trkpt>
      <trkpt lat="48.68193" lon="2.50779">
        <ele>136.726</ele>
        <time>2018-04-18T09:56:47Z</time>
      </trkpt>
      <trkpt lat="48.68195" lon="2.50776">
        <ele>136.717</ele>
        <time>2018-04-18T09:56:49Z</time>
      </trkpt>
      <trkpt lat="48.68198" lon="2.50773">
        <ele>136.709</ele>
        <time>2018-04-18T09:56:51Z</time>
      </trkpt>
      <trkpt lat="48.68201" lon="2.50769">
        <ele>136.694</ele>
        <time>2018-04-18T09:56:55Z</time>
      </trkpt>
      <trkpt lat="48.68205" lon="2.50761">
        <ele>136.676</ele>
        <time>2018-04-18T09:57:02Z</time>
      </trkpt>
      <trkpt lat="48.68209" lon="2.50755">
        <ele>136.664</ele>
        <time>2018-04-18T09:57:06Z</time>
      </trkpt>
      <trkpt lat="48.68213" lon="2.50749">
        <ele>136.649</ele>
        <time>2018-04-18T09:57:11Z</time>
      </trkpt>
      <trkpt lat="48.68217" lon="2.50748">
        <ele>136.638</ele>
        <time>2018-04-18T09:57:15Z</time>
      </trkpt>
      <trkpt lat="48.68222" lon="2.50744">
        <ele>136.625</ele>
        <time>2018-04-18T09:57:19Z</time>
      </trkpt>
      <trkpt lat="48.68226" lon="2.50737">
        <ele>136.611</ele>
        <time>2018-04-18T09:57:23Z</time>
      </trkpt>
      <trkpt lat="48.68228" lon="2.50734">
        <ele>136.603</ele>
        <time>2018-04-18T09:57:25Z</time>
      </trkpt>
      <trkpt lat="48.68232" lon="2.5073">
        <ele>136.587</ele>
        <time>2018-04-18T09:57:29Z</time>
      </trkpt>
      <trkpt lat="48.68236" lon="2.50727">
        <ele>136.58</ele>
        <time>2018-04-18T09:57:31Z</time>
      </trkpt>
      <trkpt lat="48.68239" lon="2.50722">
        <ele>136.57</ele>
        <time>2018-04-18T09:57:34Z</time>
      </trkpt>
      <trkpt lat="48.68242" lon="2.50719">
        <ele>136.562</ele>
        <time>2018-04-18T09:57:37Z</time>
      </trkpt>
      <trkpt lat="48.68245" lon="2.50715">
        <ele>136.557</ele>
        <time>2018-04-18T09:57:40Z</time>
      </trkpt>
      <trkpt lat="48.68247" lon="2.50712">
        <ele>136.554</ele>
        <time>2018-04-18T09:57:43Z</time>
      </trkpt>
      <trkpt lat="48.68249" lon="2.50709">
        <ele>136.554</ele>
        <time>2018-04-18T09:57:45Z</time>
      </trkpt>
      <trkpt lat="48.6825" lon="2.50705">
        <ele>136.555</ele>
        <time>2018-04-18T09:57:47Z</time>
      </trkpt>
      <trkpt lat="48.68255" lon="2.50701">
        <ele>136.558</ele>
        <time>2018-04-18T09:57:51Z</time>
      </trkpt>
      <trkpt lat="48.68259" lon="2.50697">
        <ele>136.561</ele>
        <time>2018-04-18T09:57:54Z</time>
      </trkpt>
      <trkpt lat="48.68263" lon="2.50693">
        <ele>136.567</ele>
        <time>2018-04-18T09:57:59Z</time>
      </trkpt>
      <trkpt lat="48.68265" lon="2.50691">
        <ele>136.57</ele>
        <time>2018-04-18T09:58:01Z</time>
      </trkpt>
      <trkpt lat="48.68268" lon="2.50689">
        <ele>136.576</ele>
        <time>2018-04-18T09:58:04Z</time>
      </trkpt>
      <trkpt lat="48.6827" lon="2.50687">
        <ele>136.589</ele>
        <time>2018-04-18T09:58:09Z</time>
      </trkpt>
      <trkpt lat="48.68273" lon="2.50679">
        <ele>136.612</ele>
        <time>2018-04-18T09:58:16Z</time>
      </trkpt>
      <trkpt lat="48.68277" lon="2.50673">
        <ele>136.623</ele>
        <time>2018-04-18T09:58:20Z</time>
      </trkpt>
      <trkpt lat="48.6828" lon="2.50668">
        <ele>136.632</ele>
        <time>2018-04-18T09:58:23Z</time>
      </trkpt>
      <trkpt lat="48.68284" lon="2.50664">
        <ele>136.642</ele>
        <time>2018-04-18T09:58:27Z</time>
      </trkpt>
      <trkpt lat="48.68288" lon="2.50658">
        <ele>136.651</ele>
        <time>2018-04-18T09:58:31Z</time>
      </trkpt>
      <trkpt lat="48.68291" lon="2.50654">
        <ele>136.657</ele>
        <time>2018-04-18T09:58:33Z</time>
      </trkpt>
      <trkpt lat="48.68293" lon="2.50647">
        <ele>136.669</ele>
        <time>2018-04-18T09:58:37Z</time>
      </trkpt>
      <trkpt lat="48.68296" lon="2.50641">
        <ele>136.678</ele>
        <time>2018-04-18T09:58:40Z</time>
      </trkpt>
      <trkpt lat="48.68298" lon="2.50637">
        <ele>136.689</ele>
        <time>2018-04-18T09:58:44Z</time>
      </trkpt>
      <trkpt lat="48.683" lon="2.50633">
        <ele>136.695</ele>
        <time>2018-04-18T09:58:46Z</time>
      </trkpt>
      <trkpt lat="48.68301" lon="2.50629">
        <ele>136.699</ele>
        <time>2018-04-18T09:58:48Z</time>
      </trkpt>
      <trkpt lat="48.68301" lon="2.50622">
        <ele>136.713</ele>
        <time>2018-04-18T09:58:53Z</time>
      </trkpt>
      <trkpt lat="48.68301" lon="2.50618">
        <ele>136.724</ele>
        <time>2018-04-18T09:58:56Z</time>
      </trkpt>
      <trkpt lat="48.68301" lon="2.50614">
        <ele>136.731</ele>
        <time>2018-04-18T09:58:58Z</time>
      </trkpt>
      <trkpt lat="48.68303" lon="2.50606">
        <ele>136.744</ele>
        <time>2018-04-18T09:59:02Z</time>
      </trkpt>
      <trkpt lat="48.68303" lon="2.50599">
        <ele>136.752</ele>
        <time>2018-04-18T09:59:06Z</time>
      </trkpt>
      <trkpt lat="48.68305" lon="2.50593">
        <ele>136.755</ele>
        <time>2018-04-18T09:59:10Z</time>
      </trkpt>
      <trkpt lat="48.68308" lon="2.50585">
        <ele>136.756</ele>
        <time>2018-04-18T09:59:13Z</time>
      </trkpt>
      <trkpt lat="48.68308" lon="2.50577">
        <ele>136.755</ele>
        <time>2018-04-18T09:59:17Z</time>
      </trkpt>
      <trkpt lat="48.68307" lon="2.5057">
        <ele>136.75</ele>
        <time>2018-04-18T09:59:20Z</time>
      </trkpt>
      <trkpt lat="48.68307" lon="2.50566">
        <ele>136.744</ele>
        <time>2018-04-18T09:59:23Z</time>
      </trkpt>
      <trkpt lat="48.68306" lon="2.50558">
        <ele>136.734</ele>
        <time>2018-04-18T09:59:27Z</time>
      </trkpt>
      <trkpt lat="48.68307" lon="2.50551">
        <ele>136.728</ele>
        <time>2018-04-18T09:59:30Z</time>
      </trkpt>
      <trkpt lat="48.68306" lon="2.50542">
        <ele>136.719</ele>
        <time>2018-04-18T09:59:36Z</time>
      </trkpt>
      <trkpt lat="48.68304" lon="2.50536">
        <ele>136.717</ele>
        <time>2018-04-18T09:59:42Z</time>
      </trkpt>
      <trkpt lat="48.68304" lon="2.50528">
        <ele>136.72</ele>
        <time>2018-04-18T09:59:46Z</time>
      </trkpt>
      <trkpt lat="48.68304" lon="2.50522">
        <ele>136.727</ele>
        <time>2018-04-18T09:59:50Z</time>
      </trkpt>
      <trkpt lat="48.68303" lon="2.50517">
        <ele>136.74</ele>
        <time>2018-04-18T09:59:54Z</time>
      </trkpt>
      <trkpt lat="48.68303" lon="2.50509">
        <ele>136.757</ele>
        <time>2018-04-18T09:59:58Z</time>
      </trkpt>
      <trkpt lat="48.68302" lon="2.50503">
        <ele>136.774</ele>
        <time>2018-04-18T10:00:01Z</time>
      </trkpt>
      <trkpt lat="48.683" lon="2.50495">
        <ele>136.808</ele>
        <time>2018-04-18T10:00:06Z</time>
      </trkpt>
      <trkpt lat="48.68299" lon="2.50489">
        <ele>136.844</ele>
        <time>2018-04-18T10:00:11Z</time>
      </trkpt>
      <trkpt lat="48.68298" lon="2.50483">
        <ele>136.874</ele>
        <time>2018-04-18T10:00:15Z</time>
      </trkpt>
      <trkpt lat="48.68298" lon="2.5048">
        <ele>136.888</ele>
        <time>2018-04-18T10:00:17Z</time>
      </trkpt>
      <trkpt lat="48.68298" lon="2.50472">
        <ele>136.916</ele>
        <time>2018-04-18T10:00:21Z</time>
      </trkpt>
      <trkpt lat="48.68297" lon="2.50465">
        <ele>136.936</ele>
        <time>2018-04-18T10:00:24Z</time>
      </trkpt>
      <trkpt lat="48.68294" lon="2.50458">
        <ele>136.968</ele>
        <time>2018-04-18T10:00:29Z</time>
      </trkpt>
      <trkpt lat="48.68295" lon="2.50449">
        <ele>136.998</ele>
        <time>2018-04-18T10:00:34Z</time>
      </trkpt>
      <trkpt lat="48.68295" lon="2.50445">
        <ele>137.014</ele>
        <time>2018-04-18T10:00:37Z</time>
      </trkpt>
      <trkpt lat="48.68295" lon="2.50441">
        <ele>137.029</ele>
        <time>2018-04-18T10:00:40Z</time>
      </trkpt>
      <trkpt lat="48.68296" lon="2.50434">
        <ele>137.051</ele>
        <time>2018-04-18T10:00:45Z</time>
      </trkpt>
      <trkpt lat="48.68297" lon="2.50427">
        <ele>137.082</ele>
        <time>2018-04-18T10:00:51Z</time>
      </trkpt>
      <trkpt lat="48.68297" lon="2.50423">
        <ele>137.092</ele>
        <time>2018-04-18T10:00:53Z</time>
      </trkpt>
      <trkpt lat="48.68295" lon="2.50416">
        <ele>137.119</ele>
        <time>2018-04-18T10:00:58Z</time>
      </trkpt>
      <trkpt lat="48.68295" lon="2.50408">
        <ele>137.146</ele>
        <time>2018-04-18T10:01:03Z</time>
      </trkpt>
      <trkpt lat="48.68297" lon="2.504">
        <ele>137.167</ele>
        <time>2018-04-18T10:01:07Z</time>
      </trkpt>
      <trkpt lat="48.68296" lon="2.50391">
        <ele>137.209</ele>
        <time>2018-04-18T10:01:15Z</time>
      </trkpt>
      <trkpt lat="48.68295" lon="2.50386">
        <ele>137.225</ele>
        <time>2018-04-18T10:01:18Z</time>
      </trkpt>
      <trkpt lat="48.68293" lon="2.50377">
        <ele>137.235</ele>
        <time>2018-04-18T10:01:20Z</time>
      </trkpt>
      <trkpt lat="48.68291" lon="2.5037">
        <ele>137.245</ele>
        <time>2018-04-18T10:01:23Z</time>
      </trkpt>
      <trkpt lat="48.6829" lon="2.50365">
        <ele>137.251</ele>
        <time>2018-04-18T10:01:25Z</time>
      </trkpt>
      <trkpt lat="48.6829" lon="2.50358">
        <ele>137.264</ele>
        <time>2018-04-18T10:01:29Z</time>
      </trkpt>
      <trkpt lat="48.68289" lon="2.50351">
        <ele>137.283</ele>
        <time>2018-04-18T10:01:34Z</time>
      </trkpt>
      <trkpt lat="48.68286" lon="2.50345">
        <ele>137.301</ele>
        <time>2018-04-18T10:01:38Z</time>
      </trkpt>
      <trkpt lat="48.68285" lon="2.50338">
        <ele>137.324</ele>
        <time>2018-04-18T10:01:43Z</time>
      </trkpt>
      <trkpt lat="48.68283" lon="2.50331">
        <ele>137.338</ele>
        <time>2018-04-18T10:01:46Z</time>
      </trkpt>
      <trkpt lat="48.68281" lon="2.50325">
        <ele>137.352</ele>
        <time>2018-04-18T10:01:49Z</time>
      </trkpt>
      <trkpt lat="48.6828" lon="2.50318">
        <ele>137.384</ele>
        <time>2018-04-18T10:01:56Z</time>
      </trkpt>
      <trkpt lat="48.68279" lon="2.50313">
        <ele>137.394</ele>
        <time>2018-04-18T10:01:58Z</time>
      </trkpt>
      <trkpt lat="48.68279" lon="2.5031">
        <ele>137.4</ele>
        <time>2018-04-18T10:01:59Z</time>
      </trkpt>
      <trkpt lat="48.68277" lon="2.50305">
        <ele>137.411</ele>
        <time>2018-04-18T10:02:01Z</time>
      </trkpt>
      <trkpt lat="48.68275" lon="2.50298">
        <ele>137.428</ele>
        <time>2018-04-18T10:02:04Z</time>
      </trkpt>
      <trkpt lat="48.68274" lon="2.50293">
        <ele>137.45</ele>
        <time>2018-04-18T10:02:08Z</time>
      </trkpt>
      <trkpt lat="48.68272" lon="2.50286">
        <ele>137.47</ele>
        <time>2018-04-18T10:02:12Z</time>
      </trkpt>
      <trkpt lat="48.68272" lon="2.50279">
        <ele>137.496</ele>
        <time>2018-04-18T10:02:18Z</time>
      </trkpt>
      <trkpt lat="48.68271" lon="2.50272">
        <ele>137.511</ele>
        <time>2018-04-18T10:02:22Z</time>
      </trkpt>
      <trkpt lat="48.6827" lon="2.50264">
        <ele>137.527</ele>
        <time>2018-04-18T10:02:26Z</time>
      </trkpt>
      <trkpt lat="48.6827" lon="2.5026">
        <ele>137.54</ele>
        <time>2018-04-18T10:02:29Z</time>
      </trkpt>
      <trkpt lat="48.6827" lon="2.50256">
        <ele>137.555</ele>
        <time>2018-04-18T10:02:32Z</time>
      </trkpt>
      <trkpt lat="48.68268" lon="2.5025">
        <ele>137.572</ele>
        <time>2018-04-18T10:02:36Z</time>
      </trkpt>
      <trkpt lat="48.68264" lon="2.50242">
        <ele>137.598</ele>
        <time>2018-04-18T10:02:41Z</time>
      </trkpt>
      <trkpt lat="48.68262" lon="2.50236">
        <ele>137.608</ele>
        <time>2018-04-18T10:02:43Z</time>
      </trkpt>
      <trkpt lat="48.6826" lon="2.50231">
        <ele>137.62</ele>
        <time>2018-04-18T10:02:45Z</time>
      </trkpt>
      <trkpt lat="48.68259" lon="2.50226">
        <ele>137.631</ele>
        <time>2018-04-18T10:02:47Z</time>
      </trkpt>
      <trkpt lat="48.68257" lon="2.50221">
        <ele>137.653</ele>
        <time>2018-04-18T10:02:51Z</time>
      </trkpt>
      <trkpt lat="48.68253" lon="2.50216">
        <ele>137.666</ele>
        <time>2018-04-18T10:02:55Z</time>
      </trkpt>
      <trkpt lat="48.6825" lon="2.50209">
        <ele>137.682</ele>
        <time>2018-04-18T10:02:59Z</time>
      </trkpt>
      <trkpt lat="48.6825" lon="2.50209">
        <ele>137.682</ele>
        <time>2018-04-18T10:03:06Z</time>
      </trkpt>
      <trkpt lat="48.68246" lon="2.50204">
        <ele>137.711</ele>
        <time>2018-04-18T10:03:07Z</time>
      </trkpt>
      <trkpt lat="48.68245" lon="2.50202">
        <ele>137.717</ele>
        <time>2018-04-18T10:03:09Z</time>
      </trkpt>
      <trkpt lat="48.68242" lon="2.50195">
        <ele>137.726</ele>
        <time>2018-04-18T10:03:12Z</time>
      </trkpt>
      <trkpt lat="48.68238" lon="2.5019">
        <ele>137.739</ele>
        <time>2018-04-18T10:03:16Z</time>
      </trkpt>
      <trkpt lat="48.68236" lon="2.50187">
        <ele>137.742</ele>
        <time>2018-04-18T10:03:18Z</time>
      </trkpt>
      <trkpt lat="48.68233" lon="2.50183">
        <ele>137.745</ele>
        <time>2018-04-18T10:03:20Z</time>
      </trkpt>
      <trkpt lat="48.68231" lon="2.5018">
        <ele>137.746</ele>
        <time>2018-04-18T10:03:22Z</time>
      </trkpt>
      <trkpt lat="48.68227" lon="2.50176">
        <ele>137.753</ele>
        <time>2018-04-18T10:03:29Z</time>
      </trkpt>
      <trkpt lat="48.68224" lon="2.50173">
        <ele>137.757</ele>
        <time>2018-04-18T10:03:31Z</time>
      </trkpt>
      <trkpt lat="48.68223" lon="2.50171">
        <ele>137.759</ele>
        <time>2018-04-18T10:03:33Z</time>
      </trkpt>
      <trkpt lat="48.68219" lon="2.50168">
        <ele>137.763</ele>
        <time>2018-04-18T10:03:37Z</time>
      </trkpt>
      <trkpt lat="48.68214" lon="2.50161">
        <ele>137.765</ele>
        <time>2018-04-18T10:03:41Z</time>
      </trkpt>
      <trkpt lat="48.68211" lon="2.50156">
        <ele>137.766</ele>
        <time>2018-04-18T10:03:43Z</time>
      </trkpt>
      <trkpt lat="48.68206" lon="2.50152">
        <ele>137.763</ele>
        <time>2018-04-18T10:03:47Z</time>
      </trkpt>
      <trkpt lat="48.68202" lon="2.50146">
        <ele>137.754</ele>
        <time>2018-04-18T10:03:51Z</time>
      </trkpt>
      <trkpt lat="48.68198" lon="2.50143">
        <ele>137.74</ele>
        <time>2018-04-18T10:03:55Z</time>
      </trkpt>
      <trkpt lat="48.68196" lon="2.50141">
        <ele>137.73</ele>
        <time>2018-04-18T10:03:58Z</time>
      </trkpt>
      <trkpt lat="48.68193" lon="2.50139">
        <ele>137.725</ele>
        <time>2018-04-18T10:04:00Z</time>
      </trkpt>
      <trkpt lat="48.6819" lon="2.50136">
        <ele>137.721</ele>
        <time>2018-04-18T10:04:02Z</time>
      </trkpt>
      <trkpt lat="48.68188" lon="2.50133">
        <ele>137.72</ele>
        <time>2018-04-18T10:04:03Z</time>
      </trkpt>
      <trkpt lat="48.68186" lon="2.5013">
        <ele>137.719</ele>
        <time>2018-04-18T10:04:05Z</time>
      </trkpt>
      <trkpt lat="48.68182" lon="2.50126">
        <ele>137.718</ele>
        <time>2018-04-18T10:04:10Z</time>
      </trkpt>
      <trkpt lat="48.68178" lon="2.50121">
        <ele>137.717</ele>
        <time>2018-04-18T10:04:15Z</time>
      </trkpt>
      <trkpt lat="48.68175" lon="2.50116">
        <ele>137.719</ele>
        <time>2018-04-18T10:04:20Z</time>
      </trkpt>
      <trkpt lat="48.68172" lon="2.5011">
        <ele>137.724</ele>
        <time>2018-04-18T10:04:24Z</time>
      </trkpt>
      <trkpt lat="48.68169" lon="2.50107">
        <ele>137.73</ele>
        <time>2018-04-18T10:04:27Z</time>
      </trkpt>
      <trkpt lat="48.68164" lon="2.50103">
        <ele>137.738</ele>
        <time>2018-04-18T10:04:31Z</time>
      </trkpt>
      <trkpt lat="48.68161" lon="2.50101">
        <ele>137.74</ele>
        <time>2018-04-18T10:04:34Z</time>
      </trkpt>
      <trkpt lat="48.68158" lon="2.50095">
        <ele>137.742</ele>
        <time>2018-04-18T10:04:37Z</time>
      </trkpt>
      <trkpt lat="48.68154" lon="2.5009">
        <ele>137.74</ele>
        <time>2018-04-18T10:04:40Z</time>
      </trkpt>
      <trkpt lat="48.6815" lon="2.50086">
        <ele>137.737</ele>
        <time>2018-04-18T10:04:44Z</time>
      </trkpt>
      <trkpt lat="48.68148" lon="2.50084">
        <ele>137.735</ele>
        <time>2018-04-18T10:04:46Z</time>
      </trkpt>
      <trkpt lat="48.68148" lon="2.50084">
        <ele>137.735</ele>
        <time>2018-04-18T10:04:51Z</time>
      </trkpt>
      <trkpt lat="48.68144" lon="2.50078">
        <ele>137.727</ele>
        <time>2018-04-18T10:04:52Z</time>
      </trkpt>
      <trkpt lat="48.6814" lon="2.50074">
        <ele>137.717</ele>
        <time>2018-04-18T10:04:57Z</time>
      </trkpt>
      <trkpt lat="48.68135" lon="2.5007">
        <ele>137.71</ele>
        <time>2018-04-18T10:05:01Z</time>
      </trkpt>
      <trkpt lat="48.68134" lon="2.50068">
        <ele>137.709</ele>
        <time>2018-04-18T10:05:09Z</time>
      </trkpt>
      <trkpt lat="48.68131" lon="2.50065">
        <ele>137.716</ele>
        <time>2018-04-18T10:05:15Z</time>
      </trkpt>
      <trkpt lat="48.68126" lon="2.50062">
        <ele>137.723</ele>
        <time>2018-04-18T10:05:19Z</time>
      </trkpt>
      <trkpt lat="48.68123" lon="2.50059">
        <ele>137.728</ele>
        <time>2018-04-18T10:05:22Z</time>
      </trkpt>
      <trkpt lat="48.68119" lon="2.50058">
        <ele>137.74</ele>
        <time>2018-04-18T10:05:26Z</time>
      </trkpt>
      <trkpt lat="48.68116" lon="2.50057">
        <ele>137.751</ele>
        <time>2018-04-18T10:05:29Z</time>
      </trkpt>
      <trkpt lat="48.68113" lon="2.50056">
        <ele>137.772</ele>
        <time>2018-04-18T10:05:33Z</time>
      </trkpt>
      <trkpt lat="48.6811" lon="2.50049">
        <ele>137.801</ele>
        <time>2018-04-18T10:05:37Z</time>
      </trkpt>
      <trkpt lat="48.68107" lon="2.50044">
        <ele>137.808</ele>
        <time>2018-04-18T10:05:38Z</time>
      </trkpt>
      <trkpt lat="48.68104" lon="2.50037">
        <ele>137.828</ele>
        <time>2018-04-18T10:05:41Z</time>
      </trkpt>
      <trkpt lat="48.68099" lon="2.50031">
        <ele>137.852</ele>
        <time>2018-04-18T10:05:45Z</time>
      </trkpt>
      <trkpt lat="48.68096" lon="2.50026">
        <ele>137.867</ele>
        <time>2018-04-18T10:05:48Z</time>
      </trkpt>
      <trkpt lat="48.68091" lon="2.50022">
        <ele>137.882</ele>
        <time>2018-04-18T10:05:52Z</time>
      </trkpt>
      <trkpt lat="48.68089" lon="2.5002">
        <ele>137.887</ele>
        <time>2018-04-18T10:05:54Z</time>
      </trkpt>
      <trkpt lat="48.68086" lon="2.50018">
        <ele>137.89</ele>
        <time>2018-04-18T10:05:56Z</time>
      </trkpt>
      <trkpt lat="48.68084" lon="2.50016">
        <ele>137.893</ele>
        <time>2018-04-18T10:05:58Z</time>
      </trkpt>
      <trkpt lat="48.68081" lon="2.50014">
        <ele>137.896</ele>
        <time>2018-04-18T10:06:03Z</time>
      </trkpt>
      <trkpt lat="48.68077" lon="2.50009">
        <ele>137.897</ele>
        <time>2018-04-18T10:06:08Z</time>
      </trkpt>
      <trkpt lat="48.68073" lon="2.50005">
        <ele>137.898</ele>
        <time>2018-04-18T10:06:13Z</time>
      </trkpt>
      <trkpt lat="48.68069" lon="2.50001">
        <ele>137.897</ele>
        <time>2018-04-18T10:06:16Z</time>
      </trkpt>
      <trkpt lat="48.68064" lon="2.49998">
        <ele>137.895</ele>
        <time>2018-04-18T10:06:20Z</time>
      </trkpt>
      <trkpt lat="48.68062" lon="2.49996">
        <ele>137.896</ele>
        <time>2018-04-18T10:06:22Z</time>
      </trkpt>
      <trkpt lat="48.68058" lon="2.49991">
        <ele>137.895</ele>
        <time>2018-04-18T10:06:27Z</time>
      </trkpt>
      <trkpt lat="48.68055" lon="2.49986">
        <ele>137.891</ele>
        <time>2018-04-18T10:06:31Z</time>
      </trkpt>
      <trkpt lat="48.68052" lon="2.4998">
        <ele>137.884</ele>
        <time>2018-04-18T10:06:35Z</time>
      </trkpt>
      <trkpt lat="48.68048" lon="2.49976">
        <ele>137.875</ele>
        <time>2018-04-18T10:06:39Z</time>
      </trkpt>
      <trkpt lat="48.68046" lon="2.49972">
        <ele>137.867</ele>
        <time>2018-04-18T10:06:44Z</time>
      </trkpt>
      <trkpt lat="48.68043" lon="2.49969">
        <ele>137.865</ele>
        <time>2018-04-18T10:06:47Z</time>
      </trkpt>
      <trkpt lat="48.68038" lon="2.49966">
        <ele>137.867</ele>
        <time>2018-04-18T10:06:52Z</time>
      </trkpt>
      <trkpt lat="48.68034" lon="2.49963">
        <ele>137.876</ele>
        <time>2018-04-18T10:06:57Z</time>
      </trkpt>
      <trkpt lat="48.68029" lon="2.49959">
        <ele>137.885</ele>
        <time>2018-04-18T10:07:01Z</time>
      </trkpt>
      <trkpt lat="48.68025" lon="2.49955">
        <ele>137.89</ele>
        <time>2018-04-18T10:07:04Z</time>
      </trkpt>
      <trkpt lat="48.68022" lon="2.4995">
        <ele>137.897</ele>
        <time>2018-04-18T10:07:07Z</time>
      </trkpt>
      <trkpt lat="48.68019" lon="2.49944">
        <ele>137.908</ele>
        <time>2018-04-18T10:07:12Z</time>
      </trkpt>
      <trkpt lat="48.68015" lon="2.49938">
        <ele>137.918</ele>
        <time>2018-04-18T10:07:17Z</time>
      </trkpt>
      <trkpt lat="48.68008" lon="2.49933">
        <ele>137.923</ele>
        <time>2018-04-18T10:07:20Z</time>
      </trkpt>
      <trkpt lat="48.68005" lon="2.49931">
        <ele>137.928</ele>
        <time>2018-04-18T10:07:22Z</time>
      </trkpt>
      <trkpt lat="48.68001" lon="2.49929">
        <ele>137.934</ele>
        <time>2018-04-18T10:07:24Z</time>
      </trkpt>
      <trkpt lat="48.67999" lon="2.49927">
        <ele>137.942</ele>
        <time>2018-04-18T10:07:26Z</time>
      </trkpt>
      <trkpt lat="48.67995" lon="2.49925">
        <ele>137.96</ele>
        <time>2018-04-18T10:07:30Z</time>
      </trkpt>
      <trkpt lat="48.67995" lon="2.49925">
        <ele>137.96</ele>
        <time>2018-04-18T10:07:37Z</time>
      </trkpt>
      <trkpt lat="48.67995" lon="2.49925">
        <ele>137.96</ele>
        <time>2018-04-18T10:07:38Z</time>
      </trkpt>
      <trkpt lat="48.6799" lon="2.49921">
        <ele>138.014</ele>
        <time>2018-04-18T10:07:39Z</time>
      </trkpt>
      <trkpt lat="48.67988" lon="2.49919">
        <ele>138.039</ele>
        <time>2018-04-18T10:07:42Z</time>
      </trkpt>
      <trkpt lat="48.67984" lon="2.49914">
        <ele>138.087</ele>
        <time>2018-04-18T10:07:47Z</time>
      </trkpt>
      <trkpt lat="48.67983" lon="2.4991">
        <ele>138.107</ele>
        <time>2018-04-18T10:07:49Z</time>
      </trkpt>
      <trkpt lat="48.67981" lon="2.49907">
        <ele>138.126</ele>
        <time>2018-04-18T10:07:51Z</time>
      </trkpt>
      <trkpt lat="48.67976" lon="2.49901">
        <ele>138.174</ele>
        <time>2018-04-18T10:07:56Z</time>
      </trkpt>
      <trkpt lat="48.67973" lon="2.49897">
        <ele>138.212</ele>
        <time>2018-04-18T10:08:00Z</time>
      </trkpt>
      <trkpt lat="48.67971" lon="2.49894">
        <ele>138.254</ele>
        <time>2018-04-18T10:08:04Z</time>
      </trkpt>
      <trkpt lat="48.67966" lon="2.49892">
        <ele>138.328</ele>
        <time>2018-04-18T10:08:11Z</time>
      </trkpt>
      <trkpt lat="48.67963" lon="2.49887">
        <ele>138.401</ele>
        <time>2018-04-18T10:08:18Z</time>
      </trkpt>
      <trkpt lat="48.67963" lon="2.49878">
        <ele>138.468</ele>
        <time>2018-04-18T10:08:25Z</time>
      </trkpt>
      <trkpt lat="48.6796" lon="2.49871">
        <ele>138.502</ele>
        <time>2018-04-18T10:08:29Z</time>
      </trkpt>
      <trkpt lat="48.67956" lon="2.49868">
        <ele>138.531</ele>
        <time>2018-04-18T10:08:33Z</time>
      </trkpt>
      <trkpt lat="48.67953" lon="2.49861">
        <ele>138.56</ele>
        <time>2018-04-18T10:08:37Z</time>
      </trkpt>
      <trkpt lat="48.67951" lon="2.49855">
        <ele>138.588</ele>
        <time>2018-04-18T10:08:41Z</time>
      </trkpt>
      <trkpt lat="48.67948" lon="2.49849">
        <ele>138.614</ele>
        <time>2018-04-18T10:08:45Z</time>
      </trkpt>
      <trkpt lat="48.67944" lon="2.49841">
        <ele>138.649</ele>
        <time>2018-04-18T10:08:50Z</time>
      </trkpt>
      <trkpt lat="48.6794" lon="2.49836">
        <ele>138.677</ele>
        <time>2018-04-18T10:08:54Z</time>
      </trkpt>
      <trkpt lat="48.67937" lon="2.49829">
        <ele>138.712</ele>
        <time>2018-04-18T10:08:59Z</time>
      </trkpt>
      <trkpt lat="48.67935" lon="2.49825">
        <ele>138.733</ele>
        <time>2018-04-18T10:09:02Z</time>
      </trkpt>
      <trkpt lat="48.67931" lon="2.4982">
        <ele>138.766</ele>
        <time>2018-04-18T10:09:07Z</time>
      </trkpt>
      <trkpt lat="48.67928" lon="2.49816">
        <ele>138.791</ele>
        <time>2018-04-18T10:09:11Z</time>
      </trkpt>
      <trkpt lat="48.67922" lon="2.49813">
        <ele>138.809</ele>
        <time>2018-04-18T10:09:15Z</time>
      </trkpt>
      <trkpt lat="48.67919" lon="2.49811">
        <ele>138.823</ele>
        <time>2018-04-18T10:09:18Z</time>
      </trkpt>
      <trkpt lat="48.67914" lon="2.49809">
        <ele>138.845</ele>
        <time>2018-04-18T10:09:22Z</time>
      </trkpt>
      <trkpt lat="48.67909" lon="2.49806">
        <ele>138.863</ele>
        <time>2018-04-18T10:09:25Z</time>
      </trkpt>
      <trkpt lat="48.67905" lon="2.49802">
        <ele>138.881</ele>
        <time>2018-04-18T10:09:28Z</time>
      </trkpt>
      <trkpt lat="48.67901" lon="2.49798">
        <ele>138.906</ele>
        <time>2018-04-18T10:09:32Z</time>
      </trkpt>
      <trkpt lat="48.67897" lon="2.49796">
        <ele>138.939</ele>
        <time>2018-04-18T10:09:37Z</time>
      </trkpt>
      <trkpt lat="48.67895" lon="2.49794">
        <ele>138.959</ele>
        <time>2018-04-18T10:09:40Z</time>
      </trkpt>
      <trkpt lat="48.67891" lon="2.49788">
        <ele>138.984</ele>
        <time>2018-04-18T10:09:44Z</time>
      </trkpt>
      <trkpt lat="48.67888" lon="2.49785">
        <ele>139.01</ele>
        <time>2018-04-18T10:09:48Z</time>
      </trkpt>
      <trkpt lat="48.67887" lon="2.49777">
        <ele>139.055</ele>
        <time>2018-04-18T10:09:55Z</time>
      </trkpt>
      <trkpt lat="48.67884" lon="2.4977">
        <ele>139.072</ele>
        <time>2018-04-18T10:09:58Z</time>
      </trkpt>
      <trkpt lat="48.6788" lon="2.49764">
        <ele>139.085</ele>
        <time>2018-04-18T10:10:01Z</time>
      </trkpt>
      <trkpt lat="48.67876" lon="2.4976">
        <ele>139.094</ele>
        <time>2018-04-18T10:10:04Z</time>
      </trkpt>
      <trkpt lat="48.67874" lon="2.49757">
        <ele>139.099</ele>
        <time>2018-04-18T10:10:06Z</time>
      </trkpt>
      <trkpt lat="48.67872" lon="2.49754">
        <ele>139.106</ele>
        <time>2018-04-18T10:10:10Z</time>
      </trkpt>
      <trkpt lat="48.67867" lon="2.4975">
        <ele>139.109</ele>
        <time>2018-04-18T10:10:13Z</time>
      </trkpt>
      <trkpt lat="48.67863" lon="2.49745">
        <ele>139.11</ele>
        <time>2018-04-18T10:10:16Z</time>
      </trkpt>
      <trkpt lat="48.67861" lon="2.49742">
        <ele>139.109</ele>
        <time>2018-04-18T10:10:19Z</time>
      </trkpt>
      <trkpt lat="48.67858" lon="2.49738">
        <ele>139.105</ele>
        <time>2018-04-18T10:10:23Z</time>
      </trkpt>
      <trkpt lat="48.67855" lon="2.49735">
        <ele>139.101</ele>
        <time>2018-04-18T10:10:25Z</time>
      </trkpt>
      <trkpt lat="48.67855" lon="2.49735">
        <ele>139.101</ele>
        <time>2018-04-18T10:10:32Z</time>
      </trkpt>
      <trkpt lat="48.67851" lon="2.49733">
        <ele>139.085</ele>
        <time>2018-04-18T10:10:33Z</time>
      </trkpt>
      <trkpt lat="48.67845" lon="2.49729">
        <ele>139.068</ele>
        <time>2018-04-18T10:10:39Z</time>
      </trkpt>
      <trkpt lat="48.67842" lon="2.49722">
        <ele>139.06</ele>
        <time>2018-04-18T10:10:44Z</time>
      </trkpt>
      <trkpt lat="48.67836" lon="2.49719">
        <ele>139.069</ele>
        <time>2018-04-18T10:10:53Z</time>
      </trkpt>
      <trkpt lat="48.67834" lon="2.49714">
        <ele>139.16</ele>
        <time>2018-04-18T10:11:14Z</time>
      </trkpt>
      <trkpt lat="48.67832" lon="2.49709">
        <ele>139.208</ele>
        <time>2018-04-18T10:11:23Z</time>
      </trkpt>
      <trkpt lat="48.6783" lon="2.49705">
        <ele>139.222</ele>
        <time>2018-04-18T10:11:26Z</time>
      </trkpt>
      <trkpt lat="48.67826" lon="2.497">
        <ele>139.238</ele>
        <time>2018-04-18T10:11:30Z</time>
      </trkpt>
      <trkpt lat="48.67823" lon="2.49697">
        <ele>139.246</ele>
        <time>2018-04-18T10:11:32Z</time>
      </trkpt>
      <trkpt lat="48.67819" lon="2.49691">
        <ele>139.26</ele>
        <time>2018-04-18T10:11:36Z</time>
      </trkpt>
      <trkpt lat="48.67818" lon="2.49683">
        <ele>139.282</ele>
        <time>2018-04-18T10:11:42Z</time>
      </trkpt>
      <trkpt lat="48.67817" lon="2.49677">
        <ele>139.319</ele>
        <time>2018-04-18T10:11:51Z</time>
      </trkpt>
      <trkpt lat="48.67819" lon="2.49669">
        <ele>139.381</ele>
        <time>2018-04-18T10:12:09Z</time>
      </trkpt>
      <trkpt lat="48.67819" lon="2.49665">
        <ele>139.393</ele>
        <time>2018-04-18T10:12:11Z</time>
      </trkpt>
      <trkpt lat="48.6782" lon="2.49662">
        <ele>139.405</ele>
        <time>2018-04-18T10:12:13Z</time>
      </trkpt>
      <trkpt lat="48.67822" lon="2.49656">
        <ele>139.437</ele>
        <time>2018-04-18T10:12:18Z</time>
      </trkpt>
      <trkpt lat="48.67826" lon="2.49651">
        <ele>139.49</ele>
        <time>2018-04-18T10:12:24Z</time>
      </trkpt>
      <trkpt lat="48.67828" lon="2.49649">
        <ele>139.535</ele>
        <time>2018-04-18T10:12:28Z</time>
      </trkpt>
      <trkpt lat="48.67832" lon="2.49646">
        <ele>139.647</ele>
        <time>2018-04-18T10:12:37Z</time>
      </trkpt>
      <trkpt lat="48.67837" lon="2.49645">
        <ele>139.738</ele>
        <time>2018-04-18T10:12:44Z</time>
      </trkpt>
      <trkpt lat="48.67837" lon="2.49645">
        <ele>139.738</ele>
        <time>2018-04-18T10:15:26Z</time>
      </trkpt>
      <trkpt lat="48.67832" lon="2.49602">
        <ele>140.408</ele>
        <time>2018-04-18T10:15:51Z</time>
      </trkpt>
      <trkpt lat="48.67825" lon="2.49603">
        <ele>140.449</ele>
        <time>2018-04-18T10:16:00Z</time>
      </trkpt>
      <trkpt lat="48.67823" lon="2.49602">
        <ele>140.457</ele>
        <time>2018-04-18T10:16:02Z</time>
      </trkpt>
      <trkpt lat="48.67819" lon="2.49603">
        <ele>140.477</ele>
        <time>2018-04-18T10:16:07Z</time>
      </trkpt>
      <trkpt lat="48.67815" lon="2.49608">
        <ele>140.492</ele>
        <time>2018-04-18T10:16:11Z</time>
      </trkpt>
      <trkpt lat="48.67812" lon="2.49611">
        <ele>140.503</ele>
        <time>2018-04-18T10:16:14Z</time>
      </trkpt>
      <trkpt lat="48.67808" lon="2.49617">
        <ele>140.526</ele>
        <time>2018-04-18T10:16:20Z</time>
      </trkpt>
      <trkpt lat="48.67808" lon="2.49617">
        <ele>140.526</ele>
        <time>2018-04-18T10:16:28Z</time>
      </trkpt>
      <trkpt lat="48.67803" lon="2.49621">
        <ele>140.569</ele>
        <time>2018-04-18T10:16:29Z</time>
      </trkpt>
      <trkpt lat="48.67799" lon="2.49626">
        <ele>140.589</ele>
        <time>2018-04-18T10:16:34Z</time>
      </trkpt>
      <trkpt lat="48.67793" lon="2.49626">
        <ele>140.606</ele>
        <time>2018-04-18T10:16:38Z</time>
      </trkpt>
      <trkpt lat="48.6779" lon="2.49622">
        <ele>140.641</ele>
        <time>2018-04-18T10:16:44Z</time>
      </trkpt>
      <trkpt lat="48.67787" lon="2.49615">
        <ele>140.674</ele>
        <time>2018-04-18T10:16:49Z</time>
      </trkpt>
      <trkpt lat="48.67783" lon="2.49611">
        <ele>140.724</ele>
        <time>2018-04-18T10:16:56Z</time>
      </trkpt>
      <trkpt lat="48.67778" lon="2.49609">
        <ele>140.773</ele>
        <time>2018-04-18T10:17:02Z</time>
      </trkpt>
      <trkpt lat="48.67776" lon="2.49608">
        <ele>140.792</ele>
        <time>2018-04-18T10:17:04Z</time>
      </trkpt>
      <trkpt lat="48.67773" lon="2.49607">
        <ele>140.819</ele>
        <time>2018-04-18T10:17:07Z</time>
      </trkpt>
      <trkpt lat="48.6777" lon="2.49605">
        <ele>140.848</ele>
        <time>2018-04-18T10:17:10Z</time>
      </trkpt>
      <trkpt lat="48.67768" lon="2.49604">
        <ele>140.875</ele>
        <time>2018-04-18T10:17:13Z</time>
      </trkpt>
      <trkpt lat="48.67763" lon="2.49603">
        <ele>140.911</ele>
        <time>2018-04-18T10:17:17Z</time>
      </trkpt>
      <trkpt lat="48.67758" lon="2.49602">
        <ele>140.964</ele>
        <time>2018-04-18T10:17:23Z</time>
      </trkpt>
      <trkpt lat="48.67754" lon="2.49605">
        <ele>141.013</ele>
        <time>2018-04-18T10:17:29Z</time>
      </trkpt>
      <trkpt lat="48.67748" lon="2.49605">
        <ele>141.061</ele>
        <time>2018-04-18T10:17:35Z</time>
      </trkpt>
      <trkpt lat="48.67745" lon="2.49605">
        <ele>141.077</ele>
        <time>2018-04-18T10:17:37Z</time>
      </trkpt>
      <trkpt lat="48.67742" lon="2.49604">
        <ele>141.094</ele>
        <time>2018-04-18T10:17:39Z</time>
      </trkpt>
      <trkpt lat="48.67739" lon="2.49604">
        <ele>141.103</ele>
        <time>2018-04-18T10:17:40Z</time>
      </trkpt>
      <trkpt lat="48.67734" lon="2.49603">
        <ele>141.138</ele>
        <time>2018-04-18T10:17:44Z</time>
      </trkpt>
      <trkpt lat="48.6773" lon="2.49602">
        <ele>141.195</ele>
        <time>2018-04-18T10:17:50Z</time>
      </trkpt>
      <trkpt lat="48.67725" lon="2.49603">
        <ele>141.223</ele>
        <time>2018-04-18T10:17:53Z</time>
      </trkpt>
      <trkpt lat="48.6772" lon="2.49605">
        <ele>141.257</ele>
        <time>2018-04-18T10:17:57Z</time>
      </trkpt>
      <trkpt lat="48.67716" lon="2.49608">
        <ele>141.289</ele>
        <time>2018-04-18T10:18:01Z</time>
      </trkpt>
      <trkpt lat="48.67712" lon="2.49611">
        <ele>141.309</ele>
        <time>2018-04-18T10:18:04Z</time>
      </trkpt>
      <trkpt lat="48.67706" lon="2.49612">
        <ele>141.336</ele>
        <time>2018-04-18T10:18:09Z</time>
      </trkpt>
      <trkpt lat="48.67701" lon="2.49614">
        <ele>141.351</ele>
        <time>2018-04-18T10:18:13Z</time>
      </trkpt>
      <trkpt lat="48.67696" lon="2.49613">
        <ele>141.368</ele>
        <time>2018-04-18T10:18:18Z</time>
      </trkpt>
      <trkpt lat="48.67691" lon="2.49614">
        <ele>141.378</ele>
        <time>2018-04-18T10:18:21Z</time>
      </trkpt>
      <trkpt lat="48.67687" lon="2.49616">
        <ele>141.389</ele>
        <time>2018-04-18T10:18:24Z</time>
      </trkpt>
      <trkpt lat="48.67683" lon="2.49617">
        <ele>141.401</ele>
        <time>2018-04-18T10:18:27Z</time>
      </trkpt>
      <trkpt lat="48.67678" lon="2.49618">
        <ele>141.424</ele>
        <time>2018-04-18T10:18:32Z</time>
      </trkpt>
      <trkpt lat="48.67673" lon="2.49619">
        <ele>141.446</ele>
        <time>2018-04-18T10:18:36Z</time>
      </trkpt>
      <trkpt lat="48.67668" lon="2.49622">
        <ele>141.474</ele>
        <time>2018-04-18T10:18:41Z</time>
      </trkpt>
      <trkpt lat="48.67664" lon="2.49623">
        <ele>141.496</ele>
        <time>2018-04-18T10:18:45Z</time>
      </trkpt>
      <trkpt lat="48.6766" lon="2.49624">
        <ele>141.503</ele>
        <time>2018-04-18T10:18:46Z</time>
      </trkpt>
      <trkpt lat="48.67655" lon="2.49626">
        <ele>141.531</ele>
        <time>2018-04-18T10:18:49Z</time>
      </trkpt>
      <trkpt lat="48.67649" lon="2.49625">
        <ele>141.58</ele>
        <time>2018-04-18T10:18:53Z</time>
      </trkpt>
      <trkpt lat="48.67646" lon="2.49625">
        <ele>141.607</ele>
        <time>2018-04-18T10:18:55Z</time>
      </trkpt>
      <trkpt lat="48.67644" lon="2.49625">
        <ele>141.667</ele>
        <time>2018-04-18T10:18:59Z</time>
      </trkpt>
      <trkpt lat="48.67638" lon="2.49625">
        <ele>141.727</ele>
        <time>2018-04-18T10:19:03Z</time>
      </trkpt>
      <trkpt lat="48.67635" lon="2.49625">
        <ele>141.761</ele>
        <time>2018-04-18T10:19:05Z</time>
      </trkpt>
      <trkpt lat="48.67631" lon="2.49624">
        <ele>141.831</ele>
        <time>2018-04-18T10:19:09Z</time>
      </trkpt>
      <trkpt lat="48.67628" lon="2.49623">
        <ele>141.868</ele>
        <time>2018-04-18T10:19:11Z</time>
      </trkpt>
      <trkpt lat="48.67623" lon="2.49621">
        <ele>141.949</ele>
        <time>2018-04-18T10:19:15Z</time>
      </trkpt>
      <trkpt lat="48.6762" lon="2.49621">
        <ele>141.991</ele>
        <time>2018-04-18T10:19:17Z</time>
      </trkpt>
      <trkpt lat="48.67615" lon="2.49621">
        <ele>142.081</ele>
        <time>2018-04-18T10:19:21Z</time>
      </trkpt>
      <trkpt lat="48.67615" lon="2.49621">
        <ele>142.081</ele>
        <time>2018-04-18T10:19:28Z</time>
      </trkpt>
      <trkpt lat="48.67609" lon="2.49619">
        <ele>142.258</ele>
        <time>2018-04-18T10:19:29Z</time>
      </trkpt>
      <trkpt lat="48.67605" lon="2.4962">
        <ele>142.322</ele>
        <time>2018-04-18T10:19:32Z</time>
      </trkpt>
      <trkpt lat="48.676" lon="2.4962">
        <ele>142.421</ele>
        <time>2018-04-18T10:19:37Z</time>
      </trkpt>
      <trkpt lat="48.67596" lon="2.49621">
        <ele>142.476</ele>
        <time>2018-04-18T10:19:40Z</time>
      </trkpt>
      <trkpt lat="48.67592" lon="2.49625">
        <ele>142.549</ele>
        <time>2018-04-18T10:19:44Z</time>
      </trkpt>
      <trkpt lat="48.6759" lon="2.49627">
        <ele>142.601</ele>
        <time>2018-04-18T10:19:47Z</time>
      </trkpt>
      <trkpt lat="48.67586" lon="2.49627">
        <ele>142.669</ele>
        <time>2018-04-18T10:19:51Z</time>
      </trkpt>
      <trkpt lat="48.67582" lon="2.49628">
        <ele>142.718</ele>
        <time>2018-04-18T10:19:54Z</time>
      </trkpt>
      <trkpt lat="48.67578" lon="2.49625">
        <ele>142.767</ele>
        <time>2018-04-18T10:19:57Z</time>
      </trkpt>
      <trkpt lat="48.67572" lon="2.49624">
        <ele>142.835</ele>
        <time>2018-04-18T10:20:01Z</time>
      </trkpt>
      <trkpt lat="48.67567" lon="2.49622">
        <ele>142.883</ele>
        <time>2018-04-18T10:20:04Z</time>
      </trkpt>
      <trkpt lat="48.67562" lon="2.49621">
        <ele>142.928</ele>
        <time>2018-04-18T10:20:07Z</time>
      </trkpt>
      <trkpt lat="48.6756" lon="2.4962">
        <ele>142.957</ele>
        <time>2018-04-18T10:20:09Z</time>
      </trkpt>
      <trkpt lat="48.67556" lon="2.49619">
        <ele>143.014</ele>
        <time>2018-04-18T10:20:13Z</time>
      </trkpt>
      <trkpt lat="48.6755" lon="2.49618">
        <ele>143.074</ele>
        <time>2018-04-18T10:20:17Z</time>
      </trkpt>
      <trkpt lat="48.67545" lon="2.49618">
        <ele>143.121</ele>
        <time>2018-04-18T10:20:20Z</time>
      </trkpt>
      <trkpt lat="48.67541" lon="2.49618">
        <ele>143.181</ele>
        <time>2018-04-18T10:20:24Z</time>
      </trkpt>
      <trkpt lat="48.67536" lon="2.49618">
        <ele>143.242</ele>
        <time>2018-04-18T10:20:28Z</time>
      </trkpt>
      <trkpt lat="48.67532" lon="2.49616">
        <ele>143.303</ele>
        <time>2018-04-18T10:20:32Z</time>
      </trkpt>
      <trkpt lat="48.67529" lon="2.49614">
        <ele>143.345</ele>
        <time>2018-04-18T10:20:35Z</time>
      </trkpt>
      <trkpt lat="48.67524" lon="2.49613">
        <ele>143.396</ele>
        <time>2018-04-18T10:20:39Z</time>
      </trkpt>
      <trkpt lat="48.6752" lon="2.49613">
        <ele>143.421</ele>
        <time>2018-04-18T10:20:41Z</time>
      </trkpt>
      <trkpt lat="48.67517" lon="2.49613">
        <ele>143.445</ele>
        <time>2018-04-18T10:20:43Z</time>
      </trkpt>
      <trkpt lat="48.67514" lon="2.49613">
        <ele>143.482</ele>
        <time>2018-04-18T10:20:46Z</time>
      </trkpt>
      <trkpt lat="48.67508" lon="2.49611">
        <ele>143.535</ele>
        <time>2018-04-18T10:20:50Z</time>
      </trkpt>
      <trkpt lat="48.67506" lon="2.4961">
        <ele>143.576</ele>
        <time>2018-04-18T10:20:53Z</time>
      </trkpt>
      <trkpt lat="48.675" lon="2.4961">
        <ele>143.633</ele>
        <time>2018-04-18T10:20:57Z</time>
      </trkpt>
      <trkpt lat="48.67497" lon="2.4961">
        <ele>143.678</ele>
        <time>2018-04-18T10:21:00Z</time>
      </trkpt>
      <trkpt lat="48.67491" lon="2.49613">
        <ele>143.796</ele>
        <time>2018-04-18T10:21:07Z</time>
      </trkpt>
      <trkpt lat="48.67488" lon="2.49614">
        <ele>143.845</ele>
        <time>2018-04-18T10:21:10Z</time>
      </trkpt>
      <trkpt lat="48.67483" lon="2.49614">
        <ele>143.896</ele>
        <time>2018-04-18T10:21:13Z</time>
      </trkpt>
      <trkpt lat="48.67478" lon="2.4961">
        <ele>143.973</ele>
        <time>2018-04-18T10:21:18Z</time>
      </trkpt>
      <trkpt lat="48.67473" lon="2.49611">
        <ele>144.035</ele>
        <time>2018-04-18T10:21:21Z</time>
      </trkpt>
      <trkpt lat="48.67468" lon="2.49606">
        <ele>144.178</ele>
        <time>2018-04-18T10:21:28Z</time>
      </trkpt>
      <trkpt lat="48.67463" lon="2.49605">
        <ele>144.259</ele>
        <time>2018-04-18T10:21:32Z</time>
      </trkpt>
      <trkpt lat="48.67456" lon="2.49605">
        <ele>144.34</ele>
        <time>2018-04-18T10:21:36Z</time>
      </trkpt>
      <trkpt lat="48.67453" lon="2.49604">
        <ele>144.381</ele>
        <time>2018-04-18T10:21:38Z</time>
      </trkpt>
      <trkpt lat="48.6745" lon="2.49604">
        <ele>144.441</ele>
        <time>2018-04-18T10:21:41Z</time>
      </trkpt>
      <trkpt lat="48.67445" lon="2.49606">
        <ele>144.519</ele>
        <time>2018-04-18T10:21:45Z</time>
      </trkpt>
      <trkpt lat="48.6744" lon="2.49606">
        <ele>144.558</ele>
        <time>2018-04-18T10:21:47Z</time>
      </trkpt>
      <trkpt lat="48.67436" lon="2.49607">
        <ele>144.637</ele>
        <time>2018-04-18T10:21:51Z</time>
      </trkpt>
      <trkpt lat="48.6743" lon="2.49605">
        <ele>144.802</ele>
        <time>2018-04-18T10:22:00Z</time>
      </trkpt>
      <trkpt lat="48.67424" lon="2.49603">
        <ele>144.866</ele>
        <time>2018-04-18T10:22:04Z</time>
      </trkpt>
      <trkpt lat="48.67422" lon="2.49602">
        <ele>144.882</ele>
        <time>2018-04-18T10:22:05Z</time>
      </trkpt>
      <trkpt lat="48.67416" lon="2.49601">
        <ele>144.93</ele>
        <time>2018-04-18T10:22:08Z</time>
      </trkpt>
      <trkpt lat="48.67412" lon="2.496">
        <ele>144.975</ele>
        <time>2018-04-18T10:22:11Z</time>
      </trkpt>
      <trkpt lat="48.67407" lon="2.49598">
        <ele>145.018</ele>
        <time>2018-04-18T10:22:14Z</time>
      </trkpt>
      <trkpt lat="48.67403" lon="2.49597">
        <ele>145.045</ele>
        <time>2018-04-18T10:22:16Z</time>
      </trkpt>
      <trkpt lat="48.67398" lon="2.49592">
        <ele>145.115</ele>
        <time>2018-04-18T10:22:21Z</time>
      </trkpt>
      <trkpt lat="48.67396" lon="2.4959">
        <ele>145.159</ele>
        <time>2018-04-18T10:22:24Z</time>
      </trkpt>
      <trkpt lat="48.67392" lon="2.49585">
        <ele>145.19</ele>
        <time>2018-04-18T10:22:26Z</time>
      </trkpt>
      <trkpt lat="48.67387" lon="2.4958">
        <ele>145.221</ele>
        <time>2018-04-18T10:22:28Z</time>
      </trkpt>
      <trkpt lat="48.67385" lon="2.49578">
        <ele>145.237</ele>
        <time>2018-04-18T10:22:29Z</time>
      </trkpt>
      <trkpt lat="48.67381" lon="2.49574">
        <ele>145.34</ele>
        <time>2018-04-18T10:22:36Z</time>
      </trkpt>
      <trkpt lat="48.67376" lon="2.4957">
        <ele>145.434</ele>
        <time>2018-04-18T10:22:44Z</time>
      </trkpt>
      <trkpt lat="48.67373" lon="2.49567">
        <ele>145.477</ele>
        <time>2018-04-18T10:22:49Z</time>
      </trkpt>
      <trkpt lat="48.67368" lon="2.49567">
        <ele>145.509</ele>
        <time>2018-04-18T10:22:53Z</time>
      </trkpt>
      <trkpt lat="48.67365" lon="2.49566">
        <ele>145.543</ele>
        <time>2018-04-18T10:22:57Z</time>
      </trkpt>
      <trkpt lat="48.67359" lon="2.49563">
        <ele>145.578</ele>
        <time>2018-04-18T10:23:01Z</time>
      </trkpt>
      <trkpt lat="48.67355" lon="2.49563">
        <ele>145.614</ele>
        <time>2018-04-18T10:23:05Z</time>
      </trkpt>
      <trkpt lat="48.67349" lon="2.49565">
        <ele>145.679</ele>
        <time>2018-04-18T10:23:12Z</time>
      </trkpt>
      <trkpt lat="48.67346" lon="2.49565">
        <ele>145.7</ele>
        <time>2018-04-18T10:23:14Z</time>
      </trkpt>
      <trkpt lat="48.67343" lon="2.49566">
        <ele>145.721</ele>
        <time>2018-04-18T10:23:16Z</time>
      </trkpt>
      <trkpt lat="48.6734" lon="2.49566">
        <ele>145.754</ele>
        <time>2018-04-18T10:23:19Z</time>
      </trkpt>
      <trkpt lat="48.67335" lon="2.49566">
        <ele>145.801</ele>
        <time>2018-04-18T10:23:23Z</time>
      </trkpt>
      <trkpt lat="48.6733" lon="2.49562">
        <ele>145.864</ele>
        <time>2018-04-18T10:23:28Z</time>
      </trkpt>
      <trkpt lat="48.67328" lon="2.4956">
        <ele>145.889</ele>
        <time>2018-04-18T10:23:30Z</time>
      </trkpt>
      <trkpt lat="48.67325" lon="2.49558">
        <ele>145.913</ele>
        <time>2018-04-18T10:23:32Z</time>
      </trkpt>
      <trkpt lat="48.67322" lon="2.49555">
        <ele>145.948</ele>
        <time>2018-04-18T10:23:35Z</time>
      </trkpt>
      <trkpt lat="48.67317" lon="2.49551">
        <ele>146.003</ele>
        <time>2018-04-18T10:23:40Z</time>
      </trkpt>
      <trkpt lat="48.67313" lon="2.49549">
        <ele>146.047</ele>
        <time>2018-04-18T10:23:44Z</time>
      </trkpt>
      <trkpt lat="48.67308" lon="2.49548">
        <ele>146.097</ele>
        <time>2018-04-18T10:23:49Z</time>
      </trkpt>
      <trkpt lat="48.67304" lon="2.49545">
        <ele>146.136</ele>
        <time>2018-04-18T10:23:53Z</time>
      </trkpt>
      <trkpt lat="48.67298" lon="2.49542">
        <ele>146.165</ele>
        <time>2018-04-18T10:23:56Z</time>
      </trkpt>
      <trkpt lat="48.67295" lon="2.49536">
        <ele>146.191</ele>
        <time>2018-04-18T10:23:59Z</time>
      </trkpt>
      <trkpt lat="48.67292" lon="2.49531">
        <ele>146.206</ele>
        <time>2018-04-18T10:24:01Z</time>
      </trkpt>
      <trkpt lat="48.67287" lon="2.49529">
        <ele>146.261</ele>
        <time>2018-04-18T10:24:10Z</time>
      </trkpt>
      <trkpt lat="48.67282" lon="2.49528">
        <ele>146.277</ele>
        <time>2018-04-18T10:24:13Z</time>
      </trkpt>
      <trkpt lat="48.67277" lon="2.49529">
        <ele>146.298</ele>
        <time>2018-04-18T10:24:16Z</time>
      </trkpt>
      <trkpt lat="48.67272" lon="2.49528">
        <ele>146.338</ele>
        <time>2018-04-18T10:24:21Z</time>
      </trkpt>
      <trkpt lat="48.6727" lon="2.49527">
        <ele>146.354</ele>
        <time>2018-04-18T10:24:23Z</time>
      </trkpt>
      <trkpt lat="48.67267" lon="2.49526">
        <ele>146.361</ele>
        <time>2018-04-18T10:24:24Z</time>
      </trkpt>
      <trkpt lat="48.67263" lon="2.49524">
        <ele>146.382</ele>
        <time>2018-04-18T10:24:27Z</time>
      </trkpt>
      <trkpt lat="48.67258" lon="2.49523">
        <ele>146.403</ele>
        <time>2018-04-18T10:24:30Z</time>
      </trkpt>
      <trkpt lat="48.67253" lon="2.49523">
        <ele>146.422</ele>
        <time>2018-04-18T10:24:33Z</time>
      </trkpt>
      <trkpt lat="48.67248" lon="2.49525">
        <ele>146.448</ele>
        <time>2018-04-18T10:24:37Z</time>
      </trkpt>
      <trkpt lat="48.67246" lon="2.49526">
        <ele>146.465</ele>
        <time>2018-04-18T10:24:40Z</time>
      </trkpt>
      <trkpt lat="48.67241" lon="2.49523">
        <ele>146.486</ele>
        <time>2018-04-18T10:24:44Z</time>
      </trkpt>
      <trkpt lat="48.67237" lon="2.49521">
        <ele>146.512</ele>
        <time>2018-04-18T10:24:49Z</time>
      </trkpt>
      <trkpt lat="48.67243" lon="2.49516">
        <ele>146.558</ele>
        <time>2018-04-18T10:24:57Z</time>
      </trkpt>
      <trkpt lat="48.6725" lon="2.49509">
        <ele>146.595</ele>
        <time>2018-04-18T10:25:04Z</time>
      </trkpt>
      <trkpt lat="48.67253" lon="2.49502">
        <ele>146.617</ele>
        <time>2018-04-18T10:25:08Z</time>
      </trkpt>
      <trkpt lat="48.67258" lon="2.49499">
        <ele>146.653</ele>
        <time>2018-04-18T10:25:13Z</time>
      </trkpt>
      <trkpt lat="48.67263" lon="2.49494">
        <ele>146.688</ele>
        <time>2018-04-18T10:25:17Z</time>
      </trkpt>
      <trkpt lat="48.67266" lon="2.49491">
        <ele>146.706</ele>
        <time>2018-04-18T10:25:19Z</time>
      </trkpt>
      <trkpt lat="48.67269" lon="2.49487">
        <ele>146.724</ele>
        <time>2018-04-18T10:25:21Z</time>
      </trkpt>
      <trkpt lat="48.67273" lon="2.49484">
        <ele>146.76</ele>
        <time>2018-04-18T10:25:25Z</time>
      </trkpt>
      <trkpt lat="48.67276" lon="2.49478">
        <ele>146.831</ele>
        <time>2018-04-18T10:25:32Z</time>
      </trkpt>
      <trkpt lat="48.67281" lon="2.49473">
        <ele>146.875</ele>
        <time>2018-04-18T10:25:37Z</time>
      </trkpt>
      <trkpt lat="48.67285" lon="2.49471">
        <ele>146.917</ele>
        <time>2018-04-18T10:25:42Z</time>
      </trkpt>
      <trkpt lat="48.6729" lon="2.49467">
        <ele>146.948</ele>
        <time>2018-04-18T10:25:46Z</time>
      </trkpt>
      <trkpt lat="48.67293" lon="2.49463">
        <ele>146.988</ele>
        <time>2018-04-18T10:25:51Z</time>
      </trkpt>
      <trkpt lat="48.67298" lon="2.49459">
        <ele>147.022</ele>
        <time>2018-04-18T10:25:55Z</time>
      </trkpt>
      <trkpt lat="48.67301" lon="2.49456">
        <ele>147.048</ele>
        <time>2018-04-18T10:25:58Z</time>
      </trkpt>
      <trkpt lat="48.67304" lon="2.49454">
        <ele>147.066</ele>
        <time>2018-04-18T10:26:00Z</time>
      </trkpt>
      <trkpt lat="48.67307" lon="2.49447">
        <ele>147.106</ele>
        <time>2018-04-18T10:26:04Z</time>
      </trkpt>
      <trkpt lat="48.67312" lon="2.49441">
        <ele>147.162</ele>
        <time>2018-04-18T10:26:09Z</time>
      </trkpt>
      <trkpt lat="48.67316" lon="2.49438">
        <ele>147.197</ele>
        <time>2018-04-18T10:26:12Z</time>
      </trkpt>
      <trkpt lat="48.67319" lon="2.49433">
        <ele>147.239</ele>
        <time>2018-04-18T10:26:16Z</time>
      </trkpt>
      <trkpt lat="48.67323" lon="2.49425">
        <ele>147.272</ele>
        <time>2018-04-18T10:26:20Z</time>
      </trkpt>
      <trkpt lat="48.67326" lon="2.49422">
        <ele>147.286</ele>
        <time>2018-04-18T10:26:22Z</time>
      </trkpt>
      <trkpt lat="48.67326" lon="2.4941">
        <ele>147.298</ele>
        <time>2018-04-18T10:26:24Z</time>
      </trkpt>
      <trkpt lat="48.67326" lon="2.49403">
        <ele>147.306</ele>
        <time>2018-04-18T10:26:26Z</time>
      </trkpt>
      <trkpt lat="48.67327" lon="2.49395">
        <ele>147.316</ele>
        <time>2018-04-18T10:26:29Z</time>
      </trkpt>
      <trkpt lat="48.67326" lon="2.49388">
        <ele>147.315</ele>
        <time>2018-04-18T10:26:35Z</time>
      </trkpt>
      <trkpt lat="48.67324" lon="2.49381">
        <ele>147.307</ele>
        <time>2018-04-18T10:26:40Z</time>
      </trkpt>
      <trkpt lat="48.67321" lon="2.49376">
        <ele>147.3</ele>
        <time>2018-04-18T10:26:45Z</time>
      </trkpt>
      <trkpt lat="48.67319" lon="2.49369">
        <ele>147.296</ele>
        <time>2018-04-18T10:26:51Z</time>
      </trkpt>
      <trkpt lat="48.67317" lon="2.49363">
        <ele>147.294</ele>
        <time>2018-04-18T10:26:54Z</time>
      </trkpt>
      <trkpt lat="48.67317" lon="2.49355">
        <ele>147.291</ele>
        <time>2018-04-18T10:26:58Z</time>
      </trkpt>
      <trkpt lat="48.67315" lon="2.49347">
        <ele>147.288</ele>
        <time>2018-04-18T10:27:02Z</time>
      </trkpt>
      <trkpt lat="48.67314" lon="2.49339">
        <ele>147.286</ele>
        <time>2018-04-18T10:27:06Z</time>
      </trkpt>
      <trkpt lat="48.67314" lon="2.49334">
        <ele>147.286</ele>
        <time>2018-04-18T10:27:09Z</time>
      </trkpt>
      <trkpt lat="48.67312" lon="2.49326">
        <ele>147.292</ele>
        <time>2018-04-18T10:27:15Z</time>
      </trkpt>
      <trkpt lat="48.6731" lon="2.49319">
        <ele>147.299</ele>
        <time>2018-04-18T10:27:19Z</time>
      </trkpt>
      <trkpt lat="48.67309" lon="2.49312">
        <ele>147.302</ele>
        <time>2018-04-18T10:27:24Z</time>
      </trkpt>
      <trkpt lat="48.67307" lon="2.49306">
        <ele>147.302</ele>
        <time>2018-04-18T10:27:28Z</time>
      </trkpt>
      <trkpt lat="48.67306" lon="2.49299">
        <ele>147.303</ele>
        <time>2018-04-18T10:27:33Z</time>
      </trkpt>
      <trkpt lat="48.67305" lon="2.49292">
        <ele>147.307</ele>
        <time>2018-04-18T10:27:37Z</time>
      </trkpt>
      <trkpt lat="48.67302" lon="2.49284">
        <ele>147.315</ele>
        <time>2018-04-18T10:27:41Z</time>
      </trkpt>
      <trkpt lat="48.67301" lon="2.49277">
        <ele>147.318</ele>
        <time>2018-04-18T10:27:45Z</time>
      </trkpt>
      <trkpt lat="48.67302" lon="2.49269">
        <ele>147.317</ele>
        <time>2018-04-18T10:27:48Z</time>
      </trkpt>
      <trkpt lat="48.67301" lon="2.4926">
        <ele>147.31</ele>
        <time>2018-04-18T10:27:51Z</time>
      </trkpt>
      <trkpt lat="48.673" lon="2.49253">
        <ele>147.294</ele>
        <time>2018-04-18T10:27:55Z</time>
      </trkpt>
      <trkpt lat="48.67299" lon="2.49248">
        <ele>147.271</ele>
        <time>2018-04-18T10:27:59Z</time>
      </trkpt>
      <trkpt lat="48.67299" lon="2.49244">
        <ele>147.251</ele>
        <time>2018-04-18T10:28:02Z</time>
      </trkpt>
      <trkpt lat="48.67297" lon="2.49237">
        <ele>147.225</ele>
        <time>2018-04-18T10:28:06Z</time>
      </trkpt>
      <trkpt lat="48.67296" lon="2.49233">
        <ele>147.209</ele>
        <time>2018-04-18T10:28:08Z</time>
      </trkpt>
      <trkpt lat="48.67295" lon="2.49228">
        <ele>147.189</ele>
        <time>2018-04-18T10:28:10Z</time>
      </trkpt>
      <trkpt lat="48.67293" lon="2.49223">
        <ele>147.165</ele>
        <time>2018-04-18T10:28:12Z</time>
      </trkpt>
      <trkpt lat="48.67291" lon="2.49216">
        <ele>147.071</ele>
        <time>2018-04-18T10:28:19Z</time>
      </trkpt>
      <trkpt lat="48.67289" lon="2.49209">
        <ele>147.023</ele>
        <time>2018-04-18T10:28:23Z</time>
      </trkpt>
      <trkpt lat="48.67289" lon="2.49201">
        <ele>146.987</ele>
        <time>2018-04-18T10:28:26Z</time>
      </trkpt>
      <trkpt lat="48.67288" lon="2.49192">
        <ele>146.953</ele>
        <time>2018-04-18T10:28:29Z</time>
      </trkpt>
      <trkpt lat="48.67287" lon="2.49185">
        <ele>146.92</ele>
        <time>2018-04-18T10:28:32Z</time>
      </trkpt>
      <trkpt lat="48.67282" lon="2.4918">
        <ele>146.888</ele>
        <time>2018-04-18T10:28:36Z</time>
      </trkpt>
      <trkpt lat="48.67279" lon="2.49175">
        <ele>146.869</ele>
        <time>2018-04-18T10:28:39Z</time>
      </trkpt>
      <trkpt lat="48.67276" lon="2.4917">
        <ele>146.851</ele>
        <time>2018-04-18T10:28:42Z</time>
      </trkpt>
      <trkpt lat="48.67275" lon="2.49162">
        <ele>146.828</ele>
        <time>2018-04-18T10:28:46Z</time>
      </trkpt>
      <trkpt lat="48.67276" lon="2.49155">
        <ele>146.811</ele>
        <time>2018-04-18T10:28:49Z</time>
      </trkpt>
      <trkpt lat="48.67274" lon="2.49146">
        <ele>146.783</ele>
        <time>2018-04-18T10:28:53Z</time>
      </trkpt>
      <trkpt lat="48.67272" lon="2.49138">
        <ele>146.725</ele>
        <time>2018-04-18T10:29:00Z</time>
      </trkpt>
      <trkpt lat="48.6727" lon="2.49131">
        <ele>146.678</ele>
        <time>2018-04-18T10:29:05Z</time>
      </trkpt>
      <trkpt lat="48.67269" lon="2.49122">
        <ele>146.648</ele>
        <time>2018-04-18T10:29:08Z</time>
      </trkpt>
      <trkpt lat="48.67269" lon="2.49115">
        <ele>146.627</ele>
        <time>2018-04-18T10:29:10Z</time>
      </trkpt>
      <trkpt lat="48.67267" lon="2.49108">
        <ele>146.583</ele>
        <time>2018-04-18T10:29:14Z</time>
      </trkpt>
      <trkpt lat="48.67264" lon="2.49098">
        <ele>146.513</ele>
        <time>2018-04-18T10:29:20Z</time>
      </trkpt>
      <trkpt lat="48.67262" lon="2.49092">
        <ele>146.476</ele>
        <time>2018-04-18T10:29:23Z</time>
      </trkpt>
      <trkpt lat="48.67261" lon="2.49089">
        <ele>146.451</ele>
        <time>2018-04-18T10:29:25Z</time>
      </trkpt>
      <trkpt lat="48.67258" lon="2.49083">
        <ele>146.401</ele>
        <time>2018-04-18T10:29:29Z</time>
      </trkpt>
      <trkpt lat="48.67255" lon="2.49076">
        <ele>146.365</ele>
        <time>2018-04-18T10:29:32Z</time>
      </trkpt>
      <trkpt lat="48.67253" lon="2.49072">
        <ele>146.343</ele>
        <time>2018-04-18T10:29:34Z</time>
      </trkpt>
      <trkpt lat="48.6725" lon="2.49066">
        <ele>146.301</ele>
        <time>2018-04-18T10:29:38Z</time>
      </trkpt>
      <trkpt lat="48.67247" lon="2.4906">
        <ele>146.244</ele>
        <time>2018-04-18T10:29:44Z</time>
      </trkpt>
      <trkpt lat="48.67245" lon="2.49056">
        <ele>146.228</ele>
        <time>2018-04-18T10:29:46Z</time>
      </trkpt>
      <trkpt lat="48.67243" lon="2.49048">
        <ele>146.199</ele>
        <time>2018-04-18T10:29:50Z</time>
      </trkpt>
      <trkpt lat="48.67242" lon="2.49044">
        <ele>146.169</ele>
        <time>2018-04-18T10:29:55Z</time>
      </trkpt>
      <trkpt lat="48.67241" lon="2.49041">
        <ele>146.159</ele>
        <time>2018-04-18T10:29:57Z</time>
      </trkpt>
      <trkpt lat="48.6724" lon="2.49037">
        <ele>146.153</ele>
        <time>2018-04-18T10:29:59Z</time>
      </trkpt>
      <trkpt lat="48.6724" lon="2.49028">
        <ele>146.142</ele>
        <time>2018-04-18T10:30:03Z</time>
      </trkpt>
      <trkpt lat="48.67239" lon="2.49022">
        <ele>146.135</ele>
        <time>2018-04-18T10:30:06Z</time>
      </trkpt>
      <trkpt lat="48.67237" lon="2.49014">
        <ele>146.124</ele>
        <time>2018-04-18T10:30:10Z</time>
      </trkpt>
      <trkpt lat="48.67235" lon="2.49009">
        <ele>146.115</ele>
        <time>2018-04-18T10:30:13Z</time>
      </trkpt>
      <trkpt lat="48.67233" lon="2.49002">
        <ele>146.101</ele>
        <time>2018-04-18T10:30:18Z</time>
      </trkpt>
      <trkpt lat="48.67232" lon="2.48995">
        <ele>146.094</ele>
        <time>2018-04-18T10:30:21Z</time>
      </trkpt>
      <trkpt lat="48.6723" lon="2.48988">
        <ele>146.085</ele>
        <time>2018-04-18T10:30:25Z</time>
      </trkpt>
      <trkpt lat="48.67228" lon="2.48983">
        <ele>146.08</ele>
        <time>2018-04-18T10:30:27Z</time>
      </trkpt>
      <trkpt lat="48.67226" lon="2.48978">
        <ele>146.076</ele>
        <time>2018-04-18T10:30:29Z</time>
      </trkpt>
      <trkpt lat="48.67225" lon="2.48971">
        <ele>146.07</ele>
        <time>2018-04-18T10:30:32Z</time>
      </trkpt>
      <trkpt lat="48.67224" lon="2.48966">
        <ele>146.062</ele>
        <time>2018-04-18T10:30:35Z</time>
      </trkpt>
      <trkpt lat="48.67224" lon="2.48959">
        <ele>146.045</ele>
        <time>2018-04-18T10:30:40Z</time>
      </trkpt>
      <trkpt lat="48.67222" lon="2.48951">
        <ele>146.032</ele>
        <time>2018-04-18T10:30:44Z</time>
      </trkpt>
      <trkpt lat="48.67218" lon="2.48944">
        <ele>146.015</ele>
        <time>2018-04-18T10:30:49Z</time>
      </trkpt>
      <trkpt lat="48.67216" lon="2.48941">
        <ele>146.009</ele>
        <time>2018-04-18T10:30:51Z</time>
      </trkpt>
      <trkpt lat="48.67215" lon="2.48938">
        <ele>146.004</ele>
        <time>2018-04-18T10:30:53Z</time>
      </trkpt>
      <trkpt lat="48.67214" lon="2.4893">
        <ele>145.993</ele>
        <time>2018-04-18T10:30:57Z</time>
      </trkpt>
      <trkpt lat="48.67212" lon="2.48921">
        <ele>145.975</ele>
        <time>2018-04-18T10:31:02Z</time>
      </trkpt>
      <trkpt lat="48.67211" lon="2.48915">
        <ele>145.967</ele>
        <time>2018-04-18T10:31:04Z</time>
      </trkpt>
      <trkpt lat="48.67208" lon="2.48909">
        <ele>145.947</ele>
        <time>2018-04-18T10:31:10Z</time>
      </trkpt>
      <trkpt lat="48.67207" lon="2.48902">
        <ele>145.934</ele>
        <time>2018-04-18T10:31:14Z</time>
      </trkpt>
      <trkpt lat="48.67206" lon="2.48895">
        <ele>145.923</ele>
        <time>2018-04-18T10:31:17Z</time>
      </trkpt>
      <trkpt lat="48.67203" lon="2.48889">
        <ele>145.911</ele>
        <time>2018-04-18T10:31:20Z</time>
      </trkpt>
      <trkpt lat="48.67203" lon="2.48881">
        <ele>145.889</ele>
        <time>2018-04-18T10:31:25Z</time>
      </trkpt>
      <trkpt lat="48.67202" lon="2.48874">
        <ele>145.873</ele>
        <time>2018-04-18T10:31:28Z</time>
      </trkpt>
      <trkpt lat="48.67202" lon="2.4887">
        <ele>145.861</ele>
        <time>2018-04-18T10:31:30Z</time>
      </trkpt>
      <trkpt lat="48.67202" lon="2.48863">
        <ele>145.825</ele>
        <time>2018-04-18T10:31:36Z</time>
      </trkpt>
      <trkpt lat="48.672" lon="2.48856">
        <ele>145.802</ele>
        <time>2018-04-18T10:31:40Z</time>
      </trkpt>
      <trkpt lat="48.67199" lon="2.48851">
        <ele>145.784</ele>
        <time>2018-04-18T10:31:43Z</time>
      </trkpt>
      <trkpt lat="48.67197" lon="2.48845">
        <ele>145.762</ele>
        <time>2018-04-18T10:31:47Z</time>
      </trkpt>
      <trkpt lat="48.67196" lon="2.48836">
        <ele>145.75</ele>
        <time>2018-04-18T10:31:50Z</time>
      </trkpt>
      <trkpt lat="48.67195" lon="2.48831">
        <ele>145.74</ele>
        <time>2018-04-18T10:31:53Z</time>
      </trkpt>
      <trkpt lat="48.67194" lon="2.48827">
        <ele>145.734</ele>
        <time>2018-04-18T10:31:55Z</time>
      </trkpt>
      <trkpt lat="48.67193" lon="2.48822">
        <ele>145.728</ele>
        <time>2018-04-18T10:31:57Z</time>
      </trkpt>
      <trkpt lat="48.67192" lon="2.48818">
        <ele>145.721</ele>
        <time>2018-04-18T10:31:59Z</time>
      </trkpt>
      <trkpt lat="48.67191" lon="2.48812">
        <ele>145.71</ele>
        <time>2018-04-18T10:32:02Z</time>
      </trkpt>
      <trkpt lat="48.67189" lon="2.48805">
        <ele>145.685</ele>
        <time>2018-04-18T10:32:08Z</time>
      </trkpt>
      <trkpt lat="48.67188" lon="2.48798">
        <ele>145.673</ele>
        <time>2018-04-18T10:32:11Z</time>
      </trkpt>
      <trkpt lat="48.67185" lon="2.48792">
        <ele>145.652</ele>
        <time>2018-04-18T10:32:16Z</time>
      </trkpt>
      <trkpt lat="48.67183" lon="2.48788">
        <ele>145.646</ele>
        <time>2018-04-18T10:32:18Z</time>
      </trkpt>
      <trkpt lat="48.67182" lon="2.48782">
        <ele>145.637</ele>
        <time>2018-04-18T10:32:21Z</time>
      </trkpt>
      <trkpt lat="48.67181" lon="2.48778">
        <ele>145.626</ele>
        <time>2018-04-18T10:32:24Z</time>
      </trkpt>
      <trkpt lat="48.67181" lon="2.48774">
        <ele>145.618</ele>
        <time>2018-04-18T10:32:26Z</time>
      </trkpt>
      <trkpt lat="48.6718" lon="2.48767">
        <ele>145.602</ele>
        <time>2018-04-18T10:32:30Z</time>
      </trkpt>
      <trkpt lat="48.67179" lon="2.48764">
        <ele>145.595</ele>
        <time>2018-04-18T10:32:32Z</time>
      </trkpt>
      <trkpt lat="48.67178" lon="2.48759">
        <ele>145.588</ele>
        <time>2018-04-18T10:32:35Z</time>
      </trkpt>
      <trkpt lat="48.67175" lon="2.48753">
        <ele>145.586</ele>
        <time>2018-04-18T10:32:41Z</time>
      </trkpt>
      <trkpt lat="48.67174" lon="2.48749">
        <ele>145.588</ele>
        <time>2018-04-18T10:32:43Z</time>
      </trkpt>
      <trkpt lat="48.67173" lon="2.48746">
        <ele>145.59</ele>
        <time>2018-04-18T10:32:45Z</time>
      </trkpt>
      <trkpt lat="48.67171" lon="2.48738">
        <ele>145.594</ele>
        <time>2018-04-18T10:32:48Z</time>
      </trkpt>
      <trkpt lat="48.67169" lon="2.48733">
        <ele>145.596</ele>
        <time>2018-04-18T10:32:50Z</time>
      </trkpt>
      <trkpt lat="48.67166" lon="2.48726">
        <ele>145.597</ele>
        <time>2018-04-18T10:32:54Z</time>
      </trkpt>
      <trkpt lat="48.67166" lon="2.48719">
        <ele>145.595</ele>
        <time>2018-04-18T10:32:58Z</time>
      </trkpt>
      <trkpt lat="48.67165" lon="2.48714">
        <ele>145.59</ele>
        <time>2018-04-18T10:33:01Z</time>
      </trkpt>
      <trkpt lat="48.67163" lon="2.48707">
        <ele>145.579</ele>
        <time>2018-04-18T10:33:05Z</time>
      </trkpt>
      <trkpt lat="48.67159" lon="2.487">
        <ele>145.573</ele>
        <time>2018-04-18T10:33:09Z</time>
      </trkpt>
      <trkpt lat="48.67157" lon="2.48696">
        <ele>145.567</ele>
        <time>2018-04-18T10:33:12Z</time>
      </trkpt>
      <trkpt lat="48.67152" lon="2.48693">
        <ele>145.555</ele>
        <time>2018-04-18T10:33:15Z</time>
      </trkpt>
      <trkpt lat="48.6715" lon="2.48692">
        <ele>145.543</ele>
        <time>2018-04-18T10:33:17Z</time>
      </trkpt>
      <trkpt lat="48.67147" lon="2.4869">
        <ele>145.528</ele>
        <time>2018-04-18T10:33:19Z</time>
      </trkpt>
      <trkpt lat="48.67144" lon="2.48687">
        <ele>145.506</ele>
        <time>2018-04-18T10:33:22Z</time>
      </trkpt>
      <trkpt lat="48.67142" lon="2.48686">
        <ele>145.491</ele>
        <time>2018-04-18T10:33:24Z</time>
      </trkpt>
      <trkpt lat="48.6714" lon="2.48684">
        <ele>145.472</ele>
        <time>2018-04-18T10:33:27Z</time>
      </trkpt>
      <trkpt lat="48.67135" lon="2.48682">
        <ele>145.44</ele>
        <time>2018-04-18T10:33:33Z</time>
      </trkpt>
      <trkpt lat="48.6713" lon="2.48682">
        <ele>145.421</ele>
        <time>2018-04-18T10:33:37Z</time>
      </trkpt>
      <trkpt lat="48.67125" lon="2.48678">
        <ele>145.392</ele>
        <time>2018-04-18T10:33:43Z</time>
      </trkpt>
      <trkpt lat="48.67123" lon="2.48677">
        <ele>145.382</ele>
        <time>2018-04-18T10:33:45Z</time>
      </trkpt>
      <trkpt lat="48.67118" lon="2.48673">
        <ele>145.364</ele>
        <time>2018-04-18T10:33:49Z</time>
      </trkpt>
      <trkpt lat="48.67113" lon="2.48671">
        <ele>145.335</ele>
        <time>2018-04-18T10:33:54Z</time>
      </trkpt>
      <trkpt lat="48.6711" lon="2.4867">
        <ele>145.321</ele>
        <time>2018-04-18T10:33:56Z</time>
      </trkpt>
      <trkpt lat="48.67106" lon="2.48668">
        <ele>145.29</ele>
        <time>2018-04-18T10:34:00Z</time>
      </trkpt>
      <trkpt lat="48.67101" lon="2.48668">
        <ele>145.235</ele>
        <time>2018-04-18T10:34:07Z</time>
      </trkpt>
      <trkpt lat="48.67098" lon="2.48668">
        <ele>145.22</ele>
        <time>2018-04-18T10:34:09Z</time>
      </trkpt>
      <trkpt lat="48.67094" lon="2.48669">
        <ele>145.191</ele>
        <time>2018-04-18T10:34:13Z</time>
      </trkpt>
      <trkpt lat="48.67088" lon="2.48666">
        <ele>145.159</ele>
        <time>2018-04-18T10:34:18Z</time>
      </trkpt>
      <trkpt lat="48.67083" lon="2.48669">
        <ele>145.117</ele>
        <time>2018-04-18T10:34:24Z</time>
      </trkpt>
      <trkpt lat="48.67078" lon="2.48672">
        <ele>145.082</ele>
        <time>2018-04-18T10:34:29Z</time>
      </trkpt>
      <trkpt lat="48.67075" lon="2.48674">
        <ele>145.06</ele>
        <time>2018-04-18T10:34:32Z</time>
      </trkpt>
      <trkpt lat="48.67072" lon="2.48676">
        <ele>145.039</ele>
        <time>2018-04-18T10:34:35Z</time>
      </trkpt>
      <trkpt lat="48.67066" lon="2.48677">
        <ele>145.006</ele>
        <time>2018-04-18T10:34:40Z</time>
      </trkpt>
      <trkpt lat="48.67064" lon="2.48677">
        <ele>144.994</ele>
        <time>2018-04-18T10:34:42Z</time>
      </trkpt>
      <trkpt lat="48.67061" lon="2.48678">
        <ele>144.972</ele>
        <time>2018-04-18T10:34:46Z</time>
      </trkpt>
      <trkpt lat="48.67056" lon="2.48675">
        <ele>144.943</ele>
        <time>2018-04-18T10:34:51Z</time>
      </trkpt>
      <trkpt lat="48.67053" lon="2.48673">
        <ele>144.925</ele>
        <time>2018-04-18T10:34:54Z</time>
      </trkpt>
      <trkpt lat="48.67049" lon="2.48676">
        <ele>144.866</ele>
        <time>2018-04-18T10:35:03Z</time>
      </trkpt>
      <trkpt lat="48.67058" lon="2.48666">
        <ele>144.096</ele>
        <time>2018-04-18T11:25:22Z</time>
      </trkpt>
      <trkpt lat="48.6706" lon="2.4866">
        <ele>143.973</ele>
        <time>2018-04-18T11:25:35Z</time>
      </trkpt>
      <trkpt lat="48.67061" lon="2.48655">
        <ele>143.905</ele>
        <time>2018-04-18T11:25:41Z</time>
      </trkpt>
      <trkpt lat="48.67062" lon="2.48647">
        <ele>143.811</ele>
        <time>2018-04-18T11:25:49Z</time>
      </trkpt>
      <trkpt lat="48.67063" lon="2.48639">
        <ele>143.751</ele>
        <time>2018-04-18T11:25:54Z</time>
      </trkpt>
      <trkpt lat="48.67064" lon="2.48632">
        <ele>143.69</ele>
        <time>2018-04-18T11:25:59Z</time>
      </trkpt>
      <trkpt lat="48.67064" lon="2.48626">
        <ele>143.644</ele>
        <time>2018-04-18T11:26:03Z</time>
      </trkpt>
      <trkpt lat="48.67064" lon="2.4862">
        <ele>143.576</ele>
        <time>2018-04-18T11:26:09Z</time>
      </trkpt>
      <trkpt lat="48.67064" lon="2.48616">
        <ele>143.531</ele>
        <time>2018-04-18T11:26:13Z</time>
      </trkpt>
      <trkpt lat="48.67072" lon="2.48616">
        <ele>143.315</ele>
        <time>2018-04-18T11:26:30Z</time>
      </trkpt>
      <trkpt lat="48.67077" lon="2.48616">
        <ele>143.222</ele>
        <time>2018-04-18T11:26:36Z</time>
      </trkpt>
      <trkpt lat="48.67082" lon="2.48617">
        <ele>143.173</ele>
        <time>2018-04-18T11:26:39Z</time>
      </trkpt>
      <trkpt lat="48.67087" lon="2.48617">
        <ele>143.125</ele>
        <time>2018-04-18T11:26:42Z</time>
      </trkpt>
      <trkpt lat="48.67089" lon="2.48618">
        <ele>143.062</ele>
        <time>2018-04-18T11:26:46Z</time>
      </trkpt>
      <trkpt lat="48.67093" lon="2.4862">
        <ele>142.951</ele>
        <time>2018-04-18T11:26:53Z</time>
      </trkpt>
      <trkpt lat="48.67098" lon="2.48622">
        <ele>142.854</ele>
        <time>2018-04-18T11:26:59Z</time>
      </trkpt>
      <trkpt lat="48.67103" lon="2.48623">
        <ele>142.77</ele>
        <time>2018-04-18T11:27:04Z</time>
      </trkpt>
      <trkpt lat="48.67106" lon="2.48625">
        <ele>142.683</ele>
        <time>2018-04-18T11:27:09Z</time>
      </trkpt>
      <trkpt lat="48.67109" lon="2.48626">
        <ele>142.63</ele>
        <time>2018-04-18T11:27:12Z</time>
      </trkpt>
      <trkpt lat="48.67113" lon="2.48629">
        <ele>142.52</ele>
        <time>2018-04-18T11:27:18Z</time>
      </trkpt>
      <trkpt lat="48.67116" lon="2.48631">
        <ele>142.467</ele>
        <time>2018-04-18T11:27:21Z</time>
      </trkpt>
      <trkpt lat="48.67122" lon="2.48631">
        <ele>142.345</ele>
        <time>2018-04-18T11:27:28Z</time>
      </trkpt>
      <trkpt lat="48.67125" lon="2.48627">
        <ele>142.27</ele>
        <time>2018-04-18T11:27:32Z</time>
      </trkpt>
      <trkpt lat="48.67127" lon="2.48625">
        <ele>142.23</ele>
        <time>2018-04-18T11:27:34Z</time>
      </trkpt>
      <trkpt lat="48.6713" lon="2.48622">
        <ele>142.189</ele>
        <time>2018-04-18T11:27:36Z</time>
      </trkpt>
      <trkpt lat="48.67132" lon="2.48619">
        <ele>142.147</ele>
        <time>2018-04-18T11:27:38Z</time>
      </trkpt>
      <trkpt lat="48.67135" lon="2.48616">
        <ele>142.106</ele>
        <time>2018-04-18T11:27:40Z</time>
      </trkpt>
      <trkpt lat="48.67138" lon="2.4861">
        <ele>142.025</ele>
        <time>2018-04-18T11:27:44Z</time>
      </trkpt>
      <trkpt lat="48.67138" lon="2.48603">
        <ele>141.947</ele>
        <time>2018-04-18T11:27:48Z</time>
      </trkpt>
      <trkpt lat="48.67136" lon="2.48595">
        <ele>141.876</ele>
        <time>2018-04-18T11:27:52Z</time>
      </trkpt>
      <trkpt lat="48.67135" lon="2.48588">
        <ele>141.808</ele>
        <time>2018-04-18T11:27:56Z</time>
      </trkpt>
      <trkpt lat="48.67133" lon="2.48581">
        <ele>141.73</ele>
        <time>2018-04-18T11:28:01Z</time>
      </trkpt>
      <trkpt lat="48.6713" lon="2.48574">
        <ele>141.673</ele>
        <time>2018-04-18T11:28:05Z</time>
      </trkpt>
      <trkpt lat="48.6713" lon="2.48567">
        <ele>141.598</ele>
        <time>2018-04-18T11:28:11Z</time>
      </trkpt>
      <trkpt lat="48.67129" lon="2.48563">
        <ele>141.577</ele>
        <time>2018-04-18T11:28:13Z</time>
      </trkpt>
      <trkpt lat="48.67127" lon="2.48556">
        <ele>141.534</ele>
        <time>2018-04-18T11:28:17Z</time>
      </trkpt>
      <trkpt lat="48.67127" lon="2.48553">
        <ele>141.514</ele>
        <time>2018-04-18T11:28:19Z</time>
      </trkpt>
      <trkpt lat="48.67124" lon="2.48547">
        <ele>141.475</ele>
        <time>2018-04-18T11:28:23Z</time>
      </trkpt>
      <trkpt lat="48.67121" lon="2.48541">
        <ele>141.435</ele>
        <time>2018-04-18T11:28:28Z</time>
      </trkpt>
      <trkpt lat="48.67118" lon="2.48536">
        <ele>141.408</ele>
        <time>2018-04-18T11:28:32Z</time>
      </trkpt>
      <trkpt lat="48.67116" lon="2.48528">
        <ele>141.385</ele>
        <time>2018-04-18T11:28:36Z</time>
      </trkpt>
      <trkpt lat="48.67114" lon="2.4852">
        <ele>141.366</ele>
        <time>2018-04-18T11:28:40Z</time>
      </trkpt>
      <trkpt lat="48.67114" lon="2.48515">
        <ele>141.353</ele>
        <time>2018-04-18T11:28:43Z</time>
      </trkpt>
      <trkpt lat="48.67113" lon="2.48509">
        <ele>141.335</ele>
        <time>2018-04-18T11:28:47Z</time>
      </trkpt>
      <trkpt lat="48.67112" lon="2.48502">
        <ele>141.312</ele>
        <time>2018-04-18T11:28:52Z</time>
      </trkpt>
      <trkpt lat="48.67111" lon="2.48493">
        <ele>141.297</ele>
        <time>2018-04-18T11:28:56Z</time>
      </trkpt>
      <trkpt lat="48.6711" lon="2.48485">
        <ele>141.278</ele>
        <time>2018-04-18T11:29:01Z</time>
      </trkpt>
      <trkpt lat="48.67108" lon="2.48478">
        <ele>141.267</ele>
        <time>2018-04-18T11:29:04Z</time>
      </trkpt>
      <trkpt lat="48.67107" lon="2.4847">
        <ele>141.25</ele>
        <time>2018-04-18T11:29:09Z</time>
      </trkpt>
      <trkpt lat="48.67107" lon="2.48463">
        <ele>141.235</ele>
        <time>2018-04-18T11:29:13Z</time>
      </trkpt>
      <trkpt lat="48.67106" lon="2.48455">
        <ele>141.216</ele>
        <time>2018-04-18T11:29:18Z</time>
      </trkpt>
      <trkpt lat="48.67105" lon="2.4845">
        <ele>141.202</ele>
        <time>2018-04-18T11:29:21Z</time>
      </trkpt>
      <trkpt lat="48.67104" lon="2.48446">
        <ele>141.191</ele>
        <time>2018-04-18T11:29:23Z</time>
      </trkpt>
      <trkpt lat="48.67102" lon="2.4844">
        <ele>141.17</ele>
        <time>2018-04-18T11:29:27Z</time>
      </trkpt>
      <trkpt lat="48.67101" lon="2.48436">
        <ele>141.157</ele>
        <time>2018-04-18T11:29:30Z</time>
      </trkpt>
      <trkpt lat="48.67097" lon="2.48428">
        <ele>141.143</ele>
        <time>2018-04-18T11:29:35Z</time>
      </trkpt>
      <trkpt lat="48.67096" lon="2.48421">
        <ele>141.131</ele>
        <time>2018-04-18T11:29:40Z</time>
      </trkpt>
      <trkpt lat="48.67096" lon="2.48414">
        <ele>141.123</ele>
        <time>2018-04-18T11:29:45Z</time>
      </trkpt>
      <trkpt lat="48.67092" lon="2.48408">
        <ele>141.12</ele>
        <time>2018-04-18T11:29:50Z</time>
      </trkpt>
      <trkpt lat="48.6709" lon="2.48405">
        <ele>141.12</ele>
        <time>2018-04-18T11:29:52Z</time>
      </trkpt>
      <trkpt lat="48.67088" lon="2.48397">
        <ele>141.12</ele>
        <time>2018-04-18T11:29:57Z</time>
      </trkpt>
      <trkpt lat="48.67086" lon="2.48391">
        <ele>141.117</ele>
        <time>2018-04-18T11:30:00Z</time>
      </trkpt>
      <trkpt lat="48.67084" lon="2.48382">
        <ele>141.109</ele>
        <time>2018-04-18T11:30:06Z</time>
      </trkpt>
      <trkpt lat="48.67083" lon="2.48375">
        <ele>141.101</ele>
        <time>2018-04-18T11:30:14Z</time>
      </trkpt>
      <trkpt lat="48.6708" lon="2.48367">
        <ele>141.101</ele>
        <time>2018-04-18T11:30:19Z</time>
      </trkpt>
      <trkpt lat="48.67079" lon="2.48359">
        <ele>141.098</ele>
        <time>2018-04-18T11:30:22Z</time>
      </trkpt>
      <trkpt lat="48.67079" lon="2.48355">
        <ele>141.095</ele>
        <time>2018-04-18T11:30:24Z</time>
      </trkpt>
      <trkpt lat="48.67077" lon="2.48349">
        <ele>141.084</ele>
        <time>2018-04-18T11:30:28Z</time>
      </trkpt>
      <trkpt lat="48.67076" lon="2.48345">
        <ele>141.077</ele>
        <time>2018-04-18T11:30:30Z</time>
      </trkpt>
      <trkpt lat="48.67073" lon="2.48339">
        <ele>141.056</ele>
        <time>2018-04-18T11:30:36Z</time>
      </trkpt>
      <trkpt lat="48.67071" lon="2.48334">
        <ele>141.05</ele>
        <time>2018-04-18T11:30:38Z</time>
      </trkpt>
      <trkpt lat="48.6707" lon="2.4833">
        <ele>141.043</ele>
        <time>2018-04-18T11:30:40Z</time>
      </trkpt>
      <trkpt lat="48.67068" lon="2.48326">
        <ele>141.039</ele>
        <time>2018-04-18T11:30:41Z</time>
      </trkpt>
      <trkpt lat="48.67066" lon="2.48319">
        <ele>141.027</ele>
        <time>2018-04-18T11:30:44Z</time>
      </trkpt>
      <trkpt lat="48.67066" lon="2.48314">
        <ele>140.99</ele>
        <time>2018-04-18T11:30:52Z</time>
      </trkpt>
      <trkpt lat="48.67064" lon="2.48308">
        <ele>140.94</ele>
        <time>2018-04-18T11:31:03Z</time>
      </trkpt>
      <trkpt lat="48.67064" lon="2.48299">
        <ele>140.925</ele>
        <time>2018-04-18T11:31:06Z</time>
      </trkpt>
      <trkpt lat="48.67064" lon="2.48295">
        <ele>140.915</ele>
        <time>2018-04-18T11:31:09Z</time>
      </trkpt>
      <trkpt lat="48.67065" lon="2.48287">
        <ele>140.897</ele>
        <time>2018-04-18T11:31:16Z</time>
      </trkpt>
      <trkpt lat="48.67063" lon="2.48281">
        <ele>140.888</ele>
        <time>2018-04-18T11:31:22Z</time>
      </trkpt>
      <trkpt lat="48.6706" lon="2.48276">
        <ele>140.877</ele>
        <time>2018-04-18T11:31:35Z</time>
      </trkpt>
      <trkpt lat="48.67058" lon="2.48269">
        <ele>140.86</ele>
        <time>2018-04-18T11:31:42Z</time>
      </trkpt>
      <trkpt lat="48.67057" lon="2.48266">
        <ele>140.856</ele>
        <time>2018-04-18T11:31:44Z</time>
      </trkpt>
      <trkpt lat="48.67056" lon="2.48262">
        <ele>140.853</ele>
        <time>2018-04-18T11:31:47Z</time>
      </trkpt>
      <trkpt lat="48.67054" lon="2.48255">
        <ele>140.855</ele>
        <time>2018-04-18T11:31:52Z</time>
      </trkpt>
      <trkpt lat="48.67051" lon="2.48243">
        <ele>140.855</ele>
        <time>2018-04-18T11:31:58Z</time>
      </trkpt>
      <trkpt lat="48.67048" lon="2.48236">
        <ele>140.856</ele>
        <time>2018-04-18T11:32:00Z</time>
      </trkpt>
      <trkpt lat="48.67047" lon="2.4823">
        <ele>140.859</ele>
        <time>2018-04-18T11:32:04Z</time>
      </trkpt>
      <trkpt lat="48.67047" lon="2.48226">
        <ele>140.861</ele>
        <time>2018-04-18T11:32:06Z</time>
      </trkpt>
      <trkpt lat="48.67046" lon="2.48219">
        <ele>140.867</ele>
        <time>2018-04-18T11:32:12Z</time>
      </trkpt>
      <trkpt lat="48.67045" lon="2.48212">
        <ele>140.872</ele>
        <time>2018-04-18T11:32:16Z</time>
      </trkpt>
      <trkpt lat="48.67044" lon="2.48208">
        <ele>140.874</ele>
        <time>2018-04-18T11:32:18Z</time>
      </trkpt>
      <trkpt lat="48.67041" lon="2.48202">
        <ele>140.877</ele>
        <time>2018-04-18T11:32:22Z</time>
      </trkpt>
      <trkpt lat="48.6704" lon="2.48195">
        <ele>140.876</ele>
        <time>2018-04-18T11:32:26Z</time>
      </trkpt>
      <trkpt lat="48.67037" lon="2.48188">
        <ele>140.863</ele>
        <time>2018-04-18T11:32:32Z</time>
      </trkpt>
      <trkpt lat="48.67036" lon="2.48181">
        <ele>140.847</ele>
        <time>2018-04-18T11:32:37Z</time>
      </trkpt>
      <trkpt lat="48.67034" lon="2.48172">
        <ele>140.83</ele>
        <time>2018-04-18T11:32:42Z</time>
      </trkpt>
      <trkpt lat="48.67033" lon="2.48166">
        <ele>140.825</ele>
        <time>2018-04-18T11:32:44Z</time>
      </trkpt>
      <trkpt lat="48.67031" lon="2.48159">
        <ele>140.82</ele>
        <time>2018-04-18T11:32:48Z</time>
      </trkpt>
      <trkpt lat="48.6703" lon="2.48155">
        <ele>140.818</ele>
        <time>2018-04-18T11:32:50Z</time>
      </trkpt>
      <trkpt lat="48.6703" lon="2.48155">
        <ele>140.818</ele>
        <time>2018-04-18T11:32:56Z</time>
      </trkpt>
      <trkpt lat="48.6703" lon="2.48155">
        <ele>140.818</ele>
        <time>2018-04-18T11:32:57Z</time>
      </trkpt>
      <trkpt lat="48.67031" lon="2.48147">
        <ele>140.823</ele>
        <time>2018-04-18T11:33:00Z</time>
      </trkpt>
      <trkpt lat="48.67029" lon="2.4814">
        <ele>140.85</ele>
        <time>2018-04-18T11:33:09Z</time>
      </trkpt>
      <trkpt lat="48.67028" lon="2.48136">
        <ele>140.86</ele>
        <time>2018-04-18T11:33:11Z</time>
      </trkpt>
      <trkpt lat="48.67027" lon="2.48128">
        <ele>140.876</ele>
        <time>2018-04-18T11:33:14Z</time>
      </trkpt>
      <trkpt lat="48.67025" lon="2.48122">
        <ele>140.901</ele>
        <time>2018-04-18T11:33:18Z</time>
      </trkpt>
      <trkpt lat="48.67023" lon="2.48114">
        <ele>140.919</ele>
        <time>2018-04-18T11:33:21Z</time>
      </trkpt>
      <trkpt lat="48.67022" lon="2.48109">
        <ele>140.931</ele>
        <time>2018-04-18T11:33:23Z</time>
      </trkpt>
      <trkpt lat="48.6702" lon="2.48103">
        <ele>140.95</ele>
        <time>2018-04-18T11:33:26Z</time>
      </trkpt>
      <trkpt lat="48.67019" lon="2.48096">
        <ele>140.971</ele>
        <time>2018-04-18T11:33:29Z</time>
      </trkpt>
      <trkpt lat="48.67019" lon="2.48088">
        <ele>141.011</ele>
        <time>2018-04-18T11:33:34Z</time>
      </trkpt>
      <trkpt lat="48.67019" lon="2.48083">
        <ele>141.051</ele>
        <time>2018-04-18T11:33:38Z</time>
      </trkpt>
      <trkpt lat="48.67017" lon="2.48074">
        <ele>141.118</ele>
        <time>2018-04-18T11:33:44Z</time>
      </trkpt>
      <trkpt lat="48.67015" lon="2.48068">
        <ele>141.151</ele>
        <time>2018-04-18T11:33:47Z</time>
      </trkpt>
      <trkpt lat="48.67014" lon="2.48064">
        <ele>141.172</ele>
        <time>2018-04-18T11:33:49Z</time>
      </trkpt>
      <trkpt lat="48.67013" lon="2.48057">
        <ele>141.202</ele>
        <time>2018-04-18T11:33:52Z</time>
      </trkpt>
      <trkpt lat="48.67011" lon="2.4805">
        <ele>141.24</ele>
        <time>2018-04-18T11:33:56Z</time>
      </trkpt>
      <trkpt lat="48.6701" lon="2.48047">
        <ele>141.258</ele>
        <time>2018-04-18T11:33:58Z</time>
      </trkpt>
      <trkpt lat="48.67008" lon="2.48042">
        <ele>141.285</ele>
        <time>2018-04-18T11:34:01Z</time>
      </trkpt>
      <trkpt lat="48.67005" lon="2.48035">
        <ele>141.329</ele>
        <time>2018-04-18T11:34:06Z</time>
      </trkpt>
      <trkpt lat="48.67002" lon="2.48029">
        <ele>141.353</ele>
        <time>2018-04-18T11:34:09Z</time>
      </trkpt>
      <trkpt lat="48.67" lon="2.48026">
        <ele>141.374</ele>
        <time>2018-04-18T11:34:12Z</time>
      </trkpt>
      <trkpt lat="48.66998" lon="2.48018">
        <ele>141.403</ele>
        <time>2018-04-18T11:34:17Z</time>
      </trkpt>
      <trkpt lat="48.66998" lon="2.4801">
        <ele>141.423</ele>
        <time>2018-04-18T11:34:21Z</time>
      </trkpt>
      <trkpt lat="48.66996" lon="2.48002">
        <ele>141.443</ele>
        <time>2018-04-18T11:34:26Z</time>
      </trkpt>
      <trkpt lat="48.66994" lon="2.47997">
        <ele>141.451</ele>
        <time>2018-04-18T11:34:28Z</time>
      </trkpt>
      <trkpt lat="48.66993" lon="2.4799">
        <ele>141.472</ele>
        <time>2018-04-18T11:34:33Z</time>
      </trkpt>
      <trkpt lat="48.6699" lon="2.47983">
        <ele>141.487</ele>
        <time>2018-04-18T11:34:38Z</time>
      </trkpt>
      <trkpt lat="48.66988" lon="2.47975">
        <ele>141.497</ele>
        <time>2018-04-18T11:34:41Z</time>
      </trkpt>
      <trkpt lat="48.66986" lon="2.47968">
        <ele>141.508</ele>
        <time>2018-04-18T11:34:44Z</time>
      </trkpt>
      <trkpt lat="48.66985" lon="2.47964">
        <ele>141.516</ele>
        <time>2018-04-18T11:34:46Z</time>
      </trkpt>
      <trkpt lat="48.66983" lon="2.47956">
        <ele>141.534</ele>
        <time>2018-04-18T11:34:51Z</time>
      </trkpt>
      <trkpt lat="48.66983" lon="2.47953">
        <ele>141.54</ele>
        <time>2018-04-18T11:34:53Z</time>
      </trkpt>
      <trkpt lat="48.66982" lon="2.47946">
        <ele>141.548</ele>
        <time>2018-04-18T11:34:57Z</time>
      </trkpt>
      <trkpt lat="48.6698" lon="2.47937">
        <ele>141.551</ele>
        <time>2018-04-18T11:35:01Z</time>
      </trkpt>
      <trkpt lat="48.66977" lon="2.4793">
        <ele>141.548</ele>
        <time>2018-04-18T11:35:04Z</time>
      </trkpt>
      <trkpt lat="48.66976" lon="2.47926">
        <ele>141.545</ele>
        <time>2018-04-18T11:35:07Z</time>
      </trkpt>
      <trkpt lat="48.66974" lon="2.47917">
        <ele>141.541</ele>
        <time>2018-04-18T11:35:11Z</time>
      </trkpt>
      <trkpt lat="48.66973" lon="2.4791">
        <ele>141.539</ele>
        <time>2018-04-18T11:35:17Z</time>
      </trkpt>
      <trkpt lat="48.66971" lon="2.47903">
        <ele>141.543</ele>
        <time>2018-04-18T11:35:24Z</time>
      </trkpt>
      <trkpt lat="48.66968" lon="2.47895">
        <ele>141.545</ele>
        <time>2018-04-18T11:35:28Z</time>
      </trkpt>
      <trkpt lat="48.66967" lon="2.47888">
        <ele>141.546</ele>
        <time>2018-04-18T11:35:32Z</time>
      </trkpt>
      <trkpt lat="48.66964" lon="2.47881">
        <ele>141.551</ele>
        <time>2018-04-18T11:35:37Z</time>
      </trkpt>
      <trkpt lat="48.66963" lon="2.47877">
        <ele>141.552</ele>
        <time>2018-04-18T11:35:41Z</time>
      </trkpt>
      <trkpt lat="48.66961" lon="2.47872">
        <ele>141.547</ele>
        <time>2018-04-18T11:35:46Z</time>
      </trkpt>
      <trkpt lat="48.6696" lon="2.47865">
        <ele>141.54</ele>
        <time>2018-04-18T11:35:50Z</time>
      </trkpt>
      <trkpt lat="48.6696" lon="2.4786">
        <ele>141.536</ele>
        <time>2018-04-18T11:35:52Z</time>
      </trkpt>
      <trkpt lat="48.66957" lon="2.47853">
        <ele>141.527</ele>
        <time>2018-04-18T11:35:56Z</time>
      </trkpt>
      <trkpt lat="48.66956" lon="2.47848">
        <ele>141.518</ele>
        <time>2018-04-18T11:36:00Z</time>
      </trkpt>
      <trkpt lat="48.66952" lon="2.47841">
        <ele>141.513</ele>
        <time>2018-04-18T11:36:03Z</time>
      </trkpt>
      <trkpt lat="48.66951" lon="2.47838">
        <ele>141.508</ele>
        <time>2018-04-18T11:36:06Z</time>
      </trkpt>
      <trkpt lat="48.66949" lon="2.47831">
        <ele>141.507</ele>
        <time>2018-04-18T11:36:10Z</time>
      </trkpt>
      <trkpt lat="48.66948" lon="2.47828">
        <ele>141.508</ele>
        <time>2018-04-18T11:36:12Z</time>
      </trkpt>
      <trkpt lat="48.66947" lon="2.47819">
        <ele>141.514</ele>
        <time>2018-04-18T11:36:15Z</time>
      </trkpt>
      <trkpt lat="48.66947" lon="2.47814">
        <ele>141.521</ele>
        <time>2018-04-18T11:36:17Z</time>
      </trkpt>
      <trkpt lat="48.66945" lon="2.47808">
        <ele>141.544</ele>
        <time>2018-04-18T11:36:22Z</time>
      </trkpt>
      <trkpt lat="48.66943" lon="2.478">
        <ele>141.563</ele>
        <time>2018-04-18T11:36:27Z</time>
      </trkpt>
      <trkpt lat="48.66943" lon="2.47793">
        <ele>141.572</ele>
        <time>2018-04-18T11:36:30Z</time>
      </trkpt>
      <trkpt lat="48.66942" lon="2.47786">
        <ele>141.587</ele>
        <time>2018-04-18T11:36:35Z</time>
      </trkpt>
      <trkpt lat="48.6694" lon="2.47779">
        <ele>141.601</ele>
        <time>2018-04-18T11:36:39Z</time>
      </trkpt>
      <trkpt lat="48.66936" lon="2.47772">
        <ele>141.614</ele>
        <time>2018-04-18T11:36:43Z</time>
      </trkpt>
      <trkpt lat="48.66933" lon="2.47766">
        <ele>141.619</ele>
        <time>2018-04-18T11:36:48Z</time>
      </trkpt>
      <trkpt lat="48.6693" lon="2.47758">
        <ele>141.613</ele>
        <time>2018-04-18T11:36:51Z</time>
      </trkpt>
      <trkpt lat="48.66929" lon="2.47753">
        <ele>141.598</ele>
        <time>2018-04-18T11:36:55Z</time>
      </trkpt>
      <trkpt lat="48.66927" lon="2.47745">
        <ele>141.58</ele>
        <time>2018-04-18T11:36:58Z</time>
      </trkpt>
      <trkpt lat="48.66926" lon="2.4774">
        <ele>141.561</ele>
        <time>2018-04-18T11:37:01Z</time>
      </trkpt>
      <trkpt lat="48.66924" lon="2.47733">
        <ele>141.536</ele>
        <time>2018-04-18T11:37:05Z</time>
      </trkpt>
      <trkpt lat="48.66922" lon="2.47728">
        <ele>141.495</ele>
        <time>2018-04-18T11:37:10Z</time>
      </trkpt>
      <trkpt lat="48.66921" lon="2.47723">
        <ele>141.479</ele>
        <time>2018-04-18T11:37:12Z</time>
      </trkpt>
      <trkpt lat="48.6692" lon="2.47718">
        <ele>141.454</ele>
        <time>2018-04-18T11:37:15Z</time>
      </trkpt>
      <trkpt lat="48.66918" lon="2.47711">
        <ele>141.412</ele>
        <time>2018-04-18T11:37:20Z</time>
      </trkpt>
      <trkpt lat="48.66917" lon="2.47704">
        <ele>141.378</ele>
        <time>2018-04-18T11:37:24Z</time>
      </trkpt>
      <trkpt lat="48.66917" lon="2.47698">
        <ele>141.353</ele>
        <time>2018-04-18T11:37:27Z</time>
      </trkpt>
      <trkpt lat="48.66917" lon="2.47693">
        <ele>141.336</ele>
        <time>2018-04-18T11:37:29Z</time>
      </trkpt>
      <trkpt lat="48.66917" lon="2.47689">
        <ele>141.321</ele>
        <time>2018-04-18T11:37:31Z</time>
      </trkpt>
      <trkpt lat="48.66916" lon="2.47683">
        <ele>141.291</ele>
        <time>2018-04-18T11:37:35Z</time>
      </trkpt>
      <trkpt lat="48.66913" lon="2.47677">
        <ele>141.261</ele>
        <time>2018-04-18T11:37:39Z</time>
      </trkpt>
      <trkpt lat="48.66912" lon="2.4767">
        <ele>141.231</ele>
        <time>2018-04-18T11:37:43Z</time>
      </trkpt>
      <trkpt lat="48.66911" lon="2.47664">
        <ele>141.208</ele>
        <time>2018-04-18T11:37:46Z</time>
      </trkpt>
      <trkpt lat="48.66908" lon="2.47657">
        <ele>141.178</ele>
        <time>2018-04-18T11:37:50Z</time>
      </trkpt>
      <trkpt lat="48.66905" lon="2.47649">
        <ele>141.156</ele>
        <time>2018-04-18T11:37:53Z</time>
      </trkpt>
      <trkpt lat="48.66903" lon="2.47646">
        <ele>141.131</ele>
        <time>2018-04-18T11:37:56Z</time>
      </trkpt>
      <trkpt lat="48.66901" lon="2.4764">
        <ele>141.094</ele>
        <time>2018-04-18T11:38:00Z</time>
      </trkpt>
      <trkpt lat="48.66898" lon="2.47634">
        <ele>141.045</ele>
        <time>2018-04-18T11:38:05Z</time>
      </trkpt>
      <trkpt lat="48.66896" lon="2.47627">
        <ele>140.996</ele>
        <time>2018-04-18T11:38:10Z</time>
      </trkpt>
      <trkpt lat="48.66894" lon="2.47619">
        <ele>140.967</ele>
        <time>2018-04-18T11:38:13Z</time>
      </trkpt>
      <trkpt lat="48.66893" lon="2.47615">
        <ele>140.948</ele>
        <time>2018-04-18T11:38:15Z</time>
      </trkpt>
      <trkpt lat="48.66892" lon="2.47608">
        <ele>140.909</ele>
        <time>2018-04-18T11:38:19Z</time>
      </trkpt>
      <trkpt lat="48.66893" lon="2.476">
        <ele>140.881</ele>
        <time>2018-04-18T11:38:22Z</time>
      </trkpt>
      <trkpt lat="48.66893" lon="2.47597">
        <ele>140.862</ele>
        <time>2018-04-18T11:38:24Z</time>
      </trkpt>
      <trkpt lat="48.66891" lon="2.4759">
        <ele>140.817</ele>
        <time>2018-04-18T11:38:29Z</time>
      </trkpt>
      <trkpt lat="48.66889" lon="2.47583">
        <ele>140.791</ele>
        <time>2018-04-18T11:38:32Z</time>
      </trkpt>
      <trkpt lat="48.66888" lon="2.4758">
        <ele>140.775</ele>
        <time>2018-04-18T11:38:34Z</time>
      </trkpt>
      <trkpt lat="48.66887" lon="2.47576">
        <ele>140.752</ele>
        <time>2018-04-18T11:38:37Z</time>
      </trkpt>
      <trkpt lat="48.66889" lon="2.47569">
        <ele>140.727</ele>
        <time>2018-04-18T11:38:41Z</time>
      </trkpt>
      <trkpt lat="48.66892" lon="2.47564">
        <ele>140.707</ele>
        <time>2018-04-18T11:38:45Z</time>
      </trkpt>
      <trkpt lat="48.66896" lon="2.47559">
        <ele>140.695</ele>
        <time>2018-04-18T11:38:50Z</time>
      </trkpt>
      <trkpt lat="48.66899" lon="2.47556">
        <ele>140.689</ele>
        <time>2018-04-18T11:38:53Z</time>
      </trkpt>
      <trkpt lat="48.66902" lon="2.47552">
        <ele>140.683</ele>
        <time>2018-04-18T11:38:56Z</time>
      </trkpt>
      <trkpt lat="48.66905" lon="2.47549">
        <ele>140.678</ele>
        <time>2018-04-18T11:38:59Z</time>
      </trkpt>
      <trkpt lat="48.66909" lon="2.47545">
        <ele>140.673</ele>
        <time>2018-04-18T11:39:03Z</time>
      </trkpt>
      <trkpt lat="48.66914" lon="2.4754">
        <ele>140.673</ele>
        <time>2018-04-18T11:39:07Z</time>
      </trkpt>
      <trkpt lat="48.66918" lon="2.47534">
        <ele>140.678</ele>
        <time>2018-04-18T11:39:10Z</time>
      </trkpt>
      <trkpt lat="48.66922" lon="2.47531">
        <ele>140.689</ele>
        <time>2018-04-18T11:39:15Z</time>
      </trkpt>
      <trkpt lat="48.66927" lon="2.47527">
        <ele>140.703</ele>
        <time>2018-04-18T11:39:21Z</time>
      </trkpt>
      <trkpt lat="48.66931" lon="2.47521">
        <ele>140.706</ele>
        <time>2018-04-18T11:39:24Z</time>
      </trkpt>
      <trkpt lat="48.66935" lon="2.47515">
        <ele>140.705</ele>
        <time>2018-04-18T11:39:27Z</time>
      </trkpt>
      <trkpt lat="48.66938" lon="2.47511">
        <ele>140.703</ele>
        <time>2018-04-18T11:39:32Z</time>
      </trkpt>
      <trkpt lat="48.6694" lon="2.47508">
        <ele>140.702</ele>
        <time>2018-04-18T11:39:35Z</time>
      </trkpt>
      <trkpt lat="48.66942" lon="2.47505">
        <ele>140.702</ele>
        <time>2018-04-18T11:39:39Z</time>
      </trkpt>
      <trkpt lat="48.66945" lon="2.47501">
        <ele>140.701</ele>
        <time>2018-04-18T11:39:42Z</time>
      </trkpt>
      <trkpt lat="48.66949" lon="2.47499">
        <ele>140.706</ele>
        <time>2018-04-18T11:39:46Z</time>
      </trkpt>
      <trkpt lat="48.66954" lon="2.47494">
        <ele>140.716</ele>
        <time>2018-04-18T11:39:49Z</time>
      </trkpt>
      <trkpt lat="48.66957" lon="2.47491">
        <ele>140.737</ele>
        <time>2018-04-18T11:39:53Z</time>
      </trkpt>
      <trkpt lat="48.6696" lon="2.47488">
        <ele>140.75</ele>
        <time>2018-04-18T11:39:55Z</time>
      </trkpt>
      <trkpt lat="48.66965" lon="2.47485">
        <ele>140.776</ele>
        <time>2018-04-18T11:39:58Z</time>
      </trkpt>
      <trkpt lat="48.66968" lon="2.47482">
        <ele>140.848</ele>
        <time>2018-04-18T11:40:04Z</time>
      </trkpt>
      <trkpt lat="48.66971" lon="2.47477">
        <ele>140.904</ele>
        <time>2018-04-18T11:40:08Z</time>
      </trkpt>
      <trkpt lat="48.66976" lon="2.47471">
        <ele>140.965</ele>
        <time>2018-04-18T11:40:12Z</time>
      </trkpt>
      <trkpt lat="48.6698" lon="2.47467">
        <ele>141.014</ele>
        <time>2018-04-18T11:40:15Z</time>
      </trkpt>
      <trkpt lat="48.66985" lon="2.47464">
        <ele>141.085</ele>
        <time>2018-04-18T11:40:19Z</time>
      </trkpt>
      <trkpt lat="48.66988" lon="2.47459">
        <ele>141.201</ele>
        <time>2018-04-18T11:40:25Z</time>
      </trkpt>
      <trkpt lat="48.6699" lon="2.47455">
        <ele>141.26</ele>
        <time>2018-04-18T11:40:28Z</time>
      </trkpt>
      <trkpt lat="48.66992" lon="2.47452">
        <ele>141.299</ele>
        <time>2018-04-18T11:40:30Z</time>
      </trkpt>
      <trkpt lat="48.66997" lon="2.47448">
        <ele>141.374</ele>
        <time>2018-04-18T11:40:34Z</time>
      </trkpt>
      <trkpt lat="48.67002" lon="2.47443">
        <ele>141.429</ele>
        <time>2018-04-18T11:40:37Z</time>
      </trkpt>
      <trkpt lat="48.67004" lon="2.47441">
        <ele>141.466</ele>
        <time>2018-04-18T11:40:39Z</time>
      </trkpt>
      <trkpt lat="48.67009" lon="2.47436">
        <ele>141.54</ele>
        <time>2018-04-18T11:40:43Z</time>
      </trkpt>
      <trkpt lat="48.6701" lon="2.47429">
        <ele>141.608</ele>
        <time>2018-04-18T11:40:47Z</time>
      </trkpt>
      <trkpt lat="48.67015" lon="2.47424">
        <ele>141.668</ele>
        <time>2018-04-18T11:40:51Z</time>
      </trkpt>
      <trkpt lat="48.6702" lon="2.4742">
        <ele>141.723</ele>
        <time>2018-04-18T11:40:55Z</time>
      </trkpt>
      <trkpt lat="48.67024" lon="2.47414">
        <ele>141.798</ele>
        <time>2018-04-18T11:41:01Z</time>
      </trkpt>
      <trkpt lat="48.67028" lon="2.4741">
        <ele>141.852</ele>
        <time>2018-04-18T11:41:06Z</time>
      </trkpt>
      <trkpt lat="48.6703" lon="2.47408">
        <ele>141.873</ele>
        <time>2018-04-18T11:41:08Z</time>
      </trkpt>
      <trkpt lat="48.67032" lon="2.47406">
        <ele>141.893</ele>
        <time>2018-04-18T11:41:10Z</time>
      </trkpt>
      <trkpt lat="48.67036" lon="2.47402">
        <ele>141.932</ele>
        <time>2018-04-18T11:41:14Z</time>
      </trkpt>
      <trkpt lat="48.6704" lon="2.47399">
        <ele>141.969</ele>
        <time>2018-04-18T11:41:18Z</time>
      </trkpt>
      <trkpt lat="48.67043" lon="2.47396">
        <ele>141.996</ele>
        <time>2018-04-18T11:41:21Z</time>
      </trkpt>
      <trkpt lat="48.67046" lon="2.47394">
        <ele>142.029</ele>
        <time>2018-04-18T11:41:25Z</time>
      </trkpt>
      <trkpt lat="48.67049" lon="2.4739">
        <ele>142.058</ele>
        <time>2018-04-18T11:41:29Z</time>
      </trkpt>
      <trkpt lat="48.67052" lon="2.47388">
        <ele>142.071</ele>
        <time>2018-04-18T11:41:31Z</time>
      </trkpt>
      <trkpt lat="48.67054" lon="2.47386">
        <ele>142.082</ele>
        <time>2018-04-18T11:41:33Z</time>
      </trkpt>
      <trkpt lat="48.67058" lon="2.47382">
        <ele>142.098</ele>
        <time>2018-04-18T11:41:36Z</time>
      </trkpt>
      <trkpt lat="48.6706" lon="2.47379">
        <ele>142.109</ele>
        <time>2018-04-18T11:41:38Z</time>
      </trkpt>
      <trkpt lat="48.67065" lon="2.47376">
        <ele>142.13</ele>
        <time>2018-04-18T11:41:42Z</time>
      </trkpt>
      <trkpt lat="48.67069" lon="2.47371">
        <ele>142.146</ele>
        <time>2018-04-18T11:41:45Z</time>
      </trkpt>
      <trkpt lat="48.67071" lon="2.47367">
        <ele>142.157</ele>
        <time>2018-04-18T11:41:47Z</time>
      </trkpt>
      <trkpt lat="48.67076" lon="2.47364">
        <ele>142.185</ele>
        <time>2018-04-18T11:41:52Z</time>
      </trkpt>
      <trkpt lat="48.6708" lon="2.47362">
        <ele>142.206</ele>
        <time>2018-04-18T11:41:56Z</time>
      </trkpt>
      <trkpt lat="48.67084" lon="2.47358">
        <ele>142.234</ele>
        <time>2018-04-18T11:42:02Z</time>
      </trkpt>
      <trkpt lat="48.67086" lon="2.47355">
        <ele>142.247</ele>
        <time>2018-04-18T11:42:05Z</time>
      </trkpt>
      <trkpt lat="48.6709" lon="2.47351">
        <ele>142.268</ele>
        <time>2018-04-18T11:42:10Z</time>
      </trkpt>
      <trkpt lat="48.67095" lon="2.47345">
        <ele>142.278</ele>
        <time>2018-04-18T11:42:13Z</time>
      </trkpt>
      <trkpt lat="48.67098" lon="2.47342">
        <ele>142.285</ele>
        <time>2018-04-18T11:42:15Z</time>
      </trkpt>
      <trkpt lat="48.67101" lon="2.47339">
        <ele>142.292</ele>
        <time>2018-04-18T11:42:18Z</time>
      </trkpt>
      <trkpt lat="48.67105" lon="2.47336">
        <ele>142.303</ele>
        <time>2018-04-18T11:42:22Z</time>
      </trkpt>
      <trkpt lat="48.67109" lon="2.47331">
        <ele>142.324</ele>
        <time>2018-04-18T11:42:29Z</time>
      </trkpt>
      <trkpt lat="48.67113" lon="2.47326">
        <ele>142.342</ele>
        <time>2018-04-18T11:42:34Z</time>
      </trkpt>
      <trkpt lat="48.67116" lon="2.47322">
        <ele>142.35</ele>
        <time>2018-04-18T11:42:36Z</time>
      </trkpt>
      <trkpt lat="48.67118" lon="2.4732">
        <ele>142.36</ele>
        <time>2018-04-18T11:42:38Z</time>
      </trkpt>
      <trkpt lat="48.6712" lon="2.47318">
        <ele>142.37</ele>
        <time>2018-04-18T11:42:40Z</time>
      </trkpt>
      <trkpt lat="48.67125" lon="2.47315">
        <ele>142.409</ele>
        <time>2018-04-18T11:42:46Z</time>
      </trkpt>
      <trkpt lat="48.6713" lon="2.47311">
        <ele>142.424</ele>
        <time>2018-04-18T11:42:49Z</time>
      </trkpt>
      <trkpt lat="48.67134" lon="2.47307">
        <ele>142.443</ele>
        <time>2018-04-18T11:42:54Z</time>
      </trkpt>
      <trkpt lat="48.67136" lon="2.47304">
        <ele>142.446</ele>
        <time>2018-04-18T11:42:55Z</time>
      </trkpt>
      <trkpt lat="48.67139" lon="2.47299">
        <ele>142.46</ele>
        <time>2018-04-18T11:42:59Z</time>
      </trkpt>
      <trkpt lat="48.67143" lon="2.47294">
        <ele>142.499</ele>
        <time>2018-04-18T11:43:08Z</time>
      </trkpt>
      <trkpt lat="48.67146" lon="2.4729">
        <ele>142.509</ele>
        <time>2018-04-18T11:43:10Z</time>
      </trkpt>
      <trkpt lat="48.6715" lon="2.47285">
        <ele>142.524</ele>
        <time>2018-04-18T11:43:13Z</time>
      </trkpt>
      <trkpt lat="48.67154" lon="2.47281">
        <ele>142.542</ele>
        <time>2018-04-18T11:43:16Z</time>
      </trkpt>
      <trkpt lat="48.67158" lon="2.47276">
        <ele>142.562</ele>
        <time>2018-04-18T11:43:19Z</time>
      </trkpt>
      <trkpt lat="48.67162" lon="2.47272">
        <ele>142.595</ele>
        <time>2018-04-18T11:43:23Z</time>
      </trkpt>
      <trkpt lat="48.67166" lon="2.47268">
        <ele>142.622</ele>
        <time>2018-04-18T11:43:26Z</time>
      </trkpt>
      <trkpt lat="48.67169" lon="2.47265">
        <ele>142.641</ele>
        <time>2018-04-18T11:43:28Z</time>
      </trkpt>
      <trkpt lat="48.67172" lon="2.47263">
        <ele>142.672</ele>
        <time>2018-04-18T11:43:31Z</time>
      </trkpt>
      <trkpt lat="48.67175" lon="2.47259">
        <ele>142.725</ele>
        <time>2018-04-18T11:43:36Z</time>
      </trkpt>
      <trkpt lat="48.67177" lon="2.47256">
        <ele>142.758</ele>
        <time>2018-04-18T11:43:39Z</time>
      </trkpt>
      <trkpt lat="48.6718" lon="2.47251">
        <ele>142.829</ele>
        <time>2018-04-18T11:43:46Z</time>
      </trkpt>
      <trkpt lat="48.67185" lon="2.47248">
        <ele>142.864</ele>
        <time>2018-04-18T11:43:50Z</time>
      </trkpt>
      <trkpt lat="48.67189" lon="2.47248">
        <ele>142.928</ele>
        <time>2018-04-18T11:43:56Z</time>
      </trkpt>
      <trkpt lat="48.67194" lon="2.47243">
        <ele>142.96</ele>
        <time>2018-04-18T11:43:59Z</time>
      </trkpt>
      <trkpt lat="48.67198" lon="2.4724">
        <ele>142.992</ele>
        <time>2018-04-18T11:44:02Z</time>
      </trkpt>
      <trkpt lat="48.67202" lon="2.47234">
        <ele>143.024</ele>
        <time>2018-04-18T11:44:05Z</time>
      </trkpt>
      <trkpt lat="48.67204" lon="2.47231">
        <ele>143.035</ele>
        <time>2018-04-18T11:44:06Z</time>
      </trkpt>
      <trkpt lat="48.67206" lon="2.47228">
        <ele>143.045</ele>
        <time>2018-04-18T11:44:07Z</time>
      </trkpt>
      <trkpt lat="48.67212" lon="2.47223">
        <ele>143.074</ele>
        <time>2018-04-18T11:44:10Z</time>
      </trkpt>
      <trkpt lat="48.67215" lon="2.47221">
        <ele>143.101</ele>
        <time>2018-04-18T11:44:13Z</time>
      </trkpt>
      <trkpt lat="48.67217" lon="2.47219">
        <ele>143.13</ele>
        <time>2018-04-18T11:44:16Z</time>
      </trkpt>
      <trkpt lat="48.6722" lon="2.47214">
        <ele>143.179</ele>
        <time>2018-04-18T11:44:21Z</time>
      </trkpt>
      <trkpt lat="48.67222" lon="2.47211">
        <ele>143.199</ele>
        <time>2018-04-18T11:44:23Z</time>
      </trkpt>
      <trkpt lat="48.67226" lon="2.47207">
        <ele>143.232</ele>
        <time>2018-04-18T11:44:26Z</time>
      </trkpt>
      <trkpt lat="48.6723" lon="2.47202">
        <ele>143.296</ele>
        <time>2018-04-18T11:44:32Z</time>
      </trkpt>
      <trkpt lat="48.67232" lon="2.47198">
        <ele>143.33</ele>
        <time>2018-04-18T11:44:35Z</time>
      </trkpt>
      <trkpt lat="48.67236" lon="2.47194">
        <ele>143.389</ele>
        <time>2018-04-18T11:44:40Z</time>
      </trkpt>
      <trkpt lat="48.67238" lon="2.47193">
        <ele>143.413</ele>
        <time>2018-04-18T11:44:42Z</time>
      </trkpt>
      <trkpt lat="48.67243" lon="2.4719">
        <ele>143.453</ele>
        <time>2018-04-18T11:44:45Z</time>
      </trkpt>
      <trkpt lat="48.67248" lon="2.47186">
        <ele>143.512</ele>
        <time>2018-04-18T11:44:49Z</time>
      </trkpt>
      <trkpt lat="48.67253" lon="2.47183">
        <ele>143.56</ele>
        <time>2018-04-18T11:44:52Z</time>
      </trkpt>
      <trkpt lat="48.67257" lon="2.47179">
        <ele>143.608</ele>
        <time>2018-04-18T11:44:55Z</time>
      </trkpt>
      <trkpt lat="48.67261" lon="2.47175">
        <ele>143.689</ele>
        <time>2018-04-18T11:45:00Z</time>
      </trkpt>
      <trkpt lat="48.67266" lon="2.47171">
        <ele>143.751</ele>
        <time>2018-04-18T11:45:04Z</time>
      </trkpt>
      <trkpt lat="48.67268" lon="2.47169">
        <ele>143.782</ele>
        <time>2018-04-18T11:45:06Z</time>
      </trkpt>
      <trkpt lat="48.6727" lon="2.47166">
        <ele>143.813</ele>
        <time>2018-04-18T11:45:08Z</time>
      </trkpt>
      <trkpt lat="48.67272" lon="2.47159">
        <ele>143.877</ele>
        <time>2018-04-18T11:45:12Z</time>
      </trkpt>
      <trkpt lat="48.67274" lon="2.47154">
        <ele>143.926</ele>
        <time>2018-04-18T11:45:15Z</time>
      </trkpt>
      <trkpt lat="48.67277" lon="2.47148">
        <ele>143.993</ele>
        <time>2018-04-18T11:45:19Z</time>
      </trkpt>
      <trkpt lat="48.67279" lon="2.47142">
        <ele>144.043</ele>
        <time>2018-04-18T11:45:22Z</time>
      </trkpt>
      <trkpt lat="48.67281" lon="2.47137">
        <ele>144.091</ele>
        <time>2018-04-18T11:45:25Z</time>
      </trkpt>
      <trkpt lat="48.67285" lon="2.47131">
        <ele>144.183</ele>
        <time>2018-04-18T11:45:31Z</time>
      </trkpt>
      <trkpt lat="48.67287" lon="2.47124">
        <ele>144.233</ele>
        <time>2018-04-18T11:45:35Z</time>
      </trkpt>
      <trkpt lat="48.67288" lon="2.47119">
        <ele>144.253</ele>
        <time>2018-04-18T11:45:37Z</time>
      </trkpt>
      <trkpt lat="48.67289" lon="2.47116">
        <ele>144.277</ele>
        <time>2018-04-18T11:45:40Z</time>
      </trkpt>
      <trkpt lat="48.67294" lon="2.47113">
        <ele>144.307</ele>
        <time>2018-04-18T11:45:45Z</time>
      </trkpt>
      <trkpt lat="48.67299" lon="2.47112">
        <ele>144.341</ele>
        <time>2018-04-18T11:45:51Z</time>
      </trkpt>
      <trkpt lat="48.67304" lon="2.47112">
        <ele>144.366</ele>
        <time>2018-04-18T11:45:55Z</time>
      </trkpt>
      <trkpt lat="48.67308" lon="2.47111">
        <ele>144.386</ele>
        <time>2018-04-18T11:45:58Z</time>
      </trkpt>
      <trkpt lat="48.67312" lon="2.4711">
        <ele>144.407</ele>
        <time>2018-04-18T11:46:01Z</time>
      </trkpt>
      <trkpt lat="48.67317" lon="2.47109">
        <ele>144.442</ele>
        <time>2018-04-18T11:46:05Z</time>
      </trkpt>
      <trkpt lat="48.67322" lon="2.47109">
        <ele>144.486</ele>
        <time>2018-04-18T11:46:10Z</time>
      </trkpt>
      <trkpt lat="48.67327" lon="2.47107">
        <ele>144.514</ele>
        <time>2018-04-18T11:46:13Z</time>
      </trkpt>
      <trkpt lat="48.67331" lon="2.47102">
        <ele>144.532</ele>
        <time>2018-04-18T11:46:15Z</time>
      </trkpt>
      <trkpt lat="48.67335" lon="2.47099">
        <ele>144.571</ele>
        <time>2018-04-18T11:46:19Z</time>
      </trkpt>
      <trkpt lat="48.67339" lon="2.47094">
        <ele>144.638</ele>
        <time>2018-04-18T11:46:26Z</time>
      </trkpt>
      <trkpt lat="48.67344" lon="2.47088">
        <ele>144.667</ele>
        <time>2018-04-18T11:46:29Z</time>
      </trkpt>
      <trkpt lat="48.67346" lon="2.47085">
        <ele>144.685</ele>
        <time>2018-04-18T11:46:31Z</time>
      </trkpt>
      <trkpt lat="48.6735" lon="2.47081">
        <ele>144.72</ele>
        <time>2018-04-18T11:46:35Z</time>
      </trkpt>
      <trkpt lat="48.67353" lon="2.47079">
        <ele>144.737</ele>
        <time>2018-04-18T11:46:37Z</time>
      </trkpt>
      <trkpt lat="48.67356" lon="2.47075">
        <ele>144.755</ele>
        <time>2018-04-18T11:46:39Z</time>
      </trkpt>
      <trkpt lat="48.67359" lon="2.47073">
        <ele>144.775</ele>
        <time>2018-04-18T11:46:41Z</time>
      </trkpt>
      <trkpt lat="48.67361" lon="2.47071">
        <ele>144.794</ele>
        <time>2018-04-18T11:46:43Z</time>
      </trkpt>
      <trkpt lat="48.67365" lon="2.47066">
        <ele>144.85</ele>
        <time>2018-04-18T11:46:48Z</time>
      </trkpt>
      <trkpt lat="48.67367" lon="2.47063">
        <ele>144.886</ele>
        <time>2018-04-18T11:46:51Z</time>
      </trkpt>
      <trkpt lat="48.67369" lon="2.4706">
        <ele>144.923</ele>
        <time>2018-04-18T11:46:54Z</time>
      </trkpt>
      <trkpt lat="48.67371" lon="2.47056">
        <ele>144.962</ele>
        <time>2018-04-18T11:46:57Z</time>
      </trkpt>
      <trkpt lat="48.67375" lon="2.4705">
        <ele>145.017</ele>
        <time>2018-04-18T11:47:01Z</time>
      </trkpt>
      <trkpt lat="48.67379" lon="2.47047">
        <ele>145.089</ele>
        <time>2018-04-18T11:47:06Z</time>
      </trkpt>
      <trkpt lat="48.67381" lon="2.47044">
        <ele>145.171</ele>
        <time>2018-04-18T11:47:11Z</time>
      </trkpt>
      <trkpt lat="48.67386" lon="2.47038">
        <ele>145.242</ele>
        <time>2018-04-18T11:47:15Z</time>
      </trkpt>
      <trkpt lat="48.6739" lon="2.47032">
        <ele>145.296</ele>
        <time>2018-04-18T11:47:18Z</time>
      </trkpt>
      <trkpt lat="48.67394" lon="2.4703">
        <ele>145.414</ele>
        <time>2018-04-18T11:47:24Z</time>
      </trkpt>
      <trkpt lat="48.67399" lon="2.47026">
        <ele>145.518</ele>
        <time>2018-04-18T11:47:29Z</time>
      </trkpt>
      <trkpt lat="48.67403" lon="2.47023">
        <ele>145.598</ele>
        <time>2018-04-18T11:47:33Z</time>
      </trkpt>
      <trkpt lat="48.67407" lon="2.4702">
        <ele>145.706</ele>
        <time>2018-04-18T11:47:39Z</time>
      </trkpt>
      <trkpt lat="48.67412" lon="2.47016">
        <ele>145.754</ele>
        <time>2018-04-18T11:47:42Z</time>
      </trkpt>
      <trkpt lat="48.67417" lon="2.47011">
        <ele>145.798</ele>
        <time>2018-04-18T11:47:45Z</time>
      </trkpt>
      <trkpt lat="48.6742" lon="2.47008">
        <ele>145.825</ele>
        <time>2018-04-18T11:47:47Z</time>
      </trkpt>
      <trkpt lat="48.67423" lon="2.47006">
        <ele>145.851</ele>
        <time>2018-04-18T11:47:49Z</time>
      </trkpt>
      <trkpt lat="48.67428" lon="2.46999">
        <ele>145.898</ele>
        <time>2018-04-18T11:47:53Z</time>
      </trkpt>
      <trkpt lat="48.6743" lon="2.46996">
        <ele>145.922</ele>
        <time>2018-04-18T11:47:55Z</time>
      </trkpt>
      <trkpt lat="48.67434" lon="2.46992">
        <ele>145.97</ele>
        <time>2018-04-18T11:47:59Z</time>
      </trkpt>
      <trkpt lat="48.67438" lon="2.46988">
        <ele>146.005</ele>
        <time>2018-04-18T11:48:02Z</time>
      </trkpt>
      <trkpt lat="48.67441" lon="2.46986">
        <ele>146.026</ele>
        <time>2018-04-18T11:48:04Z</time>
      </trkpt>
      <trkpt lat="48.67445" lon="2.4698">
        <ele>146.074</ele>
        <time>2018-04-18T11:48:09Z</time>
      </trkpt>
      <trkpt lat="48.67447" lon="2.46976">
        <ele>146.099</ele>
        <time>2018-04-18T11:48:12Z</time>
      </trkpt>
      <trkpt lat="48.67448" lon="2.46974">
        <ele>146.146</ele>
        <time>2018-04-18T11:48:20Z</time>
      </trkpt>
      <trkpt lat="48.67454" lon="2.46964">
        <ele>146.25</ele>
        <time>2018-04-18T11:50:42Z</time>
      </trkpt>
      <trkpt lat="48.67456" lon="2.46961">
        <ele>146.249</ele>
        <time>2018-04-18T11:50:44Z</time>
      </trkpt>
      <trkpt lat="48.67458" lon="2.46958">
        <ele>146.245</ele>
        <time>2018-04-18T11:50:47Z</time>
      </trkpt>
      <trkpt lat="48.67462" lon="2.46955">
        <ele>146.239</ele>
        <time>2018-04-18T11:50:52Z</time>
      </trkpt>
      <trkpt lat="48.67465" lon="2.46953">
        <ele>146.233</ele>
        <time>2018-04-18T11:50:55Z</time>
      </trkpt>
      <trkpt lat="48.67468" lon="2.46952">
        <ele>146.23</ele>
        <time>2018-04-18T11:50:57Z</time>
      </trkpt>
      <trkpt lat="48.67471" lon="2.46951">
        <ele>146.227</ele>
        <time>2018-04-18T11:51:00Z</time>
      </trkpt>
      <trkpt lat="48.67473" lon="2.46949">
        <ele>146.225</ele>
        <time>2018-04-18T11:51:03Z</time>
      </trkpt>
      <trkpt lat="48.67477" lon="2.46943">
        <ele>146.225</ele>
        <time>2018-04-18T11:51:10Z</time>
      </trkpt>
      <trkpt lat="48.67479" lon="2.46935">
        <ele>146.221</ele>
        <time>2018-04-18T11:51:16Z</time>
      </trkpt>
      <trkpt lat="48.67484" lon="2.46929">
        <ele>146.214</ele>
        <time>2018-04-18T11:51:24Z</time>
      </trkpt>
      <trkpt lat="48.67486" lon="2.46926">
        <ele>146.211</ele>
        <time>2018-04-18T11:51:26Z</time>
      </trkpt>
      <trkpt lat="48.6749" lon="2.46923">
        <ele>146.207</ele>
        <time>2018-04-18T11:51:29Z</time>
      </trkpt>
      <trkpt lat="48.67494" lon="2.46921">
        <ele>146.201</ele>
        <time>2018-04-18T11:51:33Z</time>
      </trkpt>
      <trkpt lat="48.67498" lon="2.46918">
        <ele>146.195</ele>
        <time>2018-04-18T11:51:38Z</time>
      </trkpt>
      <trkpt lat="48.67503" lon="2.46914">
        <ele>146.189</ele>
        <time>2018-04-18T11:51:43Z</time>
      </trkpt>
      <trkpt lat="48.67507" lon="2.46911">
        <ele>146.185</ele>
        <time>2018-04-18T11:51:48Z</time>
      </trkpt>
      <trkpt lat="48.67511" lon="2.46907">
        <ele>146.182</ele>
        <time>2018-04-18T11:51:51Z</time>
      </trkpt>
      <trkpt lat="48.67514" lon="2.46903">
        <ele>146.178</ele>
        <time>2018-04-18T11:51:53Z</time>
      </trkpt>
      <trkpt lat="48.67517" lon="2.469">
        <ele>146.173</ele>
        <time>2018-04-18T11:51:55Z</time>
      </trkpt>
      <trkpt lat="48.67521" lon="2.46894">
        <ele>146.162</ele>
        <time>2018-04-18T11:51:59Z</time>
      </trkpt>
      <trkpt lat="48.67525" lon="2.46891">
        <ele>146.151</ele>
        <time>2018-04-18T11:52:02Z</time>
      </trkpt>
      <trkpt lat="48.67527" lon="2.46889">
        <ele>146.139</ele>
        <time>2018-04-18T11:52:05Z</time>
      </trkpt>
      <trkpt lat="48.6753" lon="2.46887">
        <ele>146.13</ele>
        <time>2018-04-18T11:52:07Z</time>
      </trkpt>
      <trkpt lat="48.67534" lon="2.46884">
        <ele>146.106</ele>
        <time>2018-04-18T11:52:12Z</time>
      </trkpt>
      <trkpt lat="48.67537" lon="2.46881">
        <ele>146.096</ele>
        <time>2018-04-18T11:52:14Z</time>
      </trkpt>
      <trkpt lat="48.67541" lon="2.46879">
        <ele>146.086</ele>
        <time>2018-04-18T11:52:16Z</time>
      </trkpt>
      <trkpt lat="48.67544" lon="2.46873">
        <ele>146.045</ele>
        <time>2018-04-18T11:52:22Z</time>
      </trkpt>
      <trkpt lat="48.67548" lon="2.46868">
        <ele>146.014</ele>
        <time>2018-04-18T11:52:26Z</time>
      </trkpt>
      <trkpt lat="48.67553" lon="2.46865">
        <ele>145.98</ele>
        <time>2018-04-18T11:52:31Z</time>
      </trkpt>
      <trkpt lat="48.67557" lon="2.46861">
        <ele>145.961</ele>
        <time>2018-04-18T11:52:35Z</time>
      </trkpt>
      <trkpt lat="48.67561" lon="2.46857">
        <ele>145.95</ele>
        <time>2018-04-18T11:52:39Z</time>
      </trkpt>
      <trkpt lat="48.67564" lon="2.46854">
        <ele>145.945</ele>
        <time>2018-04-18T11:52:42Z</time>
      </trkpt>
      <trkpt lat="48.67568" lon="2.46848">
        <ele>145.94</ele>
        <time>2018-04-18T11:52:45Z</time>
      </trkpt>
      <trkpt lat="48.67571" lon="2.46845">
        <ele>145.936</ele>
        <time>2018-04-18T11:52:47Z</time>
      </trkpt>
      <trkpt lat="48.67576" lon="2.46841">
        <ele>145.929</ele>
        <time>2018-04-18T11:52:51Z</time>
      </trkpt>
      <trkpt lat="48.67579" lon="2.46838">
        <ele>145.927</ele>
        <time>2018-04-18T11:52:53Z</time>
      </trkpt>
      <trkpt lat="48.67582" lon="2.46836">
        <ele>145.927</ele>
        <time>2018-04-18T11:52:55Z</time>
      </trkpt>
      <trkpt lat="48.67585" lon="2.46834">
        <ele>145.932</ele>
        <time>2018-04-18T11:52:58Z</time>
      </trkpt>
      <trkpt lat="48.6759" lon="2.4683">
        <ele>145.954</ele>
        <time>2018-04-18T11:53:06Z</time>
      </trkpt>
      <trkpt lat="48.67593" lon="2.46825">
        <ele>145.964</ele>
        <time>2018-04-18T11:53:11Z</time>
      </trkpt>
      <trkpt lat="48.67597" lon="2.46819">
        <ele>145.969</ele>
        <time>2018-04-18T11:53:16Z</time>
      </trkpt>
      <trkpt lat="48.67598" lon="2.46816">
        <ele>145.968</ele>
        <time>2018-04-18T11:53:20Z</time>
      </trkpt>
      <trkpt lat="48.67602" lon="2.46811">
        <ele>145.968</ele>
        <time>2018-04-18T11:53:26Z</time>
      </trkpt>
      <trkpt lat="48.67605" lon="2.46806">
        <ele>145.974</ele>
        <time>2018-04-18T11:53:30Z</time>
      </trkpt>
      <trkpt lat="48.67607" lon="2.46803">
        <ele>145.977</ele>
        <time>2018-04-18T11:53:32Z</time>
      </trkpt>
      <trkpt lat="48.6761" lon="2.46798">
        <ele>145.982</ele>
        <time>2018-04-18T11:53:35Z</time>
      </trkpt>
      <trkpt lat="48.67612" lon="2.46795">
        <ele>145.985</ele>
        <time>2018-04-18T11:53:37Z</time>
      </trkpt>
      <trkpt lat="48.67616" lon="2.46791">
        <ele>145.995</ele>
        <time>2018-04-18T11:53:41Z</time>
      </trkpt>
      <trkpt lat="48.67618" lon="2.46789">
        <ele>146.001</ele>
        <time>2018-04-18T11:53:43Z</time>
      </trkpt>
      <trkpt lat="48.6762" lon="2.46787">
        <ele>146.008</ele>
        <time>2018-04-18T11:53:45Z</time>
      </trkpt>
      <trkpt lat="48.67623" lon="2.46784">
        <ele>146.014</ele>
        <time>2018-04-18T11:53:47Z</time>
      </trkpt>
      <trkpt lat="48.67627" lon="2.46781">
        <ele>146.031</ele>
        <time>2018-04-18T11:53:51Z</time>
      </trkpt>
      <trkpt lat="48.6763" lon="2.46776">
        <ele>146.054</ele>
        <time>2018-04-18T11:53:55Z</time>
      </trkpt>
      <trkpt lat="48.67635" lon="2.46772">
        <ele>146.082</ele>
        <time>2018-04-18T11:54:00Z</time>
      </trkpt>
      <trkpt lat="48.67637" lon="2.46769">
        <ele>146.113</ele>
        <time>2018-04-18T11:54:05Z</time>
      </trkpt>
      <trkpt lat="48.67641" lon="2.46766">
        <ele>146.166</ele>
        <time>2018-04-18T11:54:13Z</time>
      </trkpt>
      <trkpt lat="48.67644" lon="2.46755">
        <ele>146.281</ele>
        <time>2018-04-18T11:54:46Z</time>
      </trkpt>
      <trkpt lat="48.67645" lon="2.46752">
        <ele>146.313</ele>
        <time>2018-04-18T11:54:54Z</time>
      </trkpt>
      <trkpt lat="48.67646" lon="2.46747">
        <ele>146.335</ele>
        <time>2018-04-18T11:55:00Z</time>
      </trkpt>
      <trkpt lat="48.67647" lon="2.4674">
        <ele>146.347</ele>
        <time>2018-04-18T11:55:05Z</time>
      </trkpt>
      <trkpt lat="48.67649" lon="2.46731">
        <ele>146.353</ele>
        <time>2018-04-18T11:55:10Z</time>
      </trkpt>
      <trkpt lat="48.67647" lon="2.46725">
        <ele>146.355</ele>
        <time>2018-04-18T11:55:16Z</time>
      </trkpt>
      <trkpt lat="48.67646" lon="2.46721">
        <ele>146.358</ele>
        <time>2018-04-18T11:55:24Z</time>
      </trkpt>
      <trkpt lat="48.67644" lon="2.46717">
        <ele>146.358</ele>
        <time>2018-04-18T11:55:25Z</time>
      </trkpt>
      <trkpt lat="48.67644" lon="2.46717">
        <ele>146.358</ele>
        <time>2018-04-18T11:55:31Z</time>
      </trkpt>
      <trkpt lat="48.67644" lon="2.46717">
        <ele>146.358</ele>
        <time>2018-04-18T11:55:32Z</time>
      </trkpt>
      <trkpt lat="48.6765" lon="2.46714">
        <ele>146.353</ele>
        <time>2018-04-18T11:55:34Z</time>
      </trkpt>
      <trkpt lat="48.67653" lon="2.46706">
        <ele>146.351</ele>
        <time>2018-04-18T11:55:39Z</time>
      </trkpt>
      <trkpt lat="48.67655" lon="2.46698">
        <ele>146.35</ele>
        <time>2018-04-18T11:55:42Z</time>
      </trkpt>
      <trkpt lat="48.67656" lon="2.46693">
        <ele>146.349</ele>
        <time>2018-04-18T11:55:44Z</time>
      </trkpt>
      <trkpt lat="48.6766" lon="2.46687">
        <ele>146.344</ele>
        <time>2018-04-18T11:55:48Z</time>
      </trkpt>
      <trkpt lat="48.67665" lon="2.46687">
        <ele>146.34</ele>
        <time>2018-04-18T11:55:52Z</time>
      </trkpt>
      <trkpt lat="48.67669" lon="2.46688">
        <ele>146.34</ele>
        <time>2018-04-18T11:55:55Z</time>
      </trkpt>
      <trkpt lat="48.67673" lon="2.46683">
        <ele>146.342</ele>
        <time>2018-04-18T11:56:00Z</time>
      </trkpt>
      <trkpt lat="48.67675" lon="2.4668">
        <ele>146.347</ele>
        <time>2018-04-18T11:56:03Z</time>
      </trkpt>
      <trkpt lat="48.67679" lon="2.46677">
        <ele>146.359</ele>
        <time>2018-04-18T11:56:10Z</time>
      </trkpt>
      <trkpt lat="48.67681" lon="2.46671">
        <ele>146.37</ele>
        <time>2018-04-18T11:56:17Z</time>
      </trkpt>
      <trkpt lat="48.67684" lon="2.46664">
        <ele>146.387</ele>
        <time>2018-04-18T11:56:31Z</time>
      </trkpt>
      <trkpt lat="48.6769" lon="2.46664">
        <ele>146.429</ele>
        <time>2018-04-18T11:57:06Z</time>
      </trkpt>
      <trkpt lat="48.67691" lon="2.46655">
        <ele>146.446</ele>
        <time>2018-04-18T11:57:15Z</time>
      </trkpt>
      <trkpt lat="48.67695" lon="2.46653">
        <ele>146.461</ele>
        <time>2018-04-18T11:57:22Z</time>
      </trkpt>
      <trkpt lat="48.67699" lon="2.4665">
        <ele>146.468</ele>
        <time>2018-04-18T11:57:27Z</time>
      </trkpt>
      <trkpt lat="48.67703" lon="2.46651">
        <ele>146.475</ele>
        <time>2018-04-18T11:57:34Z</time>
      </trkpt>
      <trkpt lat="48.67706" lon="2.46652">
        <ele>146.477</ele>
        <time>2018-04-18T11:57:36Z</time>
      </trkpt>
      <trkpt lat="48.6771" lon="2.4665">
        <ele>146.478</ele>
        <time>2018-04-18T11:57:42Z</time>
      </trkpt>
      <trkpt lat="48.67715" lon="2.46647">
        <ele>146.472</ele>
        <time>2018-04-18T11:57:48Z</time>
      </trkpt>
      <trkpt lat="48.67718" lon="2.46641">
        <ele>146.465</ele>
        <time>2018-04-18T11:57:52Z</time>
      </trkpt>
      <trkpt lat="48.67723" lon="2.46638">
        <ele>146.448</ele>
        <time>2018-04-18T11:57:57Z</time>
      </trkpt>
      <trkpt lat="48.67725" lon="2.46631">
        <ele>146.41</ele>
        <time>2018-04-18T11:58:04Z</time>
      </trkpt>
      <trkpt lat="48.67728" lon="2.46625">
        <ele>146.361</ele>
        <time>2018-04-18T11:58:11Z</time>
      </trkpt>
      <trkpt lat="48.67733" lon="2.46621">
        <ele>146.33</ele>
        <time>2018-04-18T11:58:15Z</time>
      </trkpt>
      <trkpt lat="48.67737" lon="2.46618">
        <ele>146.299</ele>
        <time>2018-04-18T11:58:19Z</time>
      </trkpt>
      <trkpt lat="48.6774" lon="2.46617">
        <ele>146.284</ele>
        <time>2018-04-18T11:58:21Z</time>
      </trkpt>
      <trkpt lat="48.67744" lon="2.46616">
        <ele>146.256</ele>
        <time>2018-04-18T11:58:25Z</time>
      </trkpt>
      <trkpt lat="48.6775" lon="2.46618">
        <ele>146.228</ele>
        <time>2018-04-18T11:58:31Z</time>
      </trkpt>
      <trkpt lat="48.67755" lon="2.46617">
        <ele>146.215</ele>
        <time>2018-04-18T11:58:35Z</time>
      </trkpt>
      <trkpt lat="48.67761" lon="2.46619">
        <ele>146.196</ele>
        <time>2018-04-18T11:58:43Z</time>
      </trkpt>
      <trkpt lat="48.67765" lon="2.46621">
        <ele>146.184</ele>
        <time>2018-04-18T11:58:47Z</time>
      </trkpt>
      <trkpt lat="48.67769" lon="2.46625">
        <ele>146.171</ele>
        <time>2018-04-18T11:58:51Z</time>
      </trkpt>
      <trkpt lat="48.67774" lon="2.46622">
        <ele>146.152</ele>
        <time>2018-04-18T11:58:56Z</time>
      </trkpt>
      <trkpt lat="48.67777" lon="2.4662">
        <ele>146.143</ele>
        <time>2018-04-18T11:58:58Z</time>
      </trkpt>
      <trkpt lat="48.67781" lon="2.46617">
        <ele>146.131</ele>
        <time>2018-04-18T11:59:01Z</time>
      </trkpt>
      <trkpt lat="48.67785" lon="2.46611">
        <ele>146.115</ele>
        <time>2018-04-18T11:59:06Z</time>
      </trkpt>
      <trkpt lat="48.67789" lon="2.46606">
        <ele>146.093</ele>
        <time>2018-04-18T11:59:14Z</time>
      </trkpt>
      <trkpt lat="48.67793" lon="2.46607">
        <ele>146.092</ele>
        <time>2018-04-18T11:59:20Z</time>
      </trkpt>
      <trkpt lat="48.67798" lon="2.46604">
        <ele>146.099</ele>
        <time>2018-04-18T11:59:24Z</time>
      </trkpt>
      <trkpt lat="48.67803" lon="2.466">
        <ele>146.113</ele>
        <time>2018-04-18T11:59:28Z</time>
      </trkpt>
      <trkpt lat="48.67806" lon="2.46597">
        <ele>146.121</ele>
        <time>2018-04-18T11:59:30Z</time>
      </trkpt>
      <trkpt lat="48.67809" lon="2.46594">
        <ele>146.135</ele>
        <time>2018-04-18T11:59:33Z</time>
      </trkpt>
      <trkpt lat="48.67813" lon="2.4659">
        <ele>146.154</ele>
        <time>2018-04-18T11:59:37Z</time>
      </trkpt>
      <trkpt lat="48.67815" lon="2.46587">
        <ele>146.158</ele>
        <time>2018-04-18T11:59:38Z</time>
      </trkpt>
      <trkpt lat="48.67817" lon="2.46585">
        <ele>146.162</ele>
        <time>2018-04-18T11:59:39Z</time>
      </trkpt>
      <trkpt lat="48.67821" lon="2.46581">
        <ele>146.176</ele>
        <time>2018-04-18T11:59:42Z</time>
      </trkpt>
      <trkpt lat="48.67824" lon="2.46575">
        <ele>146.213</ele>
        <time>2018-04-18T11:59:49Z</time>
      </trkpt>
      <trkpt lat="48.6783" lon="2.46567">
        <ele>146.249</ele>
        <time>2018-04-18T11:59:55Z</time>
      </trkpt>
      <trkpt lat="48.67836" lon="2.46562">
        <ele>146.278</ele>
        <time>2018-04-18T12:00:00Z</time>
      </trkpt>
      <trkpt lat="48.67839" lon="2.46559">
        <ele>146.286</ele>
        <time>2018-04-18T12:00:02Z</time>
      </trkpt>
      <trkpt lat="48.67841" lon="2.46557">
        <ele>146.293</ele>
        <time>2018-04-18T12:00:04Z</time>
      </trkpt>
      <trkpt lat="48.67843" lon="2.46554">
        <ele>146.307</ele>
        <time>2018-04-18T12:00:08Z</time>
      </trkpt>
      <trkpt lat="48.67849" lon="2.46552">
        <ele>146.321</ele>
        <time>2018-04-18T12:00:13Z</time>
      </trkpt>
      <trkpt lat="48.67851" lon="2.46551">
        <ele>146.329</ele>
        <time>2018-04-18T12:00:16Z</time>
      </trkpt>
      <trkpt lat="48.67853" lon="2.4655">
        <ele>146.335</ele>
        <time>2018-04-18T12:00:18Z</time>
      </trkpt>
      <trkpt lat="48.67861" lon="2.4654">
        <ele>146.343</ele>
        <time>2018-04-18T12:00:22Z</time>
      </trkpt>
      <trkpt lat="48.67864" lon="2.46537">
        <ele>146.345</ele>
        <time>2018-04-18T12:00:24Z</time>
      </trkpt>
      <trkpt lat="48.67866" lon="2.46534">
        <ele>146.347</ele>
        <time>2018-04-18T12:00:26Z</time>
      </trkpt>
      <trkpt lat="48.6787" lon="2.46528">
        <ele>146.352</ele>
        <time>2018-04-18T12:00:30Z</time>
      </trkpt>
      <trkpt lat="48.67872" lon="2.46525">
        <ele>146.355</ele>
        <time>2018-04-18T12:00:32Z</time>
      </trkpt>
      <trkpt lat="48.67877" lon="2.4652">
        <ele>146.363</ele>
        <time>2018-04-18T12:00:37Z</time>
      </trkpt>
      <trkpt lat="48.67879" lon="2.46517">
        <ele>146.367</ele>
        <time>2018-04-18T12:00:40Z</time>
      </trkpt>
      <trkpt lat="48.67883" lon="2.46513">
        <ele>146.372</ele>
        <time>2018-04-18T12:00:45Z</time>
      </trkpt>
      <trkpt lat="48.67886" lon="2.46507">
        <ele>146.369</ele>
        <time>2018-04-18T12:00:49Z</time>
      </trkpt>
      <trkpt lat="48.6789" lon="2.46503">
        <ele>146.363</ele>
        <time>2018-04-18T12:00:52Z</time>
      </trkpt>
      <trkpt lat="48.67892" lon="2.46502">
        <ele>146.358</ele>
        <time>2018-04-18T12:00:54Z</time>
      </trkpt>
      <trkpt lat="48.67898" lon="2.46499">
        <ele>146.346</ele>
        <time>2018-04-18T12:00:59Z</time>
      </trkpt>
      <trkpt lat="48.67902" lon="2.46494">
        <ele>146.338</ele>
        <time>2018-04-18T12:01:03Z</time>
      </trkpt>
      <trkpt lat="48.67904" lon="2.46491">
        <ele>146.334</ele>
        <time>2018-04-18T12:01:05Z</time>
      </trkpt>
      <trkpt lat="48.67909" lon="2.46488">
        <ele>146.327</ele>
        <time>2018-04-18T12:01:09Z</time>
      </trkpt>
      <trkpt lat="48.67913" lon="2.46482">
        <ele>146.324</ele>
        <time>2018-04-18T12:01:13Z</time>
      </trkpt>
      <trkpt lat="48.67917" lon="2.46479">
        <ele>146.324</ele>
        <time>2018-04-18T12:01:19Z</time>
      </trkpt>
      <trkpt lat="48.67921" lon="2.46473">
        <ele>146.328</ele>
        <time>2018-04-18T12:01:23Z</time>
      </trkpt>
      <trkpt lat="48.67926" lon="2.46468">
        <ele>146.334</ele>
        <time>2018-04-18T12:01:27Z</time>
      </trkpt>
      <trkpt lat="48.67929" lon="2.46464">
        <ele>146.338</ele>
        <time>2018-04-18T12:01:30Z</time>
      </trkpt>
      <trkpt lat="48.67933" lon="2.46459">
        <ele>146.342</ele>
        <time>2018-04-18T12:01:34Z</time>
      </trkpt>
      <trkpt lat="48.67934" lon="2.46453">
        <ele>146.353</ele>
        <time>2018-04-18T12:01:42Z</time>
      </trkpt>
      <trkpt lat="48.67951" lon="2.46438">
        <ele>146.652</ele>
        <time>2018-04-18T12:03:33Z</time>
      </trkpt>
      <trkpt lat="48.67953" lon="2.46436">
        <ele>146.666</ele>
        <time>2018-04-18T12:03:36Z</time>
      </trkpt>
      <trkpt lat="48.67958" lon="2.46435">
        <ele>146.681</ele>
        <time>2018-04-18T12:03:40Z</time>
      </trkpt>
      <trkpt lat="48.67958" lon="2.46435">
        <ele>146.681</ele>
        <time>2018-04-18T12:03:47Z</time>
      </trkpt>
      <trkpt lat="48.67958" lon="2.46435">
        <ele>146.681</ele>
        <time>2018-04-18T12:03:48Z</time>
      </trkpt>
      <trkpt lat="48.67962" lon="2.4643">
        <ele>146.727</ele>
        <time>2018-04-18T12:04:11Z</time>
      </trkpt>
      <trkpt lat="48.67963" lon="2.46427">
        <ele>146.729</ele>
        <time>2018-04-18T12:04:13Z</time>
      </trkpt>
      <trkpt lat="48.67968" lon="2.46422">
        <ele>146.737</ele>
        <time>2018-04-18T12:04:18Z</time>
      </trkpt>
      <trkpt lat="48.67971" lon="2.46417">
        <ele>146.744</ele>
        <time>2018-04-18T12:04:22Z</time>
      </trkpt>
      <trkpt lat="48.67974" lon="2.46413">
        <ele>146.755</ele>
        <time>2018-04-18T12:04:27Z</time>
      </trkpt>
      <trkpt lat="48.67976" lon="2.46409">
        <ele>146.764</ele>
        <time>2018-04-18T12:04:31Z</time>
      </trkpt>
      <trkpt lat="48.67981" lon="2.46406">
        <ele>146.773</ele>
        <time>2018-04-18T12:04:35Z</time>
      </trkpt>
      <trkpt lat="48.67984" lon="2.46404">
        <ele>146.783</ele>
        <time>2018-04-18T12:04:39Z</time>
      </trkpt>
      <trkpt lat="48.67988" lon="2.46399">
        <ele>146.79</ele>
        <time>2018-04-18T12:04:43Z</time>
      </trkpt>
      <trkpt lat="48.6799" lon="2.46396">
        <ele>146.791</ele>
        <time>2018-04-18T12:04:45Z</time>
      </trkpt>
      <trkpt lat="48.67997" lon="2.4639">
        <ele>146.789</ele>
        <time>2018-04-18T12:04:49Z</time>
      </trkpt>
      <trkpt lat="48.68001" lon="2.46386">
        <ele>146.784</ele>
        <time>2018-04-18T12:04:52Z</time>
      </trkpt>
      <trkpt lat="48.68005" lon="2.46388">
        <ele>146.776</ele>
        <time>2018-04-18T12:05:01Z</time>
      </trkpt>
      <trkpt lat="48.68009" lon="2.46383">
        <ele>146.769</ele>
        <time>2018-04-18T12:05:05Z</time>
      </trkpt>
      <trkpt lat="48.68011" lon="2.46381">
        <ele>146.764</ele>
        <time>2018-04-18T12:05:07Z</time>
      </trkpt>
      <trkpt lat="48.68013" lon="2.46373">
        <ele>146.743</ele>
        <time>2018-04-18T12:05:12Z</time>
      </trkpt>
      <trkpt lat="48.68016" lon="2.46373">
        <ele>146.689</ele>
        <time>2018-04-18T12:05:20Z</time>
      </trkpt>
      <trkpt lat="48.6802" lon="2.46371">
        <ele>146.653</ele>
        <time>2018-04-18T12:05:26Z</time>
      </trkpt>
      <trkpt lat="48.68025" lon="2.46373">
        <ele>146.598</ele>
        <time>2018-04-18T12:05:34Z</time>
      </trkpt>
      <trkpt lat="48.68031" lon="2.4637">
        <ele>146.48</ele>
        <time>2018-04-18T12:05:46Z</time>
      </trkpt>
      <trkpt lat="48.68035" lon="2.46373">
        <ele>146.391</ele>
        <time>2018-04-18T12:05:53Z</time>
      </trkpt>
      <trkpt lat="48.68038" lon="2.46374">
        <ele>146.366</ele>
        <time>2018-04-18T12:05:55Z</time>
      </trkpt>
      <trkpt lat="48.6804" lon="2.46376">
        <ele>146.329</ele>
        <time>2018-04-18T12:05:58Z</time>
      </trkpt>
      <trkpt lat="48.68044" lon="2.46378">
        <ele>146.272</ele>
        <time>2018-04-18T12:06:03Z</time>
      </trkpt>
      <trkpt lat="48.68046" lon="2.4638">
        <ele>146.25</ele>
        <time>2018-04-18T12:06:05Z</time>
      </trkpt>
      <trkpt lat="48.68051" lon="2.46381">
        <ele>146.205</ele>
        <time>2018-04-18T12:06:10Z</time>
      </trkpt>
      <trkpt lat="48.68057" lon="2.4638">
        <ele>146.186</ele>
        <time>2018-04-18T12:06:14Z</time>
      </trkpt>
      <trkpt lat="48.68062" lon="2.46382">
        <ele>146.176</ele>
        <time>2018-04-18T12:06:19Z</time>
      </trkpt>
      <trkpt lat="48.68069" lon="2.4638">
        <ele>146.167</ele>
        <time>2018-04-18T12:06:22Z</time>
      </trkpt>
      <trkpt lat="48.68074" lon="2.46378">
        <ele>146.158</ele>
        <time>2018-04-18T12:06:26Z</time>
      </trkpt>
      <trkpt lat="48.68079" lon="2.46379">
        <ele>146.154</ele>
        <time>2018-04-18T12:06:29Z</time>
      </trkpt>
      <trkpt lat="48.68084" lon="2.46381">
        <ele>146.153</ele>
        <time>2018-04-18T12:06:33Z</time>
      </trkpt>
      <trkpt lat="48.68088" lon="2.46385">
        <ele>146.154</ele>
        <time>2018-04-18T12:06:36Z</time>
      </trkpt>
      <trkpt lat="48.68092" lon="2.46393">
        <ele>146.153</ele>
        <time>2018-04-18T12:06:42Z</time>
      </trkpt>
      <trkpt lat="48.68094" lon="2.46396">
        <ele>146.151</ele>
        <time>2018-04-18T12:06:44Z</time>
      </trkpt>
      <trkpt lat="48.68099" lon="2.46399">
        <ele>146.15</ele>
        <time>2018-04-18T12:06:49Z</time>
      </trkpt>
      <trkpt lat="48.68101" lon="2.46401">
        <ele>146.151</ele>
        <time>2018-04-18T12:06:51Z</time>
      </trkpt>
      <trkpt lat="48.68105" lon="2.46404">
        <ele>146.152</ele>
        <time>2018-04-18T12:06:54Z</time>
      </trkpt>
      <trkpt lat="48.6811" lon="2.46405">
        <ele>146.149</ele>
        <time>2018-04-18T12:06:58Z</time>
      </trkpt>
      <trkpt lat="48.68114" lon="2.46406">
        <ele>146.14</ele>
        <time>2018-04-18T12:07:00Z</time>
      </trkpt>
      <trkpt lat="48.68119" lon="2.46409">
        <ele>146.113</ele>
        <time>2018-04-18T12:07:05Z</time>
      </trkpt>
      <trkpt lat="48.68123" lon="2.46407">
        <ele>146.066</ele>
        <time>2018-04-18T12:07:11Z</time>
      </trkpt>
      <trkpt lat="48.68126" lon="2.46407">
        <ele>146.033</ele>
        <time>2018-04-18T12:07:15Z</time>
      </trkpt>
      <trkpt lat="48.68132" lon="2.46409">
        <ele>145.992</ele>
        <time>2018-04-18T12:07:20Z</time>
      </trkpt>
      <trkpt lat="48.68137" lon="2.46406">
        <ele>145.965</ele>
        <time>2018-04-18T12:07:24Z</time>
      </trkpt>
      <trkpt lat="48.68139" lon="2.46405">
        <ele>145.954</ele>
        <time>2018-04-18T12:07:26Z</time>
      </trkpt>
      <trkpt lat="48.68144" lon="2.46404">
        <ele>145.94</ele>
        <time>2018-04-18T12:07:29Z</time>
      </trkpt>
      <trkpt lat="48.68149" lon="2.46405">
        <ele>145.927</ele>
        <time>2018-04-18T12:07:34Z</time>
      </trkpt>
      <trkpt lat="48.68153" lon="2.46406">
        <ele>145.92</ele>
        <time>2018-04-18T12:07:37Z</time>
      </trkpt>
      <trkpt lat="48.68158" lon="2.46404">
        <ele>145.896</ele>
        <time>2018-04-18T12:07:44Z</time>
      </trkpt>
      <trkpt lat="48.6816" lon="2.46401">
        <ele>145.878</ele>
        <time>2018-04-18T12:07:48Z</time>
      </trkpt>
      <trkpt lat="48.68164" lon="2.46399">
        <ele>145.863</ele>
        <time>2018-04-18T12:07:51Z</time>
      </trkpt>
      <trkpt lat="48.68168" lon="2.46396">
        <ele>145.844</ele>
        <time>2018-04-18T12:07:55Z</time>
      </trkpt>
      <trkpt lat="48.6817" lon="2.46393">
        <ele>145.834</ele>
        <time>2018-04-18T12:07:57Z</time>
      </trkpt>
      <trkpt lat="48.68174" lon="2.46388">
        <ele>145.823</ele>
        <time>2018-04-18T12:07:59Z</time>
      </trkpt>
      <trkpt lat="48.68179" lon="2.46382">
        <ele>145.803</ele>
        <time>2018-04-18T12:08:02Z</time>
      </trkpt>
      <trkpt lat="48.68182" lon="2.46377">
        <ele>145.774</ele>
        <time>2018-04-18T12:08:06Z</time>
      </trkpt>
      <trkpt lat="48.68183" lon="2.46374">
        <ele>145.757</ele>
        <time>2018-04-18T12:08:08Z</time>
      </trkpt>
      <trkpt lat="48.68184" lon="2.46367">
        <ele>145.701</ele>
        <time>2018-04-18T12:08:14Z</time>
      </trkpt>
      <trkpt lat="48.68185" lon="2.46362">
        <ele>145.659</ele>
        <time>2018-04-18T12:08:18Z</time>
      </trkpt>
      <trkpt lat="48.68189" lon="2.46358">
        <ele>145.578</ele>
        <time>2018-04-18T12:08:26Z</time>
      </trkpt>
      <trkpt lat="48.68192" lon="2.46356">
        <ele>145.555</ele>
        <time>2018-04-18T12:08:28Z</time>
      </trkpt>
      <trkpt lat="48.68195" lon="2.46352">
        <ele>145.531</ele>
        <time>2018-04-18T12:08:30Z</time>
      </trkpt>
      <trkpt lat="48.68198" lon="2.46347">
        <ele>145.492</ele>
        <time>2018-04-18T12:08:33Z</time>
      </trkpt>
      <trkpt lat="48.68201" lon="2.4634">
        <ele>145.393</ele>
        <time>2018-04-18T12:08:39Z</time>
      </trkpt>
      <trkpt lat="48.68205" lon="2.46336">
        <ele>145.281</ele>
        <time>2018-04-18T12:08:45Z</time>
      </trkpt>
      <trkpt lat="48.6821" lon="2.46332">
        <ele>145.207</ele>
        <time>2018-04-18T12:08:49Z</time>
      </trkpt>
      <trkpt lat="48.68212" lon="2.46331">
        <ele>145.19</ele>
        <time>2018-04-18T12:08:50Z</time>
      </trkpt>
      <trkpt lat="48.68217" lon="2.46329">
        <ele>145.111</ele>
        <time>2018-04-18T12:08:55Z</time>
      </trkpt>
      <trkpt lat="48.68222" lon="2.46326">
        <ele>145.056</ele>
        <time>2018-04-18T12:08:59Z</time>
      </trkpt>
      <trkpt lat="48.68227" lon="2.46328">
        <ele>145.004</ele>
        <time>2018-04-18T12:09:03Z</time>
      </trkpt>
      <trkpt lat="48.68233" lon="2.46328">
        <ele>144.965</ele>
        <time>2018-04-18T12:09:06Z</time>
      </trkpt>
      <trkpt lat="48.68235" lon="2.46328">
        <ele>144.862</ele>
        <time>2018-04-18T12:09:14Z</time>
      </trkpt>
      <trkpt lat="48.68241" lon="2.4633">
        <ele>144.813</ele>
        <time>2018-04-18T12:09:19Z</time>
      </trkpt>
      <trkpt lat="48.68249" lon="2.4633">
        <ele>144.775</ele>
        <time>2018-04-18T12:09:22Z</time>
      </trkpt>
      <trkpt lat="48.68251" lon="2.4633">
        <ele>144.734</ele>
        <time>2018-04-18T12:09:26Z</time>
      </trkpt>
      <trkpt lat="48.68256" lon="2.46329">
        <ele>144.667</ele>
        <time>2018-04-18T12:09:31Z</time>
      </trkpt>
      <trkpt lat="48.68262" lon="2.46329">
        <ele>144.576</ele>
        <time>2018-04-18T12:09:38Z</time>
      </trkpt>
      <trkpt lat="48.68268" lon="2.46329">
        <ele>144.54</ele>
        <time>2018-04-18T12:09:41Z</time>
      </trkpt>
      <trkpt lat="48.68272" lon="2.4633">
        <ele>144.517</ele>
        <time>2018-04-18T12:09:43Z</time>
      </trkpt>
      <trkpt lat="48.68277" lon="2.46328">
        <ele>144.465</ele>
        <time>2018-04-18T12:09:48Z</time>
      </trkpt>
      <trkpt lat="48.68283" lon="2.46327">
        <ele>144.398</ele>
        <time>2018-04-18T12:09:55Z</time>
      </trkpt>
      <trkpt lat="48.68288" lon="2.46326">
        <ele>144.373</ele>
        <time>2018-04-18T12:09:58Z</time>
      </trkpt>
      <trkpt lat="48.68291" lon="2.46325">
        <ele>144.352</ele>
        <time>2018-04-18T12:10:01Z</time>
      </trkpt>
      <trkpt lat="48.68296" lon="2.46322">
        <ele>144.321</ele>
        <time>2018-04-18T12:10:06Z</time>
      </trkpt>
      <trkpt lat="48.68301" lon="2.46322">
        <ele>144.303</ele>
        <time>2018-04-18T12:10:09Z</time>
      </trkpt>
      <trkpt lat="48.68306" lon="2.46319">
        <ele>144.251</ele>
        <time>2018-04-18T12:10:17Z</time>
      </trkpt>
      <trkpt lat="48.6831" lon="2.4632">
        <ele>144.229</ele>
        <time>2018-04-18T12:10:20Z</time>
      </trkpt>
      <trkpt lat="48.68315" lon="2.46323">
        <ele>144.205</ele>
        <time>2018-04-18T12:10:23Z</time>
      </trkpt>
      <trkpt lat="48.68318" lon="2.46324">
        <ele>144.197</ele>
        <time>2018-04-18T12:10:24Z</time>
      </trkpt>
      <trkpt lat="48.68324" lon="2.46325">
        <ele>144.174</ele>
        <time>2018-04-18T12:10:27Z</time>
      </trkpt>
      <trkpt lat="48.68327" lon="2.46326">
        <ele>144.166</ele>
        <time>2018-04-18T12:10:29Z</time>
      </trkpt>
      <trkpt lat="48.6833" lon="2.46327">
        <ele>144.131</ele>
        <time>2018-04-18T12:10:34Z</time>
      </trkpt>
      <trkpt lat="48.68334" lon="2.46331">
        <ele>144.112</ele>
        <time>2018-04-18T12:10:37Z</time>
      </trkpt>
      <trkpt lat="48.68337" lon="2.46337">
        <ele>144.093</ele>
        <time>2018-04-18T12:10:41Z</time>
      </trkpt>
      <trkpt lat="48.68341" lon="2.46343">
        <ele>144.074</ele>
        <time>2018-04-18T12:10:46Z</time>
      </trkpt>
      <trkpt lat="48.68343" lon="2.4635">
        <ele>144.057</ele>
        <time>2018-04-18T12:10:50Z</time>
      </trkpt>
      <trkpt lat="48.68345" lon="2.46357">
        <ele>144.042</ele>
        <time>2018-04-18T12:10:54Z</time>
      </trkpt>
      <trkpt lat="48.68348" lon="2.46363">
        <ele>144.021</ele>
        <time>2018-04-18T12:11:00Z</time>
      </trkpt>
      <trkpt lat="48.68352" lon="2.46368">
        <ele>144.002</ele>
        <time>2018-04-18T12:11:05Z</time>
      </trkpt>
      <trkpt lat="48.68355" lon="2.46374">
        <ele>143.978</ele>
        <time>2018-04-18T12:11:11Z</time>
      </trkpt>
      <trkpt lat="48.68356" lon="2.46382">
        <ele>143.961</ele>
        <time>2018-04-18T12:11:17Z</time>
      </trkpt>
      <trkpt lat="48.68361" lon="2.46393">
        <ele>143.959</ele>
        <time>2018-04-18T12:11:23Z</time>
      </trkpt>
      <trkpt lat="48.68365" lon="2.46403">
        <ele>143.965</ele>
        <time>2018-04-18T12:11:26Z</time>
      </trkpt>
      <trkpt lat="48.68369" lon="2.46409">
        <ele>143.98</ele>
        <time>2018-04-18T12:11:30Z</time>
      </trkpt>
      <trkpt lat="48.68372" lon="2.46415">
        <ele>143.995</ele>
        <time>2018-04-18T12:11:33Z</time>
      </trkpt>
      <trkpt lat="48.68373" lon="2.46419">
        <ele>144.006</ele>
        <time>2018-04-18T12:11:35Z</time>
      </trkpt>
      <trkpt lat="48.68373" lon="2.46419">
        <ele>144.006</ele>
        <time>2018-04-18T12:11:43Z</time>
      </trkpt>
      <trkpt lat="48.68373" lon="2.46419">
        <ele>144.006</ele>
        <time>2018-04-18T12:11:44Z</time>
      </trkpt>
      <trkpt lat="48.68383" lon="2.46417">
        <ele>144.065</ele>
        <time>2018-04-18T12:11:47Z</time>
      </trkpt>
      <trkpt lat="48.68389" lon="2.46417">
        <ele>144.073</ele>
        <time>2018-04-18T12:11:50Z</time>
      </trkpt>
      <trkpt lat="48.68394" lon="2.46418">
        <ele>144.092</ele>
        <time>2018-04-18T12:11:59Z</time>
      </trkpt>
      <trkpt lat="48.68397" lon="2.46425">
        <ele>144.093</ele>
        <time>2018-04-18T12:12:02Z</time>
      </trkpt>
      <trkpt lat="48.68399" lon="2.4643">
        <ele>144.093</ele>
        <time>2018-04-18T12:12:05Z</time>
      </trkpt>
      <trkpt lat="48.68401" lon="2.46434">
        <ele>144.092</ele>
        <time>2018-04-18T12:12:07Z</time>
      </trkpt>
      <trkpt lat="48.68404" lon="2.46441">
        <ele>144.098</ele>
        <time>2018-04-18T12:12:11Z</time>
      </trkpt>
      <trkpt lat="48.68407" lon="2.46448">
        <ele>144.115</ele>
        <time>2018-04-18T12:12:17Z</time>
      </trkpt>
      <trkpt lat="48.6841" lon="2.46454">
        <ele>144.131</ele>
        <time>2018-04-18T12:12:21Z</time>
      </trkpt>
      <trkpt lat="48.68411" lon="2.4646">
        <ele>144.152</ele>
        <time>2018-04-18T12:12:26Z</time>
      </trkpt>
      <trkpt lat="48.68413" lon="2.46469">
        <ele>144.17</ele>
        <time>2018-04-18T12:12:31Z</time>
      </trkpt>
      <trkpt lat="48.68413" lon="2.46477">
        <ele>144.186</ele>
        <time>2018-04-18T12:12:36Z</time>
      </trkpt>
      <trkpt lat="48.68414" lon="2.46483">
        <ele>144.199</ele>
        <time>2018-04-18T12:12:41Z</time>
      </trkpt>
      <trkpt lat="48.68414" lon="2.46487">
        <ele>144.208</ele>
        <time>2018-04-18T12:12:44Z</time>
      </trkpt>
      <trkpt lat="48.68415" lon="2.46492">
        <ele>144.218</ele>
        <time>2018-04-18T12:12:47Z</time>
      </trkpt>
      <trkpt lat="48.68417" lon="2.46498">
        <ele>144.234</ele>
        <time>2018-04-18T12:12:51Z</time>
      </trkpt>
      <trkpt lat="48.68418" lon="2.46507">
        <ele>144.252</ele>
        <time>2018-04-18T12:12:55Z</time>
      </trkpt>
      <trkpt lat="48.68418" lon="2.46512">
        <ele>144.263</ele>
        <time>2018-04-18T12:12:57Z</time>
      </trkpt>
      <trkpt lat="48.68421" lon="2.46519">
        <ele>144.28</ele>
        <time>2018-04-18T12:13:00Z</time>
      </trkpt>
      <trkpt lat="48.68425" lon="2.46523">
        <ele>144.304</ele>
        <time>2018-04-18T12:13:04Z</time>
      </trkpt>
      <trkpt lat="48.6843" lon="2.46522">
        <ele>144.349</ele>
        <time>2018-04-18T12:13:10Z</time>
      </trkpt>
      <trkpt lat="48.68435" lon="2.46523">
        <ele>144.416</ele>
        <time>2018-04-18T12:13:17Z</time>
      </trkpt>
      <trkpt lat="48.6844" lon="2.46525">
        <ele>144.464</ele>
        <time>2018-04-18T12:13:23Z</time>
      </trkpt>
      <trkpt lat="48.68444" lon="2.46528">
        <ele>144.522</ele>
        <time>2018-04-18T12:13:28Z</time>
      </trkpt>
      <trkpt lat="48.68448" lon="2.46531">
        <ele>144.551</ele>
        <time>2018-04-18T12:13:30Z</time>
      </trkpt>
      <trkpt lat="48.68453" lon="2.46531">
        <ele>144.596</ele>
        <time>2018-04-18T12:13:33Z</time>
      </trkpt>
      <trkpt lat="48.68457" lon="2.46532">
        <ele>144.658</ele>
        <time>2018-04-18T12:13:37Z</time>
      </trkpt>
      <trkpt lat="48.6846" lon="2.46533">
        <ele>144.706</ele>
        <time>2018-04-18T12:13:40Z</time>
      </trkpt>
      <trkpt lat="48.68463" lon="2.46534">
        <ele>144.77</ele>
        <time>2018-04-18T12:13:44Z</time>
      </trkpt>
      <trkpt lat="48.68466" lon="2.46535">
        <ele>144.83</ele>
        <time>2018-04-18T12:13:48Z</time>
      </trkpt>
      <trkpt lat="48.68469" lon="2.46535">
        <ele>144.874</ele>
        <time>2018-04-18T12:13:51Z</time>
      </trkpt>
      <trkpt lat="48.68474" lon="2.46536">
        <ele>144.919</ele>
        <time>2018-04-18T12:13:55Z</time>
      </trkpt>
      <trkpt lat="48.68477" lon="2.46541">
        <ele>144.964</ele>
        <time>2018-04-18T12:13:58Z</time>
      </trkpt>
      <trkpt lat="48.68479" lon="2.46543">
        <ele>145.008</ele>
        <time>2018-04-18T12:14:01Z</time>
      </trkpt>
      <trkpt lat="48.68485" lon="2.46543">
        <ele>145.051</ele>
        <time>2018-04-18T12:14:04Z</time>
      </trkpt>
      <trkpt lat="48.6849" lon="2.46542">
        <ele>145.104</ele>
        <time>2018-04-18T12:14:08Z</time>
      </trkpt>
      <trkpt lat="48.68496" lon="2.46542">
        <ele>145.143</ele>
        <time>2018-04-18T12:14:11Z</time>
      </trkpt>
      <trkpt lat="48.685" lon="2.46541">
        <ele>145.167</ele>
        <time>2018-04-18T12:14:13Z</time>
      </trkpt>
      <trkpt lat="48.68503" lon="2.46541">
        <ele>145.191</ele>
        <time>2018-04-18T12:14:15Z</time>
      </trkpt>
      <trkpt lat="48.68507" lon="2.4654">
        <ele>145.249</ele>
        <time>2018-04-18T12:14:20Z</time>
      </trkpt>
      <trkpt lat="48.68511" lon="2.46541">
        <ele>145.296</ele>
        <time>2018-04-18T12:14:24Z</time>
      </trkpt>
      <trkpt lat="48.68516" lon="2.46546">
        <ele>145.33</ele>
        <time>2018-04-18T12:14:27Z</time>
      </trkpt>
      <trkpt lat="48.68518" lon="2.46547">
        <ele>145.42</ele>
        <time>2018-04-18T12:14:36Z</time>
      </trkpt>
      <trkpt lat="48.68524" lon="2.46546">
        <ele>145.468</ele>
        <time>2018-04-18T12:14:43Z</time>
      </trkpt>
      <trkpt lat="48.68528" lon="2.46545">
        <ele>145.484</ele>
        <time>2018-04-18T12:14:46Z</time>
      </trkpt>
      <trkpt lat="48.68532" lon="2.46548">
        <ele>145.506</ele>
        <time>2018-04-18T12:14:54Z</time>
      </trkpt>
      <trkpt lat="48.68532" lon="2.46549">
        <ele>145.52</ele>
        <time>2018-04-18T12:15:02Z</time>
      </trkpt>
      <trkpt lat="48.68541" lon="2.46557">
        <ele>145.546</ele>
        <time>2018-04-18T12:15:10Z</time>
      </trkpt>
      <trkpt lat="48.68546" lon="2.46559">
        <ele>145.557</ele>
        <time>2018-04-18T12:15:13Z</time>
      </trkpt>
      <trkpt lat="48.6855" lon="2.46562">
        <ele>145.594</ele>
        <time>2018-04-18T12:15:21Z</time>
      </trkpt>
      <trkpt lat="48.68556" lon="2.46568">
        <ele>145.616</ele>
        <time>2018-04-18T12:15:26Z</time>
      </trkpt>
      <trkpt lat="48.6856" lon="2.46573">
        <ele>145.627</ele>
        <time>2018-04-18T12:15:29Z</time>
      </trkpt>
      <trkpt lat="48.68563" lon="2.46578">
        <ele>145.638</ele>
        <time>2018-04-18T12:15:33Z</time>
      </trkpt>
      <trkpt lat="48.68565" lon="2.46581">
        <ele>145.646</ele>
        <time>2018-04-18T12:15:38Z</time>
      </trkpt>
      <trkpt lat="48.68566" lon="2.46589">
        <ele>145.651</ele>
        <time>2018-04-18T12:15:42Z</time>
      </trkpt>
      <trkpt lat="48.68569" lon="2.46596">
        <ele>145.656</ele>
        <time>2018-04-18T12:15:46Z</time>
      </trkpt>
      <trkpt lat="48.68572" lon="2.46601">
        <ele>145.658</ele>
        <time>2018-04-18T12:15:54Z</time>
      </trkpt>
      <trkpt lat="48.68572" lon="2.46601">
        <ele>145.658</ele>
        <time>2018-04-18T12:20:04Z</time>
      </trkpt>
      <trkpt lat="48.68596" lon="2.4663">
        <ele>144.988</ele>
        <time>2018-04-18T12:20:09Z</time>
      </trkpt>
      <trkpt lat="48.686" lon="2.46633">
        <ele>144.982</ele>
        <time>2018-04-18T12:20:13Z</time>
      </trkpt>
      <trkpt lat="48.68605" lon="2.46635">
        <ele>144.979</ele>
        <time>2018-04-18T12:20:16Z</time>
      </trkpt>
      <trkpt lat="48.68608" lon="2.46637">
        <ele>144.978</ele>
        <time>2018-04-18T12:20:19Z</time>
      </trkpt>
      <trkpt lat="48.686" lon="2.46633">
        <ele>144.982</ele>
        <time>2018-04-18T12:20:28Z</time>
      </trkpt>
      <trkpt lat="48.68606" lon="2.46632">
        <ele>144.974</ele>
        <time>2018-04-18T12:20:39Z</time>
      </trkpt>
      <trkpt lat="48.6861" lon="2.46634">
        <ele>144.985</ele>
        <time>2018-04-18T12:20:47Z</time>
      </trkpt>
      <trkpt lat="48.68614" lon="2.46634">
        <ele>144.991</ele>
        <time>2018-04-18T12:20:51Z</time>
      </trkpt>
      <trkpt lat="48.6862" lon="2.46638">
        <ele>145.001</ele>
        <time>2018-04-18T12:20:57Z</time>
      </trkpt>
      <trkpt lat="48.68626" lon="2.46637">
        <ele>145.007</ele>
        <time>2018-04-18T12:21:01Z</time>
      </trkpt>
      <trkpt lat="48.68632" lon="2.46639">
        <ele>145.01</ele>
        <time>2018-04-18T12:21:04Z</time>
      </trkpt>
      <trkpt lat="48.68637" lon="2.46642">
        <ele>145.014</ele>
        <time>2018-04-18T12:21:08Z</time>
      </trkpt>
      <trkpt lat="48.68642" lon="2.46641">
        <ele>145.015</ele>
        <time>2018-04-18T12:21:12Z</time>
      </trkpt>
      <trkpt lat="48.68645" lon="2.46639">
        <ele>145.014</ele>
        <time>2018-04-18T12:21:15Z</time>
      </trkpt>
      <trkpt lat="48.68648" lon="2.46638">
        <ele>145.012</ele>
        <time>2018-04-18T12:21:17Z</time>
      </trkpt>
      <trkpt lat="48.68652" lon="2.4664">
        <ele>145.005</ele>
        <time>2018-04-18T12:21:21Z</time>
      </trkpt>
      <trkpt lat="48.68655" lon="2.46641">
        <ele>145.001</ele>
        <time>2018-04-18T12:21:23Z</time>
      </trkpt>
      <trkpt lat="48.68659" lon="2.46642">
        <ele>144.99</ele>
        <time>2018-04-18T12:21:28Z</time>
      </trkpt>
      <trkpt lat="48.68662" lon="2.46643">
        <ele>144.984</ele>
        <time>2018-04-18T12:21:31Z</time>
      </trkpt>
      <trkpt lat="48.68667" lon="2.46645">
        <ele>144.971</ele>
        <time>2018-04-18T12:21:36Z</time>
      </trkpt>
      <trkpt lat="48.68672" lon="2.46647">
        <ele>144.962</ele>
        <time>2018-04-18T12:21:40Z</time>
      </trkpt>
      <trkpt lat="48.68674" lon="2.46648">
        <ele>144.959</ele>
        <time>2018-04-18T12:21:42Z</time>
      </trkpt>
      <trkpt lat="48.68678" lon="2.46649">
        <ele>144.958</ele>
        <time>2018-04-18T12:21:44Z</time>
      </trkpt>
      <trkpt lat="48.68683" lon="2.46654">
        <ele>144.961</ele>
        <time>2018-04-18T12:21:48Z</time>
      </trkpt>
      <trkpt lat="48.68685" lon="2.46656">
        <ele>144.964</ele>
        <time>2018-04-18T12:21:50Z</time>
      </trkpt>
      <trkpt lat="48.68689" lon="2.46658">
        <ele>144.97</ele>
        <time>2018-04-18T12:21:53Z</time>
      </trkpt>
      <trkpt lat="48.68691" lon="2.4666">
        <ele>144.986</ele>
        <time>2018-04-18T12:21:57Z</time>
      </trkpt>
      <trkpt lat="48.68696" lon="2.46661">
        <ele>145.016</ele>
        <time>2018-04-18T12:22:02Z</time>
      </trkpt>
      <trkpt lat="48.68699" lon="2.46658">
        <ele>145.086</ele>
        <time>2018-04-18T12:22:11Z</time>
      </trkpt>
      <trkpt lat="48.68704" lon="2.46661">
        <ele>145.113</ele>
        <time>2018-04-18T12:22:14Z</time>
      </trkpt>
      <trkpt lat="48.68707" lon="2.46662">
        <ele>145.121</ele>
        <time>2018-04-18T12:22:15Z</time>
      </trkpt>
      <trkpt lat="48.68714" lon="2.46662">
        <ele>145.137</ele>
        <time>2018-04-18T12:22:17Z</time>
      </trkpt>
      <trkpt lat="48.68716" lon="2.46668">
        <ele>145.159</ele>
        <time>2018-04-18T12:22:20Z</time>
      </trkpt>
      <trkpt lat="48.68722" lon="2.4667">
        <ele>145.183</ele>
        <time>2018-04-18T12:22:23Z</time>
      </trkpt>
      <trkpt lat="48.68728" lon="2.46671">
        <ele>145.217</ele>
        <time>2018-04-18T12:22:27Z</time>
      </trkpt>
      <trkpt lat="48.68731" lon="2.46671">
        <ele>145.236</ele>
        <time>2018-04-18T12:22:29Z</time>
      </trkpt>
      <trkpt lat="48.68736" lon="2.46674">
        <ele>145.278</ele>
        <time>2018-04-18T12:22:33Z</time>
      </trkpt>
      <trkpt lat="48.68741" lon="2.46675">
        <ele>145.321</ele>
        <time>2018-04-18T12:22:37Z</time>
      </trkpt>
      <trkpt lat="48.68745" lon="2.46671">
        <ele>145.357</ele>
        <time>2018-04-18T12:22:40Z</time>
      </trkpt>
      <trkpt lat="48.68749" lon="2.46668">
        <ele>145.443</ele>
        <time>2018-04-18T12:22:47Z</time>
      </trkpt>
      <trkpt lat="48.68753" lon="2.46671">
        <ele>145.508</ele>
        <time>2018-04-18T12:22:52Z</time>
      </trkpt>
      <trkpt lat="48.68757" lon="2.46676">
        <ele>145.546</ele>
        <time>2018-04-18T12:22:55Z</time>
      </trkpt>
      <trkpt lat="48.68762" lon="2.46679">
        <ele>145.597</ele>
        <time>2018-04-18T12:22:59Z</time>
      </trkpt>
      <trkpt lat="48.68766" lon="2.46679">
        <ele>145.635</ele>
        <time>2018-04-18T12:23:02Z</time>
      </trkpt>
      <trkpt lat="48.68771" lon="2.46681">
        <ele>145.71</ele>
        <time>2018-04-18T12:23:08Z</time>
      </trkpt>
      <trkpt lat="48.68775" lon="2.46682">
        <ele>145.762</ele>
        <time>2018-04-18T12:23:12Z</time>
      </trkpt>
      <trkpt lat="48.68779" lon="2.46685">
        <ele>145.801</ele>
        <time>2018-04-18T12:23:15Z</time>
      </trkpt>
      <trkpt lat="48.68782" lon="2.46687">
        <ele>145.826</ele>
        <time>2018-04-18T12:23:17Z</time>
      </trkpt>
      <trkpt lat="48.68787" lon="2.46684">
        <ele>145.9</ele>
        <time>2018-04-18T12:23:24Z</time>
      </trkpt>
      <trkpt lat="48.68792" lon="2.46684">
        <ele>145.931</ele>
        <time>2018-04-18T12:23:28Z</time>
      </trkpt>
      <trkpt lat="48.68795" lon="2.46683">
        <ele>145.945</ele>
        <time>2018-04-18T12:23:30Z</time>
      </trkpt>
      <trkpt lat="48.688" lon="2.46688">
        <ele>145.974</ele>
        <time>2018-04-18T12:23:34Z</time>
      </trkpt>
      <trkpt lat="48.68803" lon="2.4669">
        <ele>145.989</ele>
        <time>2018-04-18T12:23:36Z</time>
      </trkpt>
      <trkpt lat="48.68807" lon="2.46693">
        <ele>146.022</ele>
        <time>2018-04-18T12:23:40Z</time>
      </trkpt>
      <trkpt lat="48.68812" lon="2.46694">
        <ele>146.054</ele>
        <time>2018-04-18T12:23:44Z</time>
      </trkpt>
      <trkpt lat="48.68816" lon="2.46697">
        <ele>146.083</ele>
        <time>2018-04-18T12:23:48Z</time>
      </trkpt>
      <trkpt lat="48.68819" lon="2.46698">
        <ele>146.097</ele>
        <time>2018-04-18T12:23:50Z</time>
      </trkpt>
      <trkpt lat="48.68824" lon="2.46698">
        <ele>146.114</ele>
        <time>2018-04-18T12:23:53Z</time>
      </trkpt>
      <trkpt lat="48.68828" lon="2.46697">
        <ele>146.124</ele>
        <time>2018-04-18T12:23:55Z</time>
      </trkpt>
      <trkpt lat="48.68833" lon="2.46697">
        <ele>146.135</ele>
        <time>2018-04-18T12:23:58Z</time>
      </trkpt>
      <trkpt lat="48.68838" lon="2.46697">
        <ele>146.146</ele>
        <time>2018-04-18T12:24:02Z</time>
      </trkpt>
      <trkpt lat="48.68841" lon="2.46697">
        <ele>146.152</ele>
        <time>2018-04-18T12:24:04Z</time>
      </trkpt>
      <trkpt lat="48.68845" lon="2.46699">
        <ele>146.161</ele>
        <time>2018-04-18T12:24:08Z</time>
      </trkpt>
      <trkpt lat="48.68848" lon="2.467">
        <ele>146.165</ele>
        <time>2018-04-18T12:24:10Z</time>
      </trkpt>
      <trkpt lat="48.68853" lon="2.46704">
        <ele>146.173</ele>
        <time>2018-04-18T12:24:14Z</time>
      </trkpt>
      <trkpt lat="48.68855" lon="2.46706">
        <ele>146.18</ele>
        <time>2018-04-18T12:24:17Z</time>
      </trkpt>
      <trkpt lat="48.6886" lon="2.46709">
        <ele>146.192</ele>
        <time>2018-04-18T12:24:21Z</time>
      </trkpt>
      <trkpt lat="48.68864" lon="2.46711">
        <ele>146.202</ele>
        <time>2018-04-18T12:24:24Z</time>
      </trkpt>
      <trkpt lat="48.68869" lon="2.46713">
        <ele>146.216</ele>
        <time>2018-04-18T12:24:27Z</time>
      </trkpt>
      <trkpt lat="48.68872" lon="2.46715">
        <ele>146.238</ele>
        <time>2018-04-18T12:24:31Z</time>
      </trkpt>
      <trkpt lat="48.68875" lon="2.46716">
        <ele>146.251</ele>
        <time>2018-04-18T12:24:33Z</time>
      </trkpt>
      <trkpt lat="48.68878" lon="2.46718">
        <ele>146.27</ele>
        <time>2018-04-18T12:24:36Z</time>
      </trkpt>
      <trkpt lat="48.68881" lon="2.46719">
        <ele>146.295</ele>
        <time>2018-04-18T12:24:40Z</time>
      </trkpt>
      <trkpt lat="48.68884" lon="2.46721">
        <ele>146.312</ele>
        <time>2018-04-18T12:24:43Z</time>
      </trkpt>
      <trkpt lat="48.68889" lon="2.46724">
        <ele>146.34</ele>
        <time>2018-04-18T12:24:48Z</time>
      </trkpt>
      <trkpt lat="48.68894" lon="2.46725">
        <ele>146.362</ele>
        <time>2018-04-18T12:24:52Z</time>
      </trkpt>
      <trkpt lat="48.689" lon="2.46726">
        <ele>146.388</ele>
        <time>2018-04-18T12:24:58Z</time>
      </trkpt>
      <trkpt lat="48.68903" lon="2.46727">
        <ele>146.399</ele>
        <time>2018-04-18T12:25:00Z</time>
      </trkpt>
      <trkpt lat="48.68908" lon="2.46729">
        <ele>146.422</ele>
        <time>2018-04-18T12:25:04Z</time>
      </trkpt>
      <trkpt lat="48.68913" lon="2.4673">
        <ele>146.446</ele>
        <time>2018-04-18T12:25:08Z</time>
      </trkpt>
      <trkpt lat="48.68917" lon="2.46726">
        <ele>146.465</ele>
        <time>2018-04-18T12:25:12Z</time>
      </trkpt>
      <trkpt lat="48.68921" lon="2.46725">
        <ele>146.493</ele>
        <time>2018-04-18T12:25:20Z</time>
      </trkpt>
      <trkpt lat="48.68925" lon="2.46729">
        <ele>146.505</ele>
        <time>2018-04-18T12:25:25Z</time>
      </trkpt>
      <trkpt lat="48.68924" lon="2.46735">
        <ele>146.516</ele>
        <time>2018-04-18T12:25:29Z</time>
      </trkpt>
      <trkpt lat="48.68928" lon="2.46741">
        <ele>146.534</ele>
        <time>2018-04-18T12:25:36Z</time>
      </trkpt>
      <trkpt lat="48.68934" lon="2.46745">
        <ele>146.541</ele>
        <time>2018-04-18T12:25:40Z</time>
      </trkpt>
      <trkpt lat="48.6894" lon="2.46748">
        <ele>146.548</ele>
        <time>2018-04-18T12:25:44Z</time>
      </trkpt>
      <trkpt lat="48.68945" lon="2.46751">
        <ele>146.555</ele>
        <time>2018-04-18T12:25:48Z</time>
      </trkpt>
      <trkpt lat="48.68948" lon="2.46752">
        <ele>146.559</ele>
        <time>2018-04-18T12:25:50Z</time>
      </trkpt>
      <trkpt lat="48.6895" lon="2.46753">
        <ele>146.564</ele>
        <time>2018-04-18T12:25:52Z</time>
      </trkpt>
      <trkpt lat="48.68956" lon="2.46757">
        <ele>146.575</ele>
        <time>2018-04-18T12:25:56Z</time>
      </trkpt>
      <trkpt lat="48.6896" lon="2.46758">
        <ele>146.582</ele>
        <time>2018-04-18T12:25:58Z</time>
      </trkpt>
      <trkpt lat="48.68966" lon="2.46759">
        <ele>146.598</ele>
        <time>2018-04-18T12:26:02Z</time>
      </trkpt>
      <trkpt lat="48.68971" lon="2.46759">
        <ele>146.612</ele>
        <time>2018-04-18T12:26:05Z</time>
      </trkpt>
      <trkpt lat="48.68976" lon="2.46761">
        <ele>146.631</ele>
        <time>2018-04-18T12:26:09Z</time>
      </trkpt>
      <trkpt lat="48.68978" lon="2.46762">
        <ele>146.641</ele>
        <time>2018-04-18T12:26:11Z</time>
      </trkpt>
      <trkpt lat="48.68988" lon="2.46775">
        <ele>146.846</ele>
        <time>2018-04-18T12:26:29Z</time>
      </trkpt>
      <trkpt lat="48.68998" lon="2.46762">
        <ele>146.849</ele>
        <time>2018-04-18T12:26:33Z</time>
      </trkpt>
      <trkpt lat="48.69003" lon="2.46764">
        <ele>146.852</ele>
        <time>2018-04-18T12:26:37Z</time>
      </trkpt>
      <trkpt lat="48.69008" lon="2.46766">
        <ele>146.856</ele>
        <time>2018-04-18T12:26:41Z</time>
      </trkpt>
      <trkpt lat="48.69013" lon="2.46768">
        <ele>146.861</ele>
        <time>2018-04-18T12:26:44Z</time>
      </trkpt>
      <trkpt lat="48.69017" lon="2.46769">
        <ele>146.867</ele>
        <time>2018-04-18T12:26:48Z</time>
      </trkpt>
      <trkpt lat="48.6902" lon="2.4677">
        <ele>146.872</ele>
        <time>2018-04-18T12:26:51Z</time>
      </trkpt>
      <trkpt lat="48.69024" lon="2.46764">
        <ele>146.885</ele>
        <time>2018-04-18T12:27:00Z</time>
      </trkpt>
      <trkpt lat="48.69025" lon="2.46756">
        <ele>146.89</ele>
        <time>2018-04-18T12:27:04Z</time>
      </trkpt>
      <trkpt lat="48.69029" lon="2.4675">
        <ele>146.894</ele>
        <time>2018-04-18T12:27:07Z</time>
      </trkpt>
      <trkpt lat="48.69031" lon="2.46746">
        <ele>146.897</ele>
        <time>2018-04-18T12:27:09Z</time>
      </trkpt>
      <trkpt lat="48.69033" lon="2.46743">
        <ele>146.902</ele>
        <time>2018-04-18T12:27:12Z</time>
      </trkpt>
      <trkpt lat="48.69037" lon="2.46739">
        <ele>146.912</ele>
        <time>2018-04-18T12:27:18Z</time>
      </trkpt>
      <trkpt lat="48.6904" lon="2.46733">
        <ele>146.914</ele>
        <time>2018-04-18T12:27:25Z</time>
      </trkpt>
      <trkpt lat="48.69043" lon="2.46725">
        <ele>146.908</ele>
        <time>2018-04-18T12:27:30Z</time>
      </trkpt>
      <trkpt lat="48.69046" lon="2.4672">
        <ele>146.901</ele>
        <time>2018-04-18T12:27:33Z</time>
      </trkpt>
      <trkpt lat="48.69048" lon="2.46716">
        <ele>146.892</ele>
        <time>2018-04-18T12:27:36Z</time>
      </trkpt>
      <trkpt lat="48.69052" lon="2.4671">
        <ele>146.874</ele>
        <time>2018-04-18T12:27:41Z</time>
      </trkpt>
      <trkpt lat="48.69055" lon="2.46707">
        <ele>146.866</ele>
        <time>2018-04-18T12:27:43Z</time>
      </trkpt>
      <trkpt lat="48.69057" lon="2.46704">
        <ele>146.857</ele>
        <time>2018-04-18T12:27:45Z</time>
      </trkpt>
      <trkpt lat="48.69059" lon="2.46701">
        <ele>146.848</ele>
        <time>2018-04-18T12:27:47Z</time>
      </trkpt>
      <trkpt lat="48.69061" lon="2.46698">
        <ele>146.838</ele>
        <time>2018-04-18T12:27:49Z</time>
      </trkpt>
      <trkpt lat="48.69064" lon="2.46691">
        <ele>146.822</ele>
        <time>2018-04-18T12:27:52Z</time>
      </trkpt>
      <trkpt lat="48.69068" lon="2.46688">
        <ele>146.799</ele>
        <time>2018-04-18T12:27:56Z</time>
      </trkpt>
      <trkpt lat="48.69073" lon="2.4669">
        <ele>146.768</ele>
        <time>2018-04-18T12:28:01Z</time>
      </trkpt>
      <trkpt lat="48.69079" lon="2.4669">
        <ele>146.733</ele>
        <time>2018-04-18T12:28:06Z</time>
      </trkpt>
      <trkpt lat="48.69085" lon="2.46688">
        <ele>146.71</ele>
        <time>2018-04-18T12:28:09Z</time>
      </trkpt>
      <trkpt lat="48.6909" lon="2.46684">
        <ele>146.668</ele>
        <time>2018-04-18T12:28:14Z</time>
      </trkpt>
      <trkpt lat="48.69093" lon="2.46682">
        <ele>146.631</ele>
        <time>2018-04-18T12:28:18Z</time>
      </trkpt>
      <trkpt lat="48.69098" lon="2.46684">
        <ele>146.582</ele>
        <time>2018-04-18T12:28:23Z</time>
      </trkpt>
      <trkpt lat="48.69102" lon="2.46687">
        <ele>146.54</ele>
        <time>2018-04-18T12:28:27Z</time>
      </trkpt>
      <trkpt lat="48.69108" lon="2.46688">
        <ele>146.495</ele>
        <time>2018-04-18T12:28:31Z</time>
      </trkpt>
      <trkpt lat="48.69113" lon="2.46691">
        <ele>146.461</ele>
        <time>2018-04-18T12:28:34Z</time>
      </trkpt>
      <trkpt lat="48.69116" lon="2.46693">
        <ele>146.429</ele>
        <time>2018-04-18T12:28:38Z</time>
      </trkpt>
      <trkpt lat="48.69121" lon="2.46693">
        <ele>146.375</ele>
        <time>2018-04-18T12:28:44Z</time>
      </trkpt>
      <trkpt lat="48.69126" lon="2.46691">
        <ele>146.344</ele>
        <time>2018-04-18T12:28:48Z</time>
      </trkpt>
      <trkpt lat="48.6913" lon="2.46688">
        <ele>146.317</ele>
        <time>2018-04-18T12:28:54Z</time>
      </trkpt>
      <trkpt lat="48.6913" lon="2.46688">
        <ele>146.317</ele>
        <time>2018-04-18T12:32:56Z</time>
      </trkpt>
      <trkpt lat="48.69139" lon="2.46682">
        <ele>145.797</ele>
        <time>2018-04-18T12:32:57Z</time>
      </trkpt>
      <trkpt lat="48.69145" lon="2.46683">
        <ele>145.748</ele>
        <time>2018-04-18T12:33:02Z</time>
      </trkpt>
      <trkpt lat="48.6915" lon="2.46681">
        <ele>145.712</ele>
        <time>2018-04-18T12:33:06Z</time>
      </trkpt>
      <trkpt lat="48.69154" lon="2.46677">
        <ele>145.674</ele>
        <time>2018-04-18T12:33:11Z</time>
      </trkpt>
      <trkpt lat="48.69159" lon="2.46673">
        <ele>145.638</ele>
        <time>2018-04-18T12:33:16Z</time>
      </trkpt>
      <trkpt lat="48.69164" lon="2.46671">
        <ele>145.617</ele>
        <time>2018-04-18T12:33:19Z</time>
      </trkpt>
      <trkpt lat="48.69166" lon="2.4667">
        <ele>145.603</ele>
        <time>2018-04-18T12:33:21Z</time>
      </trkpt>
      <trkpt lat="48.69169" lon="2.46669">
        <ele>145.591</ele>
        <time>2018-04-18T12:33:23Z</time>
      </trkpt>
      <trkpt lat="48.69172" lon="2.46669">
        <ele>145.555</ele>
        <time>2018-04-18T12:33:29Z</time>
      </trkpt>
      <trkpt lat="48.69176" lon="2.46666">
        <ele>145.525</ele>
        <time>2018-04-18T12:33:34Z</time>
      </trkpt>
      <trkpt lat="48.69181" lon="2.46661">
        <ele>145.504</ele>
        <time>2018-04-18T12:33:37Z</time>
      </trkpt>
      <trkpt lat="48.69184" lon="2.46658">
        <ele>145.488</ele>
        <time>2018-04-18T12:33:39Z</time>
      </trkpt>
      <trkpt lat="48.69186" lon="2.46657">
        <ele>145.472</ele>
        <time>2018-04-18T12:33:41Z</time>
      </trkpt>
      <trkpt lat="48.69189" lon="2.4665">
        <ele>145.431</ele>
        <time>2018-04-18T12:33:46Z</time>
      </trkpt>
      <trkpt lat="48.69193" lon="2.46646">
        <ele>145.4</ele>
        <time>2018-04-18T12:33:50Z</time>
      </trkpt>
      <trkpt lat="48.69195" lon="2.46643">
        <ele>145.38</ele>
        <time>2018-04-18T12:33:53Z</time>
      </trkpt>
      <trkpt lat="48.69197" lon="2.46641">
        <ele>145.358</ele>
        <time>2018-04-18T12:33:57Z</time>
      </trkpt>
      <trkpt lat="48.69202" lon="2.46639">
        <ele>145.328</ele>
        <time>2018-04-18T12:34:03Z</time>
      </trkpt>
      <trkpt lat="48.69208" lon="2.46634">
        <ele>145.305</ele>
        <time>2018-04-18T12:34:08Z</time>
      </trkpt>
      <trkpt lat="48.6921" lon="2.46633">
        <ele>145.296</ele>
        <time>2018-04-18T12:34:10Z</time>
      </trkpt>
      <trkpt lat="48.69215" lon="2.46632">
        <ele>145.281</ele>
        <time>2018-04-18T12:34:14Z</time>
      </trkpt>
      <trkpt lat="48.69218" lon="2.46631">
        <ele>145.274</ele>
        <time>2018-04-18T12:34:16Z</time>
      </trkpt>
      <trkpt lat="48.6922" lon="2.46631">
        <ele>145.268</ele>
        <time>2018-04-18T12:34:18Z</time>
      </trkpt>
      <trkpt lat="48.69223" lon="2.4663">
        <ele>145.261</ele>
        <time>2018-04-18T12:34:20Z</time>
      </trkpt>
      <trkpt lat="48.69227" lon="2.46627">
        <ele>145.251</ele>
        <time>2018-04-18T12:34:23Z</time>
      </trkpt>
      <trkpt lat="48.69229" lon="2.46619">
        <ele>145.241</ele>
        <time>2018-04-18T12:34:27Z</time>
      </trkpt>
      <trkpt lat="48.6923" lon="2.4661">
        <ele>145.227</ele>
        <time>2018-04-18T12:34:32Z</time>
      </trkpt>
      <trkpt lat="48.69233" lon="2.46602">
        <ele>145.216</ele>
        <time>2018-04-18T12:34:35Z</time>
      </trkpt>
      <trkpt lat="48.69234" lon="2.46599">
        <ele>145.208</ele>
        <time>2018-04-18T12:34:37Z</time>
      </trkpt>
      <trkpt lat="48.69237" lon="2.46592">
        <ele>145.188</ele>
        <time>2018-04-18T12:34:42Z</time>
      </trkpt>
      <trkpt lat="48.6924" lon="2.46586">
        <ele>145.167</ele>
        <time>2018-04-18T12:34:49Z</time>
      </trkpt>
      <trkpt lat="48.69241" lon="2.46579">
        <ele>145.157</ele>
        <time>2018-04-18T12:34:53Z</time>
      </trkpt>
      <trkpt lat="48.69245" lon="2.46574">
        <ele>145.144</ele>
        <time>2018-04-18T12:34:57Z</time>
      </trkpt>
      <trkpt lat="48.69248" lon="2.46567">
        <ele>145.122</ele>
        <time>2018-04-18T12:35:02Z</time>
      </trkpt>
      <trkpt lat="48.69249" lon="2.46563">
        <ele>145.114</ele>
        <time>2018-04-18T12:35:04Z</time>
      </trkpt>
      <trkpt lat="48.69251" lon="2.46556">
        <ele>145.092</ele>
        <time>2018-04-18T12:35:10Z</time>
      </trkpt>
      <trkpt lat="48.69255" lon="2.4655">
        <ele>145.074</ele>
        <time>2018-04-18T12:35:15Z</time>
      </trkpt>
      <trkpt lat="48.69259" lon="2.46545">
        <ele>145.064</ele>
        <time>2018-04-18T12:35:19Z</time>
      </trkpt>
      <trkpt lat="48.69262" lon="2.4654">
        <ele>145.053</ele>
        <time>2018-04-18T12:35:23Z</time>
      </trkpt>
      <trkpt lat="48.69264" lon="2.46536">
        <ele>145.048</ele>
        <time>2018-04-18T12:35:25Z</time>
      </trkpt>
      <trkpt lat="48.69266" lon="2.46529">
        <ele>145.041</ele>
        <time>2018-04-18T12:35:29Z</time>
      </trkpt>
      <trkpt lat="48.6927" lon="2.46524">
        <ele>145.035</ele>
        <time>2018-04-18T12:35:34Z</time>
      </trkpt>
      <trkpt lat="48.69274" lon="2.46521">
        <ele>145.033</ele>
        <time>2018-04-18T12:35:38Z</time>
      </trkpt>
      <trkpt lat="48.69278" lon="2.46515">
        <ele>145.031</ele>
        <time>2018-04-18T12:35:42Z</time>
      </trkpt>
      <trkpt lat="48.6928" lon="2.46513">
        <ele>145.03</ele>
        <time>2018-04-18T12:35:45Z</time>
      </trkpt>
      <trkpt lat="48.69285" lon="2.46509">
        <ele>145.027</ele>
        <time>2018-04-18T12:35:51Z</time>
      </trkpt>
      <trkpt lat="48.69289" lon="2.46504">
        <ele>145.019</ele>
        <time>2018-04-18T12:35:55Z</time>
      </trkpt>
      <trkpt lat="48.69293" lon="2.46499">
        <ele>145.01</ele>
        <time>2018-04-18T12:35:58Z</time>
      </trkpt>
      <trkpt lat="48.69298" lon="2.46494">
        <ele>145.001</ele>
        <time>2018-04-18T12:36:01Z</time>
      </trkpt>
      <trkpt lat="48.69302" lon="2.46489">
        <ele>144.986</ele>
        <time>2018-04-18T12:36:06Z</time>
      </trkpt>
      <trkpt lat="48.69305" lon="2.46483">
        <ele>144.97</ele>
        <time>2018-04-18T12:36:11Z</time>
      </trkpt>
      <trkpt lat="48.69307" lon="2.46476">
        <ele>144.952</ele>
        <time>2018-04-18T12:36:16Z</time>
      </trkpt>
      <trkpt lat="48.69308" lon="2.46469">
        <ele>144.938</ele>
        <time>2018-04-18T12:36:20Z</time>
      </trkpt>
      <trkpt lat="48.69309" lon="2.46466">
        <ele>144.931</ele>
        <time>2018-04-18T12:36:22Z</time>
      </trkpt>
      <trkpt lat="48.6931" lon="2.46461">
        <ele>144.921</ele>
        <time>2018-04-18T12:36:25Z</time>
      </trkpt>
      <trkpt lat="48.69311" lon="2.46458">
        <ele>144.91</ele>
        <time>2018-04-18T12:36:28Z</time>
      </trkpt>
      <trkpt lat="48.69315" lon="2.46453">
        <ele>144.892</ele>
        <time>2018-04-18T12:36:32Z</time>
      </trkpt>
      <trkpt lat="48.69318" lon="2.46448">
        <ele>144.85</ele>
        <time>2018-04-18T12:36:39Z</time>
      </trkpt>
      <trkpt lat="48.69323" lon="2.46445">
        <ele>144.814</ele>
        <time>2018-04-18T12:36:45Z</time>
      </trkpt>
      <trkpt lat="48.69327" lon="2.46439">
        <ele>144.793</ele>
        <time>2018-04-18T12:36:48Z</time>
      </trkpt>
      <trkpt lat="48.6933" lon="2.46433">
        <ele>144.771</ele>
        <time>2018-04-18T12:36:51Z</time>
      </trkpt>
      <trkpt lat="48.69332" lon="2.4643">
        <ele>144.756</ele>
        <time>2018-04-18T12:36:53Z</time>
      </trkpt>
      <trkpt lat="48.69333" lon="2.46426">
        <ele>144.74</ele>
        <time>2018-04-18T12:36:55Z</time>
      </trkpt>
      <trkpt lat="48.69336" lon="2.46421">
        <ele>144.703</ele>
        <time>2018-04-18T12:36:59Z</time>
      </trkpt>
      <trkpt lat="48.69337" lon="2.46417">
        <ele>144.673</ele>
        <time>2018-04-18T12:37:02Z</time>
      </trkpt>
      <trkpt lat="48.69339" lon="2.46411">
        <ele>144.621</ele>
        <time>2018-04-18T12:37:07Z</time>
      </trkpt>
      <trkpt lat="48.69342" lon="2.46405">
        <ele>144.572</ele>
        <time>2018-04-18T12:37:12Z</time>
      </trkpt>
      <trkpt lat="48.69344" lon="2.46402">
        <ele>144.552</ele>
        <time>2018-04-18T12:37:14Z</time>
      </trkpt>
      <trkpt lat="48.69346" lon="2.46398">
        <ele>144.531</ele>
        <time>2018-04-18T12:37:16Z</time>
      </trkpt>
      <trkpt lat="48.69347" lon="2.46395">
        <ele>144.512</ele>
        <time>2018-04-18T12:37:18Z</time>
      </trkpt>
      <trkpt lat="48.69349" lon="2.46392">
        <ele>144.492</ele>
        <time>2018-04-18T12:37:20Z</time>
      </trkpt>
      <trkpt lat="48.69353" lon="2.46388">
        <ele>144.453</ele>
        <time>2018-04-18T12:37:24Z</time>
      </trkpt>
      <trkpt lat="48.69358" lon="2.46384">
        <ele>144.424</ele>
        <time>2018-04-18T12:37:27Z</time>
      </trkpt>
      <trkpt lat="48.6936" lon="2.46382">
        <ele>144.405</ele>
        <time>2018-04-18T12:37:29Z</time>
      </trkpt>
      <trkpt lat="48.69365" lon="2.46378">
        <ele>144.367</ele>
        <time>2018-04-18T12:37:33Z</time>
      </trkpt>
      <trkpt lat="48.69368" lon="2.46373">
        <ele>144.329</ele>
        <time>2018-04-18T12:37:37Z</time>
      </trkpt>
      <trkpt lat="48.69371" lon="2.46367">
        <ele>144.28</ele>
        <time>2018-04-18T12:37:42Z</time>
      </trkpt>
      <trkpt lat="48.69376" lon="2.46359">
        <ele>144.241</ele>
        <time>2018-04-18T12:37:46Z</time>
      </trkpt>
      <trkpt lat="48.69377" lon="2.46352">
        <ele>144.202</ele>
        <time>2018-04-18T12:37:50Z</time>
      </trkpt>
      <trkpt lat="48.69379" lon="2.46346">
        <ele>144.153</ele>
        <time>2018-04-18T12:37:55Z</time>
      </trkpt>
      <trkpt lat="48.69383" lon="2.4635">
        <ele>144.082</ele>
        <time>2018-04-18T12:38:03Z</time>
      </trkpt>
      <trkpt lat="48.69388" lon="2.46356">
        <ele>144.051</ele>
        <time>2018-04-18T12:38:07Z</time>
      </trkpt>
      <trkpt lat="48.69393" lon="2.46356">
        <ele>144.021</ele>
        <time>2018-04-18T12:38:11Z</time>
      </trkpt>
      <trkpt lat="48.69398" lon="2.46352">
        <ele>143.99</ele>
        <time>2018-04-18T12:38:15Z</time>
      </trkpt>
      <trkpt lat="48.69401" lon="2.46346">
        <ele>143.965</ele>
        <time>2018-04-18T12:38:18Z</time>
      </trkpt>
      <trkpt lat="48.69403" lon="2.4634">
        <ele>143.923</ele>
        <time>2018-04-18T12:38:23Z</time>
      </trkpt>
      <trkpt lat="48.69407" lon="2.46334">
        <ele>143.888</ele>
        <time>2018-04-18T12:38:27Z</time>
      </trkpt>
      <trkpt lat="48.69409" lon="2.46328">
        <ele>143.861</ele>
        <time>2018-04-18T12:38:30Z</time>
      </trkpt>
      <trkpt lat="48.69411" lon="2.46325">
        <ele>143.843</ele>
        <time>2018-04-18T12:38:32Z</time>
      </trkpt>
      <trkpt lat="48.69412" lon="2.46322">
        <ele>143.825</ele>
        <time>2018-04-18T12:38:34Z</time>
      </trkpt>
      <trkpt lat="48.69414" lon="2.46317">
        <ele>143.796</ele>
        <time>2018-04-18T12:38:37Z</time>
      </trkpt>
      <trkpt lat="48.69416" lon="2.4631">
        <ele>143.743</ele>
        <time>2018-04-18T12:38:42Z</time>
      </trkpt>
      <trkpt lat="48.69418" lon="2.46304">
        <ele>143.696</ele>
        <time>2018-04-18T12:38:46Z</time>
      </trkpt>
      <trkpt lat="48.69422" lon="2.46299">
        <ele>143.657</ele>
        <time>2018-04-18T12:38:49Z</time>
      </trkpt>
      <trkpt lat="48.69425" lon="2.46295">
        <ele>143.629</ele>
        <time>2018-04-18T12:38:51Z</time>
      </trkpt>
      <trkpt lat="48.69427" lon="2.46292">
        <ele>143.601</ele>
        <time>2018-04-18T12:38:53Z</time>
      </trkpt>
      <trkpt lat="48.69429" lon="2.4629">
        <ele>143.571</ele>
        <time>2018-04-18T12:38:55Z</time>
      </trkpt>
      <trkpt lat="48.69431" lon="2.46288">
        <ele>143.541</ele>
        <time>2018-04-18T12:38:57Z</time>
      </trkpt>
      <trkpt lat="48.69433" lon="2.46286">
        <ele>143.511</ele>
        <time>2018-04-18T12:38:59Z</time>
      </trkpt>
      <trkpt lat="48.69435" lon="2.46284">
        <ele>143.481</ele>
        <time>2018-04-18T12:39:01Z</time>
      </trkpt>
      <trkpt lat="48.69438" lon="2.46281">
        <ele>143.437</ele>
        <time>2018-04-18T12:39:04Z</time>
      </trkpt>
      <trkpt lat="48.69441" lon="2.46279">
        <ele>143.392</ele>
        <time>2018-04-18T12:39:07Z</time>
      </trkpt>
      <trkpt lat="48.69444" lon="2.46275">
        <ele>143.345</ele>
        <time>2018-04-18T12:39:10Z</time>
      </trkpt>
      <trkpt lat="48.69446" lon="2.46273">
        <ele>143.313</ele>
        <time>2018-04-18T12:39:12Z</time>
      </trkpt>
      <trkpt lat="48.69451" lon="2.46269">
        <ele>143.25</ele>
        <time>2018-04-18T12:39:16Z</time>
      </trkpt>
      <trkpt lat="48.69455" lon="2.46268">
        <ele>143.202</ele>
        <time>2018-04-18T12:39:19Z</time>
      </trkpt>
      <trkpt lat="48.69459" lon="2.46263">
        <ele>143.139</ele>
        <time>2018-04-18T12:39:23Z</time>
      </trkpt>
      <trkpt lat="48.69461" lon="2.4626">
        <ele>143.106</ele>
        <time>2018-04-18T12:39:25Z</time>
      </trkpt>
      <trkpt lat="48.69464" lon="2.46258">
        <ele>143.073</ele>
        <time>2018-04-18T12:39:27Z</time>
      </trkpt>
      <trkpt lat="48.69467" lon="2.46252">
        <ele>142.988</ele>
        <time>2018-04-18T12:39:32Z</time>
      </trkpt>
      <trkpt lat="48.69469" lon="2.46248">
        <ele>142.937</ele>
        <time>2018-04-18T12:39:35Z</time>
      </trkpt>
      <trkpt lat="48.69471" lon="2.46245">
        <ele>142.903</ele>
        <time>2018-04-18T12:39:37Z</time>
      </trkpt>
      <trkpt lat="48.69475" lon="2.46241">
        <ele>142.819</ele>
        <time>2018-04-18T12:39:42Z</time>
      </trkpt>
      <trkpt lat="48.69478" lon="2.46238">
        <ele>142.786</ele>
        <time>2018-04-18T12:39:44Z</time>
      </trkpt>
      <trkpt lat="48.69482" lon="2.46234">
        <ele>142.738</ele>
        <time>2018-04-18T12:39:47Z</time>
      </trkpt>
      <trkpt lat="48.69484" lon="2.46231">
        <ele>142.708</ele>
        <time>2018-04-18T12:39:49Z</time>
      </trkpt>
      <trkpt lat="48.69488" lon="2.46226">
        <ele>142.638</ele>
        <time>2018-04-18T12:39:54Z</time>
      </trkpt>
      <trkpt lat="48.6949" lon="2.46224">
        <ele>142.612</ele>
        <time>2018-04-18T12:39:56Z</time>
      </trkpt>
      <trkpt lat="48.69492" lon="2.46221">
        <ele>142.565</ele>
        <time>2018-04-18T12:40:00Z</time>
      </trkpt>
      <trkpt lat="48.69497" lon="2.4622">
        <ele>142.532</ele>
        <time>2018-04-18T12:40:03Z</time>
      </trkpt>
      <trkpt lat="48.69502" lon="2.46219">
        <ele>142.493</ele>
        <time>2018-04-18T12:40:07Z</time>
      </trkpt>
      <trkpt lat="48.69505" lon="2.46218">
        <ele>142.475</ele>
        <time>2018-04-18T12:40:09Z</time>
      </trkpt>
      <trkpt lat="48.69507" lon="2.46217">
        <ele>142.457</ele>
        <time>2018-04-18T12:40:11Z</time>
      </trkpt>
      <trkpt lat="48.69512" lon="2.46215">
        <ele>142.424</ele>
        <time>2018-04-18T12:40:15Z</time>
      </trkpt>
      <trkpt lat="48.69514" lon="2.46214">
        <ele>142.408</ele>
        <time>2018-04-18T12:40:17Z</time>
      </trkpt>
      <trkpt lat="48.6952" lon="2.46214">
        <ele>142.38</ele>
        <time>2018-04-18T12:40:21Z</time>
      </trkpt>
      <trkpt lat="48.69522" lon="2.46214">
        <ele>142.367</ele>
        <time>2018-04-18T12:40:23Z</time>
      </trkpt>
      <trkpt lat="48.69526" lon="2.46213">
        <ele>142.351</ele>
        <time>2018-04-18T12:40:26Z</time>
      </trkpt>
      <trkpt lat="48.69531" lon="2.46211">
        <ele>142.331</ele>
        <time>2018-04-18T12:40:30Z</time>
      </trkpt>
      <trkpt lat="48.69534" lon="2.46206">
        <ele>142.315</ele>
        <time>2018-04-18T12:40:34Z</time>
      </trkpt>
      <trkpt lat="48.69538" lon="2.46199">
        <ele>142.299</ele>
        <time>2018-04-18T12:40:38Z</time>
      </trkpt>
      <trkpt lat="48.6954" lon="2.46193">
        <ele>142.288</ele>
        <time>2018-04-18T12:40:41Z</time>
      </trkpt>
      <trkpt lat="48.69542" lon="2.46186">
        <ele>142.274</ele>
        <time>2018-04-18T12:40:45Z</time>
      </trkpt>
      <trkpt lat="48.69543" lon="2.46179">
        <ele>142.262</ele>
        <time>2018-04-18T12:40:49Z</time>
      </trkpt>
      <trkpt lat="48.69546" lon="2.46173">
        <ele>142.251</ele>
        <time>2018-04-18T12:40:53Z</time>
      </trkpt>
      <trkpt lat="48.69547" lon="2.4617">
        <ele>142.247</ele>
        <time>2018-04-18T12:40:55Z</time>
      </trkpt>
      <trkpt lat="48.69548" lon="2.46163">
        <ele>142.242</ele>
        <time>2018-04-18T12:40:59Z</time>
      </trkpt>
      <trkpt lat="48.6955" lon="2.46156">
        <ele>142.241</ele>
        <time>2018-04-18T12:41:03Z</time>
      </trkpt>
      <trkpt lat="48.69551" lon="2.46152">
        <ele>142.243</ele>
        <time>2018-04-18T12:41:06Z</time>
      </trkpt>
      <trkpt lat="48.69552" lon="2.46149">
        <ele>142.245</ele>
        <time>2018-04-18T12:41:09Z</time>
      </trkpt>
      <trkpt lat="48.69556" lon="2.46143">
        <ele>142.251</ele>
        <time>2018-04-18T12:41:14Z</time>
      </trkpt>
      <trkpt lat="48.69559" lon="2.46138">
        <ele>142.259</ele>
        <time>2018-04-18T12:41:19Z</time>
      </trkpt>
      <trkpt lat="48.69563" lon="2.46133">
        <ele>142.263</ele>
        <time>2018-04-18T12:41:23Z</time>
      </trkpt>
      <trkpt lat="48.69568" lon="2.4613">
        <ele>142.267</ele>
        <time>2018-04-18T12:41:27Z</time>
      </trkpt>
      <trkpt lat="48.6957" lon="2.46129">
        <ele>142.268</ele>
        <time>2018-04-18T12:41:29Z</time>
      </trkpt>
      <trkpt lat="48.69574" lon="2.46124">
        <ele>142.267</ele>
        <time>2018-04-18T12:41:33Z</time>
      </trkpt>
      <trkpt lat="48.69577" lon="2.46118">
        <ele>142.264</ele>
        <time>2018-04-18T12:41:38Z</time>
      </trkpt>
      <trkpt lat="48.69577" lon="2.46118">
        <ele>142.264</ele>
        <time>2018-04-18T12:41:46Z</time>
      </trkpt>
      <trkpt lat="48.69577" lon="2.46118">
        <ele>142.264</ele>
        <time>2018-04-18T12:41:47Z</time>
      </trkpt>
      <trkpt lat="48.69577" lon="2.46111">
        <ele>142.236</ele>
        <time>2018-04-18T12:41:51Z</time>
      </trkpt>
      <trkpt lat="48.69576" lon="2.46105">
        <ele>142.221</ele>
        <time>2018-04-18T12:41:56Z</time>
      </trkpt>
      <trkpt lat="48.69575" lon="2.46101">
        <ele>142.213</ele>
        <time>2018-04-18T12:41:58Z</time>
      </trkpt>
      <trkpt lat="48.69575" lon="2.46101">
        <ele>142.213</ele>
        <time>2018-04-18T12:42:05Z</time>
      </trkpt>
      <trkpt lat="48.69575" lon="2.46101">
        <ele>142.213</ele>
        <time>2018-04-18T12:42:06Z</time>
      </trkpt>
      <trkpt lat="48.69583" lon="2.46099">
        <ele>142.13</ele>
        <time>2018-04-18T12:42:18Z</time>
      </trkpt>
      <trkpt lat="48.69583" lon="2.46111">
        <ele>142.108</ele>
        <time>2018-04-18T12:42:27Z</time>
      </trkpt>
      <trkpt lat="48.69586" lon="2.46116">
        <ele>142.104</ele>
        <time>2018-04-18T12:42:31Z</time>
      </trkpt>
      <trkpt lat="48.69589" lon="2.46123">
        <ele>142.104</ele>
        <time>2018-04-18T12:42:36Z</time>
      </trkpt>
      <trkpt lat="48.69592" lon="2.46128">
        <ele>142.106</ele>
        <time>2018-04-18T12:42:41Z</time>
      </trkpt>
      <trkpt lat="48.69595" lon="2.46132">
        <ele>142.106</ele>
        <time>2018-04-18T12:42:43Z</time>
      </trkpt>
      <trkpt lat="48.69597" lon="2.46138">
        <ele>142.108</ele>
        <time>2018-04-18T12:42:48Z</time>
      </trkpt>
      <trkpt lat="48.69599" lon="2.46145">
        <ele>142.112</ele>
        <time>2018-04-18T12:42:52Z</time>
      </trkpt>
      <trkpt lat="48.69604" lon="2.46148">
        <ele>142.125</ele>
        <time>2018-04-18T12:42:58Z</time>
      </trkpt>
      <trkpt lat="48.69606" lon="2.4615">
        <ele>142.134</ele>
        <time>2018-04-18T12:43:01Z</time>
      </trkpt>
      <trkpt lat="48.6961" lon="2.46156">
        <ele>142.145</ele>
        <time>2018-04-18T12:43:04Z</time>
      </trkpt>
      <trkpt lat="48.69612" lon="2.46162">
        <ele>142.155</ele>
        <time>2018-04-18T12:43:07Z</time>
      </trkpt>
      <trkpt lat="48.69614" lon="2.46168">
        <ele>142.183</ele>
        <time>2018-04-18T12:43:15Z</time>
      </trkpt>
      <trkpt lat="48.69622" lon="2.46173">
        <ele>142.202</ele>
        <time>2018-04-18T12:43:21Z</time>
      </trkpt>
      <trkpt lat="48.69624" lon="2.46174">
        <ele>142.206</ele>
        <time>2018-04-18T12:43:22Z</time>
      </trkpt>
      <trkpt lat="48.69628" lon="2.46175">
        <ele>142.213</ele>
        <time>2018-04-18T12:43:24Z</time>
      </trkpt>
      <trkpt lat="48.69632" lon="2.4618">
        <ele>142.227</ele>
        <time>2018-04-18T12:43:28Z</time>
      </trkpt>
      <trkpt lat="48.69636" lon="2.46186">
        <ele>142.237</ele>
        <time>2018-04-18T12:43:31Z</time>
      </trkpt>
      <trkpt lat="48.69637" lon="2.46189">
        <ele>142.244</ele>
        <time>2018-04-18T12:43:33Z</time>
      </trkpt>
      <trkpt lat="48.69641" lon="2.46193">
        <ele>142.255</ele>
        <time>2018-04-18T12:43:37Z</time>
      </trkpt>
      <trkpt lat="48.69643" lon="2.46195">
        <ele>142.26</ele>
        <time>2018-04-18T12:43:39Z</time>
      </trkpt>
      <trkpt lat="48.69645" lon="2.46197">
        <ele>142.266</ele>
        <time>2018-04-18T12:43:41Z</time>
      </trkpt>
      <trkpt lat="48.6965" lon="2.462">
        <ele>142.28</ele>
        <time>2018-04-18T12:43:45Z</time>
      </trkpt>
      <trkpt lat="48.69655" lon="2.46198">
        <ele>142.292</ele>
        <time>2018-04-18T12:43:48Z</time>
      </trkpt>
      <trkpt lat="48.69658" lon="2.46193">
        <ele>142.306</ele>
        <time>2018-04-18T12:43:52Z</time>
      </trkpt>
      <trkpt lat="48.69662" lon="2.46187">
        <ele>142.32</ele>
        <time>2018-04-18T12:43:56Z</time>
      </trkpt>
      <trkpt lat="48.69668" lon="2.46182">
        <ele>142.328</ele>
        <time>2018-04-18T12:43:59Z</time>
      </trkpt>
      <trkpt lat="48.6967" lon="2.46179">
        <ele>142.33</ele>
        <time>2018-04-18T12:44:00Z</time>
      </trkpt>
      <trkpt lat="48.69673" lon="2.46177">
        <ele>142.335</ele>
        <time>2018-04-18T12:44:02Z</time>
      </trkpt>
      <trkpt lat="48.69678" lon="2.46174">
        <ele>142.338</ele>
        <time>2018-04-18T12:44:04Z</time>
      </trkpt>
      <trkpt lat="48.69681" lon="2.46172">
        <ele>142.342</ele>
        <time>2018-04-18T12:44:06Z</time>
      </trkpt>
      <trkpt lat="48.69685" lon="2.46168">
        <ele>142.352</ele>
        <time>2018-04-18T12:44:12Z</time>
      </trkpt>
      <trkpt lat="48.69687" lon="2.46162">
        <ele>142.36</ele>
        <time>2018-04-18T12:44:17Z</time>
      </trkpt>
      <trkpt lat="48.69689" lon="2.46159">
        <ele>142.364</ele>
        <time>2018-04-18T12:44:20Z</time>
      </trkpt>
      <trkpt lat="48.69693" lon="2.46155">
        <ele>142.369</ele>
        <time>2018-04-18T12:44:22Z</time>
      </trkpt>
      <trkpt lat="48.69698" lon="2.46151">
        <ele>142.385</ele>
        <time>2018-04-18T12:44:26Z</time>
      </trkpt>
      <trkpt lat="48.69699" lon="2.46145">
        <ele>142.424</ele>
        <time>2018-04-18T12:44:35Z</time>
      </trkpt>
      <trkpt lat="48.69702" lon="2.4614">
        <ele>142.451</ele>
        <time>2018-04-18T12:44:43Z</time>
      </trkpt>
      <trkpt lat="48.6971" lon="2.46132">
        <ele>142.461</ele>
        <time>2018-04-18T12:44:47Z</time>
      </trkpt>
      <trkpt lat="48.69713" lon="2.46128">
        <ele>142.464</ele>
        <time>2018-04-18T12:44:48Z</time>
      </trkpt>
      <trkpt lat="48.69718" lon="2.46124">
        <ele>142.474</ele>
        <time>2018-04-18T12:44:52Z</time>
      </trkpt>
      <trkpt lat="48.69721" lon="2.46121">
        <ele>142.477</ele>
        <time>2018-04-18T12:44:56Z</time>
      </trkpt>
      <trkpt lat="48.69726" lon="2.46116">
        <ele>142.466</ele>
        <time>2018-04-18T12:45:02Z</time>
      </trkpt>
      <trkpt lat="48.69728" lon="2.46113">
        <ele>142.452</ele>
        <time>2018-04-18T12:45:07Z</time>
      </trkpt>
      <trkpt lat="48.6973" lon="2.46111">
        <ele>142.444</ele>
        <time>2018-04-18T12:45:10Z</time>
      </trkpt>
      <trkpt lat="48.69735" lon="2.46107">
        <ele>142.43</ele>
        <time>2018-04-18T12:45:15Z</time>
      </trkpt>
      <trkpt lat="48.69737" lon="2.46105">
        <ele>142.424</ele>
        <time>2018-04-18T12:45:17Z</time>
      </trkpt>
      <trkpt lat="48.69742" lon="2.46101">
        <ele>142.409</ele>
        <time>2018-04-18T12:45:21Z</time>
      </trkpt>
      <trkpt lat="48.69746" lon="2.46096">
        <ele>142.389</ele>
        <time>2018-04-18T12:45:25Z</time>
      </trkpt>
      <trkpt lat="48.69749" lon="2.46093">
        <ele>142.37</ele>
        <time>2018-04-18T12:45:28Z</time>
      </trkpt>
      <trkpt lat="48.69753" lon="2.46088">
        <ele>142.334</ele>
        <time>2018-04-18T12:45:33Z</time>
      </trkpt>
      <trkpt lat="48.69753" lon="2.46088">
        <ele>142.334</ele>
        <time>2018-04-18T12:45:40Z</time>
      </trkpt>
      <trkpt lat="48.69753" lon="2.46088">
        <ele>142.334</ele>
        <time>2018-04-18T12:45:41Z</time>
      </trkpt>
      <trkpt lat="48.69757" lon="2.46082">
        <ele>142.259</ele>
        <time>2018-04-18T12:45:50Z</time>
      </trkpt>
      <trkpt lat="48.69759" lon="2.46079">
        <ele>142.24</ele>
        <time>2018-04-18T12:45:52Z</time>
      </trkpt>
      <trkpt lat="48.69761" lon="2.46076">
        <ele>142.222</ele>
        <time>2018-04-18T12:45:54Z</time>
      </trkpt>
      <trkpt lat="48.69765" lon="2.46072">
        <ele>142.172</ele>
        <time>2018-04-18T12:46:00Z</time>
      </trkpt>
      <trkpt lat="48.69769" lon="2.4607">
        <ele>142.115</ele>
        <time>2018-04-18T12:46:08Z</time>
      </trkpt>
      <trkpt lat="48.69772" lon="2.46069">
        <ele>142.097</ele>
        <time>2018-04-18T12:46:11Z</time>
      </trkpt>
      <trkpt lat="48.69777" lon="2.46065">
        <ele>142.073</ele>
        <time>2018-04-18T12:46:16Z</time>
      </trkpt>
      <trkpt lat="48.6978" lon="2.46061">
        <ele>142.056</ele>
        <time>2018-04-18T12:46:20Z</time>
      </trkpt>
      <trkpt lat="48.69784" lon="2.46057">
        <ele>142.037</ele>
        <time>2018-04-18T12:46:26Z</time>
      </trkpt>
      <trkpt lat="48.69789" lon="2.46052">
        <ele>142.027</ele>
        <time>2018-04-18T12:46:32Z</time>
      </trkpt>
      <trkpt lat="48.69791" lon="2.46049">
        <ele>142.025</ele>
        <time>2018-04-18T12:46:34Z</time>
      </trkpt>
      <trkpt lat="48.69795" lon="2.46045">
        <ele>142.019</ele>
        <time>2018-04-18T12:46:39Z</time>
      </trkpt>
      <trkpt lat="48.69799" lon="2.46041">
        <ele>142.014</ele>
        <time>2018-04-18T12:46:45Z</time>
      </trkpt>
      <trkpt lat="48.69804" lon="2.46036">
        <ele>142.011</ele>
        <time>2018-04-18T12:46:50Z</time>
      </trkpt>
      <trkpt lat="48.69807" lon="2.46035">
        <ele>142.01</ele>
        <time>2018-04-18T12:46:52Z</time>
      </trkpt>
      <trkpt lat="48.69809" lon="2.46033">
        <ele>142.01</ele>
        <time>2018-04-18T12:46:54Z</time>
      </trkpt>
      <trkpt lat="48.69811" lon="2.46031">
        <ele>142.01</ele>
        <time>2018-04-18T12:46:56Z</time>
      </trkpt>
      <trkpt lat="48.69813" lon="2.4603">
        <ele>142.011</ele>
        <time>2018-04-18T12:46:58Z</time>
      </trkpt>
      <trkpt lat="48.69817" lon="2.46028">
        <ele>142.015</ele>
        <time>2018-04-18T12:47:01Z</time>
      </trkpt>
      <trkpt lat="48.69819" lon="2.46027">
        <ele>142.02</ele>
        <time>2018-04-18T12:47:03Z</time>
      </trkpt>
      <trkpt lat="48.69823" lon="2.46023">
        <ele>142.029</ele>
        <time>2018-04-18T12:47:06Z</time>
      </trkpt>
      <trkpt lat="48.69827" lon="2.46017">
        <ele>142.037</ele>
        <time>2018-04-18T12:47:09Z</time>
      </trkpt>
      <trkpt lat="48.69831" lon="2.46012">
        <ele>142.04</ele>
        <time>2018-04-18T12:47:12Z</time>
      </trkpt>
      <trkpt lat="48.69834" lon="2.4601">
        <ele>142.041</ele>
        <time>2018-04-18T12:47:15Z</time>
      </trkpt>
      <trkpt lat="48.69835" lon="2.46008">
        <ele>142.04</ele>
        <time>2018-04-18T12:47:17Z</time>
      </trkpt>
      <trkpt lat="48.69838" lon="2.46006">
        <ele>142.036</ele>
        <time>2018-04-18T12:47:20Z</time>
      </trkpt>
      <trkpt lat="48.69843" lon="2.46001">
        <ele>142.022</ele>
        <time>2018-04-18T12:47:25Z</time>
      </trkpt>
      <trkpt lat="48.69847" lon="2.45997">
        <ele>142.003</ele>
        <time>2018-04-18T12:47:30Z</time>
      </trkpt>
      <trkpt lat="48.69852" lon="2.45993">
        <ele>141.977</ele>
        <time>2018-04-18T12:47:35Z</time>
      </trkpt>
      <trkpt lat="48.69856" lon="2.45989">
        <ele>141.954</ele>
        <time>2018-04-18T12:47:39Z</time>
      </trkpt>
      <trkpt lat="48.69858" lon="2.45986">
        <ele>141.94</ele>
        <time>2018-04-18T12:47:41Z</time>
      </trkpt>
      <trkpt lat="48.6986" lon="2.45984">
        <ele>141.927</ele>
        <time>2018-04-18T12:47:43Z</time>
      </trkpt>
      <trkpt lat="48.69862" lon="2.45982">
        <ele>141.913</ele>
        <time>2018-04-18T12:47:45Z</time>
      </trkpt>
      <trkpt lat="48.69864" lon="2.45979">
        <ele>141.891</ele>
        <time>2018-04-18T12:47:48Z</time>
      </trkpt>
      <trkpt lat="48.69866" lon="2.45976">
        <ele>141.869</ele>
        <time>2018-04-18T12:47:51Z</time>
      </trkpt>
      <trkpt lat="48.69871" lon="2.45973">
        <ele>141.831</ele>
        <time>2018-04-18T12:47:56Z</time>
      </trkpt>
      <trkpt lat="48.69874" lon="2.45968">
        <ele>141.793</ele>
        <time>2018-04-18T12:48:01Z</time>
      </trkpt>
      <trkpt lat="48.69877" lon="2.45962">
        <ele>141.758</ele>
        <time>2018-04-18T12:48:06Z</time>
      </trkpt>
      <trkpt lat="48.69879" lon="2.45958">
        <ele>141.739</ele>
        <time>2018-04-18T12:48:09Z</time>
      </trkpt>
      <trkpt lat="48.69884" lon="2.45954">
        <ele>141.719</ele>
        <time>2018-04-18T12:48:12Z</time>
      </trkpt>
      <trkpt lat="48.69886" lon="2.45952">
        <ele>141.705</ele>
        <time>2018-04-18T12:48:14Z</time>
      </trkpt>
      <trkpt lat="48.6989" lon="2.45947">
        <ele>141.677</ele>
        <time>2018-04-18T12:48:18Z</time>
      </trkpt>
      <trkpt lat="48.69893" lon="2.45941">
        <ele>141.64</ele>
        <time>2018-04-18T12:48:23Z</time>
      </trkpt>
      <trkpt lat="48.69898" lon="2.45936">
        <ele>141.606</ele>
        <time>2018-04-18T12:48:27Z</time>
      </trkpt>
      <trkpt lat="48.69901" lon="2.45933">
        <ele>141.577</ele>
        <time>2018-04-18T12:48:30Z</time>
      </trkpt>
      <trkpt lat="48.69906" lon="2.4593">
        <ele>141.536</ele>
        <time>2018-04-18T12:48:34Z</time>
      </trkpt>
      <trkpt lat="48.69908" lon="2.45928">
        <ele>141.515</ele>
        <time>2018-04-18T12:48:36Z</time>
      </trkpt>
      <trkpt lat="48.69912" lon="2.45922">
        <ele>141.469</ele>
        <time>2018-04-18T12:48:40Z</time>
      </trkpt>
      <trkpt lat="48.69914" lon="2.4592">
        <ele>141.444</ele>
        <time>2018-04-18T12:48:42Z</time>
      </trkpt>
      <trkpt lat="48.69916" lon="2.45918">
        <ele>141.404</ele>
        <time>2018-04-18T12:48:45Z</time>
      </trkpt>
      <trkpt lat="48.69921" lon="2.45914">
        <ele>141.351</ele>
        <time>2018-04-18T12:48:49Z</time>
      </trkpt>
      <trkpt lat="48.69923" lon="2.45913">
        <ele>141.323</ele>
        <time>2018-04-18T12:48:51Z</time>
      </trkpt>
      <trkpt lat="48.69926" lon="2.45911">
        <ele>141.294</ele>
        <time>2018-04-18T12:48:53Z</time>
      </trkpt>
      <trkpt lat="48.69929" lon="2.45909">
        <ele>141.265</ele>
        <time>2018-04-18T12:48:55Z</time>
      </trkpt>
      <trkpt lat="48.69934" lon="2.45906">
        <ele>141.205</ele>
        <time>2018-04-18T12:48:59Z</time>
      </trkpt>
      <trkpt lat="48.69937" lon="2.45904">
        <ele>141.174</ele>
        <time>2018-04-18T12:49:01Z</time>
      </trkpt>
      <trkpt lat="48.69939" lon="2.45902">
        <ele>141.142</ele>
        <time>2018-04-18T12:49:03Z</time>
      </trkpt>
      <trkpt lat="48.69944" lon="2.45899">
        <ele>141.067</ele>
        <time>2018-04-18T12:49:08Z</time>
      </trkpt>
      <trkpt lat="48.69946" lon="2.45896">
        <ele>141.038</ele>
        <time>2018-04-18T12:49:10Z</time>
      </trkpt>
      <trkpt lat="48.69949" lon="2.45894">
        <ele>140.996</ele>
        <time>2018-04-18T12:49:13Z</time>
      </trkpt>
      <trkpt lat="48.69953" lon="2.45889">
        <ele>140.941</ele>
        <time>2018-04-18T12:49:17Z</time>
      </trkpt>
      <trkpt lat="48.69957" lon="2.45884">
        <ele>140.876</ele>
        <time>2018-04-18T12:49:22Z</time>
      </trkpt>
      <trkpt lat="48.69959" lon="2.45881">
        <ele>140.838</ele>
        <time>2018-04-18T12:49:25Z</time>
      </trkpt>
      <trkpt lat="48.69961" lon="2.45877">
        <ele>140.801</ele>
        <time>2018-04-18T12:49:28Z</time>
      </trkpt>
      <trkpt lat="48.69964" lon="2.45873">
        <ele>140.766</ele>
        <time>2018-04-18T12:49:31Z</time>
      </trkpt>
      <trkpt lat="48.69967" lon="2.4587">
        <ele>140.745</ele>
        <time>2018-04-18T12:49:33Z</time>
      </trkpt>
      <trkpt lat="48.69972" lon="2.45866">
        <ele>140.709</ele>
        <time>2018-04-18T12:49:37Z</time>
      </trkpt>
      <trkpt lat="48.69976" lon="2.45863">
        <ele>140.684</ele>
        <time>2018-04-18T12:49:40Z</time>
      </trkpt>
      <trkpt lat="48.6998" lon="2.45858">
        <ele>140.655</ele>
        <time>2018-04-18T12:49:44Z</time>
      </trkpt>
      <trkpt lat="48.69981" lon="2.45856">
        <ele>140.642</ele>
        <time>2018-04-18T12:49:46Z</time>
      </trkpt>
      <trkpt lat="48.69987" lon="2.45853">
        <ele>140.623</ele>
        <time>2018-04-18T12:49:50Z</time>
      </trkpt>
      <trkpt lat="48.6999" lon="2.45852">
        <ele>140.615</ele>
        <time>2018-04-18T12:49:52Z</time>
      </trkpt>
      <trkpt lat="48.69993" lon="2.4585">
        <ele>140.608</ele>
        <time>2018-04-18T12:49:54Z</time>
      </trkpt>
      <trkpt lat="48.69996" lon="2.45848">
        <ele>140.599</ele>
        <time>2018-04-18T12:49:57Z</time>
      </trkpt>
      <trkpt lat="48.69998" lon="2.45846">
        <ele>140.594</ele>
        <time>2018-04-18T12:49:59Z</time>
      </trkpt>
      <trkpt lat="48.70001" lon="2.45845">
        <ele>140.59</ele>
        <time>2018-04-18T12:50:02Z</time>
      </trkpt>
      <trkpt lat="48.70005" lon="2.45841">
        <ele>140.586</ele>
        <time>2018-04-18T12:50:05Z</time>
      </trkpt>
      <trkpt lat="48.70009" lon="2.45839">
        <ele>140.587</ele>
        <time>2018-04-18T12:50:10Z</time>
      </trkpt>
      <trkpt lat="48.70014" lon="2.45834">
        <ele>140.596</ele>
        <time>2018-04-18T12:50:15Z</time>
      </trkpt>
      <trkpt lat="48.70017" lon="2.4583">
        <ele>140.602</ele>
        <time>2018-04-18T12:50:18Z</time>
      </trkpt>
      <trkpt lat="48.70021" lon="2.45827">
        <ele>140.617</ele>
        <time>2018-04-18T12:50:23Z</time>
      </trkpt>
      <trkpt lat="48.70023" lon="2.45825">
        <ele>140.625</ele>
        <time>2018-04-18T12:50:25Z</time>
      </trkpt>
      <trkpt lat="48.70027" lon="2.45823">
        <ele>140.638</ele>
        <time>2018-04-18T12:50:28Z</time>
      </trkpt>
      <trkpt lat="48.70029" lon="2.45822">
        <ele>140.649</ele>
        <time>2018-04-18T12:50:30Z</time>
      </trkpt>
      <trkpt lat="48.70032" lon="2.4582">
        <ele>140.666</ele>
        <time>2018-04-18T12:50:33Z</time>
      </trkpt>
      <trkpt lat="48.70036" lon="2.45815">
        <ele>140.695</ele>
        <time>2018-04-18T12:50:38Z</time>
      </trkpt>
      <trkpt lat="48.70039" lon="2.45813">
        <ele>140.71</ele>
        <time>2018-04-18T12:50:41Z</time>
      </trkpt>
      <trkpt lat="48.7004" lon="2.45811">
        <ele>140.718</ele>
        <time>2018-04-18T12:50:43Z</time>
      </trkpt>
      <trkpt lat="48.70044" lon="2.45806">
        <ele>140.732</ele>
        <time>2018-04-18T12:50:46Z</time>
      </trkpt>
      <trkpt lat="48.70047" lon="2.45801">
        <ele>140.749</ele>
        <time>2018-04-18T12:50:49Z</time>
      </trkpt>
      <trkpt lat="48.70049" lon="2.45798">
        <ele>140.768</ele>
        <time>2018-04-18T12:50:52Z</time>
      </trkpt>
      <trkpt lat="48.70053" lon="2.45793">
        <ele>140.79</ele>
        <time>2018-04-18T12:50:55Z</time>
      </trkpt>
      <trkpt lat="48.70055" lon="2.45791">
        <ele>140.805</ele>
        <time>2018-04-18T12:50:57Z</time>
      </trkpt>
      <trkpt lat="48.70059" lon="2.45788">
        <ele>140.833</ele>
        <time>2018-04-18T12:51:01Z</time>
      </trkpt>
      <trkpt lat="48.70062" lon="2.45782">
        <ele>140.858</ele>
        <time>2018-04-18T12:51:07Z</time>
      </trkpt>
      <trkpt lat="48.70063" lon="2.4578">
        <ele>140.861</ele>
        <time>2018-04-18T12:51:19Z</time>
      </trkpt>
      <trkpt lat="48.70067" lon="2.45775">
        <ele>140.864</ele>
        <time>2018-04-18T12:51:39Z</time>
      </trkpt>
      <trkpt lat="48.70069" lon="2.45772">
        <ele>140.864</ele>
        <time>2018-04-18T12:51:46Z</time>
      </trkpt>
      <trkpt lat="48.70071" lon="2.45769">
        <ele>140.864</ele>
        <time>2018-04-18T12:51:54Z</time>
      </trkpt>
      <trkpt lat="48.70076" lon="2.45769">
        <ele>140.879</ele>
        <time>2018-04-18T12:52:20Z</time>
      </trkpt>
      <trkpt lat="48.70078" lon="2.4577">
        <ele>140.97</ele>
        <time>2018-04-18T12:52:51Z</time>
      </trkpt>
      <trkpt lat="48.70083" lon="2.45766">
        <ele>141.037</ele>
        <time>2018-04-18T12:52:57Z</time>
      </trkpt>
      <trkpt lat="48.70087" lon="2.45762">
        <ele>141.077</ele>
        <time>2018-04-18T12:53:01Z</time>
      </trkpt>
      <trkpt lat="48.70089" lon="2.4576">
        <ele>141.105</ele>
        <time>2018-04-18T12:53:04Z</time>
      </trkpt>
      <trkpt lat="48.70094" lon="2.45757">
        <ele>141.162</ele>
        <time>2018-04-18T12:53:11Z</time>
      </trkpt>
      <trkpt lat="48.70096" lon="2.45756">
        <ele>141.184</ele>
        <time>2018-04-18T12:53:14Z</time>
      </trkpt>
      <trkpt lat="48.70099" lon="2.45754">
        <ele>141.204</ele>
        <time>2018-04-18T12:53:17Z</time>
      </trkpt>
      <trkpt lat="48.70104" lon="2.45749">
        <ele>141.226</ele>
        <time>2018-04-18T12:53:21Z</time>
      </trkpt>
      <trkpt lat="48.70107" lon="2.45743">
        <ele>141.245</ele>
        <time>2018-04-18T12:53:25Z</time>
      </trkpt>
      <trkpt lat="48.7011" lon="2.45736">
        <ele>141.262</ele>
        <time>2018-04-18T12:53:29Z</time>
      </trkpt>
      <trkpt lat="48.70114" lon="2.45731">
        <ele>141.281</ele>
        <time>2018-04-18T12:53:34Z</time>
      </trkpt>
      <trkpt lat="48.70117" lon="2.45729">
        <ele>141.291</ele>
        <time>2018-04-18T12:53:37Z</time>
      </trkpt>
      <trkpt lat="48.70119" lon="2.45727">
        <ele>141.296</ele>
        <time>2018-04-18T12:53:39Z</time>
      </trkpt>
      <trkpt lat="48.70125" lon="2.45723">
        <ele>141.301</ele>
        <time>2018-04-18T12:53:44Z</time>
      </trkpt>
      <trkpt lat="48.7013" lon="2.45721">
        <ele>141.3</ele>
        <time>2018-04-18T12:53:48Z</time>
      </trkpt>
      <trkpt lat="48.70135" lon="2.45717">
        <ele>141.293</ele>
        <time>2018-04-18T12:53:52Z</time>
      </trkpt>
      <trkpt lat="48.70138" lon="2.45714">
        <ele>141.284</ele>
        <time>2018-04-18T12:53:56Z</time>
      </trkpt>
      <trkpt lat="48.70142" lon="2.45709">
        <ele>141.271</ele>
        <time>2018-04-18T12:54:01Z</time>
      </trkpt>
      <trkpt lat="48.70147" lon="2.45705">
        <ele>141.261</ele>
        <time>2018-04-18T12:54:05Z</time>
      </trkpt>
      <trkpt lat="48.70151" lon="2.45703">
        <ele>141.251</ele>
        <time>2018-04-18T12:54:10Z</time>
      </trkpt>
      <trkpt lat="48.70155" lon="2.457">
        <ele>141.244</ele>
        <time>2018-04-18T12:54:14Z</time>
      </trkpt>
      <trkpt lat="48.70158" lon="2.45697">
        <ele>141.241</ele>
        <time>2018-04-18T12:54:17Z</time>
      </trkpt>
      <trkpt lat="48.70163" lon="2.45697">
        <ele>141.238</ele>
        <time>2018-04-18T12:54:21Z</time>
      </trkpt>
      <trkpt lat="48.70168" lon="2.45694">
        <ele>141.234</ele>
        <time>2018-04-18T12:54:25Z</time>
      </trkpt>
      <trkpt lat="48.70172" lon="2.45689">
        <ele>141.226</ele>
        <time>2018-04-18T12:54:28Z</time>
      </trkpt>
      <trkpt lat="48.70176" lon="2.45684">
        <ele>141.21</ele>
        <time>2018-04-18T12:54:33Z</time>
      </trkpt>
      <trkpt lat="48.70178" lon="2.45681">
        <ele>141.198</ele>
        <time>2018-04-18T12:54:36Z</time>
      </trkpt>
      <trkpt lat="48.70181" lon="2.45679">
        <ele>141.188</ele>
        <time>2018-04-18T12:54:38Z</time>
      </trkpt>
      <trkpt lat="48.70186" lon="2.45675">
        <ele>141.171</ele>
        <time>2018-04-18T12:54:41Z</time>
      </trkpt>
      <trkpt lat="48.7019" lon="2.45673">
        <ele>141.156</ele>
        <time>2018-04-18T12:54:44Z</time>
      </trkpt>
      <trkpt lat="48.70193" lon="2.45672">
        <ele>141.146</ele>
        <time>2018-04-18T12:54:46Z</time>
      </trkpt>
      <trkpt lat="48.70198" lon="2.4567">
        <ele>141.131</ele>
        <time>2018-04-18T12:54:49Z</time>
      </trkpt>
      <trkpt lat="48.70201" lon="2.45666">
        <ele>141.115</ele>
        <time>2018-04-18T12:54:52Z</time>
      </trkpt>
      <trkpt lat="48.70205" lon="2.45662">
        <ele>141.091</ele>
        <time>2018-04-18T12:54:56Z</time>
      </trkpt>
      <trkpt lat="48.70209" lon="2.4566">
        <ele>141.056</ele>
        <time>2018-04-18T12:55:01Z</time>
      </trkpt>
      <trkpt lat="48.70213" lon="2.45656">
        <ele>141.009</ele>
        <time>2018-04-18T12:55:07Z</time>
      </trkpt>
      <trkpt lat="48.70217" lon="2.4565">
        <ele>140.98</ele>
        <time>2018-04-18T12:55:10Z</time>
      </trkpt>
      <trkpt lat="48.70219" lon="2.45647">
        <ele>140.969</ele>
        <time>2018-04-18T12:55:11Z</time>
      </trkpt>
      <trkpt lat="48.7022" lon="2.45644">
        <ele>140.946</ele>
        <time>2018-04-18T12:55:13Z</time>
      </trkpt>
      <trkpt lat="48.70222" lon="2.45641">
        <ele>140.911</ele>
        <time>2018-04-18T12:55:16Z</time>
      </trkpt>
      <trkpt lat="48.70227" lon="2.45634">
        <ele>140.864</ele>
        <time>2018-04-18T12:55:20Z</time>
      </trkpt>
      <trkpt lat="48.70231" lon="2.45628">
        <ele>140.829</ele>
        <time>2018-04-18T12:55:23Z</time>
      </trkpt>
      <trkpt lat="48.70235" lon="2.45624">
        <ele>140.795</ele>
        <time>2018-04-18T12:55:26Z</time>
      </trkpt>
      <trkpt lat="48.70239" lon="2.45621">
        <ele>140.739</ele>
        <time>2018-04-18T12:55:31Z</time>
      </trkpt>
      <trkpt lat="48.70242" lon="2.45619">
        <ele>140.717</ele>
        <time>2018-04-18T12:55:33Z</time>
      </trkpt>
      <trkpt lat="48.70245" lon="2.45618">
        <ele>140.673</ele>
        <time>2018-04-18T12:55:37Z</time>
      </trkpt>
      <trkpt lat="48.7025" lon="2.45614">
        <ele>140.636</ele>
        <time>2018-04-18T12:55:40Z</time>
      </trkpt>
      <trkpt lat="48.70254" lon="2.45612">
        <ele>140.622</ele>
        <time>2018-04-18T12:55:41Z</time>
      </trkpt>
      <trkpt lat="48.70258" lon="2.45609">
        <ele>140.567</ele>
        <time>2018-04-18T12:55:45Z</time>
      </trkpt>
      <trkpt lat="48.70262" lon="2.45604">
        <ele>140.53</ele>
        <time>2018-04-18T12:55:48Z</time>
      </trkpt>
      <trkpt lat="48.70265" lon="2.45601">
        <ele>140.498</ele>
        <time>2018-04-18T12:55:51Z</time>
      </trkpt>
      <trkpt lat="48.70269" lon="2.45595">
        <ele>140.469</ele>
        <time>2018-04-18T12:55:54Z</time>
      </trkpt>
      <trkpt lat="48.70271" lon="2.4559">
        <ele>140.449</ele>
        <time>2018-04-18T12:55:56Z</time>
      </trkpt>
      <trkpt lat="48.70274" lon="2.45585">
        <ele>140.409</ele>
        <time>2018-04-18T12:56:00Z</time>
      </trkpt>
      <trkpt lat="48.70276" lon="2.45582">
        <ele>140.388</ele>
        <time>2018-04-18T12:56:02Z</time>
      </trkpt>
      <trkpt lat="48.70279" lon="2.45578">
        <ele>140.357</ele>
        <time>2018-04-18T12:56:05Z</time>
      </trkpt>
      <trkpt lat="48.70281" lon="2.45575">
        <ele>140.326</ele>
        <time>2018-04-18T12:56:08Z</time>
      </trkpt>
      <trkpt lat="48.70284" lon="2.45572">
        <ele>140.296</ele>
        <time>2018-04-18T12:56:11Z</time>
      </trkpt>
      <trkpt lat="48.70289" lon="2.45568">
        <ele>140.25</ele>
        <time>2018-04-18T12:56:16Z</time>
      </trkpt>
      <trkpt lat="48.70292" lon="2.45566">
        <ele>140.233</ele>
        <time>2018-04-18T12:56:18Z</time>
      </trkpt>
      <trkpt lat="48.70295" lon="2.45563">
        <ele>140.215</ele>
        <time>2018-04-18T12:56:20Z</time>
      </trkpt>
      <trkpt lat="48.70299" lon="2.45561">
        <ele>140.178</ele>
        <time>2018-04-18T12:56:24Z</time>
      </trkpt>
      <trkpt lat="48.70303" lon="2.45557">
        <ele>140.149</ele>
        <time>2018-04-18T12:56:27Z</time>
      </trkpt>
      <trkpt lat="48.70305" lon="2.45555">
        <ele>140.13</ele>
        <time>2018-04-18T12:56:29Z</time>
      </trkpt>
      <trkpt lat="48.70307" lon="2.45553">
        <ele>140.111</ele>
        <time>2018-04-18T12:56:31Z</time>
      </trkpt>
      <trkpt lat="48.70312" lon="2.45549">
        <ele>140.06</ele>
        <time>2018-04-18T12:56:36Z</time>
      </trkpt>
      <trkpt lat="48.70317" lon="2.45545">
        <ele>139.994</ele>
        <time>2018-04-18T12:56:42Z</time>
      </trkpt>
      <trkpt lat="48.70319" lon="2.45544">
        <ele>139.958</ele>
        <time>2018-04-18T12:56:45Z</time>
      </trkpt>
      <trkpt lat="48.70322" lon="2.45542">
        <ele>139.932</ele>
        <time>2018-04-18T12:56:47Z</time>
      </trkpt>
      <trkpt lat="48.70325" lon="2.4554">
        <ele>139.918</ele>
        <time>2018-04-18T12:56:48Z</time>
      </trkpt>
      <trkpt lat="48.70329" lon="2.45535">
        <ele>139.888</ele>
        <time>2018-04-18T12:56:50Z</time>
      </trkpt>
      <trkpt lat="48.7033" lon="2.45532">
        <ele>139.859</ele>
        <time>2018-04-18T12:56:52Z</time>
      </trkpt>
      <trkpt lat="48.70333" lon="2.45529">
        <ele>139.817</ele>
        <time>2018-04-18T12:56:55Z</time>
      </trkpt>
      <trkpt lat="48.70336" lon="2.45525">
        <ele>139.775</ele>
        <time>2018-04-18T12:56:58Z</time>
      </trkpt>
      <trkpt lat="48.70339" lon="2.45522">
        <ele>139.747</ele>
        <time>2018-04-18T12:57:00Z</time>
      </trkpt>
      <trkpt lat="48.70342" lon="2.45517">
        <ele>139.706</ele>
        <time>2018-04-18T12:57:03Z</time>
      </trkpt>
      <trkpt lat="48.70344" lon="2.45515">
        <ele>139.679</ele>
        <time>2018-04-18T12:57:05Z</time>
      </trkpt>
      <trkpt lat="48.70346" lon="2.45513">
        <ele>139.639</ele>
        <time>2018-04-18T12:57:08Z</time>
      </trkpt>
      <trkpt lat="48.70348" lon="2.45511">
        <ele>139.612</ele>
        <time>2018-04-18T12:57:10Z</time>
      </trkpt>
      <trkpt lat="48.7035" lon="2.45509">
        <ele>139.586</ele>
        <time>2018-04-18T12:57:12Z</time>
      </trkpt>
      <trkpt lat="48.70352" lon="2.45507">
        <ele>139.56</ele>
        <time>2018-04-18T12:57:14Z</time>
      </trkpt>
      <trkpt lat="48.70358" lon="2.45503">
        <ele>139.497</ele>
        <time>2018-04-18T12:57:19Z</time>
      </trkpt>
      <trkpt lat="48.70362" lon="2.45496">
        <ele>139.471</ele>
        <time>2018-04-18T12:57:21Z</time>
      </trkpt>
      <trkpt lat="48.70365" lon="2.45489">
        <ele>139.431</ele>
        <time>2018-04-18T12:57:24Z</time>
      </trkpt>
      <trkpt lat="48.70369" lon="2.45484">
        <ele>139.392</ele>
        <time>2018-04-18T12:57:27Z</time>
      </trkpt>
      <trkpt lat="48.70372" lon="2.45481">
        <ele>139.366</ele>
        <time>2018-04-18T12:57:29Z</time>
      </trkpt>
      <trkpt lat="48.70377" lon="2.45476">
        <ele>139.306</ele>
        <time>2018-04-18T12:57:34Z</time>
      </trkpt>
      <trkpt lat="48.7038" lon="2.45472">
        <ele>139.261</ele>
        <time>2018-04-18T12:57:38Z</time>
      </trkpt>
      <trkpt lat="48.70384" lon="2.45469">
        <ele>139.212</ele>
        <time>2018-04-18T12:57:43Z</time>
      </trkpt>
      <trkpt lat="48.70387" lon="2.45467">
        <ele>139.195</ele>
        <time>2018-04-18T12:57:45Z</time>
      </trkpt>
      <trkpt lat="48.70391" lon="2.45465">
        <ele>139.147</ele>
        <time>2018-04-18T12:57:51Z</time>
      </trkpt>
      <trkpt lat="48.70394" lon="2.45464">
        <ele>139.123</ele>
        <time>2018-04-18T12:57:54Z</time>
      </trkpt>
      <trkpt lat="48.70399" lon="2.4546">
        <ele>139.089</ele>
        <time>2018-04-18T12:57:58Z</time>
      </trkpt>
      <trkpt lat="48.70401" lon="2.45459">
        <ele>139.07</ele>
        <time>2018-04-18T12:58:00Z</time>
      </trkpt>
      <trkpt lat="48.70404" lon="2.45457">
        <ele>139.049</ele>
        <time>2018-04-18T12:58:02Z</time>
      </trkpt>
      <trkpt lat="48.70408" lon="2.45455">
        <ele>138.994</ele>
        <time>2018-04-18T12:58:07Z</time>
      </trkpt>
      <trkpt lat="48.70412" lon="2.4545">
        <ele>138.959</ele>
        <time>2018-04-18T12:58:10Z</time>
      </trkpt>
      <trkpt lat="48.70417" lon="2.45443">
        <ele>138.922</ele>
        <time>2018-04-18T12:58:13Z</time>
      </trkpt>
      <trkpt lat="48.70421" lon="2.45437">
        <ele>138.886</ele>
        <time>2018-04-18T12:58:16Z</time>
      </trkpt>
      <trkpt lat="48.70423" lon="2.45433">
        <ele>138.863</ele>
        <time>2018-04-18T12:58:18Z</time>
      </trkpt>
      <trkpt lat="48.70424" lon="2.4543">
        <ele>138.84</ele>
        <time>2018-04-18T12:58:20Z</time>
      </trkpt>
      <trkpt lat="48.70428" lon="2.45427">
        <ele>138.788</ele>
        <time>2018-04-18T12:58:25Z</time>
      </trkpt>
      <trkpt lat="48.70431" lon="2.45425">
        <ele>138.76</ele>
        <time>2018-04-18T12:58:28Z</time>
      </trkpt>
      <trkpt lat="48.70436" lon="2.45421">
        <ele>138.726</ele>
        <time>2018-04-18T12:58:32Z</time>
      </trkpt>
      <trkpt lat="48.70441" lon="2.45417">
        <ele>138.694</ele>
        <time>2018-04-18T12:58:36Z</time>
      </trkpt>
      <trkpt lat="48.70447" lon="2.45412">
        <ele>138.648</ele>
        <time>2018-04-18T12:58:42Z</time>
      </trkpt>
      <trkpt lat="48.70449" lon="2.4541">
        <ele>138.634</ele>
        <time>2018-04-18T12:58:44Z</time>
      </trkpt>
      <trkpt lat="48.70451" lon="2.45408">
        <ele>138.614</ele>
        <time>2018-04-18T12:58:47Z</time>
      </trkpt>
      <trkpt lat="48.70454" lon="2.45404">
        <ele>138.599</ele>
        <time>2018-04-18T12:58:49Z</time>
      </trkpt>
      <trkpt lat="48.70457" lon="2.45401">
        <ele>138.583</ele>
        <time>2018-04-18T12:58:51Z</time>
      </trkpt>
      <trkpt lat="48.70461" lon="2.45398">
        <ele>138.541</ele>
        <time>2018-04-18T12:58:57Z</time>
      </trkpt>
      <trkpt lat="48.70465" lon="2.45395">
        <ele>138.505</ele>
        <time>2018-04-18T12:59:01Z</time>
      </trkpt>
      <trkpt lat="48.70469" lon="2.45389">
        <ele>138.465</ele>
        <time>2018-04-18T12:59:05Z</time>
      </trkpt>
      <trkpt lat="48.70474" lon="2.45386">
        <ele>138.412</ele>
        <time>2018-04-18T12:59:10Z</time>
      </trkpt>
      <trkpt lat="48.70478" lon="2.45387">
        <ele>138.371</ele>
        <time>2018-04-18T12:59:14Z</time>
      </trkpt>
      <trkpt lat="48.70481" lon="2.45388">
        <ele>138.35</ele>
        <time>2018-04-18T12:59:16Z</time>
      </trkpt>
      <trkpt lat="48.70483" lon="2.45388">
        <ele>138.329</ele>
        <time>2018-04-18T12:59:18Z</time>
      </trkpt>
      <trkpt lat="48.70489" lon="2.4539">
        <ele>138.287</ele>
        <time>2018-04-18T12:59:22Z</time>
      </trkpt>
      <trkpt lat="48.70492" lon="2.4539">
        <ele>138.265</ele>
        <time>2018-04-18T12:59:24Z</time>
      </trkpt>
      <trkpt lat="48.70494" lon="2.45391">
        <ele>138.243</ele>
        <time>2018-04-18T12:59:26Z</time>
      </trkpt>
      <trkpt lat="48.70499" lon="2.45389">
        <ele>138.192</ele>
        <time>2018-04-18T12:59:31Z</time>
      </trkpt>
      <trkpt lat="48.70502" lon="2.45388">
        <ele>138.161</ele>
        <time>2018-04-18T12:59:34Z</time>
      </trkpt>
      <trkpt lat="48.70507" lon="2.45388">
        <ele>138.11</ele>
        <time>2018-04-18T12:59:39Z</time>
      </trkpt>
      <trkpt lat="48.70512" lon="2.45389">
        <ele>138.071</ele>
        <time>2018-04-18T12:59:43Z</time>
      </trkpt>
      <trkpt lat="48.70515" lon="2.45389">
        <ele>138.053</ele>
        <time>2018-04-18T12:59:45Z</time>
      </trkpt>
      <trkpt lat="48.70518" lon="2.4539">
        <ele>138.034</ele>
        <time>2018-04-18T12:59:47Z</time>
      </trkpt>
      <trkpt lat="48.7052" lon="2.45391">
        <ele>138.015</ele>
        <time>2018-04-18T12:59:49Z</time>
      </trkpt>
      <trkpt lat="48.70523" lon="2.45391">
        <ele>137.996</ele>
        <time>2018-04-18T12:59:51Z</time>
      </trkpt>
      <trkpt lat="48.70528" lon="2.45392">
        <ele>137.956</ele>
        <time>2018-04-18T12:59:55Z</time>
      </trkpt>
      <trkpt lat="48.70531" lon="2.45393">
        <ele>137.906</ele>
        <time>2018-04-18T13:00:03Z</time>
      </trkpt>
      <trkpt lat="48.70534" lon="2.45393">
        <ele>137.862</ele>
        <time>2018-04-18T13:00:07Z</time>
      </trkpt>
      <trkpt lat="48.70539" lon="2.45392">
        <ele>137.803</ele>
        <time>2018-04-18T13:00:13Z</time>
      </trkpt>
      <trkpt lat="48.70544" lon="2.45393">
        <ele>137.76</ele>
        <time>2018-04-18T13:00:18Z</time>
      </trkpt>
      <trkpt lat="48.70549" lon="2.45393">
        <ele>137.727</ele>
        <time>2018-04-18T13:00:22Z</time>
      </trkpt>
      <trkpt lat="48.70552" lon="2.45392">
        <ele>137.711</ele>
        <time>2018-04-18T13:00:24Z</time>
      </trkpt>
      <trkpt lat="48.70556" lon="2.45392">
        <ele>137.683</ele>
        <time>2018-04-18T13:00:28Z</time>
      </trkpt>
      <trkpt lat="48.70561" lon="2.45393">
        <ele>137.657</ele>
        <time>2018-04-18T13:00:32Z</time>
      </trkpt>
      <trkpt lat="48.70563" lon="2.45394">
        <ele>137.645</ele>
        <time>2018-04-18T13:00:34Z</time>
      </trkpt>
      <trkpt lat="48.70567" lon="2.45396">
        <ele>137.633</ele>
        <time>2018-04-18T13:00:36Z</time>
      </trkpt>
      <trkpt lat="48.70569" lon="2.45397">
        <ele>137.621</ele>
        <time>2018-04-18T13:00:38Z</time>
      </trkpt>
      <trkpt lat="48.70572" lon="2.45398">
        <ele>137.609</ele>
        <time>2018-04-18T13:00:40Z</time>
      </trkpt>
      <trkpt lat="48.70577" lon="2.45399">
        <ele>137.58</ele>
        <time>2018-04-18T13:00:45Z</time>
      </trkpt>
      <trkpt lat="48.7058" lon="2.45399">
        <ele>137.568</ele>
        <time>2018-04-18T13:00:47Z</time>
      </trkpt>
      <trkpt lat="48.70582" lon="2.454">
        <ele>137.55</ele>
        <time>2018-04-18T13:00:50Z</time>
      </trkpt>
      <trkpt lat="48.70586" lon="2.45401">
        <ele>137.533</ele>
        <time>2018-04-18T13:00:53Z</time>
      </trkpt>
      <trkpt lat="48.70588" lon="2.45401">
        <ele>137.521</ele>
        <time>2018-04-18T13:00:55Z</time>
      </trkpt>
      <trkpt lat="48.70594" lon="2.454">
        <ele>137.5</ele>
        <time>2018-04-18T13:00:59Z</time>
      </trkpt>
      <trkpt lat="48.70599" lon="2.45401">
        <ele>137.484</ele>
        <time>2018-04-18T13:01:02Z</time>
      </trkpt>
      <trkpt lat="48.70603" lon="2.45401">
        <ele>137.465</ele>
        <time>2018-04-18T13:01:06Z</time>
      </trkpt>
      <trkpt lat="48.70609" lon="2.45403">
        <ele>137.452</ele>
        <time>2018-04-18T13:01:09Z</time>
      </trkpt>
      <trkpt lat="48.70612" lon="2.45405">
        <ele>137.442</ele>
        <time>2018-04-18T13:01:11Z</time>
      </trkpt>
      <trkpt lat="48.70617" lon="2.45408">
        <ele>137.409</ele>
        <time>2018-04-18T13:01:17Z</time>
      </trkpt>
      <trkpt lat="48.7062" lon="2.45411">
        <ele>137.38</ele>
        <time>2018-04-18T13:01:22Z</time>
      </trkpt>
      <trkpt lat="48.70624" lon="2.4541">
        <ele>137.336</ele>
        <time>2018-04-18T13:01:29Z</time>
      </trkpt>
      <trkpt lat="48.70629" lon="2.45411">
        <ele>137.313</ele>
        <time>2018-04-18T13:01:32Z</time>
      </trkpt>
      <trkpt lat="48.70634" lon="2.45411">
        <ele>137.279</ele>
        <time>2018-04-18T13:01:36Z</time>
      </trkpt>
      <trkpt lat="48.70639" lon="2.45412">
        <ele>137.244</ele>
        <time>2018-04-18T13:01:40Z</time>
      </trkpt>
      <trkpt lat="48.70643" lon="2.45411">
        <ele>137.207</ele>
        <time>2018-04-18T13:01:44Z</time>
      </trkpt>
      <trkpt lat="48.70649" lon="2.45412">
        <ele>137.159</ele>
        <time>2018-04-18T13:01:49Z</time>
      </trkpt>
      <trkpt lat="48.70652" lon="2.45419">
        <ele>137.126</ele>
        <time>2018-04-18T13:01:52Z</time>
      </trkpt>
      <trkpt lat="48.70655" lon="2.45423">
        <ele>137.089</ele>
        <time>2018-04-18T13:01:55Z</time>
      </trkpt>
      <trkpt lat="48.70658" lon="2.45426">
        <ele>137.062</ele>
        <time>2018-04-18T13:01:57Z</time>
      </trkpt>
      <trkpt lat="48.7066" lon="2.45432">
        <ele>137.017</ele>
        <time>2018-04-18T13:02:00Z</time>
      </trkpt>
      <trkpt lat="48.70662" lon="2.45437">
        <ele>136.971</ele>
        <time>2018-04-18T13:02:03Z</time>
      </trkpt>
      <trkpt lat="48.70667" lon="2.45439">
        <ele>136.908</ele>
        <time>2018-04-18T13:02:07Z</time>
      </trkpt>
      <trkpt lat="48.70671" lon="2.45443">
        <ele>136.862</ele>
        <time>2018-04-18T13:02:10Z</time>
      </trkpt>
      <trkpt lat="48.70675" lon="2.45449">
        <ele>136.799</ele>
        <time>2018-04-18T13:02:14Z</time>
      </trkpt>
      <trkpt lat="48.70679" lon="2.45453">
        <ele>136.732</ele>
        <time>2018-04-18T13:02:18Z</time>
      </trkpt>
      <trkpt lat="48.70684" lon="2.45456">
        <ele>136.662</ele>
        <time>2018-04-18T13:02:22Z</time>
      </trkpt>
      <trkpt lat="48.70686" lon="2.45462">
        <ele>136.545</ele>
        <time>2018-04-18T13:02:30Z</time>
      </trkpt>
      <trkpt lat="48.70688" lon="2.45465">
        <ele>136.507</ele>
        <time>2018-04-18T13:02:32Z</time>
      </trkpt>
      <trkpt lat="48.70692" lon="2.45469">
        <ele>136.43</ele>
        <time>2018-04-18T13:02:36Z</time>
      </trkpt>
      <trkpt lat="48.70694" lon="2.4547">
        <ele>136.334</ele>
        <time>2018-04-18T13:02:41Z</time>
      </trkpt>
      <trkpt lat="48.70698" lon="2.45475">
        <ele>136.257</ele>
        <time>2018-04-18T13:02:45Z</time>
      </trkpt>
      <trkpt lat="48.707" lon="2.45477">
        <ele>136.22</ele>
        <time>2018-04-18T13:02:47Z</time>
      </trkpt>
      <trkpt lat="48.70703" lon="2.45478">
        <ele>136.188</ele>
        <time>2018-04-18T13:02:55Z</time>
      </trkpt>
      <trkpt lat="48.70708" lon="2.45481">
        <ele>136.073</ele>
        <time>2018-04-18T13:03:02Z</time>
      </trkpt>
      <trkpt lat="48.70712" lon="2.45481">
        <ele>136.005</ele>
        <time>2018-04-18T13:03:06Z</time>
      </trkpt>
      <trkpt lat="48.70717" lon="2.45482">
        <ele>135.926</ele>
        <time>2018-04-18T13:03:11Z</time>
      </trkpt>
      <trkpt lat="48.70721" lon="2.45484">
        <ele>135.866</ele>
        <time>2018-04-18T13:03:15Z</time>
      </trkpt>
      <trkpt lat="48.70721" lon="2.45484">
        <ele>135.866</ele>
        <time>2018-04-18T13:03:22Z</time>
      </trkpt>
      <trkpt lat="48.70721" lon="2.45484">
        <ele>135.866</ele>
        <time>2018-04-18T13:03:23Z</time>
      </trkpt>
      <trkpt lat="48.70725" lon="2.45481">
        <ele>135.735</ele>
        <time>2018-04-18T13:03:28Z</time>
      </trkpt>
      <trkpt lat="48.7073" lon="2.45491">
        <ele>135.548</ele>
        <time>2018-04-18T13:03:40Z</time>
      </trkpt>
      <trkpt lat="48.70733" lon="2.45496">
        <ele>135.468</ele>
        <time>2018-04-18T13:03:44Z</time>
      </trkpt>
      <trkpt lat="48.70736" lon="2.45499">
        <ele>135.409</ele>
        <time>2018-04-18T13:03:47Z</time>
      </trkpt>
      <trkpt lat="48.70738" lon="2.45502">
        <ele>135.35</ele>
        <time>2018-04-18T13:03:50Z</time>
      </trkpt>
      <trkpt lat="48.7074" lon="2.45504">
        <ele>135.311</ele>
        <time>2018-04-18T13:03:52Z</time>
      </trkpt>
      <trkpt lat="48.7074" lon="2.45504">
        <ele>135.311</ele>
        <time>2018-04-18T13:03:57Z</time>
      </trkpt>
      <trkpt lat="48.70745" lon="2.45509">
        <ele>135.195</ele>
        <time>2018-04-18T13:03:58Z</time>
      </trkpt>
      <trkpt lat="48.70747" lon="2.45512">
        <ele>135.122</ele>
        <time>2018-04-18T13:04:02Z</time>
      </trkpt>
      <trkpt lat="48.70751" lon="2.45514">
        <ele>135.035</ele>
        <time>2018-04-18T13:04:07Z</time>
      </trkpt>
      <trkpt lat="48.70755" lon="2.45519">
        <ele>134.971</ele>
        <time>2018-04-18T13:04:11Z</time>
      </trkpt>
      <trkpt lat="48.70761" lon="2.4552">
        <ele>134.896</ele>
        <time>2018-04-18T13:04:16Z</time>
      </trkpt>
      <trkpt lat="48.70766" lon="2.4552">
        <ele>134.839</ele>
        <time>2018-04-18T13:04:20Z</time>
      </trkpt>
      <trkpt lat="48.70769" lon="2.4552">
        <ele>134.812</ele>
        <time>2018-04-18T13:04:22Z</time>
      </trkpt>
      <trkpt lat="48.70774" lon="2.45524">
        <ele>134.758</ele>
        <time>2018-04-18T13:04:26Z</time>
      </trkpt>
      <trkpt lat="48.70776" lon="2.45526">
        <ele>134.719</ele>
        <time>2018-04-18T13:04:29Z</time>
      </trkpt>
      <trkpt lat="48.70781" lon="2.45527">
        <ele>134.67</ele>
        <time>2018-04-18T13:04:33Z</time>
      </trkpt>
      <trkpt lat="48.70785" lon="2.45527">
        <ele>134.635</ele>
        <time>2018-04-18T13:04:36Z</time>
      </trkpt>
      <trkpt lat="48.7079" lon="2.45529">
        <ele>134.566</ele>
        <time>2018-04-18T13:04:42Z</time>
      </trkpt>
      <trkpt lat="48.70793" lon="2.45531">
        <ele>134.523</ele>
        <time>2018-04-18T13:04:46Z</time>
      </trkpt>
      <trkpt lat="48.70797" lon="2.45536">
        <ele>134.473</ele>
        <time>2018-04-18T13:04:51Z</time>
      </trkpt>
      <trkpt lat="48.708" lon="2.45542">
        <ele>134.445</ele>
        <time>2018-04-18T13:04:54Z</time>
      </trkpt>
      <trkpt lat="48.70801" lon="2.45545">
        <ele>134.418</ele>
        <time>2018-04-18T13:04:57Z</time>
      </trkpt>
      <trkpt lat="48.70806" lon="2.45552">
        <ele>134.369</ele>
        <time>2018-04-18T13:05:03Z</time>
      </trkpt>
      <trkpt lat="48.7081" lon="2.45558">
        <ele>134.347</ele>
        <time>2018-04-18T13:05:06Z</time>
      </trkpt>
      <trkpt lat="48.70812" lon="2.45562">
        <ele>134.332</ele>
        <time>2018-04-18T13:05:08Z</time>
      </trkpt>
      <trkpt lat="48.70815" lon="2.45568">
        <ele>134.309</ele>
        <time>2018-04-18T13:05:11Z</time>
      </trkpt>
      <trkpt lat="48.70817" lon="2.45572">
        <ele>134.294</ele>
        <time>2018-04-18T13:05:13Z</time>
      </trkpt>
      <trkpt lat="48.70819" lon="2.45576">
        <ele>134.279</ele>
        <time>2018-04-18T13:05:15Z</time>
      </trkpt>
      <trkpt lat="48.70824" lon="2.45582">
        <ele>134.249</ele>
        <time>2018-04-18T13:05:19Z</time>
      </trkpt>
      <trkpt lat="48.70828" lon="2.45585">
        <ele>134.22</ele>
        <time>2018-04-18T13:05:23Z</time>
      </trkpt>
      <trkpt lat="48.70832" lon="2.45587">
        <ele>134.186</ele>
        <time>2018-04-18T13:05:28Z</time>
      </trkpt>
      <trkpt lat="48.70836" lon="2.45591">
        <ele>134.153</ele>
        <time>2018-04-18T13:05:33Z</time>
      </trkpt>
      <trkpt lat="48.70839" lon="2.45597">
        <ele>134.128</ele>
        <time>2018-04-18T13:05:37Z</time>
      </trkpt>
      <trkpt lat="48.70841" lon="2.45601">
        <ele>134.116</ele>
        <time>2018-04-18T13:05:39Z</time>
      </trkpt>
      <trkpt lat="48.70843" lon="2.45605">
        <ele>134.098</ele>
        <time>2018-04-18T13:05:42Z</time>
      </trkpt>
      <trkpt lat="48.70849" lon="2.45607">
        <ele>134.075</ele>
        <time>2018-04-18T13:05:46Z</time>
      </trkpt>
      <trkpt lat="48.70851" lon="2.45613">
        <ele>134.053</ele>
        <time>2018-04-18T13:05:50Z</time>
      </trkpt>
      <trkpt lat="48.70856" lon="2.45616">
        <ele>134.021</ele>
        <time>2018-04-18T13:05:56Z</time>
      </trkpt>
      <trkpt lat="48.70861" lon="2.45618">
        <ele>133.998</ele>
        <time>2018-04-18T13:06:00Z</time>
      </trkpt>
      <trkpt lat="48.70865" lon="2.45621">
        <ele>133.97</ele>
        <time>2018-04-18T13:06:05Z</time>
      </trkpt>
      <trkpt lat="48.70871" lon="2.45624">
        <ele>133.947</ele>
        <time>2018-04-18T13:06:09Z</time>
      </trkpt>
      <trkpt lat="48.70878" lon="2.45628">
        <ele>133.915</ele>
        <time>2018-04-18T13:06:15Z</time>
      </trkpt>
      <trkpt lat="48.70882" lon="2.45633">
        <ele>133.893</ele>
        <time>2018-04-18T13:06:19Z</time>
      </trkpt>
      <trkpt lat="48.70886" lon="2.45636">
        <ele>133.873</ele>
        <time>2018-04-18T13:06:23Z</time>
      </trkpt>
      <trkpt lat="48.70889" lon="2.45637">
        <ele>133.856</ele>
        <time>2018-04-18T13:06:26Z</time>
      </trkpt>
      <trkpt lat="48.70894" lon="2.45643">
        <ele>133.833</ele>
        <time>2018-04-18T13:06:30Z</time>
      </trkpt>
      <trkpt lat="48.70896" lon="2.45647">
        <ele>133.816</ele>
        <time>2018-04-18T13:06:33Z</time>
      </trkpt>
      <trkpt lat="48.709" lon="2.45654">
        <ele>133.795</ele>
        <time>2018-04-18T13:06:36Z</time>
      </trkpt>
      <trkpt lat="48.70901" lon="2.45657">
        <ele>133.779</ele>
        <time>2018-04-18T13:06:38Z</time>
      </trkpt>
      <trkpt lat="48.70905" lon="2.45663">
        <ele>133.746</ele>
        <time>2018-04-18T13:06:42Z</time>
      </trkpt>
      <trkpt lat="48.70909" lon="2.45668">
        <ele>133.719</ele>
        <time>2018-04-18T13:06:45Z</time>
      </trkpt>
      <trkpt lat="48.70913" lon="2.45674">
        <ele>133.68</ele>
        <time>2018-04-18T13:06:49Z</time>
      </trkpt>
      <trkpt lat="48.70917" lon="2.45679">
        <ele>133.64</ele>
        <time>2018-04-18T13:06:53Z</time>
      </trkpt>
      <trkpt lat="48.7092" lon="2.45684">
        <ele>133.597</ele>
        <time>2018-04-18T13:06:57Z</time>
      </trkpt>
      <trkpt lat="48.70924" lon="2.45688">
        <ele>133.552</ele>
        <time>2018-04-18T13:07:01Z</time>
      </trkpt>
      <trkpt lat="48.70927" lon="2.45693">
        <ele>133.473</ele>
        <time>2018-04-18T13:07:07Z</time>
      </trkpt>
      <trkpt lat="48.70928" lon="2.45699">
        <ele>133.367</ele>
        <time>2018-04-18T13:07:15Z</time>
      </trkpt>
      <trkpt lat="48.70925" lon="2.45706">
        <ele>133.279</ele>
        <time>2018-04-18T13:07:22Z</time>
      </trkpt>
      <trkpt lat="48.70924" lon="2.4571">
        <ele>133.234</ele>
        <time>2018-04-18T13:07:26Z</time>
      </trkpt>
      <trkpt lat="48.70922" lon="2.45713">
        <ele>133.212</ele>
        <time>2018-04-18T13:07:28Z</time>
      </trkpt>
      <trkpt lat="48.70922" lon="2.4572">
        <ele>133.171</ele>
        <time>2018-04-18T13:07:32Z</time>
      </trkpt>
      <trkpt lat="48.70923" lon="2.45727">
        <ele>133.134</ele>
        <time>2018-04-18T13:07:36Z</time>
      </trkpt>
      <trkpt lat="48.70926" lon="2.45734">
        <ele>133.109</ele>
        <time>2018-04-18T13:07:39Z</time>
      </trkpt>
      <trkpt lat="48.7093" lon="2.4574">
        <ele>133.094</ele>
        <time>2018-04-18T13:07:41Z</time>
      </trkpt>
      <trkpt lat="48.70931" lon="2.45743">
        <ele>133.079</ele>
        <time>2018-04-18T13:07:43Z</time>
      </trkpt>
      <trkpt lat="48.70934" lon="2.45749">
        <ele>133.058</ele>
        <time>2018-04-18T13:07:46Z</time>
      </trkpt>
      <trkpt lat="48.70936" lon="2.45752">
        <ele>133.045</ele>
        <time>2018-04-18T13:07:48Z</time>
      </trkpt>
      <trkpt lat="48.70938" lon="2.45755">
        <ele>133.025</ele>
        <time>2018-04-18T13:07:51Z</time>
      </trkpt>
      <trkpt lat="48.70942" lon="2.4576">
        <ele>132.991</ele>
        <time>2018-04-18T13:07:56Z</time>
      </trkpt>
      <trkpt lat="48.70946" lon="2.45766">
        <ele>132.963</ele>
        <time>2018-04-18T13:08:00Z</time>
      </trkpt>
      <trkpt lat="48.70949" lon="2.45772">
        <ele>132.934</ele>
        <time>2018-04-18T13:08:04Z</time>
      </trkpt>
      <trkpt lat="48.70951" lon="2.45776">
        <ele>132.912</ele>
        <time>2018-04-18T13:08:07Z</time>
      </trkpt>
      <trkpt lat="48.70955" lon="2.45782">
        <ele>132.878</ele>
        <time>2018-04-18T13:08:12Z</time>
      </trkpt>
      <trkpt lat="48.70959" lon="2.45787">
        <ele>132.859</ele>
        <time>2018-04-18T13:08:15Z</time>
      </trkpt>
      <trkpt lat="48.70961" lon="2.4579">
        <ele>132.842</ele>
        <time>2018-04-18T13:08:18Z</time>
      </trkpt>
      <trkpt lat="48.70963" lon="2.45793">
        <ele>132.826</ele>
        <time>2018-04-18T13:08:21Z</time>
      </trkpt>
      <trkpt lat="48.70967" lon="2.45796">
        <ele>132.81</ele>
        <time>2018-04-18T13:08:24Z</time>
      </trkpt>
      <trkpt lat="48.70973" lon="2.45799">
        <ele>132.787</ele>
        <time>2018-04-18T13:08:28Z</time>
      </trkpt>
      <trkpt lat="48.70973" lon="2.45799">
        <ele>132.787</ele>
        <time>2018-04-18T13:08:36Z</time>
      </trkpt>
      <trkpt lat="48.70973" lon="2.45799">
        <ele>132.787</ele>
        <time>2018-04-18T13:08:37Z</time>
      </trkpt>
      <trkpt lat="48.70977" lon="2.45799">
        <ele>132.748</ele>
        <time>2018-04-18T13:08:43Z</time>
      </trkpt>
      <trkpt lat="48.70981" lon="2.45804">
        <ele>132.693</ele>
        <time>2018-04-18T13:08:50Z</time>
      </trkpt>
      <trkpt lat="48.70983" lon="2.45808">
        <ele>132.668</ele>
        <time>2018-04-18T13:08:54Z</time>
      </trkpt>
      <trkpt lat="48.70985" lon="2.45814">
        <ele>132.626</ele>
        <time>2018-04-18T13:09:01Z</time>
      </trkpt>
      <trkpt lat="48.7099" lon="2.45818">
        <ele>132.586</ele>
        <time>2018-04-18T13:09:06Z</time>
      </trkpt>
      <trkpt lat="48.70995" lon="2.4582">
        <ele>132.562</ele>
        <time>2018-04-18T13:09:09Z</time>
      </trkpt>
      <trkpt lat="48.71" lon="2.45823">
        <ele>132.528</ele>
        <time>2018-04-18T13:09:13Z</time>
      </trkpt>
      <trkpt lat="48.71005" lon="2.45829">
        <ele>132.499</ele>
        <time>2018-04-18T13:09:16Z</time>
      </trkpt>
      <trkpt lat="48.71008" lon="2.45832">
        <ele>132.48</ele>
        <time>2018-04-18T13:09:18Z</time>
      </trkpt>
      <trkpt lat="48.71013" lon="2.45832">
        <ele>132.41</ele>
        <time>2018-04-18T13:09:25Z</time>
      </trkpt>
      <trkpt lat="48.71016" lon="2.45826">
        <ele>132.36</ele>
        <time>2018-04-18T13:09:30Z</time>
      </trkpt>
      <trkpt lat="48.71019" lon="2.45821">
        <ele>132.309</ele>
        <time>2018-04-18T13:09:36Z</time>
      </trkpt>
      <trkpt lat="48.71023" lon="2.45814">
        <ele>132.279</ele>
        <time>2018-04-18T13:09:39Z</time>
      </trkpt>
      <trkpt lat="48.71052" lon="2.45786">
        <ele>134.113</ele>
        <time>2018-04-18T13:09:51Z</time>
      </trkpt>
      <trkpt lat="48.71051" lon="2.45809">
        <ele>134.166</ele>
        <time>2018-04-18T13:09:54Z</time>
      </trkpt>
      <trkpt lat="48.71036" lon="2.4583">
        <ele>133.81</ele>
        <time>2018-04-18T13:09:58Z</time>
      </trkpt>
      <trkpt lat="48.71044" lon="2.45832">
        <ele>131.808</ele>
        <time>2018-04-18T13:10:05Z</time>
      </trkpt>
      <trkpt lat="48.7105" lon="2.45828">
        <ele>129.702</ele>
        <time>2018-04-18T13:10:11Z</time>
      </trkpt>
      <trkpt lat="48.71053" lon="2.45826">
        <ele>128.208</ele>
        <time>2018-04-18T13:10:15Z</time>
      </trkpt>
      <trkpt lat="48.71057" lon="2.45822">
        <ele>126.667</ele>
        <time>2018-04-18T13:10:19Z</time>
      </trkpt>
      <trkpt lat="48.71059" lon="2.4582">
        <ele>125.907</ele>
        <time>2018-04-18T13:10:21Z</time>
      </trkpt>
      <trkpt lat="48.71063" lon="2.45815">
        <ele>124.432</ele>
        <time>2018-04-18T13:10:25Z</time>
      </trkpt>
      <trkpt lat="48.71064" lon="2.45812">
        <ele>123.715</ele>
        <time>2018-04-18T13:10:27Z</time>
      </trkpt>
      <trkpt lat="48.71068" lon="2.45807">
        <ele>122.322</ele>
        <time>2018-04-18T13:10:31Z</time>
      </trkpt>
      <trkpt lat="48.71072" lon="2.45802">
        <ele>120.974</ele>
        <time>2018-04-18T13:10:35Z</time>
      </trkpt>
      <trkpt lat="48.71075" lon="2.458">
        <ele>120.318</ele>
        <time>2018-04-18T13:10:37Z</time>
      </trkpt>
      <trkpt lat="48.71077" lon="2.45798">
        <ele>119.679</ele>
        <time>2018-04-18T13:10:39Z</time>
      </trkpt>
      <trkpt lat="48.7108" lon="2.45794">
        <ele>118.06</ele>
        <time>2018-04-18T13:10:47Z</time>
      </trkpt>
      <trkpt lat="48.71085" lon="2.45787">
        <ele>116.7</ele>
        <time>2018-04-18T13:10:55Z</time>
      </trkpt>
      <trkpt lat="48.71089" lon="2.45784">
        <ele>115.749</ele>
        <time>2018-04-18T13:10:58Z</time>
      </trkpt>
      <trkpt lat="48.71093" lon="2.45779">
        <ele>114.114</ele>
        <time>2018-04-18T13:11:03Z</time>
      </trkpt>
      <trkpt lat="48.71095" lon="2.45777">
        <ele>113.148</ele>
        <time>2018-04-18T13:11:06Z</time>
      </trkpt>
      <trkpt lat="48.711" lon="2.45781">
        <ele>110.579</ele>
        <time>2018-04-18T13:11:15Z</time>
      </trkpt>
      <trkpt lat="48.71104" lon="2.45786">
        <ele>109.038</ele>
        <time>2018-04-18T13:11:20Z</time>
      </trkpt>
      <trkpt lat="48.71106" lon="2.4579">
        <ele>107.594</ele>
        <time>2018-04-18T13:11:25Z</time>
      </trkpt>
      <trkpt lat="48.71108" lon="2.45793">
        <ele>106.763</ele>
        <time>2018-04-18T13:11:28Z</time>
      </trkpt>
      <trkpt lat="48.71112" lon="2.45798">
        <ele>105.44</ele>
        <time>2018-04-18T13:11:33Z</time>
      </trkpt>
      <trkpt lat="48.71118" lon="2.45802">
        <ele>104.436</ele>
        <time>2018-04-18T13:11:37Z</time>
      </trkpt>
      <trkpt lat="48.7112" lon="2.45804">
        <ele>103.956</ele>
        <time>2018-04-18T13:11:39Z</time>
      </trkpt>
      <trkpt lat="48.71122" lon="2.45806">
        <ele>103.492</ele>
        <time>2018-04-18T13:11:41Z</time>
      </trkpt>
      <trkpt lat="48.71126" lon="2.4581">
        <ele>102.606</ele>
        <time>2018-04-18T13:11:45Z</time>
      </trkpt>
      <trkpt lat="48.71128" lon="2.45812">
        <ele>101.975</ele>
        <time>2018-04-18T13:11:48Z</time>
      </trkpt>
      <trkpt lat="48.71131" lon="2.45815">
        <ele>101.367</ele>
        <time>2018-04-18T13:11:51Z</time>
      </trkpt>
      <trkpt lat="48.71136" lon="2.4582">
        <ele>100.585</ele>
        <time>2018-04-18T13:11:55Z</time>
      </trkpt>
      <trkpt lat="48.71138" lon="2.45822">
        <ele>100.209</ele>
        <time>2018-04-18T13:11:57Z</time>
      </trkpt>
      <trkpt lat="48.71141" lon="2.45824">
        <ele>99.8441</ele>
        <time>2018-04-18T13:11:59Z</time>
      </trkpt>
      <trkpt lat="48.71145" lon="2.45829">
        <ele>98.9895</ele>
        <time>2018-04-18T13:12:04Z</time>
      </trkpt>
      <trkpt lat="48.71148" lon="2.45834">
        <ele>98.3601</ele>
        <time>2018-04-18T13:12:08Z</time>
      </trkpt>
      <trkpt lat="48.71153" lon="2.45839">
        <ele>97.7577</ele>
        <time>2018-04-18T13:12:12Z</time>
      </trkpt>
      <trkpt lat="48.71157" lon="2.45843">
        <ele>96.7393</ele>
        <time>2018-04-18T13:12:19Z</time>
      </trkpt>
      <trkpt lat="48.71155" lon="2.45851">
        <ele>95.9661</ele>
        <time>2018-04-18T13:12:25Z</time>
      </trkpt>
      <trkpt lat="48.71154" lon="2.45855">
        <ele>95.624</ele>
        <time>2018-04-18T13:12:28Z</time>
      </trkpt>
      <trkpt lat="48.71153" lon="2.45858">
        <ele>95.3104</ele>
        <time>2018-04-18T13:12:31Z</time>
      </trkpt>
      <trkpt lat="48.71151" lon="2.45867">
        <ele>95.0189</ele>
        <time>2018-04-18T13:12:34Z</time>
      </trkpt>
      <trkpt lat="48.71151" lon="2.45874">
        <ele>94.7491</ele>
        <time>2018-04-18T13:12:37Z</time>
      </trkpt>
      <trkpt lat="48.7115" lon="2.45881">
        <ele>94.4208</ele>
        <time>2018-04-18T13:12:41Z</time>
      </trkpt>
      <trkpt lat="48.71151" lon="2.45889">
        <ele>94.1367</ele>
        <time>2018-04-18T13:12:45Z</time>
      </trkpt>
      <trkpt lat="48.71151" lon="2.45896">
        <ele>93.8915</ele>
        <time>2018-04-18T13:12:49Z</time>
      </trkpt>
      <trkpt lat="48.71148" lon="2.45903">
        <ele>93.6243</ele>
        <time>2018-04-18T13:12:54Z</time>
      </trkpt>
      <trkpt lat="48.71145" lon="2.45911">
        <ele>93.3919</ele>
        <time>2018-04-18T13:12:59Z</time>
      </trkpt>
      <trkpt lat="48.71144" lon="2.45918">
        <ele>93.2647</ele>
        <time>2018-04-18T13:13:02Z</time>
      </trkpt>
      <trkpt lat="48.71143" lon="2.45925">
        <ele>93.1073</ele>
        <time>2018-04-18T13:13:06Z</time>
      </trkpt>
      <trkpt lat="48.71141" lon="2.45931">
        <ele>92.9923</ele>
        <time>2018-04-18T13:13:09Z</time>
      </trkpt>
      <trkpt lat="48.71139" lon="2.45935">
        <ele>92.9131</ele>
        <time>2018-04-18T13:13:11Z</time>
      </trkpt>
      <trkpt lat="48.71138" lon="2.45939">
        <ele>92.7617</ele>
        <time>2018-04-18T13:13:15Z</time>
      </trkpt>
      <trkpt lat="48.71136" lon="2.45947">
        <ele>92.5929</ele>
        <time>2018-04-18T13:13:20Z</time>
      </trkpt>
      <trkpt lat="48.71135" lon="2.45954">
        <ele>92.4457</ele>
        <time>2018-04-18T13:13:25Z</time>
      </trkpt>
      <trkpt lat="48.71132" lon="2.4596">
        <ele>92.3304</ele>
        <time>2018-04-18T13:13:29Z</time>
      </trkpt>
      <trkpt lat="48.71131" lon="2.45968">
        <ele>92.2118</ele>
        <time>2018-04-18T13:13:33Z</time>
      </trkpt>
      <trkpt lat="48.71131" lon="2.45973">
        <ele>92.0996</ele>
        <time>2018-04-18T13:13:37Z</time>
      </trkpt>
      <trkpt lat="48.71129" lon="2.4598">
        <ele>91.9809</ele>
        <time>2018-04-18T13:13:42Z</time>
      </trkpt>
      <trkpt lat="48.71129" lon="2.45989">
        <ele>91.9015</ele>
        <time>2018-04-18T13:13:46Z</time>
      </trkpt>
      <trkpt lat="48.71129" lon="2.45998">
        <ele>91.8501</ele>
        <time>2018-04-18T13:13:49Z</time>
      </trkpt>
      <trkpt lat="48.71127" lon="2.46006">
        <ele>91.7859</ele>
        <time>2018-04-18T13:13:53Z</time>
      </trkpt>
      <trkpt lat="48.71125" lon="2.46012">
        <ele>91.7272</ele>
        <time>2018-04-18T13:13:57Z</time>
      </trkpt>
      <trkpt lat="48.71123" lon="2.46018">
        <ele>91.6819</ele>
        <time>2018-04-18T13:14:00Z</time>
      </trkpt>
      <trkpt lat="48.7112" lon="2.46024">
        <ele>91.6077</ele>
        <time>2018-04-18T13:14:05Z</time>
      </trkpt>
      <trkpt lat="48.71117" lon="2.46029">
        <ele>91.5526</ele>
        <time>2018-04-18T13:14:09Z</time>
      </trkpt>
      <trkpt lat="48.71113" lon="2.46037">
        <ele>91.4733</ele>
        <time>2018-04-18T13:14:15Z</time>
      </trkpt>
      <trkpt lat="48.71112" lon="2.46047">
        <ele>91.4298</ele>
        <time>2018-04-18T13:14:19Z</time>
      </trkpt>
      <trkpt lat="48.71111" lon="2.46054">
        <ele>91.4016</ele>
        <time>2018-04-18T13:14:22Z</time>
      </trkpt>
      <trkpt lat="48.7111" lon="2.46058">
        <ele>91.3844</ele>
        <time>2018-04-18T13:14:24Z</time>
      </trkpt>
      <trkpt lat="48.7111" lon="2.46065">
        <ele>91.3445</ele>
        <time>2018-04-18T13:14:29Z</time>
      </trkpt>
      <trkpt lat="48.71109" lon="2.4607">
        <ele>91.3316</ele>
        <time>2018-04-18T13:14:31Z</time>
      </trkpt>
      <trkpt lat="48.71108" lon="2.46077">
        <ele>91.3147</ele>
        <time>2018-04-18T13:14:34Z</time>
      </trkpt>
      <trkpt lat="48.71107" lon="2.46082">
        <ele>91.3026</ele>
        <time>2018-04-18T13:14:37Z</time>
      </trkpt>
      <trkpt lat="48.71106" lon="2.46086">
        <ele>91.2965</ele>
        <time>2018-04-18T13:14:40Z</time>
      </trkpt>
      <trkpt lat="48.71105" lon="2.46093">
        <ele>91.2974</ele>
        <time>2018-04-18T13:14:44Z</time>
      </trkpt>
      <trkpt lat="48.71103" lon="2.46102">
        <ele>91.3211</ele>
        <time>2018-04-18T13:14:50Z</time>
      </trkpt>
      <trkpt lat="48.711" lon="2.46109">
        <ele>91.3614</ele>
        <time>2018-04-18T13:14:55Z</time>
      </trkpt>
      <trkpt lat="48.71098" lon="2.4612">
        <ele>91.4004</ele>
        <time>2018-04-18T13:14:59Z</time>
      </trkpt>
      <trkpt lat="48.71097" lon="2.46124">
        <ele>91.4177</ele>
        <time>2018-04-18T13:15:01Z</time>
      </trkpt>
      <trkpt lat="48.71094" lon="2.4613">
        <ele>91.4476</ele>
        <time>2018-04-18T13:15:05Z</time>
      </trkpt>
      <trkpt lat="48.71092" lon="2.46137">
        <ele>91.4728</ele>
        <time>2018-04-18T13:15:09Z</time>
      </trkpt>
      <trkpt lat="48.71091" lon="2.4614">
        <ele>91.492</ele>
        <time>2018-04-18T13:15:12Z</time>
      </trkpt>
      <trkpt lat="48.71088" lon="2.46147">
        <ele>91.5267</ele>
        <time>2018-04-18T13:15:17Z</time>
      </trkpt>
      <trkpt lat="48.71087" lon="2.46155">
        <ele>91.5467</ele>
        <time>2018-04-18T13:15:20Z</time>
      </trkpt>
      <trkpt lat="48.71086" lon="2.46162">
        <ele>91.5662</ele>
        <time>2018-04-18T13:15:23Z</time>
      </trkpt>
      <trkpt lat="48.71086" lon="2.46169">
        <ele>91.5855</ele>
        <time>2018-04-18T13:15:26Z</time>
      </trkpt>
      <trkpt lat="48.71082" lon="2.46173">
        <ele>91.6103</ele>
        <time>2018-04-18T13:15:30Z</time>
      </trkpt>
      <trkpt lat="48.71079" lon="2.46179">
        <ele>91.6343</ele>
        <time>2018-04-18T13:15:34Z</time>
      </trkpt>
      <trkpt lat="48.71077" lon="2.46183">
        <ele>91.6446</ele>
        <time>2018-04-18T13:15:36Z</time>
      </trkpt>
      <trkpt lat="48.71075" lon="2.46189">
        <ele>91.6642</ele>
        <time>2018-04-18T13:15:40Z</time>
      </trkpt>
      <trkpt lat="48.71075" lon="2.46196">
        <ele>91.6831</ele>
        <time>2018-04-18T13:15:44Z</time>
      </trkpt>
      <trkpt lat="48.71074" lon="2.46201">
        <ele>91.7034</ele>
        <time>2018-04-18T13:15:48Z</time>
      </trkpt>
      <trkpt lat="48.71074" lon="2.46205">
        <ele>91.7149</ele>
        <time>2018-04-18T13:15:50Z</time>
      </trkpt>
      <trkpt lat="48.71073" lon="2.46212">
        <ele>91.7395</ele>
        <time>2018-04-18T13:15:54Z</time>
      </trkpt>
      <trkpt lat="48.71072" lon="2.46221">
        <ele>91.7737</ele>
        <time>2018-04-18T13:15:59Z</time>
      </trkpt>
      <trkpt lat="48.71071" lon="2.46225">
        <ele>91.7874</ele>
        <time>2018-04-18T13:16:01Z</time>
      </trkpt>
      <trkpt lat="48.71069" lon="2.46232">
        <ele>91.8175</ele>
        <time>2018-04-18T13:16:05Z</time>
      </trkpt>
      <trkpt lat="48.71068" lon="2.46239">
        <ele>91.8409</ele>
        <time>2018-04-18T13:16:08Z</time>
      </trkpt>
      <trkpt lat="48.71069" lon="2.46247">
        <ele>91.8668</ele>
        <time>2018-04-18T13:16:11Z</time>
      </trkpt>
      <trkpt lat="48.71068" lon="2.46254">
        <ele>91.893</ele>
        <time>2018-04-18T13:16:14Z</time>
      </trkpt>
      <trkpt lat="48.71066" lon="2.4626">
        <ele>91.9201</ele>
        <time>2018-04-18T13:16:17Z</time>
      </trkpt>
      <trkpt lat="48.71065" lon="2.46267">
        <ele>91.9564</ele>
        <time>2018-04-18T13:16:21Z</time>
      </trkpt>
      <trkpt lat="48.71065" lon="2.46271">
        <ele>91.9854</ele>
        <time>2018-04-18T13:16:24Z</time>
      </trkpt>
      <trkpt lat="48.71064" lon="2.46275">
        <ele>92.0055</ele>
        <time>2018-04-18T13:16:26Z</time>
      </trkpt>
      <trkpt lat="48.71064" lon="2.46283">
        <ele>92.0391</ele>
        <time>2018-04-18T13:16:29Z</time>
      </trkpt>
      <trkpt lat="48.71064" lon="2.4629">
        <ele>92.0757</ele>
        <time>2018-04-18T13:16:32Z</time>
      </trkpt>
      <trkpt lat="48.71064" lon="2.46297">
        <ele>92.1145</ele>
        <time>2018-04-18T13:16:35Z</time>
      </trkpt>
      <trkpt lat="48.71064" lon="2.46308">
        <ele>92.1814</ele>
        <time>2018-04-18T13:16:40Z</time>
      </trkpt>
      <trkpt lat="48.71064" lon="2.46313">
        <ele>92.2216</ele>
        <time>2018-04-18T13:16:43Z</time>
      </trkpt>
      <trkpt lat="48.71063" lon="2.46319">
        <ele>92.2575</ele>
        <time>2018-04-18T13:16:46Z</time>
      </trkpt>
      <trkpt lat="48.71063" lon="2.46322">
        <ele>92.2783</ele>
        <time>2018-04-18T13:16:48Z</time>
      </trkpt>
      <trkpt lat="48.71063" lon="2.46326">
        <ele>92.2967</ele>
        <time>2018-04-18T13:16:50Z</time>
      </trkpt>
      <trkpt lat="48.71063" lon="2.4633">
        <ele>92.3122</ele>
        <time>2018-04-18T13:16:52Z</time>
      </trkpt>
      <trkpt lat="48.71063" lon="2.46335">
        <ele>92.3256</ele>
        <time>2018-04-18T13:16:54Z</time>
      </trkpt>
      <trkpt lat="48.71063" lon="2.46339">
        <ele>92.3373</ele>
        <time>2018-04-18T13:16:56Z</time>
      </trkpt>
      <trkpt lat="48.71063" lon="2.46344">
        <ele>92.347</ele>
        <time>2018-04-18T13:16:58Z</time>
      </trkpt>
      <trkpt lat="48.71063" lon="2.4635">
        <ele>92.358</ele>
        <time>2018-04-18T13:17:01Z</time>
      </trkpt>
      <trkpt lat="48.71064" lon="2.46359">
        <ele>92.3678</ele>
        <time>2018-04-18T13:17:06Z</time>
      </trkpt>
      <trkpt lat="48.71063" lon="2.46367">
        <ele>92.3688</ele>
        <time>2018-04-18T13:17:10Z</time>
      </trkpt>
      <trkpt lat="48.71062" lon="2.46371">
        <ele>92.3685</ele>
        <time>2018-04-18T13:17:12Z</time>
      </trkpt>
      <trkpt lat="48.71063" lon="2.46379">
        <ele>92.3668</ele>
        <time>2018-04-18T13:17:16Z</time>
      </trkpt>
      <trkpt lat="48.71063" lon="2.46387">
        <ele>92.3603</ele>
        <time>2018-04-18T13:17:21Z</time>
      </trkpt>
      <trkpt lat="48.71063" lon="2.46391">
        <ele>92.3528</ele>
        <time>2018-04-18T13:17:25Z</time>
      </trkpt>
      <trkpt lat="48.71063" lon="2.46398">
        <ele>92.3429</ele>
        <time>2018-04-18T13:17:28Z</time>
      </trkpt>
      <trkpt lat="48.71063" lon="2.46402">
        <ele>92.3345</ele>
        <time>2018-04-18T13:17:30Z</time>
      </trkpt>
      <trkpt lat="48.71063" lon="2.46412">
        <ele>92.3178</ele>
        <time>2018-04-18T13:17:34Z</time>
      </trkpt>
      <trkpt lat="48.71062" lon="2.46419">
        <ele>92.3039</ele>
        <time>2018-04-18T13:17:38Z</time>
      </trkpt>
      <trkpt lat="48.71063" lon="2.46426">
        <ele>92.279</ele>
        <time>2018-04-18T13:17:46Z</time>
      </trkpt>
      <trkpt lat="48.71063" lon="2.46431">
        <ele>92.26</ele>
        <time>2018-04-18T13:17:52Z</time>
      </trkpt>
      <trkpt lat="48.71065" lon="2.46438">
        <ele>92.2372</ele>
        <time>2018-04-18T13:17:56Z</time>
      </trkpt>
      <trkpt lat="48.71069" lon="2.46441">
        <ele>92.2156</ele>
        <time>2018-04-18T13:17:59Z</time>
      </trkpt>
      <trkpt lat="48.71074" lon="2.46443">
        <ele>92.1841</ele>
        <time>2018-04-18T13:18:03Z</time>
      </trkpt>
      <trkpt lat="48.71078" lon="2.46445">
        <ele>92.1602</ele>
        <time>2018-04-18T13:18:06Z</time>
      </trkpt>
      <trkpt lat="48.71082" lon="2.46446">
        <ele>92.1438</ele>
        <time>2018-04-18T13:18:08Z</time>
      </trkpt>
      <trkpt lat="48.71085" lon="2.46446">
        <ele>92.1264</ele>
        <time>2018-04-18T13:18:10Z</time>
      </trkpt>
      <trkpt lat="48.71087" lon="2.46447">
        <ele>92.0991</ele>
        <time>2018-04-18T13:18:13Z</time>
      </trkpt>
      <trkpt lat="48.71092" lon="2.46449">
        <ele>92.0597</ele>
        <time>2018-04-18T13:18:17Z</time>
      </trkpt>
      <trkpt lat="48.71095" lon="2.4645">
        <ele>91.9916</ele>
        <time>2018-04-18T13:18:25Z</time>
      </trkpt>
      <trkpt lat="48.71097" lon="2.46457">
        <ele>91.9511</ele>
        <time>2018-04-18T13:18:30Z</time>
      </trkpt>
      <trkpt lat="48.71097" lon="2.46464">
        <ele>91.9277</ele>
        <time>2018-04-18T13:18:34Z</time>
      </trkpt>
      <trkpt lat="48.71098" lon="2.46468">
        <ele>91.9187</ele>
        <time>2018-04-18T13:18:36Z</time>
      </trkpt>
      <trkpt lat="48.71098" lon="2.46472">
        <ele>91.9072</ele>
        <time>2018-04-18T13:18:39Z</time>
      </trkpt>
      <trkpt lat="48.71098" lon="2.46478">
        <ele>91.8982</ele>
        <time>2018-04-18T13:18:42Z</time>
      </trkpt>
      <trkpt lat="48.71099" lon="2.46483">
        <ele>91.8926</ele>
        <time>2018-04-18T13:18:44Z</time>
      </trkpt>
      <trkpt lat="48.71099" lon="2.46488">
        <ele>91.8863</ele>
        <time>2018-04-18T13:18:46Z</time>
      </trkpt>
      <trkpt lat="48.71098" lon="2.46495">
        <ele>91.875</ele>
        <time>2018-04-18T13:18:49Z</time>
      </trkpt>
      <trkpt lat="48.71099" lon="2.46504">
        <ele>91.8568</ele>
        <time>2018-04-18T13:18:54Z</time>
      </trkpt>
      <trkpt lat="48.71099" lon="2.46507">
        <ele>91.8503</ele>
        <time>2018-04-18T13:18:56Z</time>
      </trkpt>
      <trkpt lat="48.711" lon="2.46515">
        <ele>91.8381</ele>
        <time>2018-04-18T13:19:00Z</time>
      </trkpt>
      <trkpt lat="48.71101" lon="2.46519">
        <ele>91.832</ele>
        <time>2018-04-18T13:19:02Z</time>
      </trkpt>
      <trkpt lat="48.71101" lon="2.46523">
        <ele>91.8258</ele>
        <time>2018-04-18T13:19:04Z</time>
      </trkpt>
      <trkpt lat="48.71101" lon="2.4653">
        <ele>91.813</ele>
        <time>2018-04-18T13:19:08Z</time>
      </trkpt>
      <trkpt lat="48.711" lon="2.46537">
        <ele>91.7948</ele>
        <time>2018-04-18T13:19:13Z</time>
      </trkpt>
      <trkpt lat="48.711" lon="2.46541">
        <ele>91.7861</ele>
        <time>2018-04-18T13:19:15Z</time>
      </trkpt>
      <trkpt lat="48.71099" lon="2.46549">
        <ele>91.7674</ele>
        <time>2018-04-18T13:19:19Z</time>
      </trkpt>
      <trkpt lat="48.71099" lon="2.46553">
        <ele>91.7569</ele>
        <time>2018-04-18T13:19:21Z</time>
      </trkpt>
      <trkpt lat="48.711" lon="2.46556">
        <ele>91.7456</ele>
        <time>2018-04-18T13:19:23Z</time>
      </trkpt>
      <trkpt lat="48.711" lon="2.4656">
        <ele>91.7333</ele>
        <time>2018-04-18T13:19:25Z</time>
      </trkpt>
      <trkpt lat="48.71101" lon="2.46568">
        <ele>91.7066</ele>
        <time>2018-04-18T13:19:29Z</time>
      </trkpt>
      <trkpt lat="48.71102" lon="2.46572">
        <ele>91.693</ele>
        <time>2018-04-18T13:19:31Z</time>
      </trkpt>
      <trkpt lat="48.71101" lon="2.4658">
        <ele>91.6644</ele>
        <time>2018-04-18T13:19:35Z</time>
      </trkpt>
      <trkpt lat="48.71101" lon="2.46584">
        <ele>91.6425</ele>
        <time>2018-04-18T13:19:38Z</time>
      </trkpt>
      <trkpt lat="48.71101" lon="2.46592">
        <ele>91.6127</ele>
        <time>2018-04-18T13:19:42Z</time>
      </trkpt>
      <trkpt lat="48.71101" lon="2.46599">
        <ele>91.5893</ele>
        <time>2018-04-18T13:19:45Z</time>
      </trkpt>
      <trkpt lat="48.71102" lon="2.46605">
        <ele>91.5634</ele>
        <time>2018-04-18T13:19:48Z</time>
      </trkpt>
      <trkpt lat="48.71102" lon="2.4661">
        <ele>91.535</ele>
        <time>2018-04-18T13:19:51Z</time>
      </trkpt>
      <trkpt lat="48.71103" lon="2.46618">
        <ele>91.4924</ele>
        <time>2018-04-18T13:19:55Z</time>
      </trkpt>
      <trkpt lat="48.71103" lon="2.46621">
        <ele>91.4689</ele>
        <time>2018-04-18T13:19:57Z</time>
      </trkpt>
      <trkpt lat="48.71103" lon="2.46626">
        <ele>91.4314</ele>
        <time>2018-04-18T13:20:00Z</time>
      </trkpt>
      <trkpt lat="48.71103" lon="2.46633">
        <ele>91.3643</ele>
        <time>2018-04-18T13:20:05Z</time>
      </trkpt>
      <trkpt lat="48.71103" lon="2.46637">
        <ele>91.3348</ele>
        <time>2018-04-18T13:20:07Z</time>
      </trkpt>
      <trkpt lat="48.71104" lon="2.46644">
        <ele>91.2885</ele>
        <time>2018-04-18T13:20:10Z</time>
      </trkpt>
      <trkpt lat="48.71104" lon="2.46653">
        <ele>91.2074</ele>
        <time>2018-04-18T13:20:15Z</time>
      </trkpt>
      <trkpt lat="48.71105" lon="2.4666">
        <ele>91.1252</ele>
        <time>2018-04-18T13:20:20Z</time>
      </trkpt>
      <trkpt lat="48.71106" lon="2.46668">
        <ele>91.0455</ele>
        <time>2018-04-18T13:20:25Z</time>
      </trkpt>
      <trkpt lat="48.71106" lon="2.46673">
        <ele>90.9838</ele>
        <time>2018-04-18T13:20:29Z</time>
      </trkpt>
      <trkpt lat="48.71108" lon="2.4668">
        <ele>90.8957</ele>
        <time>2018-04-18T13:20:35Z</time>
      </trkpt>
      <trkpt lat="48.7111" lon="2.4669">
        <ele>90.8528</ele>
        <time>2018-04-18T13:20:38Z</time>
      </trkpt>
      <trkpt lat="48.7111" lon="2.46694">
        <ele>90.8239</ele>
        <time>2018-04-18T13:20:40Z</time>
      </trkpt>
      <trkpt lat="48.71112" lon="2.46702">
        <ele>90.7674</ele>
        <time>2018-04-18T13:20:44Z</time>
      </trkpt>
      <trkpt lat="48.71112" lon="2.46708">
        <ele>90.7097</ele>
        <time>2018-04-18T13:20:48Z</time>
      </trkpt>
      <trkpt lat="48.71113" lon="2.46712">
        <ele>90.6642</ele>
        <time>2018-04-18T13:20:51Z</time>
      </trkpt>
      <trkpt lat="48.71113" lon="2.46719">
        <ele>90.5985</ele>
        <time>2018-04-18T13:20:55Z</time>
      </trkpt>
      <trkpt lat="48.71113" lon="2.46723">
        <ele>90.546</ele>
        <time>2018-04-18T13:20:58Z</time>
      </trkpt>
      <trkpt lat="48.71113" lon="2.4673">
        <ele>90.4728</ele>
        <time>2018-04-18T13:21:02Z</time>
      </trkpt>
      <trkpt lat="48.71115" lon="2.46737">
        <ele>90.4379</ele>
        <time>2018-04-18T13:21:04Z</time>
      </trkpt>
      <trkpt lat="48.71117" lon="2.46744">
        <ele>90.3899</ele>
        <time>2018-04-18T13:21:07Z</time>
      </trkpt>
      <trkpt lat="48.71117" lon="2.46752">
        <ele>90.3198</ele>
        <time>2018-04-18T13:21:12Z</time>
      </trkpt>
      <trkpt lat="48.71118" lon="2.4676">
        <ele>90.2696</ele>
        <time>2018-04-18T13:21:16Z</time>
      </trkpt>
      <trkpt lat="48.71119" lon="2.46764">
        <ele>90.2362</ele>
        <time>2018-04-18T13:21:19Z</time>
      </trkpt>
      <trkpt lat="48.71119" lon="2.46768">
        <ele>90.2161</ele>
        <time>2018-04-18T13:21:21Z</time>
      </trkpt>
      <trkpt lat="48.71122" lon="2.46775">
        <ele>90.1881</ele>
        <time>2018-04-18T13:21:24Z</time>
      </trkpt>
      <trkpt lat="48.71123" lon="2.46783">
        <ele>90.1401</ele>
        <time>2018-04-18T13:21:29Z</time>
      </trkpt>
      <trkpt lat="48.71125" lon="2.46787">
        <ele>90.1093</ele>
        <time>2018-04-18T13:21:32Z</time>
      </trkpt>
      <trkpt lat="48.71126" lon="2.46791">
        <ele>90.0778</ele>
        <time>2018-04-18T13:21:35Z</time>
      </trkpt>
      <trkpt lat="48.71127" lon="2.46798">
        <ele>90.0343</ele>
        <time>2018-04-18T13:21:39Z</time>
      </trkpt>
      <trkpt lat="48.7113" lon="2.46805">
        <ele>89.9886</ele>
        <time>2018-04-18T13:21:43Z</time>
      </trkpt>
      <trkpt lat="48.71132" lon="2.46807">
        <ele>89.9641</ele>
        <time>2018-04-18T13:21:45Z</time>
      </trkpt>
      <trkpt lat="48.71136" lon="2.46813">
        <ele>89.9124</ele>
        <time>2018-04-18T13:21:49Z</time>
      </trkpt>
      <trkpt lat="48.7114" lon="2.46817">
        <ele>89.8742</ele>
        <time>2018-04-18T13:21:52Z</time>
      </trkpt>
      <trkpt lat="48.71145" lon="2.46819">
        <ele>89.8253</ele>
        <time>2018-04-18T13:21:56Z</time>
      </trkpt>
      <trkpt lat="48.7115" lon="2.46824">
        <ele>89.7651</ele>
        <time>2018-04-18T13:22:01Z</time>
      </trkpt>
      <trkpt lat="48.71154" lon="2.46828">
        <ele>89.727</ele>
        <time>2018-04-18T13:22:04Z</time>
      </trkpt>
      <trkpt lat="48.71157" lon="2.4683">
        <ele>89.7014</ele>
        <time>2018-04-18T13:22:06Z</time>
      </trkpt>
      <trkpt lat="48.71159" lon="2.46832">
        <ele>89.6765</ele>
        <time>2018-04-18T13:22:08Z</time>
      </trkpt>
      <trkpt lat="48.71161" lon="2.46834">
        <ele>89.6514</ele>
        <time>2018-04-18T13:22:10Z</time>
      </trkpt>
      <trkpt lat="48.71164" lon="2.46837">
        <ele>89.6269</ele>
        <time>2018-04-18T13:22:12Z</time>
      </trkpt>
      <trkpt lat="48.71168" lon="2.4684">
        <ele>89.5764</ele>
        <time>2018-04-18T13:22:16Z</time>
      </trkpt>
      <trkpt lat="48.71172" lon="2.46844">
        <ele>89.5098</ele>
        <time>2018-04-18T13:22:21Z</time>
      </trkpt>
      <trkpt lat="48.71175" lon="2.46846">
        <ele>89.4552</ele>
        <time>2018-04-18T13:22:25Z</time>
      </trkpt>
      <trkpt lat="48.71179" lon="2.46849">
        <ele>89.4028</ele>
        <time>2018-04-18T13:22:29Z</time>
      </trkpt>
      <trkpt lat="48.71183" lon="2.46852">
        <ele>89.3621</ele>
        <time>2018-04-18T13:22:32Z</time>
      </trkpt>
      <trkpt lat="48.71188" lon="2.46855">
        <ele>89.3095</ele>
        <time>2018-04-18T13:22:36Z</time>
      </trkpt>
      <trkpt lat="48.71192" lon="2.46862">
        <ele>89.2485</ele>
        <time>2018-04-18T13:22:41Z</time>
      </trkpt>
      <trkpt lat="48.71193" lon="2.46869">
        <ele>89.201</ele>
        <time>2018-04-18T13:22:45Z</time>
      </trkpt>
      <trkpt lat="48.71193" lon="2.46877">
        <ele>89.1359</ele>
        <time>2018-04-18T13:22:51Z</time>
      </trkpt>
      <trkpt lat="48.71191" lon="2.46885">
        <ele>89.0792</ele>
        <time>2018-04-18T13:22:57Z</time>
      </trkpt>
      <trkpt lat="48.71189" lon="2.46891">
        <ele>89.0443</ele>
        <time>2018-04-18T13:23:01Z</time>
      </trkpt>
      <trkpt lat="48.71187" lon="2.46898">
        <ele>89.0075</ele>
        <time>2018-04-18T13:23:05Z</time>
      </trkpt>
      <trkpt lat="48.71189" lon="2.46905">
        <ele>88.9571</ele>
        <time>2018-04-18T13:23:10Z</time>
      </trkpt>
      <trkpt lat="48.71192" lon="2.46911">
        <ele>88.9222</ele>
        <time>2018-04-18T13:23:13Z</time>
      </trkpt>
      <trkpt lat="48.71195" lon="2.46916">
        <ele>88.8825</ele>
        <time>2018-04-18T13:23:16Z</time>
      </trkpt>
      <trkpt lat="48.71199" lon="2.4692">
        <ele>88.828</ele>
        <time>2018-04-18T13:23:20Z</time>
      </trkpt>
      <trkpt lat="48.71202" lon="2.46922">
        <ele>88.7987</ele>
        <time>2018-04-18T13:23:22Z</time>
      </trkpt>
      <trkpt lat="48.71205" lon="2.46925">
        <ele>88.7684</ele>
        <time>2018-04-18T13:23:24Z</time>
      </trkpt>
      <trkpt lat="48.71208" lon="2.4693">
        <ele>88.7228</ele>
        <time>2018-04-18T13:23:27Z</time>
      </trkpt>
      <trkpt lat="48.71211" lon="2.46933">
        <ele>88.6755</ele>
        <time>2018-04-18T13:23:30Z</time>
      </trkpt>
      <trkpt lat="48.71213" lon="2.46935">
        <ele>88.6439</ele>
        <time>2018-04-18T13:23:32Z</time>
      </trkpt>
      <trkpt lat="48.71215" lon="2.46937">
        <ele>88.6129</ele>
        <time>2018-04-18T13:23:34Z</time>
      </trkpt>
      <trkpt lat="48.71217" lon="2.4694">
        <ele>88.5821</ele>
        <time>2018-04-18T13:23:36Z</time>
      </trkpt>
      <trkpt lat="48.71222" lon="2.46944">
        <ele>88.5211</ele>
        <time>2018-04-18T13:23:40Z</time>
      </trkpt>
      <trkpt lat="48.71224" lon="2.46946">
        <ele>88.4899</ele>
        <time>2018-04-18T13:23:42Z</time>
      </trkpt>
      <trkpt lat="48.71227" lon="2.46948">
        <ele>88.4428</ele>
        <time>2018-04-18T13:23:45Z</time>
      </trkpt>
      <trkpt lat="48.71231" lon="2.46952">
        <ele>88.3843</ele>
        <time>2018-04-18T13:23:49Z</time>
      </trkpt>
      <trkpt lat="48.71233" lon="2.46954">
        <ele>88.3569</ele>
        <time>2018-04-18T13:23:51Z</time>
      </trkpt>
      <trkpt lat="48.71235" lon="2.4696">
        <ele>88.3169</ele>
        <time>2018-04-18T13:23:54Z</time>
      </trkpt>
      <trkpt lat="48.71235" lon="2.46968">
        <ele>88.2638</ele>
        <time>2018-04-18T13:23:58Z</time>
      </trkpt>
      <trkpt lat="48.71235" lon="2.46972">
        <ele>88.2254</ele>
        <time>2018-04-18T13:24:01Z</time>
      </trkpt>
      <trkpt lat="48.71237" lon="2.4698">
        <ele>88.1764</ele>
        <time>2018-04-18T13:24:05Z</time>
      </trkpt>
      <trkpt lat="48.71237" lon="2.46984">
        <ele>88.1418</ele>
        <time>2018-04-18T13:24:08Z</time>
      </trkpt>
      <trkpt lat="48.7124" lon="2.46989">
        <ele>88.0886</ele>
        <time>2018-04-18T13:24:13Z</time>
      </trkpt>
      <trkpt lat="48.71242" lon="2.46993">
        <ele>88.069</ele>
        <time>2018-04-18T13:24:15Z</time>
      </trkpt>
      <trkpt lat="48.71244" lon="2.46999">
        <ele>88.0309</ele>
        <time>2018-04-18T13:24:19Z</time>
      </trkpt>
      <trkpt lat="48.71245" lon="2.47003">
        <ele>88.0131</ele>
        <time>2018-04-18T13:24:21Z</time>
      </trkpt>
      <trkpt lat="48.71246" lon="2.47007">
        <ele>87.9875</ele>
        <time>2018-04-18T13:24:24Z</time>
      </trkpt>
      <trkpt lat="48.71248" lon="2.47009">
        <ele>87.9677</ele>
        <time>2018-04-18T13:24:33Z</time>
      </trkpt>
      <trkpt lat="48.71251" lon="2.47014">
        <ele>87.9396</ele>
        <time>2018-04-18T13:24:39Z</time>
      </trkpt>
      <trkpt lat="48.71255" lon="2.4702">
        <ele>87.9305</ele>
        <time>2018-04-18T13:24:42Z</time>
      </trkpt>
      <trkpt lat="48.71257" lon="2.47024">
        <ele>87.9231</ele>
        <time>2018-04-18T13:24:45Z</time>
      </trkpt>
      <trkpt lat="48.71258" lon="2.47027">
        <ele>87.918</ele>
        <time>2018-04-18T13:24:47Z</time>
      </trkpt>
      <trkpt lat="48.7126" lon="2.4703">
        <ele>87.9127</ele>
        <time>2018-04-18T13:24:49Z</time>
      </trkpt>
      <trkpt lat="48.71261" lon="2.47033">
        <ele>87.907</ele>
        <time>2018-04-18T13:24:51Z</time>
      </trkpt>
      <trkpt lat="48.71263" lon="2.4704">
        <ele>87.8935</ele>
        <time>2018-04-18T13:24:56Z</time>
      </trkpt>
      <trkpt lat="48.71264" lon="2.47043">
        <ele>87.8883</ele>
        <time>2018-04-18T13:24:58Z</time>
      </trkpt>
      <trkpt lat="48.71264" lon="2.47047">
        <ele>87.8829</ele>
        <time>2018-04-18T13:25:00Z</time>
      </trkpt>
      <trkpt lat="48.71265" lon="2.47052">
        <ele>87.8741</ele>
        <time>2018-04-18T13:25:03Z</time>
      </trkpt>
      <trkpt lat="48.71266" lon="2.47056">
        <ele>87.8644</ele>
        <time>2018-04-18T13:25:06Z</time>
      </trkpt>
      <trkpt lat="48.71268" lon="2.47063">
        <ele>87.8525</ele>
        <time>2018-04-18T13:25:09Z</time>
      </trkpt>
      <trkpt lat="48.7127" lon="2.47067">
        <ele>87.843</ele>
        <time>2018-04-18T13:25:11Z</time>
      </trkpt>
      <trkpt lat="48.71272" lon="2.47075">
        <ele>87.8225</ele>
        <time>2018-04-18T13:25:15Z</time>
      </trkpt>
      <trkpt lat="48.71273" lon="2.47079">
        <ele>87.8122</ele>
        <time>2018-04-18T13:25:17Z</time>
      </trkpt>
      <trkpt lat="48.71274" lon="2.47084">
        <ele>87.7975</ele>
        <time>2018-04-18T13:25:20Z</time>
      </trkpt>
      <trkpt lat="48.71276" lon="2.47092">
        <ele>87.7847</ele>
        <time>2018-04-18T13:25:23Z</time>
      </trkpt>
      <trkpt lat="48.71277" lon="2.47097">
        <ele>87.7776</ele>
        <time>2018-04-18T13:25:25Z</time>
      </trkpt>
      <trkpt lat="48.71278" lon="2.47104">
        <ele>87.7619</ele>
        <time>2018-04-18T13:25:31Z</time>
      </trkpt>
      <trkpt lat="48.71279" lon="2.47108">
        <ele>87.7538</ele>
        <time>2018-04-18T13:25:34Z</time>
      </trkpt>
      <trkpt lat="48.7128" lon="2.47113">
        <ele>87.7455</ele>
        <time>2018-04-18T13:25:37Z</time>
      </trkpt>
      <trkpt lat="48.7128" lon="2.47119">
        <ele>87.7351</ele>
        <time>2018-04-18T13:25:41Z</time>
      </trkpt>
      <trkpt lat="48.71282" lon="2.47125">
        <ele>87.7255</ele>
        <time>2018-04-18T13:25:45Z</time>
      </trkpt>
      <trkpt lat="48.71283" lon="2.47133">
        <ele>87.7148</ele>
        <time>2018-04-18T13:25:49Z</time>
      </trkpt>
      <trkpt lat="48.71286" lon="2.47139">
        <ele>87.7067</ele>
        <time>2018-04-18T13:25:52Z</time>
      </trkpt>
      <trkpt lat="48.71288" lon="2.47146">
        <ele>87.6954</ele>
        <time>2018-04-18T13:25:56Z</time>
      </trkpt>
      <trkpt lat="48.71289" lon="2.47149">
        <ele>87.6866</ele>
        <time>2018-04-18T13:25:59Z</time>
      </trkpt>
      <trkpt lat="48.7129" lon="2.47154">
        <ele>87.6768</ele>
        <time>2018-04-18T13:26:03Z</time>
      </trkpt>
      <trkpt lat="48.71293" lon="2.47161">
        <ele>87.6701</ele>
        <time>2018-04-18T13:26:06Z</time>
      </trkpt>
      <trkpt lat="48.71296" lon="2.47167">
        <ele>87.6617</ele>
        <time>2018-04-18T13:26:09Z</time>
      </trkpt>
      <trkpt lat="48.71299" lon="2.47172">
        <ele>87.6487</ele>
        <time>2018-04-18T13:26:13Z</time>
      </trkpt>
      <trkpt lat="48.71302" lon="2.47178">
        <ele>87.6326</ele>
        <time>2018-04-18T13:26:17Z</time>
      </trkpt>
      <trkpt lat="48.71304" lon="2.47185">
        <ele>87.6024</ele>
        <time>2018-04-18T13:26:22Z</time>
      </trkpt>
      <trkpt lat="48.71305" lon="2.47189">
        <ele>87.5867</ele>
        <time>2018-04-18T13:26:24Z</time>
      </trkpt>
      <trkpt lat="48.71306" lon="2.47194">
        <ele>87.5611</ele>
        <time>2018-04-18T13:26:27Z</time>
      </trkpt>
      <trkpt lat="48.7131" lon="2.472">
        <ele>87.523</ele>
        <time>2018-04-18T13:26:32Z</time>
      </trkpt>
      <trkpt lat="48.71312" lon="2.47207">
        <ele>87.5012</ele>
        <time>2018-04-18T13:26:35Z</time>
      </trkpt>
      <trkpt lat="48.71314" lon="2.47215">
        <ele>87.4712</ele>
        <time>2018-04-18T13:26:40Z</time>
      </trkpt>
      <trkpt lat="48.71315" lon="2.47218">
        <ele>87.4446</ele>
        <time>2018-04-18T13:26:44Z</time>
      </trkpt>
      <trkpt lat="48.71318" lon="2.47226">
        <ele>87.4136</ele>
        <time>2018-04-18T13:26:49Z</time>
      </trkpt>
      <trkpt lat="48.71321" lon="2.47231">
        <ele>87.3866</ele>
        <time>2018-04-18T13:26:53Z</time>
      </trkpt>
      <trkpt lat="48.71325" lon="2.47235">
        <ele>87.3447</ele>
        <time>2018-04-18T13:26:58Z</time>
      </trkpt>
      <trkpt lat="48.71327" lon="2.47241">
        <ele>87.2783</ele>
        <time>2018-04-18T13:27:05Z</time>
      </trkpt>
      <trkpt lat="48.71329" lon="2.47244">
        <ele>87.2588</ele>
        <time>2018-04-18T13:27:07Z</time>
      </trkpt>
      <trkpt lat="48.71333" lon="2.47249">
        <ele>87.2116</ele>
        <time>2018-04-18T13:27:12Z</time>
      </trkpt>
      <trkpt lat="48.71335" lon="2.47258">
        <ele>87.1592</ele>
        <time>2018-04-18T13:27:18Z</time>
      </trkpt>
      <trkpt lat="48.71335" lon="2.47266">
        <ele>87.1271</ele>
        <time>2018-04-18T13:27:22Z</time>
      </trkpt>
      <trkpt lat="48.71335" lon="2.47271">
        <ele>87.099</ele>
        <time>2018-04-18T13:27:26Z</time>
      </trkpt>
      <trkpt lat="48.71335" lon="2.47276">
        <ele>87.0766</ele>
        <time>2018-04-18T13:27:30Z</time>
      </trkpt>
      <trkpt lat="48.71334" lon="2.47286">
        <ele>87.0517</ele>
        <time>2018-04-18T13:27:33Z</time>
      </trkpt>
      <trkpt lat="48.71333" lon="2.47294">
        <ele>87.0243</ele>
        <time>2018-04-18T13:27:36Z</time>
      </trkpt>
      <trkpt lat="48.71334" lon="2.47302">
        <ele>86.9965</ele>
        <time>2018-04-18T13:27:39Z</time>
      </trkpt>
      <trkpt lat="48.71335" lon="2.47309">
        <ele>86.9607</ele>
        <time>2018-04-18T13:27:43Z</time>
      </trkpt>
      <trkpt lat="48.71336" lon="2.47315">
        <ele>86.9262</ele>
        <time>2018-04-18T13:27:47Z</time>
      </trkpt>
      <trkpt lat="48.71337" lon="2.47319">
        <ele>86.9091</ele>
        <time>2018-04-18T13:27:49Z</time>
      </trkpt>
      <trkpt lat="48.7134" lon="2.47325">
        <ele>86.8753</ele>
        <time>2018-04-18T13:27:53Z</time>
      </trkpt>
      <trkpt lat="48.71342" lon="2.47329">
        <ele>86.8339</ele>
        <time>2018-04-18T13:27:58Z</time>
      </trkpt>
      <trkpt lat="48.71345" lon="2.47337">
        <ele>86.7993</ele>
        <time>2018-04-18T13:28:02Z</time>
      </trkpt>
      <trkpt lat="48.71346" lon="2.47342">
        <ele>86.7776</ele>
        <time>2018-04-18T13:28:04Z</time>
      </trkpt>
      <trkpt lat="48.71347" lon="2.47348">
        <ele>86.7193</ele>
        <time>2018-04-18T13:28:10Z</time>
      </trkpt>
      <trkpt lat="48.7135" lon="2.47355">
        <ele>86.6717</ele>
        <time>2018-04-18T13:28:13Z</time>
      </trkpt>
      <trkpt lat="48.71356" lon="2.47366">
        <ele>86.6182</ele>
        <time>2018-04-18T13:28:16Z</time>
      </trkpt>
      <trkpt lat="48.71358" lon="2.47369">
        <ele>86.5993</ele>
        <time>2018-04-18T13:28:17Z</time>
      </trkpt>
      <trkpt lat="48.71361" lon="2.47375">
        <ele>86.5398</ele>
        <time>2018-04-18T13:28:20Z</time>
      </trkpt>
      <trkpt lat="48.71364" lon="2.47379">
        <ele>86.4535</ele>
        <time>2018-04-18T13:28:24Z</time>
      </trkpt>
      <trkpt lat="48.71367" lon="2.47382">
        <ele>86.3811</ele>
        <time>2018-04-18T13:28:27Z</time>
      </trkpt>
      <trkpt lat="48.71369" lon="2.47385">
        <ele>86.3301</ele>
        <time>2018-04-18T13:28:29Z</time>
      </trkpt>
      <trkpt lat="48.71371" lon="2.47387">
        <ele>86.2277</ele>
        <time>2018-04-18T13:28:33Z</time>
      </trkpt>
      <trkpt lat="48.71373" lon="2.47389">
        <ele>86.1318</ele>
        <time>2018-04-18T13:28:37Z</time>
      </trkpt>
      <trkpt lat="48.71377" lon="2.47393">
        <ele>86.0059</ele>
        <time>2018-04-18T13:28:43Z</time>
      </trkpt>
      <trkpt lat="48.71381" lon="2.47397">
        <ele>85.9349</ele>
        <time>2018-04-18T13:28:47Z</time>
      </trkpt>
      <trkpt lat="48.71385" lon="2.474">
        <ele>85.9021</ele>
        <time>2018-04-18T13:28:49Z</time>
      </trkpt>
      <trkpt lat="48.71389" lon="2.47406">
        <ele>85.8098</ele>
        <time>2018-04-18T13:28:55Z</time>
      </trkpt>
      <trkpt lat="48.71393" lon="2.47408">
        <ele>85.7299</ele>
        <time>2018-04-18T13:29:01Z</time>
      </trkpt>
      <trkpt lat="48.71396" lon="2.47409">
        <ele>85.6956</ele>
        <time>2018-04-18T13:29:04Z</time>
      </trkpt>
      <trkpt lat="48.71401" lon="2.47414">
        <ele>85.6558</ele>
        <time>2018-04-18T13:29:08Z</time>
      </trkpt>
      <trkpt lat="48.71405" lon="2.47421">
        <ele>85.6276</ele>
        <time>2018-04-18T13:29:11Z</time>
      </trkpt>
      <trkpt lat="48.71406" lon="2.47423">
        <ele>85.6182</ele>
        <time>2018-04-18T13:29:12Z</time>
      </trkpt>
      <trkpt lat="48.71409" lon="2.47427">
        <ele>85.5987</ele>
        <time>2018-04-18T13:29:14Z</time>
      </trkpt>
      <trkpt lat="48.71413" lon="2.47431">
        <ele>85.538</ele>
        <time>2018-04-18T13:29:20Z</time>
      </trkpt>
      <trkpt lat="48.71417" lon="2.47435">
        <ele>85.4648</ele>
        <time>2018-04-18T13:29:30Z</time>
      </trkpt>
      <trkpt lat="48.71422" lon="2.47442">
        <ele>85.4281</ele>
        <time>2018-04-18T13:29:34Z</time>
      </trkpt>
      <trkpt lat="48.71425" lon="2.47449">
        <ele>85.4032</ele>
        <time>2018-04-18T13:29:37Z</time>
      </trkpt>
      <trkpt lat="48.71427" lon="2.47455">
        <ele>85.3875</ele>
        <time>2018-04-18T13:29:39Z</time>
      </trkpt>
      <trkpt lat="48.71431" lon="2.47461">
        <ele>85.358</ele>
        <time>2018-04-18T13:29:43Z</time>
      </trkpt>
      <trkpt lat="48.71433" lon="2.47465">
        <ele>85.3316</ele>
        <time>2018-04-18T13:29:47Z</time>
      </trkpt>
      <trkpt lat="48.71435" lon="2.47471">
        <ele>85.3066</ele>
        <time>2018-04-18T13:29:51Z</time>
      </trkpt>
      <trkpt lat="48.71437" lon="2.47476">
        <ele>85.2876</ele>
        <time>2018-04-18T13:29:54Z</time>
      </trkpt>
      <trkpt lat="48.7144" lon="2.47481">
        <ele>85.2661</ele>
        <time>2018-04-18T13:29:57Z</time>
      </trkpt>
      <trkpt lat="48.71442" lon="2.47487">
        <ele>85.22</ele>
        <time>2018-04-18T13:30:02Z</time>
      </trkpt>
      <trkpt lat="48.71446" lon="2.47493">
        <ele>85.1719</ele>
        <time>2018-04-18T13:30:07Z</time>
      </trkpt>
      <trkpt lat="48.71449" lon="2.47499">
        <ele>85.1311</ele>
        <time>2018-04-18T13:30:12Z</time>
      </trkpt>
      <trkpt lat="48.7145" lon="2.47503">
        <ele>85.106</ele>
        <time>2018-04-18T13:30:16Z</time>
      </trkpt>
      <trkpt lat="48.71452" lon="2.47509">
        <ele>85.0846</ele>
        <time>2018-04-18T13:30:20Z</time>
      </trkpt>
      <trkpt lat="48.71452" lon="2.47514">
        <ele>85.0686</ele>
        <time>2018-04-18T13:30:24Z</time>
      </trkpt>
      <trkpt lat="48.71455" lon="2.47521">
        <ele>85.0565</ele>
        <time>2018-04-18T13:30:28Z</time>
      </trkpt>
      <trkpt lat="48.71458" lon="2.4753">
        <ele>85.0495</ele>
        <time>2018-04-18T13:30:31Z</time>
      </trkpt>
      <trkpt lat="48.7146" lon="2.47539">
        <ele>85.0405</ele>
        <time>2018-04-18T13:30:35Z</time>
      </trkpt>
      <trkpt lat="48.71462" lon="2.47547">
        <ele>85.0299</ele>
        <time>2018-04-18T13:30:38Z</time>
      </trkpt>
      <trkpt lat="48.71463" lon="2.47551">
        <ele>85.02</ele>
        <time>2018-04-18T13:30:40Z</time>
      </trkpt>
      <trkpt lat="48.71466" lon="2.47557">
        <ele>84.9961</ele>
        <time>2018-04-18T13:30:44Z</time>
      </trkpt>
      <trkpt lat="48.71469" lon="2.47561">
        <ele>84.963</ele>
        <time>2018-04-18T13:30:49Z</time>
      </trkpt>
      <trkpt lat="48.71471" lon="2.47564">
        <ele>84.935</ele>
        <time>2018-04-18T13:30:53Z</time>
      </trkpt>
      <trkpt lat="48.71475" lon="2.47573">
        <ele>84.8883</ele>
        <time>2018-04-18T13:31:00Z</time>
      </trkpt>
      <trkpt lat="48.71476" lon="2.47577">
        <ele>84.8752</ele>
        <time>2018-04-18T13:31:02Z</time>
      </trkpt>
      <trkpt lat="48.71478" lon="2.47584">
        <ele>84.8454</ele>
        <time>2018-04-18T13:31:07Z</time>
      </trkpt>
      <trkpt lat="48.7148" lon="2.47588">
        <ele>84.8298</ele>
        <time>2018-04-18T13:31:10Z</time>
      </trkpt>
      <trkpt lat="48.71481" lon="2.47592">
        <ele>84.81</ele>
        <time>2018-04-18T13:31:16Z</time>
      </trkpt>
      <trkpt lat="48.71481" lon="2.476">
        <ele>84.7849</ele>
        <time>2018-04-18T13:31:23Z</time>
      </trkpt>
      <trkpt lat="48.71483" lon="2.47612">
        <ele>84.7708</ele>
        <time>2018-04-18T13:31:26Z</time>
      </trkpt>
      <trkpt lat="48.71484" lon="2.4762">
        <ele>84.7579</ele>
        <time>2018-04-18T13:31:29Z</time>
      </trkpt>
      <trkpt lat="48.71486" lon="2.47625">
        <ele>84.7366</ele>
        <time>2018-04-18T13:31:34Z</time>
      </trkpt>
      <trkpt lat="48.71486" lon="2.47632">
        <ele>84.7168</ele>
        <time>2018-04-18T13:31:39Z</time>
      </trkpt>
      <trkpt lat="48.71487" lon="2.4764">
        <ele>84.6977</ele>
        <time>2018-04-18T13:31:44Z</time>
      </trkpt>
      <trkpt lat="48.71487" lon="2.47646">
        <ele>84.6838</ele>
        <time>2018-04-18T13:31:48Z</time>
      </trkpt>
      <trkpt lat="48.71487" lon="2.47652">
        <ele>84.6699</ele>
        <time>2018-04-18T13:31:53Z</time>
      </trkpt>
      <trkpt lat="48.71486" lon="2.47656">
        <ele>84.665</ele>
        <time>2018-04-18T13:31:55Z</time>
      </trkpt>
      <trkpt lat="48.71486" lon="2.4766">
        <ele>84.6578</ele>
        <time>2018-04-18T13:31:58Z</time>
      </trkpt>
      <trkpt lat="48.71487" lon="2.47668">
        <ele>84.6499</ele>
        <time>2018-04-18T13:32:01Z</time>
      </trkpt>
      <trkpt lat="48.71487" lon="2.47673">
        <ele>84.6434</ele>
        <time>2018-04-18T13:32:03Z</time>
      </trkpt>
      <trkpt lat="48.71486" lon="2.4768">
        <ele>84.6264</ele>
        <time>2018-04-18T13:32:08Z</time>
      </trkpt>
      <trkpt lat="48.71486" lon="2.47684">
        <ele>84.6113</ele>
        <time>2018-04-18T13:32:12Z</time>
      </trkpt>
      <trkpt lat="48.71485" lon="2.4769">
        <ele>84.5959</ele>
        <time>2018-04-18T13:32:16Z</time>
      </trkpt>
      <trkpt lat="48.71486" lon="2.47697">
        <ele>84.5772</ele>
        <time>2018-04-18T13:32:21Z</time>
      </trkpt>
      <trkpt lat="48.71487" lon="2.47704">
        <ele>84.5605</ele>
        <time>2018-04-18T13:32:25Z</time>
      </trkpt>
      <trkpt lat="48.71488" lon="2.4771">
        <ele>84.5521</ele>
        <time>2018-04-18T13:32:27Z</time>
      </trkpt>
      <trkpt lat="48.71489" lon="2.47716">
        <ele>84.5438</ele>
        <time>2018-04-18T13:32:29Z</time>
      </trkpt>
      <trkpt lat="48.71488" lon="2.47723">
        <ele>84.5263</ele>
        <time>2018-04-18T13:32:33Z</time>
      </trkpt>
      <trkpt lat="48.71487" lon="2.47728">
        <ele>84.5077</ele>
        <time>2018-04-18T13:32:37Z</time>
      </trkpt>
      <trkpt lat="48.71488" lon="2.47735">
        <ele>84.4682</ele>
        <time>2018-04-18T13:32:45Z</time>
      </trkpt>
      <trkpt lat="48.71487" lon="2.47739">
        <ele>84.4572</ele>
        <time>2018-04-18T13:32:47Z</time>
      </trkpt>
      <trkpt lat="48.71486" lon="2.47747">
        <ele>84.4309</ele>
        <time>2018-04-18T13:32:52Z</time>
      </trkpt>
      <trkpt lat="48.71487" lon="2.47755">
        <ele>84.4146</ele>
        <time>2018-04-18T13:32:55Z</time>
      </trkpt>
      <trkpt lat="48.71488" lon="2.47762">
        <ele>84.3935</ele>
        <time>2018-04-18T13:32:59Z</time>
      </trkpt>
      <trkpt lat="48.71488" lon="2.47767">
        <ele>84.3834</ele>
        <time>2018-04-18T13:33:01Z</time>
      </trkpt>
      <trkpt lat="48.71489" lon="2.47777">
        <ele>84.3631</ele>
        <time>2018-04-18T13:33:05Z</time>
      </trkpt>
      <trkpt lat="48.7149" lon="2.47784">
        <ele>84.357</ele>
        <time>2018-04-18T13:33:06Z</time>
      </trkpt>
      <trkpt lat="48.71493" lon="2.47792">
        <ele>84.3442</ele>
        <time>2018-04-18T13:33:08Z</time>
      </trkpt>
      <trkpt lat="48.71495" lon="2.47801">
        <ele>84.3172</ele>
        <time>2018-04-18T13:33:12Z</time>
      </trkpt>
      <trkpt lat="48.71497" lon="2.47808">
        <ele>84.292</ele>
        <time>2018-04-18T13:33:16Z</time>
      </trkpt>
      <trkpt lat="48.71501" lon="2.47814">
        <ele>84.2702</ele>
        <time>2018-04-18T13:33:20Z</time>
      </trkpt>
      <trkpt lat="48.71503" lon="2.47822">
        <ele>84.256</ele>
        <time>2018-04-18T13:33:24Z</time>
      </trkpt>
      <trkpt lat="48.71503" lon="2.4783">
        <ele>84.2604</ele>
        <time>2018-04-18T13:33:29Z</time>
      </trkpt>
      <trkpt lat="48.71505" lon="2.47837">
        <ele>84.2805</ele>
        <time>2018-04-18T13:33:33Z</time>
      </trkpt>
      <trkpt lat="48.71507" lon="2.47841">
        <ele>84.2967</ele>
        <time>2018-04-18T13:33:36Z</time>
      </trkpt>
      <trkpt lat="48.71508" lon="2.47849">
        <ele>84.3294</ele>
        <time>2018-04-18T13:33:41Z</time>
      </trkpt>
      <trkpt lat="48.7151" lon="2.47853">
        <ele>84.381</ele>
        <time>2018-04-18T13:33:49Z</time>
      </trkpt>
      <trkpt lat="48.7151" lon="2.47853">
        <ele>37.1</ele>
        <time>2018-04-18T13:34:22Z</time>
      </trkpt>
      <trkpt lat="48.7151" lon="2.47853">
        <ele>37.1</ele>
        <time>2018-04-18T13:34:23Z</time>
      </trkpt>
    </trkseg>
  </trk>
</gpx>